<?xml version="1.0" encoding="UTF-8"?>
<gpx version="1.1" creator="https://www.youtrack.es" xsi:schemaLocation="http://www.topografix.com/GPX/1/1 http://www.topografix.com/GPX/1/1/gpx.xsd http://www.garmin.com/xmlschemas/GpxExtensions/v3 http://www.garmin.com/xmlschemas/GpxExtensionsv3.xsd http://www.garmin.com/xmlschemas/TrackPointExtension/v1 http://www.garmin.com/xmlschemas/TrackPointExtensionv1.xsd" xmlns:gpxtpx="http://www.garmin.com/xmlschemas/TrackPointExtension/v1" xmlns:gpxx="http://www.garmin.com/xmlschemas/GpxExtensions/v3" xmlns:xsi="http://www.w3.org/2001/XMLSchema-instance">
  <metadata>
    <author>
      <name>Efe de Fernando</name>
      <email id="efedelcampo" domain="gmail.com"/>
    </author>
    <link href="https://www.youtrack.es">
      <text>YouTrack.es</text>
    </link>
    <time>2026-05-08T00:20:47Z</time>
  </metadata>
  <trk>
    <src>https://www.youtrack.es</src>
    <link href="https://www.youtrack.es/ruta/13515-ruton-montanejos">
      <text>YouTrack.es</text>
    </link>
    <trkseg>
      <trkpt lat="40.06823301315" lon="-0.52363157272">
        <ele>477.50866699219</ele>
        <time>2020-06-14T21:51:01.000Z</time>
      </trkpt>
      <trkpt lat="40.06823309697" lon="-0.52363157272">
        <ele>477.50775146484</ele>
        <time>2020-06-14T21:51:01.000Z</time>
      </trkpt>
      <trkpt lat="40.06825455464" lon="-0.52379250526">
        <ele>479.78619384766</ele>
        <time>2020-06-14T21:51:01.003Z</time>
      </trkpt>
      <trkpt lat="40.06828674115" lon="-0.52395343781">
        <ele>481.80877685547</ele>
        <time>2020-06-14T21:51:01.008Z</time>
      </trkpt>
      <trkpt lat="40.06836175919" lon="-0.52397489548">
        <ele>481.30767822266</ele>
        <time>2020-06-14T21:51:01.015Z</time>
      </trkpt>
      <trkpt lat="40.06844767369" lon="-0.52403926849">
        <ele>481.30676269531</ele>
        <time>2020-06-14T21:51:01.024Z</time>
      </trkpt>
      <trkpt lat="40.06854423322" lon="-0.52408218384">
        <ele>481.08276367188</ele>
        <time>2020-06-14T21:51:01.035Z</time>
      </trkpt>
      <trkpt lat="40.06884455681" lon="-0.52421092987">
        <ele>482.2854309082</ele>
        <time>2020-06-14T21:51:01.052Z</time>
      </trkpt>
      <trkpt lat="40.06922006607" lon="-0.52420020103">
        <ele>478.44943237305</ele>
        <time>2020-06-14T21:51:01.076Z</time>
      </trkpt>
      <trkpt lat="40.06941318512" lon="-0.52429676056">
        <ele>476.34677124023</ele>
        <time>2020-06-14T21:51:01.105Z</time>
      </trkpt>
      <trkpt lat="40.06990671158" lon="-0.52474737167">
        <ele>474.1520690918</ele>
        <time>2020-06-14T21:51:01.146Z</time>
      </trkpt>
      <trkpt lat="40.07017493248" lon="-0.52481174469">
        <ele>470.79235839844</ele>
        <time>2020-06-14T21:51:01.192Z</time>
      </trkpt>
      <trkpt lat="40.07059344091" lon="-0.52515506744">
        <ele>468.78283691406</ele>
        <time>2020-06-14T21:51:01.248Z</time>
      </trkpt>
      <trkpt lat="40.07059335709" lon="-0.52515506744">
        <ele>468.78375244141</ele>
        <time>2020-06-14T21:51:01.304Z</time>
      </trkpt>
      <trkpt lat="40.07073283195" lon="-0.52533745766">
        <ele>467.97198486328</ele>
        <time>2020-06-14T21:51:01.364Z</time>
      </trkpt>
      <trkpt lat="40.07104405202" lon="-0.52613139153">
        <ele>462.18209838867</ele>
        <time>2020-06-14T21:51:01.438Z</time>
      </trkpt>
      <trkpt lat="40.0710439682" lon="-0.52613139153">
        <ele>462.18350219727</ele>
        <time>2020-06-14T21:51:01.512Z</time>
      </trkpt>
      <trkpt lat="40.0713121891" lon="-0.52631378174">
        <ele>460.07659912109</ele>
        <time>2020-06-14T21:51:01.592Z</time>
      </trkpt>
      <trkpt lat="40.07199891843" lon="-0.52663564682">
        <ele>464.17352294922</ele>
        <time>2020-06-14T21:51:01.686Z</time>
      </trkpt>
      <trkpt lat="40.07210606349" lon="-0.5267176189">
        <ele>464.31494140625</ele>
        <time>2020-06-14T21:51:01.783Z</time>
      </trkpt>
      <trkpt lat="40.07210613894" lon="-0.52671767663">
        <ele>464.31536865234</ele>
        <time>2020-06-14T21:51:01.880Z</time>
      </trkpt>
      <trkpt lat="40.07210622123" lon="-0.52671773958">
        <ele>464.31585693359</ele>
        <time>2020-06-14T21:51:01.977Z</time>
      </trkpt>
      <trkpt lat="40.07210620679" lon="-0.52671770565">
        <ele>464.31536865234</ele>
        <time>2020-06-14T21:51:02.074Z</time>
      </trkpt>
      <trkpt lat="40.07210612297" lon="-0.52671762183">
        <ele>464.31457519531</ele>
        <time>2020-06-14T21:51:02.171Z</time>
      </trkpt>
      <trkpt lat="40.0721149916" lon="-0.52672443754">
        <ele>464.36520385742</ele>
        <time>2020-06-14T21:51:02.268Z</time>
      </trkpt>
      <trkpt lat="40.07211499779" lon="-0.52672444229">
        <ele>464.36526489258</ele>
        <time>2020-06-14T21:51:02.365Z</time>
      </trkpt>
      <trkpt lat="40.07211517543" lon="-0.52672457881">
        <ele>464.36627197266</ele>
        <time>2020-06-14T21:51:02.462Z</time>
      </trkpt>
      <trkpt lat="40.07211525925" lon="-0.52672466263">
        <ele>464.36706542969</ele>
        <time>2020-06-14T21:51:02.559Z</time>
      </trkpt>
      <trkpt lat="40.07218122482" lon="-0.52677512169">
        <ele>464.73977661133</ele>
        <time>2020-06-14T21:51:02.657Z</time>
      </trkpt>
      <trkpt lat="40.07222188567" lon="-0.52669279807">
        <ele>463.06423950195</ele>
        <time>2020-06-14T21:51:02.757Z</time>
      </trkpt>
      <trkpt lat="40.07222204469" lon="-0.52669247612">
        <ele>463.05770874023</ele>
        <time>2020-06-14T21:51:02.857Z</time>
      </trkpt>
      <trkpt lat="40.07218610875" lon="-0.52666224711">
        <ele>462.80862426758</ele>
        <time>2020-06-14T21:51:02.958Z</time>
      </trkpt>
      <trkpt lat="40.072196" lon="-0.526656">
        <ele>462.63250732422</ele>
        <time>2020-06-14T21:51:03.059Z</time>
      </trkpt>
      <trkpt lat="40.072214" lon="-0.526641">
        <ele>462.25094604492</ele>
        <time>2020-06-14T21:51:03.160Z</time>
      </trkpt>
      <trkpt lat="40.072397" lon="-0.526298">
        <ele>456.86514282227</ele>
        <time>2020-06-14T21:51:03.268Z</time>
      </trkpt>
      <trkpt lat="40.072587" lon="-0.525812">
        <ele>467.71676635742</ele>
        <time>2020-06-14T21:51:03.384Z</time>
      </trkpt>
      <trkpt lat="40.072421" lon="-0.525438">
        <ele>469.85391235352</ele>
        <time>2020-06-14T21:51:03.507Z</time>
      </trkpt>
      <trkpt lat="40.072436" lon="-0.524838">
        <ele>480.3020324707</ele>
        <time>2020-06-14T21:51:03.639Z</time>
      </trkpt>
      <trkpt lat="40.072531" lon="-0.524288">
        <ele>490.7336730957</ele>
        <time>2020-06-14T21:51:03.780Z</time>
      </trkpt>
      <trkpt lat="40.072588" lon="-0.52367">
        <ele>496.17828369141</ele>
        <time>2020-06-14T21:51:03.930Z</time>
      </trkpt>
      <trkpt lat="40.072373" lon="-0.523279">
        <ele>491.99645996094</ele>
        <time>2020-06-14T21:51:04.088Z</time>
      </trkpt>
      <trkpt lat="40.071974" lon="-0.522992">
        <ele>482.56307983398</ele>
        <time>2020-06-14T21:51:04.255Z</time>
      </trkpt>
      <trkpt lat="40.071783" lon="-0.522597">
        <ele>485.07305908203</ele>
        <time>2020-06-14T21:51:04.429Z</time>
      </trkpt>
      <trkpt lat="40.071761" lon="-0.522447">
        <ele>487.0485534668</ele>
        <time>2020-06-14T21:51:04.605Z</time>
      </trkpt>
      <trkpt lat="40.071656" lon="-0.522014">
        <ele>491.59561157227</ele>
        <time>2020-06-14T21:51:04.788Z</time>
      </trkpt>
      <trkpt lat="40.071632" lon="-0.521797">
        <ele>494.68627929688</ele>
        <time>2020-06-14T21:51:04.975Z</time>
      </trkpt>
      <trkpt lat="40.071642" lon="-0.521768">
        <ele>495.35577392578</ele>
        <time>2020-06-14T21:51:05.162Z</time>
      </trkpt>
      <trkpt lat="40.071672" lon="-0.521725">
        <ele>496.7307434082</ele>
        <time>2020-06-14T21:51:05.350Z</time>
      </trkpt>
      <trkpt lat="40.071689" lon="-0.521723">
        <ele>497.18786621094</ele>
        <time>2020-06-14T21:51:05.538Z</time>
      </trkpt>
      <trkpt lat="40.0717" lon="-0.521733">
        <ele>497.3186340332</ele>
        <time>2020-06-14T21:51:05.727Z</time>
      </trkpt>
      <trkpt lat="40.071713" lon="-0.52175">
        <ele>497.32943725586</ele>
        <time>2020-06-14T21:51:05.916Z</time>
      </trkpt>
      <trkpt lat="40.071724" lon="-0.521769">
        <ele>497.26104736328</ele>
        <time>2020-06-14T21:51:06.105Z</time>
      </trkpt>
      <trkpt lat="40.071733" lon="-0.521792">
        <ele>497.07989501953</ele>
        <time>2020-06-14T21:51:06.295Z</time>
      </trkpt>
      <trkpt lat="40.071741" lon="-0.521817">
        <ele>496.84231567383</ele>
        <time>2020-06-14T21:51:06.485Z</time>
      </trkpt>
      <trkpt lat="40.071895" lon="-0.522182">
        <ele>494.23657226562</ele>
        <time>2020-06-14T21:51:06.682Z</time>
      </trkpt>
      <trkpt lat="40.072007" lon="-0.522354">
        <ele>493.99237060547</ele>
        <time>2020-06-14T21:51:06.882Z</time>
      </trkpt>
      <trkpt lat="40.072018" lon="-0.522371">
        <ele>493.94436645508</ele>
        <time>2020-06-14T21:51:07.082Z</time>
      </trkpt>
      <trkpt lat="40.072031" lon="-0.522387">
        <ele>493.95635986328</ele>
        <time>2020-06-14T21:51:07.283Z</time>
      </trkpt>
      <trkpt lat="40.072245" lon="-0.522509">
        <ele>494.55743408203</ele>
        <time>2020-06-14T21:51:07.488Z</time>
      </trkpt>
      <trkpt lat="40.072417" lon="-0.522541">
        <ele>495.46450805664</ele>
        <time>2020-06-14T21:51:07.697Z</time>
      </trkpt>
      <trkpt lat="40.072635" lon="-0.522562">
        <ele>499.06033325195</ele>
        <time>2020-06-14T21:51:07.910Z</time>
      </trkpt>
      <trkpt lat="40.072735" lon="-0.522596">
        <ele>502.22302246094</ele>
        <time>2020-06-14T21:51:08.125Z</time>
      </trkpt>
      <trkpt lat="40.07275" lon="-0.522601">
        <ele>502.69692993164</ele>
        <time>2020-06-14T21:51:08.341Z</time>
      </trkpt>
      <trkpt lat="40.072823" lon="-0.522605">
        <ele>504.90576171875</ele>
        <time>2020-06-14T21:51:08.558Z</time>
      </trkpt>
      <trkpt lat="40.072836" lon="-0.522599">
        <ele>505.26690673828</ele>
        <time>2020-06-14T21:51:08.775Z</time>
      </trkpt>
      <trkpt lat="40.072966" lon="-0.522524">
        <ele>508.05383300781</ele>
        <time>2020-06-14T21:51:08.995Z</time>
      </trkpt>
      <trkpt lat="40.073066" lon="-0.522491">
        <ele>508.85528564453</ele>
        <time>2020-06-14T21:51:09.217Z</time>
      </trkpt>
      <trkpt lat="40.073079" lon="-0.522486">
        <ele>508.95608520508</ele>
        <time>2020-06-14T21:51:09.440Z</time>
      </trkpt>
      <trkpt lat="40.073093" lon="-0.522479">
        <ele>509.05685424805</ele>
        <time>2020-06-14T21:51:09.663Z</time>
      </trkpt>
      <trkpt lat="40.073113" lon="-0.522472">
        <ele>509.21524047852</ele>
        <time>2020-06-14T21:51:09.886Z</time>
      </trkpt>
      <trkpt lat="40.073132" lon="-0.522468">
        <ele>509.37838745117</ele>
        <time>2020-06-14T21:51:10.110Z</time>
      </trkpt>
      <trkpt lat="40.07315" lon="-0.522459">
        <ele>509.50796508789</ele>
        <time>2020-06-14T21:51:10.334Z</time>
      </trkpt>
      <trkpt lat="40.073167" lon="-0.522446">
        <ele>509.60876464844</ele>
        <time>2020-06-14T21:51:10.558Z</time>
      </trkpt>
      <trkpt lat="40.073183" lon="-0.522432">
        <ele>509.69515991211</ele>
        <time>2020-06-14T21:51:10.783Z</time>
      </trkpt>
      <trkpt lat="40.073344" lon="-0.522216">
        <ele>510.20385742188</ele>
        <time>2020-06-14T21:51:11.012Z</time>
      </trkpt>
      <trkpt lat="40.073588" lon="-0.522032">
        <ele>514.80493164062</ele>
        <time>2020-06-14T21:51:11.247Z</time>
      </trkpt>
      <trkpt lat="40.073861" lon="-0.522048">
        <ele>517.49163818359</ele>
        <time>2020-06-14T21:51:11.488Z</time>
      </trkpt>
      <trkpt lat="40.0742" lon="-0.52198">
        <ele>526.15997314453</ele>
        <time>2020-06-14T21:51:11.735Z</time>
      </trkpt>
      <trkpt lat="40.074367" lon="-0.521939">
        <ele>530.61364746094</ele>
        <time>2020-06-14T21:51:11.986Z</time>
      </trkpt>
      <trkpt lat="40.074384" lon="-0.52195">
        <ele>530.97601318359</ele>
        <time>2020-06-14T21:51:12.237Z</time>
      </trkpt>
      <trkpt lat="40.074413" lon="-0.52197">
        <ele>531.58666992188</ele>
        <time>2020-06-14T21:51:12.489Z</time>
      </trkpt>
      <trkpt lat="40.074484" lon="-0.522063">
        <ele>532.81768798828</ele>
        <time>2020-06-14T21:51:12.743Z</time>
      </trkpt>
      <trkpt lat="40.074497" lon="-0.522079">
        <ele>533.04925537109</ele>
        <time>2020-06-14T21:51:12.997Z</time>
      </trkpt>
      <trkpt lat="40.074674" lon="-0.522234">
        <ele>537.59124755859</ele>
        <time>2020-06-14T21:51:13.255Z</time>
      </trkpt>
      <trkpt lat="40.074813" lon="-0.522343">
        <ele>542.23809814453</ele>
        <time>2020-06-14T21:51:13.517Z</time>
      </trkpt>
      <trkpt lat="40.074857" lon="-0.522504">
        <ele>543.10192871094</ele>
        <time>2020-06-14T21:51:13.781Z</time>
      </trkpt>
      <trkpt lat="40.074865" lon="-0.52252">
        <ele>543.32269287109</ele>
        <time>2020-06-14T21:51:14.046Z</time>
      </trkpt>
      <trkpt lat="40.074872" lon="-0.522539">
        <ele>543.49188232422</ele>
        <time>2020-06-14T21:51:14.311Z</time>
      </trkpt>
      <trkpt lat="40.074882" lon="-0.522561">
        <ele>543.75823974609</ele>
        <time>2020-06-14T21:51:14.576Z</time>
      </trkpt>
      <trkpt lat="40.074889" lon="-0.522587">
        <ele>543.89379882812</ele>
        <time>2020-06-14T21:51:14.842Z</time>
      </trkpt>
      <trkpt lat="40.074895" lon="-0.522632">
        <ele>543.90100097656</ele>
        <time>2020-06-14T21:51:15.108Z</time>
      </trkpt>
      <trkpt lat="40.074898" lon="-0.522652">
        <ele>543.91662597656</ele>
        <time>2020-06-14T21:51:15.375Z</time>
      </trkpt>
      <trkpt lat="40.075028" lon="-0.522878">
        <ele>541.04486083984</ele>
        <time>2020-06-14T21:51:15.646Z</time>
      </trkpt>
      <trkpt lat="40.075231" lon="-0.523088">
        <ele>539.98901367188</ele>
        <time>2020-06-14T21:51:15.922Z</time>
      </trkpt>
      <trkpt lat="40.075307" lon="-0.523165">
        <ele>540.29595947266</ele>
        <time>2020-06-14T21:51:16.200Z</time>
      </trkpt>
      <trkpt lat="40.075586" lon="-0.523264">
        <ele>546.12896728516</ele>
        <time>2020-06-14T21:51:16.484Z</time>
      </trkpt>
      <trkpt lat="40.075905" lon="-0.523321">
        <ele>556.16168212891</ele>
        <time>2020-06-14T21:51:16.774Z</time>
      </trkpt>
      <trkpt lat="40.07613" lon="-0.523486">
        <ele>557.12554931641</ele>
        <time>2020-06-14T21:51:17.070Z</time>
      </trkpt>
      <trkpt lat="40.076377" lon="-0.523707">
        <ele>558.37335205078</ele>
        <time>2020-06-14T21:51:17.372Z</time>
      </trkpt>
      <trkpt lat="40.076409" lon="-0.523715">
        <ele>559.26550292969</ele>
        <time>2020-06-14T21:51:17.674Z</time>
      </trkpt>
      <trkpt lat="40.076425" lon="-0.523719">
        <ele>559.69262695312</ele>
        <time>2020-06-14T21:51:17.977Z</time>
      </trkpt>
      <trkpt lat="40.076441" lon="-0.523724">
        <ele>560.09216308594</ele>
        <time>2020-06-14T21:51:18.280Z</time>
      </trkpt>
      <trkpt lat="40.076459" lon="-0.523731">
        <ele>560.50366210938</ele>
        <time>2020-06-14T21:51:18.583Z</time>
      </trkpt>
      <trkpt lat="40.076476" lon="-0.523741">
        <ele>560.798828125</ele>
        <time>2020-06-14T21:51:18.887Z</time>
      </trkpt>
      <trkpt lat="40.076491" lon="-0.523749">
        <ele>561.08197021484</ele>
        <time>2020-06-14T21:51:19.191Z</time>
      </trkpt>
      <trkpt lat="40.076507" lon="-0.523753">
        <ele>561.50909423828</ele>
        <time>2020-06-14T21:51:19.495Z</time>
      </trkpt>
      <trkpt lat="40.076638" lon="-0.523786">
        <ele>564.99932861328</ele>
        <time>2020-06-14T21:51:19.802Z</time>
      </trkpt>
      <trkpt lat="40.076878" lon="-0.523892">
        <ele>572.98577880859</ele>
        <time>2020-06-14T21:51:20.114Z</time>
      </trkpt>
      <trkpt lat="40.076992" lon="-0.524018">
        <ele>578.82604980469</ele>
        <time>2020-06-14T21:51:20.429Z</time>
      </trkpt>
      <trkpt lat="40.077098" lon="-0.524201">
        <ele>582.984375</ele>
        <time>2020-06-14T21:51:20.748Z</time>
      </trkpt>
      <trkpt lat="40.077227" lon="-0.52426">
        <ele>587.95513916016</ele>
        <time>2020-06-14T21:51:21.069Z</time>
      </trkpt>
      <trkpt lat="40.077235" lon="-0.524249">
        <ele>588.10516357422</ele>
        <time>2020-06-14T21:51:21.391Z</time>
      </trkpt>
      <trkpt lat="40.077359" lon="-0.524101">
        <ele>590.67272949219</ele>
        <time>2020-06-14T21:51:21.716Z</time>
      </trkpt>
      <trkpt lat="40.077439" lon="-0.524046">
        <ele>592.76635742188</ele>
        <time>2020-06-14T21:51:22.043Z</time>
      </trkpt>
      <trkpt lat="40.077451" lon="-0.524053">
        <ele>593.24505615234</ele>
        <time>2020-06-14T21:51:22.370Z</time>
      </trkpt>
      <trkpt lat="40.077465" lon="-0.524064">
        <ele>593.83416748047</ele>
        <time>2020-06-14T21:51:22.697Z</time>
      </trkpt>
      <trkpt lat="40.077474" lon="-0.524079">
        <ele>594.29852294922</ele>
        <time>2020-06-14T21:51:23.025Z</time>
      </trkpt>
      <trkpt lat="40.077478" lon="-0.524096">
        <ele>594.61645507812</ele>
        <time>2020-06-14T21:51:23.353Z</time>
      </trkpt>
      <trkpt lat="40.07748" lon="-0.524111">
        <ele>594.84564208984</ele>
        <time>2020-06-14T21:51:23.681Z</time>
      </trkpt>
      <trkpt lat="40.077482" lon="-0.524127">
        <ele>595.08557128906</ele>
        <time>2020-06-14T21:51:24.009Z</time>
      </trkpt>
      <trkpt lat="40.077484" lon="-0.524143">
        <ele>595.32556152344</ele>
        <time>2020-06-14T21:51:24.338Z</time>
      </trkpt>
      <trkpt lat="40.077488" lon="-0.52416">
        <ele>595.64349365234</ele>
        <time>2020-06-14T21:51:24.667Z</time>
      </trkpt>
      <trkpt lat="40.07749" lon="-0.524176">
        <ele>595.88342285156</ele>
        <time>2020-06-14T21:51:24.996Z</time>
      </trkpt>
      <trkpt lat="40.077491" lon="-0.524196">
        <ele>596.13299560547</ele>
        <time>2020-06-14T21:51:25.325Z</time>
      </trkpt>
      <trkpt lat="40.07749" lon="-0.524216">
        <ele>596.31536865234</ele>
        <time>2020-06-14T21:51:25.655Z</time>
      </trkpt>
      <trkpt lat="40.077488" lon="-0.524236">
        <ele>596.46417236328</ele>
        <time>2020-06-14T21:51:25.985Z</time>
      </trkpt>
      <trkpt lat="40.077487" lon="-0.52429">
        <ele>596.87799072266</ele>
        <time>2020-06-14T21:51:26.316Z</time>
      </trkpt>
      <trkpt lat="40.077489" lon="-0.524308">
        <ele>596.87561035156</ele>
        <time>2020-06-14T21:51:26.647Z</time>
      </trkpt>
      <trkpt lat="40.077492" lon="-0.524323">
        <ele>596.90075683594</ele>
        <time>2020-06-14T21:51:26.978Z</time>
      </trkpt>
      <trkpt lat="40.077494" lon="-0.52434">
        <ele>596.90075683594</ele>
        <time>2020-06-14T21:51:27.310Z</time>
      </trkpt>
      <trkpt lat="40.077494" lon="-0.52436">
        <ele>596.85278320312</ele>
        <time>2020-06-14T21:51:27.642Z</time>
      </trkpt>
      <trkpt lat="40.077484" lon="-0.52445">
        <ele>596.43286132812</ele>
        <time>2020-06-14T21:51:27.975Z</time>
      </trkpt>
      <trkpt lat="40.077481" lon="-0.52447">
        <ele>596.32366943359</ele>
        <time>2020-06-14T21:51:28.309Z</time>
      </trkpt>
      <trkpt lat="40.077415" lon="-0.524595">
        <ele>594.67755126953</ele>
        <time>2020-06-14T21:51:28.645Z</time>
      </trkpt>
      <trkpt lat="40.077405" lon="-0.524608">
        <ele>594.4423828125</ele>
        <time>2020-06-14T21:51:28.981Z</time>
      </trkpt>
      <trkpt lat="40.077393" lon="-0.524616">
        <ele>594.17840576172</ele>
        <time>2020-06-14T21:51:29.318Z</time>
      </trkpt>
      <trkpt lat="40.077381" lon="-0.524628">
        <ele>593.90484619141</ele>
        <time>2020-06-14T21:51:29.655Z</time>
      </trkpt>
      <trkpt lat="40.07737" lon="-0.524639">
        <ele>593.65411376953</ele>
        <time>2020-06-14T21:51:29.992Z</time>
      </trkpt>
      <trkpt lat="40.077232" lon="-0.524805">
        <ele>590.60272216797</ele>
        <time>2020-06-14T21:51:30.333Z</time>
      </trkpt>
      <trkpt lat="40.077026" lon="-0.524908">
        <ele>587.12292480469</ele>
        <time>2020-06-14T21:51:30.678Z</time>
      </trkpt>
      <trkpt lat="40.07693" lon="-0.524925">
        <ele>586.29626464844</ele>
        <time>2020-06-14T21:51:31.025Z</time>
      </trkpt>
      <trkpt lat="40.076928" lon="-0.524926">
        <ele>586.27825927734</ele>
        <time>2020-06-14T21:51:31.372Z</time>
      </trkpt>
      <trkpt lat="40.076923" lon="-0.524927">
        <ele>586.23504638672</ele>
        <time>2020-06-14T21:51:31.719Z</time>
      </trkpt>
      <trkpt lat="40.076916" lon="-0.52493">
        <ele>586.17266845703</ele>
        <time>2020-06-14T21:51:32.066Z</time>
      </trkpt>
      <trkpt lat="40.076906" lon="-0.524934">
        <ele>586.08386230469</ele>
        <time>2020-06-14T21:51:32.414Z</time>
      </trkpt>
      <trkpt lat="40.076895" lon="-0.524932">
        <ele>585.99389648438</ele>
        <time>2020-06-14T21:51:32.762Z</time>
      </trkpt>
      <trkpt lat="40.076878" lon="-0.524934">
        <ele>585.84875488281</ele>
        <time>2020-06-14T21:51:33.110Z</time>
      </trkpt>
      <trkpt lat="40.076857" lon="-0.52494">
        <ele>585.66516113281</ele>
        <time>2020-06-14T21:51:33.459Z</time>
      </trkpt>
      <trkpt lat="40.07665" lon="-0.525068">
        <ele>583.18853759766</ele>
        <time>2020-06-14T21:51:33.812Z</time>
      </trkpt>
      <trkpt lat="40.076468" lon="-0.525167">
        <ele>580.54534912109</ele>
        <time>2020-06-14T21:51:34.169Z</time>
      </trkpt>
      <trkpt lat="40.076347" lon="-0.525273">
        <ele>579.22198486328</ele>
        <time>2020-06-14T21:51:34.529Z</time>
      </trkpt>
      <trkpt lat="40.076348" lon="-0.525296">
        <ele>579.49072265625</ele>
        <time>2020-06-14T21:51:34.889Z</time>
      </trkpt>
      <trkpt lat="40.076354" lon="-0.525316">
        <ele>579.8291015625</ele>
        <time>2020-06-14T21:51:35.250Z</time>
      </trkpt>
      <trkpt lat="40.076361" lon="-0.525335">
        <ele>580.17706298828</ele>
        <time>2020-06-14T21:51:35.611Z</time>
      </trkpt>
      <trkpt lat="40.076372" lon="-0.525349">
        <ele>580.55255126953</ele>
        <time>2020-06-14T21:51:35.972Z</time>
      </trkpt>
      <trkpt lat="40.076387" lon="-0.525357">
        <ele>580.94488525391</ele>
        <time>2020-06-14T21:51:36.334Z</time>
      </trkpt>
      <trkpt lat="40.076403" lon="-0.525357">
        <ele>581.27124023438</ele>
        <time>2020-06-14T21:51:36.696Z</time>
      </trkpt>
      <trkpt lat="40.076417" lon="-0.525353">
        <ele>581.47424316406</ele>
        <time>2020-06-14T21:51:37.058Z</time>
      </trkpt>
      <trkpt lat="40.076432" lon="-0.525348">
        <ele>581.60626220703</ele>
        <time>2020-06-14T21:51:37.421Z</time>
      </trkpt>
      <trkpt lat="40.076447" lon="-0.525345">
        <ele>581.73583984375</ele>
        <time>2020-06-14T21:51:37.784Z</time>
      </trkpt>
      <trkpt lat="40.076462" lon="-0.525339">
        <ele>581.86901855469</ele>
        <time>2020-06-14T21:51:38.147Z</time>
      </trkpt>
      <trkpt lat="40.076478" lon="-0.525333">
        <ele>582.01055908203</ele>
        <time>2020-06-14T21:51:38.511Z</time>
      </trkpt>
      <trkpt lat="40.076493" lon="-0.525331">
        <ele>582.13897705078</ele>
        <time>2020-06-14T21:51:38.875Z</time>
      </trkpt>
      <trkpt lat="40.076509" lon="-0.525329">
        <ele>582.27569580078</ele>
        <time>2020-06-14T21:51:39.239Z</time>
      </trkpt>
      <trkpt lat="40.076647" lon="-0.525337">
        <ele>583.42510986328</ele>
        <time>2020-06-14T21:51:39.606Z</time>
      </trkpt>
      <trkpt lat="40.076712" lon="-0.52534">
        <ele>583.96746826172</ele>
        <time>2020-06-14T21:51:39.974Z</time>
      </trkpt>
      <trkpt lat="40.076966" lon="-0.525262">
        <ele>586.19427490234</ele>
        <time>2020-06-14T21:51:40.348Z</time>
      </trkpt>
      <trkpt lat="40.077006" lon="-0.525241">
        <ele>586.55541992188</ele>
        <time>2020-06-14T21:51:40.722Z</time>
      </trkpt>
      <trkpt lat="40.07728" lon="-0.525085">
        <ele>591.24578857422</ele>
        <time>2020-06-14T21:51:41.102Z</time>
      </trkpt>
      <trkpt lat="40.077322" lon="-0.525069">
        <ele>592.12164306641</ele>
        <time>2020-06-14T21:51:41.483Z</time>
      </trkpt>
      <trkpt lat="40.077359" lon="-0.525061">
        <ele>592.88592529297</ele>
        <time>2020-06-14T21:51:41.865Z</time>
      </trkpt>
      <trkpt lat="40.077391" lon="-0.525059">
        <ele>593.541015625</ele>
        <time>2020-06-14T21:51:42.248Z</time>
      </trkpt>
      <trkpt lat="40.077415" lon="-0.525057">
        <ele>594.03295898438</ele>
        <time>2020-06-14T21:51:42.631Z</time>
      </trkpt>
      <trkpt lat="40.077436" lon="-0.525056">
        <ele>594.46246337891</ele>
        <time>2020-06-14T21:51:43.015Z</time>
      </trkpt>
      <trkpt lat="40.077456" lon="-0.525063">
        <ele>594.86199951172</ele>
        <time>2020-06-14T21:51:43.399Z</time>
      </trkpt>
      <trkpt lat="40.077474" lon="-0.525072">
        <ele>595.21838378906</ele>
        <time>2020-06-14T21:51:43.783Z</time>
      </trkpt>
      <trkpt lat="40.077489" lon="-0.525079">
        <ele>595.51593017578</ele>
        <time>2020-06-14T21:51:44.168Z</time>
      </trkpt>
      <trkpt lat="40.077503" lon="-0.525084">
        <ele>595.79547119141</ele>
        <time>2020-06-14T21:51:44.553Z</time>
      </trkpt>
      <trkpt lat="40.077635" lon="-0.525099">
        <ele>597.82763671875</ele>
        <time>2020-06-14T21:51:44.941Z</time>
      </trkpt>
      <trkpt lat="40.077649" lon="-0.525093">
        <ele>598.08197021484</ele>
        <time>2020-06-14T21:51:45.329Z</time>
      </trkpt>
      <trkpt lat="40.077662" lon="-0.525091">
        <ele>598.29675292969</ele>
        <time>2020-06-14T21:51:45.717Z</time>
      </trkpt>
      <trkpt lat="40.077676" lon="-0.525087">
        <ele>598.53912353516</ele>
        <time>2020-06-14T21:51:46.105Z</time>
      </trkpt>
      <trkpt lat="40.077692" lon="-0.525081">
        <ele>598.82464599609</ele>
        <time>2020-06-14T21:51:46.494Z</time>
      </trkpt>
      <trkpt lat="40.077899" lon="-0.525093">
        <ele>601.98132324219</ele>
        <time>2020-06-14T21:51:46.887Z</time>
      </trkpt>
      <trkpt lat="40.078083" lon="-0.525102">
        <ele>608.47009277344</ele>
        <time>2020-06-14T21:51:47.284Z</time>
      </trkpt>
      <trkpt lat="40.078285" lon="-0.525152">
        <ele>616.11602783203</ele>
        <time>2020-06-14T21:51:47.685Z</time>
      </trkpt>
      <trkpt lat="40.078299" lon="-0.525158">
        <ele>616.32238769531</ele>
        <time>2020-06-14T21:51:48.086Z</time>
      </trkpt>
      <trkpt lat="40.078314" lon="-0.525161">
        <ele>616.61749267578</ele>
        <time>2020-06-14T21:51:48.487Z</time>
      </trkpt>
      <trkpt lat="40.078327" lon="-0.525164">
        <ele>616.86468505859</ele>
        <time>2020-06-14T21:51:48.889Z</time>
      </trkpt>
      <trkpt lat="40.078341" lon="-0.525167">
        <ele>617.13580322266</ele>
        <time>2020-06-14T21:51:49.291Z</time>
      </trkpt>
      <trkpt lat="40.078468" lon="-0.525205">
        <ele>619.36267089844</ele>
        <time>2020-06-14T21:51:49.695Z</time>
      </trkpt>
      <trkpt lat="40.078512" lon="-0.525213">
        <ele>620.24572753906</ele>
        <time>2020-06-14T21:51:50.100Z</time>
      </trkpt>
      <trkpt lat="40.078525" lon="-0.525222">
        <ele>620.36328125</ele>
        <time>2020-06-14T21:51:50.506Z</time>
      </trkpt>
      <trkpt lat="40.07854" lon="-0.52523">
        <ele>620.55047607422</ele>
        <time>2020-06-14T21:51:50.912Z</time>
      </trkpt>
      <trkpt lat="40.078682" lon="-0.525291">
        <ele>622.64050292969</ele>
        <time>2020-06-14T21:51:51.321Z</time>
      </trkpt>
      <trkpt lat="40.078891" lon="-0.525419">
        <ele>624.84350585938</ele>
        <time>2020-06-14T21:51:51.735Z</time>
      </trkpt>
      <trkpt lat="40.079031" lon="-0.525505">
        <ele>628.03240966797</ele>
        <time>2020-06-14T21:51:52.152Z</time>
      </trkpt>
      <trkpt lat="40.079292" lon="-0.525635">
        <ele>636.48498535156</ele>
        <time>2020-06-14T21:51:52.574Z</time>
      </trkpt>
      <trkpt lat="40.079443" lon="-0.525906">
        <ele>640.22869873047</ele>
        <time>2020-06-14T21:51:53.001Z</time>
      </trkpt>
      <trkpt lat="40.079344" lon="-0.526205">
        <ele>637.01440429688</ele>
        <time>2020-06-14T21:51:53.433Z</time>
      </trkpt>
      <trkpt lat="40.07926" lon="-0.526389">
        <ele>634.22729492188</ele>
        <time>2020-06-14T21:51:53.869Z</time>
      </trkpt>
      <trkpt lat="40.07926" lon="-0.526439">
        <ele>633.74737548828</ele>
        <time>2020-06-14T21:51:54.305Z</time>
      </trkpt>
      <trkpt lat="40.079256" lon="-0.526457">
        <ele>633.48822021484</ele>
        <time>2020-06-14T21:51:54.742Z</time>
      </trkpt>
      <trkpt lat="40.079248" lon="-0.526476">
        <ele>633.13305664062</ele>
        <time>2020-06-14T21:51:55.179Z</time>
      </trkpt>
      <trkpt lat="40.079224" lon="-0.526594">
        <ele>631.48211669922</ele>
        <time>2020-06-14T21:51:55.618Z</time>
      </trkpt>
      <trkpt lat="40.079222" lon="-0.526615">
        <ele>631.23736572266</ele>
        <time>2020-06-14T21:51:56.057Z</time>
      </trkpt>
      <trkpt lat="40.079224" lon="-0.526636">
        <ele>631.07897949219</ele>
        <time>2020-06-14T21:51:56.497Z</time>
      </trkpt>
      <trkpt lat="40.079228" lon="-0.526656">
        <ele>630.97338867188</ele>
        <time>2020-06-14T21:51:56.937Z</time>
      </trkpt>
      <trkpt lat="40.079233" lon="-0.526676">
        <ele>630.88940429688</ele>
        <time>2020-06-14T21:51:57.377Z</time>
      </trkpt>
      <trkpt lat="40.079239" lon="-0.526696">
        <ele>630.82263183594</ele>
        <time>2020-06-14T21:51:57.818Z</time>
      </trkpt>
      <trkpt lat="40.079243" lon="-0.526718">
        <ele>630.57305908203</ele>
        <time>2020-06-14T21:51:58.259Z</time>
      </trkpt>
      <trkpt lat="40.079317" lon="-0.526878">
        <ele>629.51245117188</ele>
        <time>2020-06-14T21:51:58.703Z</time>
      </trkpt>
      <trkpt lat="40.079344" lon="-0.526924">
        <ele>629.3037109375</ele>
        <time>2020-06-14T21:51:59.148Z</time>
      </trkpt>
      <trkpt lat="40.079665" lon="-0.527437">
        <ele>630.28192138672</ele>
        <time>2020-06-14T21:51:59.603Z</time>
      </trkpt>
      <trkpt lat="40.079772" lon="-0.527595">
        <ele>632.28680419922</ele>
        <time>2020-06-14T21:52:00.061Z</time>
      </trkpt>
      <trkpt lat="40.08009" lon="-0.528078">
        <ele>636.15252685547</ele>
        <time>2020-06-14T21:52:00.529Z</time>
      </trkpt>
      <trkpt lat="40.080347" lon="-0.528536">
        <ele>639.30920410156</ele>
        <time>2020-06-14T21:52:01.006Z</time>
      </trkpt>
      <trkpt lat="40.080559" lon="-0.528948">
        <ele>642.59375</ele>
        <time>2020-06-14T21:52:01.490Z</time>
      </trkpt>
      <trkpt lat="40.080593" lon="-0.529138">
        <ele>643.15765380859</ele>
        <time>2020-06-14T21:52:01.977Z</time>
      </trkpt>
      <trkpt lat="40.080711" lon="-0.529798">
        <ele>647.98291015625</ele>
        <time>2020-06-14T21:52:02.475Z</time>
      </trkpt>
      <trkpt lat="40.080639" lon="-0.530159">
        <ele>648.94274902344</ele>
        <time>2020-06-14T21:52:02.978Z</time>
      </trkpt>
      <trkpt lat="40.080602" lon="-0.530187">
        <ele>647.92413330078</ele>
        <time>2020-06-14T21:52:03.482Z</time>
      </trkpt>
      <trkpt lat="40.080364" lon="-0.53034">
        <ele>641.58935546875</ele>
        <time>2020-06-14T21:52:03.991Z</time>
      </trkpt>
      <trkpt lat="40.080303" lon="-0.530415">
        <ele>640.62591552734</ele>
        <time>2020-06-14T21:52:04.502Z</time>
      </trkpt>
      <trkpt lat="40.080274" lon="-0.530455">
        <ele>640.20959472656</ele>
        <time>2020-06-14T21:52:05.014Z</time>
      </trkpt>
      <trkpt lat="40.080242" lon="-0.530493">
        <ele>639.69128417969</ele>
        <time>2020-06-14T21:52:05.527Z</time>
      </trkpt>
      <trkpt lat="40.08021" lon="-0.530532">
        <ele>638.95208740234</ele>
        <time>2020-06-14T21:52:06.041Z</time>
      </trkpt>
      <trkpt lat="40.080181" lon="-0.530576">
        <ele>638.20458984375</ele>
        <time>2020-06-14T21:52:06.556Z</time>
      </trkpt>
      <trkpt lat="40.080155" lon="-0.530623">
        <ele>637.54351806641</ele>
        <time>2020-06-14T21:52:07.071Z</time>
      </trkpt>
      <trkpt lat="40.080064" lon="-0.530848">
        <ele>635.30230712891</ele>
        <time>2020-06-14T21:52:07.590Z</time>
      </trkpt>
      <trkpt lat="40.079982" lon="-0.531315">
        <ele>632.73089599609</ele>
        <time>2020-06-14T21:52:08.117Z</time>
      </trkpt>
      <trkpt lat="40.079985" lon="-0.531395">
        <ele>632.84722900391</ele>
        <time>2020-06-14T21:52:08.645Z</time>
      </trkpt>
      <trkpt lat="40.079997" lon="-0.53147">
        <ele>633.23956298828</ele>
        <time>2020-06-14T21:52:09.174Z</time>
      </trkpt>
      <trkpt lat="40.080024" lon="-0.531603">
        <ele>634.07940673828</ele>
        <time>2020-06-14T21:52:09.705Z</time>
      </trkpt>
      <trkpt lat="40.080029" lon="-0.531663">
        <ele>634.27740478516</ele>
        <time>2020-06-14T21:52:10.237Z</time>
      </trkpt>
      <trkpt lat="40.080023" lon="-0.531718">
        <ele>634.19219970703</ele>
        <time>2020-06-14T21:52:10.770Z</time>
      </trkpt>
      <trkpt lat="40.080015" lon="-0.531761">
        <ele>633.97827148438</ele>
        <time>2020-06-14T21:52:11.304Z</time>
      </trkpt>
      <trkpt lat="40.080009" lon="-0.5318">
        <ele>633.59674072266</ele>
        <time>2020-06-14T21:52:11.838Z</time>
      </trkpt>
      <trkpt lat="40.079996" lon="-0.531845">
        <ele>633.05444335938</ele>
        <time>2020-06-14T21:52:12.373Z</time>
      </trkpt>
      <trkpt lat="40.07998" lon="-0.531891">
        <ele>632.45452880859</ele>
        <time>2020-06-14T21:52:12.909Z</time>
      </trkpt>
      <trkpt lat="40.079831" lon="-0.532683">
        <ele>623.02294921875</ele>
        <time>2020-06-14T21:52:13.457Z</time>
      </trkpt>
      <trkpt lat="40.07981" lon="-0.532918">
        <ele>618.90112304688</ele>
        <time>2020-06-14T21:52:14.009Z</time>
      </trkpt>
      <trkpt lat="40.079809" lon="-0.533">
        <ele>617.12542724609</ele>
        <time>2020-06-14T21:52:14.562Z</time>
      </trkpt>
      <trkpt lat="40.079797" lon="-0.533083">
        <ele>615.46252441406</ele>
        <time>2020-06-14T21:52:15.117Z</time>
      </trkpt>
      <trkpt lat="40.079775" lon="-0.533166">
        <ele>613.76361083984</ele>
        <time>2020-06-14T21:52:15.673Z</time>
      </trkpt>
      <trkpt lat="40.079739" lon="-0.533245">
        <ele>612.07434082031</ele>
        <time>2020-06-14T21:52:16.230Z</time>
      </trkpt>
      <trkpt lat="40.079694" lon="-0.533322">
        <ele>610.38018798828</ele>
        <time>2020-06-14T21:52:16.789Z</time>
      </trkpt>
      <trkpt lat="40.079647" lon="-0.533394">
        <ele>608.7724609375</ele>
        <time>2020-06-14T21:52:17.349Z</time>
      </trkpt>
      <trkpt lat="40.079606" lon="-0.533466">
        <ele>607.19354248047</ele>
        <time>2020-06-14T21:52:17.911Z</time>
      </trkpt>
      <trkpt lat="40.07958" lon="-0.533539">
        <ele>605.3837890625</ele>
        <time>2020-06-14T21:52:18.474Z</time>
      </trkpt>
      <trkpt lat="40.079572" lon="-0.533607">
        <ele>603.90563964844</ele>
        <time>2020-06-14T21:52:19.038Z</time>
      </trkpt>
      <trkpt lat="40.079582" lon="-0.533669">
        <ele>602.93139648438</ele>
        <time>2020-06-14T21:52:19.603Z</time>
      </trkpt>
      <trkpt lat="40.079597" lon="-0.533724">
        <ele>602.19757080078</ele>
        <time>2020-06-14T21:52:20.169Z</time>
      </trkpt>
      <trkpt lat="40.079633" lon="-0.533819">
        <ele>600.62664794922</ele>
        <time>2020-06-14T21:52:20.736Z</time>
      </trkpt>
      <trkpt lat="40.079658" lon="-0.533857">
        <ele>600.40850830078</ele>
        <time>2020-06-14T21:52:21.304Z</time>
      </trkpt>
      <trkpt lat="40.079692" lon="-0.533875">
        <ele>600.56207275391</ele>
        <time>2020-06-14T21:52:21.873Z</time>
      </trkpt>
      <trkpt lat="40.079725" lon="-0.533874">
        <ele>600.88842773438</ele>
        <time>2020-06-14T21:52:22.443Z</time>
      </trkpt>
      <trkpt lat="40.079758" lon="-0.533853">
        <ele>601.40673828125</ele>
        <time>2020-06-14T21:52:23.013Z</time>
      </trkpt>
      <trkpt lat="40.07979" lon="-0.533815">
        <ele>602.19116210938</ele>
        <time>2020-06-14T21:52:23.584Z</time>
      </trkpt>
      <trkpt lat="40.079823" lon="-0.533767">
        <ele>603.19903564453</ele>
        <time>2020-06-14T21:52:24.156Z</time>
      </trkpt>
      <trkpt lat="40.079862" lon="-0.533718">
        <ele>604.27880859375</ele>
        <time>2020-06-14T21:52:24.729Z</time>
      </trkpt>
      <trkpt lat="40.079945" lon="-0.533625">
        <ele>606.41448974609</ele>
        <time>2020-06-14T21:52:25.304Z</time>
      </trkpt>
      <trkpt lat="40.080027" lon="-0.533558">
        <ele>608.16619873047</ele>
        <time>2020-06-14T21:52:25.881Z</time>
      </trkpt>
      <trkpt lat="40.080074" lon="-0.533547">
        <ele>608.77569580078</ele>
        <time>2020-06-14T21:52:26.459Z</time>
      </trkpt>
      <trkpt lat="40.080172" lon="-0.53354">
        <ele>609.81707763672</ele>
        <time>2020-06-14T21:52:27.039Z</time>
      </trkpt>
      <trkpt lat="40.080223" lon="-0.533557">
        <ele>610.06188964844</ele>
        <time>2020-06-14T21:52:27.620Z</time>
      </trkpt>
      <trkpt lat="40.08028" lon="-0.533579">
        <ele>610.29223632812</ele>
        <time>2020-06-14T21:52:28.202Z</time>
      </trkpt>
      <trkpt lat="40.080444" lon="-0.533648">
        <ele>610.95477294922</ele>
        <time>2020-06-14T21:52:28.788Z</time>
      </trkpt>
      <trkpt lat="40.08049" lon="-0.533669">
        <ele>611.36993408203</ele>
        <time>2020-06-14T21:52:29.375Z</time>
      </trkpt>
      <trkpt lat="40.080529" lon="-0.533695">
        <ele>611.60388183594</ele>
        <time>2020-06-14T21:52:29.963Z</time>
      </trkpt>
      <trkpt lat="40.080555" lon="-0.533723">
        <ele>611.74969482422</ele>
        <time>2020-06-14T21:52:30.551Z</time>
      </trkpt>
      <trkpt lat="40.08057" lon="-0.533757">
        <ele>612.25842285156</ele>
        <time>2020-06-14T21:52:31.140Z</time>
      </trkpt>
      <trkpt lat="40.080575" lon="-0.533798">
        <ele>612.46356201172</ele>
        <time>2020-06-14T21:52:31.730Z</time>
      </trkpt>
      <trkpt lat="40.080562" lon="-0.53384">
        <ele>612.11401367188</ele>
        <time>2020-06-14T21:52:32.320Z</time>
      </trkpt>
      <trkpt lat="40.080539" lon="-0.533879">
        <ele>611.58374023438</ele>
        <time>2020-06-14T21:52:32.911Z</time>
      </trkpt>
      <trkpt lat="40.080514" lon="-0.533923">
        <ele>611.01501464844</ele>
        <time>2020-06-14T21:52:33.503Z</time>
      </trkpt>
      <trkpt lat="40.080493" lon="-0.533972">
        <ele>610.59509277344</ele>
        <time>2020-06-14T21:52:34.096Z</time>
      </trkpt>
      <trkpt lat="40.080479" lon="-0.53402">
        <ele>610.38873291016</ele>
        <time>2020-06-14T21:52:34.690Z</time>
      </trkpt>
      <trkpt lat="40.080472" lon="-0.534065">
        <ele>610.38635253906</ele>
        <time>2020-06-14T21:52:35.284Z</time>
      </trkpt>
      <trkpt lat="40.080475" lon="-0.534115">
        <ele>610.71984863281</ele>
        <time>2020-06-14T21:52:35.879Z</time>
      </trkpt>
      <trkpt lat="40.080489" lon="-0.534167">
        <ele>611.40612792969</ele>
        <time>2020-06-14T21:52:36.475Z</time>
      </trkpt>
      <trkpt lat="40.080511" lon="-0.534218">
        <ele>612.33721923828</ele>
        <time>2020-06-14T21:52:37.072Z</time>
      </trkpt>
      <trkpt lat="40.080541" lon="-0.53427">
        <ele>613.52258300781</ele>
        <time>2020-06-14T21:52:37.670Z</time>
      </trkpt>
      <trkpt lat="40.080611" lon="-0.53438">
        <ele>616.23413085938</ele>
        <time>2020-06-14T21:52:38.270Z</time>
      </trkpt>
      <trkpt lat="40.08064" lon="-0.534435">
        <ele>617.40277099609</ele>
        <time>2020-06-14T21:52:38.871Z</time>
      </trkpt>
      <trkpt lat="40.080657" lon="-0.534499">
        <ele>618.43359375</ele>
        <time>2020-06-14T21:52:39.473Z</time>
      </trkpt>
      <trkpt lat="40.080659" lon="-0.534566">
        <ele>619.06585693359</ele>
        <time>2020-06-14T21:52:40.076Z</time>
      </trkpt>
      <trkpt lat="40.080647" lon="-0.53463">
        <ele>619.18585205078</ele>
        <time>2020-06-14T21:52:40.680Z</time>
      </trkpt>
      <trkpt lat="40.080633" lon="-0.534689">
        <ele>619.37872314453</ele>
        <time>2020-06-14T21:52:41.285Z</time>
      </trkpt>
      <trkpt lat="40.080617" lon="-0.534736">
        <ele>619.72424316406</ele>
        <time>2020-06-14T21:52:41.891Z</time>
      </trkpt>
      <trkpt lat="40.080599" lon="-0.534774">
        <ele>619.82745361328</ele>
        <time>2020-06-14T21:52:42.498Z</time>
      </trkpt>
      <trkpt lat="40.08058" lon="-0.534805">
        <ele>619.76147460938</ele>
        <time>2020-06-14T21:52:43.105Z</time>
      </trkpt>
      <trkpt lat="40.080421" lon="-0.535021">
        <ele>618.42059326172</ele>
        <time>2020-06-14T21:52:43.717Z</time>
      </trkpt>
      <trkpt lat="40.080276" lon="-0.535283">
        <ele>619.10089111328</ele>
        <time>2020-06-14T21:52:44.334Z</time>
      </trkpt>
      <trkpt lat="40.080179" lon="-0.535691">
        <ele>620.90594482422</ele>
        <time>2020-06-14T21:52:44.957Z</time>
      </trkpt>
      <trkpt lat="40.08015" lon="-0.535872">
        <ele>621.71221923828</ele>
        <time>2020-06-14T21:52:45.583Z</time>
      </trkpt>
      <trkpt lat="40.080146" lon="-0.535894">
        <ele>621.90417480469</ele>
        <time>2020-06-14T21:52:46.209Z</time>
      </trkpt>
      <trkpt lat="40.080141" lon="-0.535916">
        <ele>622.0517578125</ele>
        <time>2020-06-14T21:52:46.836Z</time>
      </trkpt>
      <trkpt lat="40.08014" lon="-0.535939">
        <ele>622.39373779297</ele>
        <time>2020-06-14T21:52:47.463Z</time>
      </trkpt>
      <trkpt lat="40.08014" lon="-0.535959">
        <ele>622.72967529297</ele>
        <time>2020-06-14T21:52:48.090Z</time>
      </trkpt>
      <trkpt lat="40.080144" lon="-0.535974">
        <ele>623.1591796875</ele>
        <time>2020-06-14T21:52:48.718Z</time>
      </trkpt>
      <trkpt lat="40.080145" lon="-0.535988">
        <ele>623.43872070312</ele>
        <time>2020-06-14T21:52:49.346Z</time>
      </trkpt>
      <trkpt lat="40.080132" lon="-0.53602">
        <ele>623.39916992188</ele>
        <time>2020-06-14T21:52:49.975Z</time>
      </trkpt>
      <trkpt lat="40.080131" lon="-0.536048">
        <ele>623.82507324219</ele>
        <time>2020-06-14T21:52:50.604Z</time>
      </trkpt>
      <trkpt lat="40.080147" lon="-0.536102">
        <ele>625.44244384766</ele>
        <time>2020-06-14T21:52:51.234Z</time>
      </trkpt>
      <trkpt lat="40.080138" lon="-0.536186">
        <ele>626.45385742188</ele>
        <time>2020-06-14T21:52:51.865Z</time>
      </trkpt>
      <trkpt lat="40.080174" lon="-0.536206">
        <ele>628.38793945312</ele>
        <time>2020-06-14T21:52:52.497Z</time>
      </trkpt>
      <trkpt lat="40.080195" lon="-0.536188">
        <ele>629.01782226562</ele>
        <time>2020-06-14T21:52:53.129Z</time>
      </trkpt>
      <trkpt lat="40.080213" lon="-0.536167">
        <ele>629.46417236328</ele>
        <time>2020-06-14T21:52:53.762Z</time>
      </trkpt>
      <trkpt lat="40.080301" lon="-0.536106">
        <ele>632.34606933594</ele>
        <time>2020-06-14T21:52:54.397Z</time>
      </trkpt>
      <trkpt lat="40.080376" lon="-0.536062">
        <ele>634.93640136719</ele>
        <time>2020-06-14T21:52:55.034Z</time>
      </trkpt>
      <trkpt lat="40.0804" lon="-0.536059">
        <ele>635.95147705078</ele>
        <time>2020-06-14T21:52:55.671Z</time>
      </trkpt>
      <trkpt lat="40.080392" lon="-0.536127">
        <ele>636.73852539062</ele>
        <time>2020-06-14T21:52:56.309Z</time>
      </trkpt>
      <trkpt lat="40.080297" lon="-0.536371">
        <ele>635.30877685547</ele>
        <time>2020-06-14T21:52:56.951Z</time>
      </trkpt>
      <trkpt lat="40.080232" lon="-0.536562">
        <ele>627.86975097656</ele>
        <time>2020-06-14T21:52:57.596Z</time>
      </trkpt>
      <trkpt lat="40.080235" lon="-0.536681">
        <ele>625.29382324219</ele>
        <time>2020-06-14T21:52:58.243Z</time>
      </trkpt>
      <trkpt lat="40.080347" lon="-0.536931">
        <ele>624.70111083984</ele>
        <time>2020-06-14T21:52:58.895Z</time>
      </trkpt>
      <trkpt lat="40.080308" lon="-0.537101">
        <ele>619.04766845703</ele>
        <time>2020-06-14T21:52:59.549Z</time>
      </trkpt>
      <trkpt lat="40.080364" lon="-0.537309">
        <ele>616.99377441406</ele>
        <time>2020-06-14T21:53:00.207Z</time>
      </trkpt>
      <trkpt lat="40.080628" lon="-0.537525">
        <ele>612.52862548828</ele>
        <time>2020-06-14T21:53:00.871Z</time>
      </trkpt>
      <trkpt lat="40.08088" lon="-0.53775">
        <ele>608.83325195312</ele>
        <time>2020-06-14T21:53:01.541Z</time>
      </trkpt>
      <trkpt lat="40.080926" lon="-0.53792">
        <ele>600.51623535156</ele>
        <time>2020-06-14T21:53:02.214Z</time>
      </trkpt>
      <trkpt lat="40.081" lon="-0.538092">
        <ele>598.02978515625</ele>
        <time>2020-06-14T21:53:02.890Z</time>
      </trkpt>
      <trkpt lat="40.081089" lon="-0.538316">
        <ele>590.41064453125</ele>
        <time>2020-06-14T21:53:03.570Z</time>
      </trkpt>
      <trkpt lat="40.081205" lon="-0.538443">
        <ele>574.53491210938</ele>
        <time>2020-06-14T21:53:04.253Z</time>
      </trkpt>
      <trkpt lat="40.08134" lon="-0.538563">
        <ele>560.20416259766</ele>
        <time>2020-06-14T21:53:04.939Z</time>
      </trkpt>
      <trkpt lat="40.081536" lon="-0.538635">
        <ele>550.80523681641</ele>
        <time>2020-06-14T21:53:05.629Z</time>
      </trkpt>
      <trkpt lat="40.081713" lon="-0.538658">
        <ele>548.20648193359</ele>
        <time>2020-06-14T21:53:06.323Z</time>
      </trkpt>
      <trkpt lat="40.081875" lon="-0.538543">
        <ele>553.66320800781</ele>
        <time>2020-06-14T21:53:07.020Z</time>
      </trkpt>
      <trkpt lat="40.082117" lon="-0.53829">
        <ele>566.82232666016</ele>
        <time>2020-06-14T21:53:07.724Z</time>
      </trkpt>
      <trkpt lat="40.082314" lon="-0.538034">
        <ele>583.45635986328</ele>
        <time>2020-06-14T21:53:08.433Z</time>
      </trkpt>
      <trkpt lat="40.082331" lon="-0.538021">
        <ele>584.36822509766</ele>
        <time>2020-06-14T21:53:09.143Z</time>
      </trkpt>
      <trkpt lat="40.082446" lon="-0.537878">
        <ele>594.47418212891</ele>
        <time>2020-06-14T21:53:09.856Z</time>
      </trkpt>
      <trkpt lat="40.082477" lon="-0.537861">
        <ele>595.85272216797</ele>
        <time>2020-06-14T21:53:10.569Z</time>
      </trkpt>
      <trkpt lat="40.082566" lon="-0.537852">
        <ele>597.279296875</ele>
        <time>2020-06-14T21:53:11.284Z</time>
      </trkpt>
      <trkpt lat="40.082804" lon="-0.537978">
        <ele>591.55145263672</ele>
        <time>2020-06-14T21:53:12.004Z</time>
      </trkpt>
      <trkpt lat="40.083021" lon="-0.538295">
        <ele>578.70043945312</ele>
        <time>2020-06-14T21:53:12.731Z</time>
      </trkpt>
      <trkpt lat="40.08316" lon="-0.538389">
        <ele>577.46588134766</ele>
        <time>2020-06-14T21:53:13.461Z</time>
      </trkpt>
      <trkpt lat="40.083329" lon="-0.53852">
        <ele>573.60711669922</ele>
        <time>2020-06-14T21:53:14.195Z</time>
      </trkpt>
      <trkpt lat="40.083557" lon="-0.538798">
        <ele>555.62933349609</ele>
        <time>2020-06-14T21:53:14.935Z</time>
      </trkpt>
      <trkpt lat="40.083713" lon="-0.538899">
        <ele>550.43725585938</ele>
        <time>2020-06-14T21:53:15.679Z</time>
      </trkpt>
      <trkpt lat="40.083631" lon="-0.538973">
        <ele>545.82281494141</ele>
        <time>2020-06-14T21:53:16.425Z</time>
      </trkpt>
      <trkpt lat="40.083576" lon="-0.538979">
        <ele>545.15942382812</ele>
        <time>2020-06-14T21:53:17.172Z</time>
      </trkpt>
      <trkpt lat="40.083523" lon="-0.538962">
        <ele>545.77972412109</ele>
        <time>2020-06-14T21:53:17.920Z</time>
      </trkpt>
      <trkpt lat="40.083307" lon="-0.538794">
        <ele>554.40795898438</ele>
        <time>2020-06-14T21:53:18.673Z</time>
      </trkpt>
      <trkpt lat="40.083235" lon="-0.538752">
        <ele>556.89874267578</ele>
        <time>2020-06-14T21:53:19.428Z</time>
      </trkpt>
      <trkpt lat="40.083137" lon="-0.538745">
        <ele>556.79797363281</ele>
        <time>2020-06-14T21:53:20.184Z</time>
      </trkpt>
      <trkpt lat="40.08304" lon="-0.538731">
        <ele>557.19030761719</ele>
        <time>2020-06-14T21:53:20.942Z</time>
      </trkpt>
      <trkpt lat="40.083021" lon="-0.538728">
        <ele>556.88092041016</ele>
        <time>2020-06-14T21:53:21.701Z</time>
      </trkpt>
      <trkpt lat="40.082992" lon="-0.538727">
        <ele>556.20062255859</ele>
        <time>2020-06-14T21:53:22.460Z</time>
      </trkpt>
      <trkpt lat="40.082976" lon="-0.538745">
        <ele>554.89044189453</ele>
        <time>2020-06-14T21:53:23.220Z</time>
      </trkpt>
      <trkpt lat="40.082989" lon="-0.538764">
        <ele>554.26055908203</ele>
        <time>2020-06-14T21:53:23.980Z</time>
      </trkpt>
      <trkpt lat="40.083125" lon="-0.538813">
        <ele>551.99395751953</ele>
        <time>2020-06-14T21:53:24.743Z</time>
      </trkpt>
      <trkpt lat="40.083267" lon="-0.538986">
        <ele>542.91943359375</ele>
        <time>2020-06-14T21:53:25.510Z</time>
      </trkpt>
      <trkpt lat="40.083306" lon="-0.539127">
        <ele>535.37145996094</ele>
        <time>2020-06-14T21:53:26.279Z</time>
      </trkpt>
      <trkpt lat="40.083315" lon="-0.539189">
        <ele>532.00366210938</ele>
        <time>2020-06-14T21:53:27.049Z</time>
      </trkpt>
      <trkpt lat="40.083415" lon="-0.539406">
        <ele>521.67083740234</ele>
        <time>2020-06-14T21:53:27.823Z</time>
      </trkpt>
      <trkpt lat="40.083552" lon="-0.539466">
        <ele>520.12670898438</ele>
        <time>2020-06-14T21:53:28.600Z</time>
      </trkpt>
      <trkpt lat="40.083628" lon="-0.539472">
        <ele>520.64501953125</ele>
        <time>2020-06-14T21:53:29.378Z</time>
      </trkpt>
      <trkpt lat="40.083784" lon="-0.539545">
        <ele>518.36651611328</ele>
        <time>2020-06-14T21:53:30.160Z</time>
      </trkpt>
      <trkpt lat="40.083933" lon="-0.5396">
        <ele>516.09533691406</ele>
        <time>2020-06-14T21:53:30.945Z</time>
      </trkpt>
      <trkpt lat="40.084032" lon="-0.539599">
        <ele>516.84759521484</ele>
        <time>2020-06-14T21:53:31.732Z</time>
      </trkpt>
      <trkpt lat="40.084237" lon="-0.539596">
        <ele>518.44213867188</ele>
        <time>2020-06-14T21:53:32.523Z</time>
      </trkpt>
      <trkpt lat="40.084311" lon="-0.539555">
        <ele>520.59820556641</ele>
        <time>2020-06-14T21:53:33.316Z</time>
      </trkpt>
      <trkpt lat="40.084414" lon="-0.539648">
        <ele>517.65747070312</ele>
        <time>2020-06-14T21:53:34.111Z</time>
      </trkpt>
      <trkpt lat="40.084465" lon="-0.539798">
        <ele>517.34515380859</ele>
        <time>2020-06-14T21:53:34.909Z</time>
      </trkpt>
      <trkpt lat="40.084524" lon="-0.539867">
        <ele>517.50158691406</ele>
        <time>2020-06-14T21:53:35.708Z</time>
      </trkpt>
      <trkpt lat="40.084605" lon="-0.539921">
        <ele>517.66717529297</ele>
        <time>2020-06-14T21:53:36.509Z</time>
      </trkpt>
      <trkpt lat="40.084786" lon="-0.539935">
        <ele>516.78173828125</ele>
        <time>2020-06-14T21:53:37.314Z</time>
      </trkpt>
      <trkpt lat="40.084881" lon="-0.539878">
        <ele>516.39422607422</ele>
        <time>2020-06-14T21:53:38.121Z</time>
      </trkpt>
      <trkpt lat="40.084902" lon="-0.539846">
        <ele>516.33184814453</ele>
        <time>2020-06-14T21:53:38.928Z</time>
      </trkpt>
      <trkpt lat="40.084934" lon="-0.539803">
        <ele>516.22985839844</ele>
        <time>2020-06-14T21:53:39.736Z</time>
      </trkpt>
      <trkpt lat="40.085149" lon="-0.539725">
        <ele>515.29162597656</ele>
        <time>2020-06-14T21:53:40.549Z</time>
      </trkpt>
      <trkpt lat="40.085159" lon="-0.539719">
        <ele>515.25079345703</ele>
        <time>2020-06-14T21:53:41.362Z</time>
      </trkpt>
      <trkpt lat="40.085189" lon="-0.539727">
        <ele>515.09722900391</ele>
        <time>2020-06-14T21:53:42.176Z</time>
      </trkpt>
      <trkpt lat="40.085261" lon="-0.5397">
        <ele>514.78405761719</ele>
        <time>2020-06-14T21:53:42.991Z</time>
      </trkpt>
      <trkpt lat="40.085308" lon="-0.539703">
        <ele>514.55493164062</ele>
        <time>2020-06-14T21:53:43.807Z</time>
      </trkpt>
      <trkpt lat="40.085323" lon="-0.539694">
        <ele>514.49371337891</ele>
        <time>2020-06-14T21:53:44.623Z</time>
      </trkpt>
      <trkpt lat="40.085493" lon="-0.539668">
        <ele>514.23382568359</ele>
        <time>2020-06-14T21:53:45.443Z</time>
      </trkpt>
      <trkpt lat="40.085524" lon="-0.539673">
        <ele>514.11700439453</ele>
        <time>2020-06-14T21:53:46.263Z</time>
      </trkpt>
      <trkpt lat="40.085686" lon="-0.539683">
        <ele>514.53930664062</ele>
        <time>2020-06-14T21:53:47.087Z</time>
      </trkpt>
      <trkpt lat="40.085771" lon="-0.539713">
        <ele>515.3251953125</ele>
        <time>2020-06-14T21:53:47.912Z</time>
      </trkpt>
      <trkpt lat="40.085918" lon="-0.539741">
        <ele>516.13989257812</ele>
        <time>2020-06-14T21:53:48.740Z</time>
      </trkpt>
      <trkpt lat="40.085943" lon="-0.539762">
        <ele>516.64855957031</ele>
        <time>2020-06-14T21:53:49.569Z</time>
      </trkpt>
      <trkpt lat="40.086015" lon="-0.539962">
        <ele>521.7216796875</ele>
        <time>2020-06-14T21:53:50.401Z</time>
      </trkpt>
      <trkpt lat="40.086064" lon="-0.539972">
        <ele>522.6455078125</ele>
        <time>2020-06-14T21:53:51.234Z</time>
      </trkpt>
      <trkpt lat="40.086052" lon="-0.539952">
        <ele>521.82965087891</ele>
        <time>2020-06-14T21:53:52.068Z</time>
      </trkpt>
      <trkpt lat="40.086097" lon="-0.539911">
        <ele>520.9921875</ele>
        <time>2020-06-14T21:53:52.903Z</time>
      </trkpt>
      <trkpt lat="40.086128" lon="-0.539927">
        <ele>521.90161132812</ele>
        <time>2020-06-14T21:53:53.738Z</time>
      </trkpt>
      <trkpt lat="40.08613" lon="-0.539921">
        <ele>521.72406005859</ele>
        <time>2020-06-14T21:53:54.574Z</time>
      </trkpt>
      <trkpt lat="40.086123" lon="-0.53993">
        <ele>521.94244384766</ele>
        <time>2020-06-14T21:53:55.410Z</time>
      </trkpt>
      <trkpt lat="40.086104" lon="-0.539929">
        <ele>521.68084716797</ele>
        <time>2020-06-14T21:53:56.246Z</time>
      </trkpt>
      <trkpt lat="40.086105" lon="-0.539937">
        <ele>521.96160888672</ele>
        <time>2020-06-14T21:53:57.082Z</time>
      </trkpt>
      <trkpt lat="40.086111" lon="-0.54002">
        <ele>524.82196044922</ele>
        <time>2020-06-14T21:53:57.920Z</time>
      </trkpt>
      <trkpt lat="40.086106" lon="-0.540043">
        <ele>525.53460693359</ele>
        <time>2020-06-14T21:53:58.758Z</time>
      </trkpt>
      <trkpt lat="40.085913" lon="-0.540159">
        <ele>527.11596679688</ele>
        <time>2020-06-14T21:53:59.600Z</time>
      </trkpt>
      <trkpt lat="40.085694" lon="-0.54026">
        <ele>527.88140869141</ele>
        <time>2020-06-14T21:54:00.447Z</time>
      </trkpt>
      <trkpt lat="40.08566" lon="-0.540292">
        <ele>528.54852294922</ele>
        <time>2020-06-14T21:54:01.295Z</time>
      </trkpt>
      <trkpt lat="40.085582" lon="-0.540413">
        <ele>531.67761230469</ele>
        <time>2020-06-14T21:54:02.145Z</time>
      </trkpt>
      <trkpt lat="40.085578" lon="-0.540421">
        <ele>531.89837646484</ele>
        <time>2020-06-14T21:54:02.995Z</time>
      </trkpt>
      <trkpt lat="40.085478" lon="-0.540483">
        <ele>532.78143310547</ele>
        <time>2020-06-14T21:54:03.847Z</time>
      </trkpt>
      <trkpt lat="40.085466" lon="-0.540487">
        <ele>532.77178955078</ele>
        <time>2020-06-14T21:54:04.700Z</time>
      </trkpt>
      <trkpt lat="40.085468" lon="-0.540495">
        <ele>533.06457519531</ele>
        <time>2020-06-14T21:54:05.553Z</time>
      </trkpt>
      <trkpt lat="40.08549" lon="-0.540478">
        <ele>532.75744628906</ele>
        <time>2020-06-14T21:54:06.406Z</time>
      </trkpt>
      <trkpt lat="40.085551" lon="-0.540442">
        <ele>532.27990722656</ele>
        <time>2020-06-14T21:54:07.261Z</time>
      </trkpt>
      <trkpt lat="40.085587" lon="-0.540404">
        <ele>531.43524169922</ele>
        <time>2020-06-14T21:54:08.117Z</time>
      </trkpt>
      <trkpt lat="40.085705" lon="-0.540332">
        <ele>530.43218994141</ele>
        <time>2020-06-14T21:54:08.975Z</time>
      </trkpt>
      <trkpt lat="40.085884" lon="-0.540299">
        <ele>531.47125244141</ele>
        <time>2020-06-14T21:54:09.837Z</time>
      </trkpt>
      <trkpt lat="40.08605" lon="-0.540218">
        <ele>530.74176025391</ele>
        <time>2020-06-14T21:54:10.702Z</time>
      </trkpt>
      <trkpt lat="40.086095" lon="-0.540194">
        <ele>530.47540283203</ele>
        <time>2020-06-14T21:54:11.568Z</time>
      </trkpt>
      <trkpt lat="40.086118" lon="-0.540203">
        <ele>531.0537109375</ele>
        <time>2020-06-14T21:54:12.435Z</time>
      </trkpt>
      <trkpt lat="40.08613" lon="-0.540196">
        <ele>530.96252441406</ele>
        <time>2020-06-14T21:54:13.302Z</time>
      </trkpt>
      <trkpt lat="40.086149" lon="-0.540146">
        <ele>529.5107421875</ele>
        <time>2020-06-14T21:54:14.170Z</time>
      </trkpt>
      <trkpt lat="40.086162" lon="-0.54011">
        <ele>528.45733642578</ele>
        <time>2020-06-14T21:54:15.039Z</time>
      </trkpt>
      <trkpt lat="40.086179" lon="-0.540084">
        <ele>527.78784179688</ele>
        <time>2020-06-14T21:54:15.908Z</time>
      </trkpt>
      <trkpt lat="40.086171" lon="-0.540078">
        <ele>527.49029541016</ele>
        <time>2020-06-14T21:54:16.777Z</time>
      </trkpt>
      <trkpt lat="40.086167" lon="-0.540076">
        <ele>527.37512207031</ele>
        <time>2020-06-14T21:54:17.646Z</time>
      </trkpt>
      <trkpt lat="40.086172" lon="-0.54009">
        <ele>527.90545654297</ele>
        <time>2020-06-14T21:54:18.516Z</time>
      </trkpt>
      <trkpt lat="40.086255" lon="-0.54008">
        <ele>528.56530761719</ele>
        <time>2020-06-14T21:54:19.387Z</time>
      </trkpt>
      <trkpt lat="40.086258" lon="-0.54007">
        <ele>528.26538085938</ele>
        <time>2020-06-14T21:54:20.258Z</time>
      </trkpt>
      <trkpt lat="40.086269" lon="-0.540092">
        <ele>529.09997558594</ele>
        <time>2020-06-14T21:54:21.130Z</time>
      </trkpt>
      <trkpt lat="40.086275" lon="-0.540087">
        <ele>528.95361328125</ele>
        <time>2020-06-14T21:54:22.002Z</time>
      </trkpt>
      <trkpt lat="40.086217" lon="-0.540097">
        <ele>528.68048095703</ele>
        <time>2020-06-14T21:54:22.875Z</time>
      </trkpt>
      <trkpt lat="40.086195" lon="-0.540094">
        <ele>528.31573486328</ele>
        <time>2020-06-14T21:54:23.749Z</time>
      </trkpt>
      <trkpt lat="40.086128" lon="-0.54013">
        <ele>528.72131347656</ele>
        <time>2020-06-14T21:54:24.624Z</time>
      </trkpt>
      <trkpt lat="40.086099" lon="-0.540135">
        <ele>528.54132080078</ele>
        <time>2020-06-14T21:54:25.500Z</time>
      </trkpt>
      <trkpt lat="40.086152" lon="-0.540133">
        <ele>529.11004638672</ele>
        <time>2020-06-14T21:54:26.377Z</time>
      </trkpt>
      <trkpt lat="40.086196" lon="-0.540143">
        <ele>529.97387695312</ele>
        <time>2020-06-14T21:54:27.255Z</time>
      </trkpt>
      <trkpt lat="40.086211" lon="-0.540147">
        <ele>530.28820800781</ele>
        <time>2020-06-14T21:54:28.133Z</time>
      </trkpt>
      <trkpt lat="40.086239" lon="-0.540145">
        <ele>530.55700683594</ele>
        <time>2020-06-14T21:54:29.011Z</time>
      </trkpt>
      <trkpt lat="40.086255" lon="-0.540131">
        <ele>530.27862548828</ele>
        <time>2020-06-14T21:54:29.890Z</time>
      </trkpt>
      <trkpt lat="40.086372" lon="-0.540097">
        <ele>529.638671875</ele>
        <time>2020-06-14T21:54:30.771Z</time>
      </trkpt>
      <trkpt lat="40.086441" lon="-0.540105">
        <ele>530.15582275391</ele>
        <time>2020-06-14T21:54:31.654Z</time>
      </trkpt>
      <trkpt lat="40.086442" lon="-0.540121">
        <ele>530.69689941406</ele>
        <time>2020-06-14T21:54:32.537Z</time>
      </trkpt>
      <trkpt lat="40.086448" lon="-0.54008">
        <ele>529.34112548828</ele>
        <time>2020-06-14T21:54:33.420Z</time>
      </trkpt>
      <trkpt lat="40.08648" lon="-0.540065">
        <ele>528.95239257812</ele>
        <time>2020-06-14T21:54:34.304Z</time>
      </trkpt>
      <trkpt lat="40.086505" lon="-0.540073">
        <ele>529.31115722656</ele>
        <time>2020-06-14T21:54:35.189Z</time>
      </trkpt>
      <trkpt lat="40.086502" lon="-0.540068">
        <ele>529.13238525391</ele>
        <time>2020-06-14T21:54:36.074Z</time>
      </trkpt>
      <trkpt lat="40.086484" lon="-0.540071">
        <ele>529.16839599609</ele>
        <time>2020-06-14T21:54:36.959Z</time>
      </trkpt>
      <trkpt lat="40.086484" lon="-0.540057">
        <ele>528.69805908203</ele>
        <time>2020-06-14T21:54:37.844Z</time>
      </trkpt>
      <trkpt lat="40.086471" lon="-0.540028">
        <ele>527.67700195312</ele>
        <time>2020-06-14T21:54:38.730Z</time>
      </trkpt>
      <trkpt lat="40.086454" lon="-0.540023">
        <ele>527.44787597656</ele>
        <time>2020-06-14T21:54:39.616Z</time>
      </trkpt>
      <trkpt lat="40.086423" lon="-0.540021">
        <ele>527.26910400391</ele>
        <time>2020-06-14T21:54:40.503Z</time>
      </trkpt>
      <trkpt lat="40.086375" lon="-0.540039">
        <ele>527.70104980469</ele>
        <time>2020-06-14T21:54:41.391Z</time>
      </trkpt>
      <trkpt lat="40.086328" lon="-0.540046">
        <ele>527.76702880859</ele>
        <time>2020-06-14T21:54:42.280Z</time>
      </trkpt>
      <trkpt lat="40.0863" lon="-0.540062">
        <ele>528.20373535156</ele>
        <time>2020-06-14T21:54:43.169Z</time>
      </trkpt>
      <trkpt lat="40.086162" lon="-0.540058">
        <ele>526.71044921875</ele>
        <time>2020-06-14T21:54:44.061Z</time>
      </trkpt>
      <trkpt lat="40.086135" lon="-0.540055">
        <ele>526.28570556641</ele>
        <time>2020-06-14T21:54:44.954Z</time>
      </trkpt>
      <trkpt lat="40.086127" lon="-0.540089">
        <ele>527.33190917969</ele>
        <time>2020-06-14T21:54:45.847Z</time>
      </trkpt>
      <trkpt lat="40.086117" lon="-0.540099">
        <ele>527.54791259766</ele>
        <time>2020-06-14T21:54:46.740Z</time>
      </trkpt>
      <trkpt lat="40.086087" lon="-0.54013">
        <ele>528.22937011719</ele>
        <time>2020-06-14T21:54:47.634Z</time>
      </trkpt>
      <trkpt lat="40.086038" lon="-0.540132">
        <ele>527.70867919922</ele>
        <time>2020-06-14T21:54:48.529Z</time>
      </trkpt>
      <trkpt lat="40.085978" lon="-0.54014">
        <ele>527.25750732422</ele>
        <time>2020-06-14T21:54:49.425Z</time>
      </trkpt>
      <trkpt lat="40.085977" lon="-0.54014">
        <ele>527.24554443359</ele>
        <time>2020-06-14T21:54:50.321Z</time>
      </trkpt>
      <trkpt lat="40.086004" lon="-0.540139">
        <ele>527.53588867188</ele>
        <time>2020-06-14T21:54:51.218Z</time>
      </trkpt>
      <trkpt lat="40.086034" lon="-0.540137">
        <ele>527.82861328125</ele>
        <time>2020-06-14T21:54:52.116Z</time>
      </trkpt>
      <trkpt lat="40.086106" lon="-0.540087">
        <ele>527.01275634766</ele>
        <time>2020-06-14T21:54:53.015Z</time>
      </trkpt>
      <trkpt lat="40.086122" lon="-0.54008">
        <ele>526.96960449219</ele>
        <time>2020-06-14T21:54:53.915Z</time>
      </trkpt>
      <trkpt lat="40.086174" lon="-0.540097">
        <ele>528.16461181641</ele>
        <time>2020-06-14T21:54:54.816Z</time>
      </trkpt>
      <trkpt lat="40.086184" lon="-0.540112">
        <ele>528.78845214844</ele>
        <time>2020-06-14T21:54:55.717Z</time>
      </trkpt>
      <trkpt lat="40.086167" lon="-0.54012">
        <ele>528.85327148438</ele>
        <time>2020-06-14T21:54:56.618Z</time>
      </trkpt>
      <trkpt lat="40.086141" lon="-0.540135">
        <ele>529.04522705078</ele>
        <time>2020-06-14T21:54:57.520Z</time>
      </trkpt>
      <trkpt lat="40.086142" lon="-0.540138">
        <ele>529.15802001953</ele>
        <time>2020-06-14T21:54:58.422Z</time>
      </trkpt>
      <trkpt lat="40.086105" lon="-0.53983">
        <ele>518.39306640625</ele>
        <time>2020-06-14T21:54:59.329Z</time>
      </trkpt>
      <trkpt lat="40.086096" lon="-0.539768">
        <ele>516.96893310547</ele>
        <time>2020-06-14T21:55:00.237Z</time>
      </trkpt>
      <trkpt lat="40.086101" lon="-0.539816">
        <ele>518.06915283203</ele>
        <time>2020-06-14T21:55:01.145Z</time>
      </trkpt>
      <trkpt lat="40.086106" lon="-0.539933">
        <ele>521.83923339844</ele>
        <time>2020-06-14T21:55:02.055Z</time>
      </trkpt>
      <trkpt lat="40.086104" lon="-0.539989">
        <ele>523.69653320312</ele>
        <time>2020-06-14T21:55:02.966Z</time>
      </trkpt>
      <trkpt lat="40.086114" lon="-0.540006">
        <ele>524.38763427734</ele>
        <time>2020-06-14T21:55:03.877Z</time>
      </trkpt>
      <trkpt lat="40.086111" lon="-0.540029">
        <ele>525.12426757812</ele>
        <time>2020-06-14T21:55:04.789Z</time>
      </trkpt>
      <trkpt lat="40.086121" lon="-0.540063">
        <ele>526.38647460938</ele>
        <time>2020-06-14T21:55:05.701Z</time>
      </trkpt>
      <trkpt lat="40.086053" lon="-0.540143">
        <ele>528.25817871094</ele>
        <time>2020-06-14T21:55:06.615Z</time>
      </trkpt>
      <trkpt lat="40.086025" lon="-0.540165">
        <ele>528.66131591797</ele>
        <time>2020-06-14T21:55:07.530Z</time>
      </trkpt>
      <trkpt lat="40.085846" lon="-0.540239">
        <ele>528.99963378906</ele>
        <time>2020-06-14T21:55:08.449Z</time>
      </trkpt>
      <trkpt lat="40.085701" lon="-0.540286">
        <ele>528.8388671875</ele>
        <time>2020-06-14T21:55:09.371Z</time>
      </trkpt>
      <trkpt lat="40.085664" lon="-0.540292">
        <ele>528.59649658203</ele>
        <time>2020-06-14T21:55:10.293Z</time>
      </trkpt>
      <trkpt lat="40.085785" lon="-0.54028">
        <ele>529.64514160156</ele>
        <time>2020-06-14T21:55:11.218Z</time>
      </trkpt>
      <trkpt lat="40.08591" lon="-0.540234">
        <ele>529.59954833984</ele>
        <time>2020-06-14T21:55:12.145Z</time>
      </trkpt>
      <trkpt lat="40.086093" lon="-0.540179">
        <ele>529.94750976562</ele>
        <time>2020-06-14T21:55:13.076Z</time>
      </trkpt>
      <trkpt lat="40.086123" lon="-0.540179">
        <ele>530.30743408203</ele>
        <time>2020-06-14T21:55:14.008Z</time>
      </trkpt>
      <trkpt lat="40.086126" lon="-0.540213">
        <ele>531.48565673828</ele>
        <time>2020-06-14T21:55:14.940Z</time>
      </trkpt>
      <trkpt lat="40.086128" lon="-0.540173">
        <ele>530.16583251953</ele>
        <time>2020-06-14T21:55:15.873Z</time>
      </trkpt>
      <trkpt lat="40.086129" lon="-0.54017">
        <ele>530.07708740234</ele>
        <time>2020-06-14T21:55:16.806Z</time>
      </trkpt>
      <trkpt lat="40.086137" lon="-0.540159">
        <ele>529.80352783203</ele>
        <time>2020-06-14T21:55:17.739Z</time>
      </trkpt>
      <trkpt lat="40.086136" lon="-0.540151">
        <ele>529.52276611328</ele>
        <time>2020-06-14T21:55:18.672Z</time>
      </trkpt>
      <trkpt lat="40.086223" lon="-0.540082">
        <ele>528.24859619141</ele>
        <time>2020-06-14T21:55:19.607Z</time>
      </trkpt>
      <trkpt lat="40.086315" lon="-0.54005">
        <ele>527.85461425781</ele>
        <time>2020-06-14T21:55:20.544Z</time>
      </trkpt>
      <trkpt lat="40.086406" lon="-0.54005">
        <ele>528.18212890625</ele>
        <time>2020-06-14T21:55:21.483Z</time>
      </trkpt>
      <trkpt lat="40.086477" lon="-0.540064">
        <ele>528.90802001953</ele>
        <time>2020-06-14T21:55:22.423Z</time>
      </trkpt>
      <trkpt lat="40.086536" lon="-0.540081">
        <ele>529.69146728516</ele>
        <time>2020-06-14T21:55:23.365Z</time>
      </trkpt>
      <trkpt lat="40.08662" lon="-0.540108">
        <ele>530.90087890625</ele>
        <time>2020-06-14T21:55:24.308Z</time>
      </trkpt>
      <trkpt lat="40.086666" lon="-0.540099">
        <ele>530.76409912109</ele>
        <time>2020-06-14T21:55:25.252Z</time>
      </trkpt>
      <trkpt lat="40.086749" lon="-0.540056">
        <ele>529.16809082031</ele>
        <time>2020-06-14T21:55:26.198Z</time>
      </trkpt>
      <trkpt lat="40.086813" lon="-0.540053">
        <ele>528.49261474609</ele>
        <time>2020-06-14T21:55:27.145Z</time>
      </trkpt>
      <trkpt lat="40.086828" lon="-0.540036">
        <ele>528.00189208984</ele>
        <time>2020-06-14T21:55:28.093Z</time>
      </trkpt>
      <trkpt lat="40.086851" lon="-0.539934">
        <ele>525.70068359375</ele>
        <time>2020-06-14T21:55:29.042Z</time>
      </trkpt>
      <trkpt lat="40.086896" lon="-0.539915">
        <ele>524.88122558594</ele>
        <time>2020-06-14T21:55:29.992Z</time>
      </trkpt>
      <trkpt lat="40.086973" lon="-0.539968">
        <ele>525.22314453125</ele>
        <time>2020-06-14T21:55:30.944Z</time>
      </trkpt>
      <trkpt lat="40.087113" lon="-0.539943">
        <ele>523.47644042969</ele>
        <time>2020-06-14T21:55:31.899Z</time>
      </trkpt>
      <trkpt lat="40.087153" lon="-0.539947">
        <ele>523.46209716797</ele>
        <time>2020-06-14T21:55:32.855Z</time>
      </trkpt>
      <trkpt lat="40.087253" lon="-0.539938">
        <ele>523.03851318359</ele>
        <time>2020-06-14T21:55:33.813Z</time>
      </trkpt>
      <trkpt lat="40.087393" lon="-0.539944">
        <ele>522.82495117188</ele>
        <time>2020-06-14T21:55:34.773Z</time>
      </trkpt>
      <trkpt lat="40.087596" lon="-0.540058">
        <ele>522.75714111328</ele>
        <time>2020-06-14T21:55:35.738Z</time>
      </trkpt>
      <trkpt lat="40.08778" lon="-0.540189">
        <ele>512.89361572266</ele>
        <time>2020-06-14T21:55:36.707Z</time>
      </trkpt>
      <trkpt lat="40.08794" lon="-0.540382">
        <ele>503.62841796875</ele>
        <time>2020-06-14T21:55:37.680Z</time>
      </trkpt>
      <trkpt lat="40.088117" lon="-0.540666">
        <ele>508.43984985352</ele>
        <time>2020-06-14T21:55:38.659Z</time>
      </trkpt>
      <trkpt lat="40.088194" lon="-0.540976">
        <ele>512.69915771484</ele>
        <time>2020-06-14T21:55:39.643Z</time>
      </trkpt>
      <trkpt lat="40.088202" lon="-0.541379">
        <ele>511.22244262695</ele>
        <time>2020-06-14T21:55:40.633Z</time>
      </trkpt>
      <trkpt lat="40.087986" lon="-0.541843">
        <ele>515.16735839844</ele>
        <time>2020-06-14T21:55:41.632Z</time>
      </trkpt>
      <trkpt lat="40.087691" lon="-0.542184">
        <ele>519.05596923828</ele>
        <time>2020-06-14T21:55:42.638Z</time>
      </trkpt>
      <trkpt lat="40.087472" lon="-0.542295">
        <ele>517.46862792969</ele>
        <time>2020-06-14T21:55:43.649Z</time>
      </trkpt>
      <trkpt lat="40.087307" lon="-0.54237">
        <ele>516.33483886719</ele>
        <time>2020-06-14T21:55:44.664Z</time>
      </trkpt>
      <trkpt lat="40.087257" lon="-0.542473">
        <ele>515.41339111328</ele>
        <time>2020-06-14T21:55:45.681Z</time>
      </trkpt>
      <trkpt lat="40.087247" lon="-0.542503">
        <ele>515.16143798828</ele>
        <time>2020-06-14T21:55:46.698Z</time>
      </trkpt>
      <trkpt lat="40.087252" lon="-0.542507">
        <ele>515.15063476562</ele>
        <time>2020-06-14T21:55:47.715Z</time>
      </trkpt>
      <trkpt lat="40.087263" lon="-0.542496">
        <ele>515.26940917969</ele>
        <time>2020-06-14T21:55:48.732Z</time>
      </trkpt>
      <trkpt lat="40.087249" lon="-0.542535">
        <ele>514.93829345703</ele>
        <time>2020-06-14T21:55:49.750Z</time>
      </trkpt>
      <trkpt lat="40.087242" lon="-0.542533">
        <ele>514.92749023438</ele>
        <time>2020-06-14T21:55:50.768Z</time>
      </trkpt>
      <trkpt lat="40.087235" lon="-0.542544">
        <ele>514.82312011719</ele>
        <time>2020-06-14T21:55:51.786Z</time>
      </trkpt>
      <trkpt lat="40.087218" lon="-0.542508">
        <ele>515.02105712891</ele>
        <time>2020-06-14T21:55:52.805Z</time>
      </trkpt>
      <trkpt lat="40.087184" lon="-0.542505">
        <ele>514.92028808594</ele>
        <time>2020-06-14T21:55:53.825Z</time>
      </trkpt>
      <trkpt lat="40.087147" lon="-0.542514">
        <ele>514.72229003906</ele>
        <time>2020-06-14T21:55:54.846Z</time>
      </trkpt>
      <trkpt lat="40.087048" lon="-0.54257">
        <ele>513.662109375</ele>
        <time>2020-06-14T21:55:55.869Z</time>
      </trkpt>
      <trkpt lat="40.086994" lon="-0.542582">
        <ele>513.05737304688</ele>
        <time>2020-06-14T21:55:56.893Z</time>
      </trkpt>
      <trkpt lat="40.086859" lon="-0.542619">
        <ele>511.49523925781</ele>
        <time>2020-06-14T21:55:57.920Z</time>
      </trkpt>
      <trkpt lat="40.086757" lon="-0.542632">
        <ele>510.42260742188</ele>
        <time>2020-06-14T21:55:58.949Z</time>
      </trkpt>
      <trkpt lat="40.08654" lon="-0.542706">
        <ele>507.89813232422</ele>
        <time>2020-06-14T21:55:59.982Z</time>
      </trkpt>
      <trkpt lat="40.086402" lon="-0.542697">
        <ele>507.16744995117</ele>
        <time>2020-06-14T21:56:01.018Z</time>
      </trkpt>
      <trkpt lat="40.086257" lon="-0.542697">
        <ele>506.31597900391</ele>
        <time>2020-06-14T21:56:02.057Z</time>
      </trkpt>
      <trkpt lat="40.086137" lon="-0.542695">
        <ele>505.90567016602</ele>
        <time>2020-06-14T21:56:03.098Z</time>
      </trkpt>
      <trkpt lat="40.086117" lon="-0.542688">
        <ele>505.90924072266</ele>
        <time>2020-06-14T21:56:04.140Z</time>
      </trkpt>
      <trkpt lat="40.086045" lon="-0.542668">
        <ele>505.86605834961</ele>
        <time>2020-06-14T21:56:05.183Z</time>
      </trkpt>
      <trkpt lat="40.085929" lon="-0.542633">
        <ele>505.82647705078</ele>
        <time>2020-06-14T21:56:06.228Z</time>
      </trkpt>
      <trkpt lat="40.0857" lon="-0.542613">
        <ele>507.76431274414</ele>
        <time>2020-06-14T21:56:07.278Z</time>
      </trkpt>
      <trkpt lat="40.085634" lon="-0.542608">
        <ele>509.02890014648</ele>
        <time>2020-06-14T21:56:08.329Z</time>
      </trkpt>
      <trkpt lat="40.085346" lon="-0.542525">
        <ele>515.43353271484</ele>
        <time>2020-06-14T21:56:09.386Z</time>
      </trkpt>
      <trkpt lat="40.08506" lon="-0.542492">
        <ele>517.89837646484</ele>
        <time>2020-06-14T21:56:10.449Z</time>
      </trkpt>
      <trkpt lat="40.084759" lon="-0.54254">
        <ele>518.14910888672</ele>
        <time>2020-06-14T21:56:11.518Z</time>
      </trkpt>
      <trkpt lat="40.084516" lon="-0.542677">
        <ele>516.54144287109</ele>
        <time>2020-06-14T21:56:12.592Z</time>
      </trkpt>
      <trkpt lat="40.084258" lon="-0.542836">
        <ele>517.27215576172</ele>
        <time>2020-06-14T21:56:13.672Z</time>
      </trkpt>
      <trkpt lat="40.084049" lon="-0.542964">
        <ele>517.89001464844</ele>
        <time>2020-06-14T21:56:14.757Z</time>
      </trkpt>
      <trkpt lat="40.083914" lon="-0.543072">
        <ele>518.88043212891</ele>
        <time>2020-06-14T21:56:15.845Z</time>
      </trkpt>
      <trkpt lat="40.083864" lon="-0.54311">
        <ele>519.60986328125</ele>
        <time>2020-06-14T21:56:16.934Z</time>
      </trkpt>
      <trkpt lat="40.083622" lon="-0.543344">
        <ele>524.47711181641</ele>
        <time>2020-06-14T21:56:18.029Z</time>
      </trkpt>
      <trkpt lat="40.083439" lon="-0.543599">
        <ele>528.31048583984</ele>
        <time>2020-06-14T21:56:19.129Z</time>
      </trkpt>
      <trkpt lat="40.083287" lon="-0.5439">
        <ele>530.53131103516</ele>
        <time>2020-06-14T21:56:20.235Z</time>
      </trkpt>
      <trkpt lat="40.083187" lon="-0.543981">
        <ele>533.25604248047</ele>
        <time>2020-06-14T21:56:21.343Z</time>
      </trkpt>
      <trkpt lat="40.08311" lon="-0.544249">
        <ele>533.13366699219</ele>
        <time>2020-06-14T21:56:22.456Z</time>
      </trkpt>
      <trkpt lat="40.083108" lon="-0.544577">
        <ele>531.01837158203</ele>
        <time>2020-06-14T21:56:23.574Z</time>
      </trkpt>
      <trkpt lat="40.083144" lon="-0.544921">
        <ele>533.28149414062</ele>
        <time>2020-06-14T21:56:24.697Z</time>
      </trkpt>
      <trkpt lat="40.083106" lon="-0.545469">
        <ele>538.11889648438</ele>
        <time>2020-06-14T21:56:25.828Z</time>
      </trkpt>
      <trkpt lat="40.083161" lon="-0.545754">
        <ele>542.57244873047</ele>
        <time>2020-06-14T21:56:26.964Z</time>
      </trkpt>
      <trkpt lat="40.083306" lon="-0.545999">
        <ele>543.60113525391</ele>
        <time>2020-06-14T21:56:28.105Z</time>
      </trkpt>
      <trkpt lat="40.083424" lon="-0.546398">
        <ele>537.58258056641</ele>
        <time>2020-06-14T21:56:29.252Z</time>
      </trkpt>
      <trkpt lat="40.083513" lon="-0.546663">
        <ele>536.51477050781</ele>
        <time>2020-06-14T21:56:30.404Z</time>
      </trkpt>
      <trkpt lat="40.083557" lon="-0.546804">
        <ele>537.71215820312</ele>
        <time>2020-06-14T21:56:31.558Z</time>
      </trkpt>
      <trkpt lat="40.083555" lon="-0.5469">
        <ele>539.86938476562</ele>
        <time>2020-06-14T21:56:32.713Z</time>
      </trkpt>
      <trkpt lat="40.083546" lon="-0.547203">
        <ele>546.75622558594</ele>
        <time>2020-06-14T21:56:33.873Z</time>
      </trkpt>
      <trkpt lat="40.083472" lon="-0.547492">
        <ele>555.94372558594</ele>
        <time>2020-06-14T21:56:35.038Z</time>
      </trkpt>
      <trkpt lat="40.083476" lon="-0.547766">
        <ele>563.36572265625</ele>
        <time>2020-06-14T21:56:36.207Z</time>
      </trkpt>
      <trkpt lat="40.083618" lon="-0.54807">
        <ele>566.96392822266</ele>
        <time>2020-06-14T21:56:37.381Z</time>
      </trkpt>
      <trkpt lat="40.083677" lon="-0.548178">
        <ele>567.95074462891</ele>
        <time>2020-06-14T21:56:38.558Z</time>
      </trkpt>
      <trkpt lat="40.083836" lon="-0.548465">
        <ele>571.67858886719</ele>
        <time>2020-06-14T21:56:39.740Z</time>
      </trkpt>
      <trkpt lat="40.083968" lon="-0.548795">
        <ele>580.17901611328</ele>
        <time>2020-06-14T21:56:40.928Z</time>
      </trkpt>
      <trkpt lat="40.08405325143" lon="-0.54896237425">
        <ele>584.76275634766</ele>
        <time>2020-06-14T21:56:42.119Z</time>
      </trkpt>
      <trkpt lat="40.084077" lon="-0.549009">
        <ele>585.962890625</ele>
        <time>2020-06-14T21:56:43.311Z</time>
      </trkpt>
      <trkpt lat="40.08409610018" lon="-0.54899185896">
        <ele>585.35473632812</ele>
        <time>2020-06-14T21:56:44.503Z</time>
      </trkpt>
      <trkpt lat="40.08441209793" lon="-0.54959535599">
        <ele>592.64770507812</ele>
        <time>2020-06-14T21:56:45.706Z</time>
      </trkpt>
      <trkpt lat="40.08444428444" lon="-0.54994940758">
        <ele>593.91125488281</ele>
        <time>2020-06-14T21:56:46.915Z</time>
      </trkpt>
      <trkpt lat="40.08430480957" lon="-0.55026054382">
        <ele>597.02642822266</ele>
        <time>2020-06-14T21:56:48.129Z</time>
      </trkpt>
      <trkpt lat="40.08449792862" lon="-0.55026054382">
        <ele>589.61187744141</ele>
        <time>2020-06-14T21:56:49.347Z</time>
      </trkpt>
      <trkpt lat="40.08446926251" lon="-0.55033103563">
        <ele>590.20501708984</ele>
        <time>2020-06-14T21:56:50.566Z</time>
      </trkpt>
      <trkpt lat="40.08446926251" lon="-0.55033120327">
        <ele>590.20379638672</ele>
        <time>2020-06-14T21:56:51.785Z</time>
      </trkpt>
      <trkpt lat="40.08435853757" lon="-0.55060386658">
        <ele>593.52844238281</ele>
        <time>2020-06-14T21:56:53.009Z</time>
      </trkpt>
      <trkpt lat="40.08430480957" lon="-0.55026054382">
        <ele>597.02642822266</ele>
        <time>2020-06-14T21:56:54.238Z</time>
      </trkpt>
      <trkpt lat="40.08449792862" lon="-0.55026054382">
        <ele>589.61187744141</ele>
        <time>2020-06-14T21:56:55.471Z</time>
      </trkpt>
      <trkpt lat="40.08590340614" lon="-0.54849028587">
        <ele>580.55474853516</ele>
        <time>2020-06-14T21:56:56.743Z</time>
      </trkpt>
      <trkpt lat="40.08662223816" lon="-0.54732084274">
        <ele>584.51391601562</ele>
        <time>2020-06-14T21:56:58.038Z</time>
      </trkpt>
      <trkpt lat="40.08674025536" lon="-0.54690241814">
        <ele>590.96875</ele>
        <time>2020-06-14T21:56:59.340Z</time>
      </trkpt>
      <trkpt lat="40.0869333744" lon="-0.54660201073">
        <ele>596.86437988281</ele>
        <time>2020-06-14T21:57:00.648Z</time>
      </trkpt>
      <trkpt lat="40.08723378181" lon="-0.54652690887">
        <ele>598.52398681641</ele>
        <time>2020-06-14T21:57:01.962Z</time>
      </trkpt>
      <trkpt lat="40.08757710457" lon="-0.54687023163">
        <ele>591.50439453125</ele>
        <time>2020-06-14T21:57:03.285Z</time>
      </trkpt>
      <trkpt lat="40.08780249394" lon="-0.54688096046">
        <ele>590.69323730469</ele>
        <time>2020-06-14T21:57:04.613Z</time>
      </trkpt>
      <trkpt lat="40.08906841278" lon="-0.54641962051">
        <ele>587.93078613281</ele>
        <time>2020-06-14T21:57:05.967Z</time>
      </trkpt>
      <trkpt lat="40.08974432945" lon="-0.54584026337">
        <ele>587.13043212891</ele>
        <time>2020-06-14T21:57:07.337Z</time>
      </trkpt>
      <trkpt lat="40.09011983871" lon="-0.54536819458">
        <ele>591.70159912109</ele>
        <time>2020-06-14T21:57:08.717Z</time>
      </trkpt>
      <trkpt lat="40.0905919075" lon="-0.54513216019">
        <ele>589.72833251953</ele>
        <time>2020-06-14T21:57:10.108Z</time>
      </trkpt>
      <trkpt lat="40.09148248471" lon="-0.54498195648">
        <ele>585.03918457031</ele>
        <time>2020-06-14T21:57:11.516Z</time>
      </trkpt>
      <trkpt lat="40.09222269058" lon="-0.54491758347">
        <ele>585.08905029297</ele>
        <time>2020-06-14T21:57:12.939Z</time>
      </trkpt>
      <trkpt lat="40.0928235054" lon="-0.54457426071">
        <ele>594.95440673828</ele>
        <time>2020-06-14T21:57:14.375Z</time>
      </trkpt>
      <trkpt lat="40.09314537048" lon="-0.5447781086">
        <ele>600.11553955078</ele>
        <time>2020-06-14T21:57:15.819Z</time>
      </trkpt>
      <trkpt lat="40.09334921837" lon="-0.5453145504">
        <ele>596.42736816406</ele>
        <time>2020-06-14T21:57:17.272Z</time>
      </trkpt>
      <trkpt lat="40.09357452393" lon="-0.54508924484">
        <ele>605.61828613281</ele>
        <time>2020-06-14T21:57:18.730Z</time>
      </trkpt>
      <trkpt lat="40.09360671043" lon="-0.54452061653">
        <ele>612.69659423828</ele>
        <time>2020-06-14T21:57:20.197Z</time>
      </trkpt>
      <trkpt lat="40.09373545647" lon="-0.54423093796">
        <ele>614.00958251953</ele>
        <time>2020-06-14T21:57:21.669Z</time>
      </trkpt>
      <trkpt lat="40.09373554029" lon="-0.54423093796">
        <ele>614.01177978516</ele>
        <time>2020-06-14T21:57:23.141Z</time>
      </trkpt>
      <trkpt lat="40.09434700012" lon="-0.54371595383">
        <ele>629.38812255859</ele>
        <time>2020-06-14T21:57:24.628Z</time>
      </trkpt>
      <trkpt lat="40.09488344193" lon="-0.54265379906">
        <ele>614.90716552734</ele>
        <time>2020-06-14T21:57:26.134Z</time>
      </trkpt>
      <trkpt lat="40.09495854378" lon="-0.54262161255">
        <ele>614.79132080078</ele>
        <time>2020-06-14T21:57:27.642Z</time>
      </trkpt>
      <trkpt lat="40.09508728981" lon="-0.54264307022">
        <ele>616.35186767578</ele>
        <time>2020-06-14T21:57:29.153Z</time>
      </trkpt>
      <trkpt lat="40.09577393532" lon="-0.54311513901">
        <ele>632.87261962891</ele>
        <time>2020-06-14T21:57:30.679Z</time>
      </trkpt>
      <trkpt lat="40.09634256363" lon="-0.54288983345">
        <ele>630.927734375</ele>
        <time>2020-06-14T21:57:32.217Z</time>
      </trkpt>
      <trkpt lat="40.09680390358" lon="-0.54300785065">
        <ele>632.97845458984</ele>
        <time>2020-06-14T21:57:33.764Z</time>
      </trkpt>
      <trkpt lat="40.09706139565" lon="-0.54297566414">
        <ele>633.89892578125</ele>
        <time>2020-06-14T21:57:35.317Z</time>
      </trkpt>
      <trkpt lat="40.09727597237" lon="-0.54310441017">
        <ele>638.0126953125</ele>
        <time>2020-06-14T21:57:36.874Z</time>
      </trkpt>
      <trkpt lat="40.09727605619" lon="-0.54310441017">
        <ele>638.01306152344</ele>
        <time>2020-06-14T21:57:38.431Z</time>
      </trkpt>
      <trkpt lat="40.09744763374" lon="-0.54325461388">
        <ele>643.70227050781</ele>
        <time>2020-06-14T21:57:39.992Z</time>
      </trkpt>
      <trkpt lat="40.09796261787" lon="-0.54336190224">
        <ele>647.72564697266</ele>
        <time>2020-06-14T21:57:41.564Z</time>
      </trkpt>
      <trkpt lat="40.09848833084" lon="-0.54336190224">
        <ele>660.40356445312</ele>
        <time>2020-06-14T21:57:43.146Z</time>
      </trkpt>
      <trkpt lat="40.09855270386" lon="-0.5432009697">
        <ele>659.24652099609</ele>
        <time>2020-06-14T21:57:44.731Z</time>
      </trkpt>
      <trkpt lat="40.09823083878" lon="-0.54276108742">
        <ele>649.09515380859</ele>
        <time>2020-06-14T21:57:46.325Z</time>
      </trkpt>
      <trkpt lat="40.09784460068" lon="-0.54268598557">
        <ele>642.57580566406</ele>
        <time>2020-06-14T21:57:47.927Z</time>
      </trkpt>
      <trkpt lat="40.0976729393" lon="-0.54232120514">
        <ele>645.82482910156</ele>
        <time>2020-06-14T21:57:49.536Z</time>
      </trkpt>
      <trkpt lat="40.09726524353" lon="-0.54205298424">
        <ele>641.92510986328</ele>
        <time>2020-06-14T21:57:51.154Z</time>
      </trkpt>
      <trkpt lat="40.09702920914" lon="-0.54145216942">
        <ele>654.66027832031</ele>
        <time>2020-06-14T21:57:52.782Z</time>
      </trkpt>
      <trkpt lat="40.09688973427" lon="-0.54072260857">
        <ele>664.29309082031</ele>
        <time>2020-06-14T21:57:54.422Z</time>
      </trkpt>
      <trkpt lat="40.09657859802" lon="-0.54051876068">
        <ele>657.27990722656</ele>
        <time>2020-06-14T21:57:56.069Z</time>
      </trkpt>
      <trkpt lat="40.09654641151" lon="-0.53997159004">
        <ele>668.32208251953</ele>
        <time>2020-06-14T21:57:57.724Z</time>
      </trkpt>
      <trkpt lat="40.09632110596" lon="-0.53968191147">
        <ele>665.85052490234</ele>
        <time>2020-06-14T21:57:59.386Z</time>
      </trkpt>
      <trkpt lat="40.09618163109" lon="-0.53968191147">
        <ele>661.69012451172</ele>
        <time>2020-06-14T21:58:01.050Z</time>
      </trkpt>
      <trkpt lat="40.09602069855" lon="-0.53957462311">
        <ele>660.98999023438</ele>
        <time>2020-06-14T21:58:02.718Z</time>
      </trkpt>
      <trkpt lat="40.09590268135" lon="-0.53894162178">
        <ele>676.01416015625</ele>
        <time>2020-06-14T21:58:04.396Z</time>
      </trkpt>
      <trkpt lat="40.09591341019" lon="-0.53875923157">
        <ele>679.39276123047</ele>
        <time>2020-06-14T21:58:06.077Z</time>
      </trkpt>
      <trkpt lat="40.09641766548" lon="-0.53789019585">
        <ele>705.3564453125</ele>
        <time>2020-06-14T21:58:07.774Z</time>
      </trkpt>
      <trkpt lat="40.0964820385" lon="-0.53750395775">
        <ele>711.36291503906</ele>
        <time>2020-06-14T21:58:09.478Z</time>
      </trkpt>
      <trkpt lat="40.09639620781" lon="-0.5371928215">
        <ele>709.11022949219</ele>
        <time>2020-06-14T21:58:11.187Z</time>
      </trkpt>
      <trkpt lat="40.09618163109" lon="-0.53717136383">
        <ele>701.99664306641</ele>
        <time>2020-06-14T21:58:12.900Z</time>
      </trkpt>
      <trkpt lat="40.09554862976" lon="-0.53736448288">
        <ele>691.16149902344</ele>
        <time>2020-06-14T21:58:14.626Z</time>
      </trkpt>
      <trkpt lat="40.0951731205" lon="-0.53720355034">
        <ele>694.12078857422</ele>
        <time>2020-06-14T21:58:16.360Z</time>
      </trkpt>
      <trkpt lat="40.09511947632" lon="-0.53703188896">
        <ele>698.12060546875</ele>
        <time>2020-06-14T21:58:18.097Z</time>
      </trkpt>
      <trkpt lat="40.09501218796" lon="-0.53527235985">
        <ele>713.88891601562</ele>
        <time>2020-06-14T21:58:19.861Z</time>
      </trkpt>
      <trkpt lat="40.0950551033" lon="-0.53512215614">
        <ele>714.09484863281</ele>
        <time>2020-06-14T21:58:21.627Z</time>
      </trkpt>
      <trkpt lat="40.09581685066" lon="-0.53447842598">
        <ele>723.29644775391</ele>
        <time>2020-06-14T21:58:23.411Z</time>
      </trkpt>
      <trkpt lat="40.09623527527" lon="-0.53380250931">
        <ele>728.38043212891</ele>
        <time>2020-06-14T21:58:25.209Z</time>
      </trkpt>
      <trkpt lat="40.09667515755" lon="-0.53352355957">
        <ele>731.14782714844</ele>
        <time>2020-06-14T21:58:27.016Z</time>
      </trkpt>
      <trkpt lat="40.09678244591" lon="-0.53313732147">
        <ele>729.96984863281</ele>
        <time>2020-06-14T21:58:28.830Z</time>
      </trkpt>
      <trkpt lat="40.09673953056" lon="-0.53301930428">
        <ele>729.04302978516</ele>
        <time>2020-06-14T21:58:30.646Z</time>
      </trkpt>
      <trkpt lat="40.09661078453" lon="-0.53297638893">
        <ele>727.85864257812</ele>
        <time>2020-06-14T21:58:32.464Z</time>
      </trkpt>
      <trkpt lat="40.09640693665" lon="-0.53318023682">
        <ele>727.02203369141</ele>
        <time>2020-06-14T21:58:34.288Z</time>
      </trkpt>
      <trkpt lat="40.09595632553" lon="-0.53333044052">
        <ele>722.09869384766</ele>
        <time>2020-06-14T21:58:36.121Z</time>
      </trkpt>
      <trkpt lat="40.09585976601" lon="-0.53330898285">
        <ele>721.8359375</ele>
        <time>2020-06-14T21:58:37.956Z</time>
      </trkpt>
      <trkpt lat="40.09539842606" lon="-0.53293347359">
        <ele>723.56237792969</ele>
        <time>2020-06-14T21:58:39.802Z</time>
      </trkpt>
      <trkpt lat="40.09536623955" lon="-0.53274035454">
        <ele>725.30017089844</ele>
        <time>2020-06-14T21:58:41.651Z</time>
      </trkpt>
      <trkpt lat="40.0955593586" lon="-0.53160309792">
        <ele>734.18322753906</ele>
        <time>2020-06-14T21:58:43.518Z</time>
      </trkpt>
      <trkpt lat="40.09565591812" lon="-0.53063750267">
        <ele>740.54058837891</ele>
        <time>2020-06-14T21:58:45.400Z</time>
      </trkpt>
      <trkpt lat="40.09579539299" lon="-0.53044438362">
        <ele>742.46362304688</ele>
        <time>2020-06-14T21:58:47.286Z</time>
      </trkpt>
      <trkpt lat="40.09602069855" lon="-0.53058385849">
        <ele>743.05072021484</ele>
        <time>2020-06-14T21:58:49.177Z</time>
      </trkpt>
      <trkpt lat="40.09614944458" lon="-0.53057312965">
        <ele>743.88745117188</ele>
        <time>2020-06-14T21:58:51.070Z</time>
      </trkpt>
      <trkpt lat="40.09643912315" lon="-0.53012251854">
        <ele>749.73596191406</ele>
        <time>2020-06-14T21:58:52.972Z</time>
      </trkpt>
      <trkpt lat="40.09670734406" lon="-0.53002595901">
        <ele>754.70471191406</ele>
        <time>2020-06-14T21:58:54.880Z</time>
      </trkpt>
      <trkpt lat="40.09682536125" lon="-0.53009033203">
        <ele>754.814453125</ele>
        <time>2020-06-14T21:58:56.790Z</time>
      </trkpt>
      <trkpt lat="40.09722232819" lon="-0.53073406219">
        <ele>746.43896484375</ele>
        <time>2020-06-14T21:58:58.713Z</time>
      </trkpt>
      <trkpt lat="40.09737253189" lon="-0.53081989288">
        <ele>745.35772705078</ele>
        <time>2020-06-14T21:59:00.639Z</time>
      </trkpt>
      <trkpt lat="40.09745836258" lon="-0.53078770638">
        <ele>746.10430908203</ele>
        <time>2020-06-14T21:59:02.567Z</time>
      </trkpt>
      <trkpt lat="40.09768366814" lon="-0.53053021431">
        <ele>750.97009277344</ele>
        <time>2020-06-14T21:59:04.501Z</time>
      </trkpt>
      <trkpt lat="40.09816646576" lon="-0.52953243256">
        <ele>767.63159179688</ele>
        <time>2020-06-14T21:59:06.453Z</time>
      </trkpt>
      <trkpt lat="40.09826302528" lon="-0.5294573307">
        <ele>770.75958251953</ele>
        <time>2020-06-14T21:59:08.407Z</time>
      </trkpt>
      <trkpt lat="40.09847760201" lon="-0.52948951721">
        <ele>773.41131591797</ele>
        <time>2020-06-14T21:59:10.366Z</time>
      </trkpt>
      <trkpt lat="40.09903550148" lon="-0.53041219711">
        <ele>768.02313232422</ele>
        <time>2020-06-14T21:59:12.343Z</time>
      </trkpt>
      <trkpt lat="40.09946465492" lon="-0.53079843521">
        <ele>775.58441162109</ele>
        <time>2020-06-14T21:59:14.330Z</time>
      </trkpt>
      <trkpt lat="40.0996363163" lon="-0.53206443787">
        <ele>778.94604492188</ele>
        <time>2020-06-14T21:59:16.337Z</time>
      </trkpt>
      <trkpt lat="40.10003328323" lon="-0.53300857544">
        <ele>792.29925537109</ele>
        <time>2020-06-14T21:59:18.360Z</time>
      </trkpt>
      <trkpt lat="40.10021567345" lon="-0.53327679634">
        <ele>797.65167236328</ele>
        <time>2020-06-14T21:59:20.389Z</time>
      </trkpt>
      <trkpt lat="40.10045170784" lon="-0.53404927254">
        <ele>787.25854492188</ele>
        <time>2020-06-14T21:59:22.431Z</time>
      </trkpt>
      <trkpt lat="40.10077357292" lon="-0.53428530693">
        <ele>797.58227539062</ele>
        <time>2020-06-14T21:59:24.480Z</time>
      </trkpt>
      <trkpt lat="40.10114908218" lon="-0.53482174873">
        <ele>798.34509277344</ele>
        <time>2020-06-14T21:59:26.540Z</time>
      </trkpt>
      <trkpt lat="40.10123491287" lon="-0.53518652916">
        <ele>789.95220947266</ele>
        <time>2020-06-14T21:59:28.606Z</time>
      </trkpt>
      <trkpt lat="40.10136365891" lon="-0.53527235985">
        <ele>788.49835205078</ele>
        <time>2020-06-14T21:59:30.675Z</time>
      </trkpt>
      <trkpt lat="40.10203957558" lon="-0.53502559662">
        <ele>799.90228271484</ele>
        <time>2020-06-14T21:59:32.758Z</time>
      </trkpt>
      <trkpt lat="40.10246872902" lon="-0.53498268127">
        <ele>800.52392578125</ele>
        <time>2020-06-14T21:59:34.850Z</time>
      </trkpt>
      <trkpt lat="40.10287642479" lon="-0.53466081619">
        <ele>805.36486816406</ele>
        <time>2020-06-14T21:59:36.951Z</time>
      </trkpt>
      <trkpt lat="40.10309100151" lon="-0.53416728973">
        <ele>815.1044921875</ele>
        <time>2020-06-14T21:59:39.061Z</time>
      </trkpt>
      <trkpt lat="40.10320901871" lon="-0.5340385437">
        <ele>817.5888671875</ele>
        <time>2020-06-14T21:59:41.174Z</time>
      </trkpt>
      <trkpt lat="40.10347723961" lon="-0.53396344185">
        <ele>818.79888916016</ele>
        <time>2020-06-14T21:59:43.292Z</time>
      </trkpt>
      <trkpt lat="40.10363817215" lon="-0.53383469582">
        <ele>821.20477294922</ele>
        <time>2020-06-14T21:59:45.414Z</time>
      </trkpt>
      <trkpt lat="40.10372400284" lon="-0.53370594978">
        <ele>822.80096435547</ele>
        <time>2020-06-14T21:59:47.539Z</time>
      </trkpt>
      <trkpt lat="40.10379910469" lon="-0.53331971169">
        <ele>827.92181396484</ele>
        <time>2020-06-14T21:59:49.670Z</time>
      </trkpt>
      <trkpt lat="40.10403513908" lon="-0.53307294846">
        <ele>831.74493408203</ele>
        <time>2020-06-14T21:59:51.807Z</time>
      </trkpt>
      <trkpt lat="40.10419607162" lon="-0.53274035454">
        <ele>835.56811523438</ele>
        <time>2020-06-14T21:59:53.950Z</time>
      </trkpt>
      <trkpt lat="40.10474324226" lon="-0.53208589554">
        <ele>843.74084472656</ele>
        <time>2020-06-14T21:59:56.108Z</time>
      </trkpt>
      <trkpt lat="40.10506510735" lon="-0.53183913231">
        <ele>847.80853271484</ele>
        <time>2020-06-14T21:59:58.273Z</time>
      </trkpt>
      <trkpt lat="40.10532259941" lon="-0.5315387249">
        <ele>851.30981445312</ele>
        <time>2020-06-14T22:00:00.445Z</time>
      </trkpt>
      <trkpt lat="40.105676651" lon="-0.53077697754">
        <ele>854.72894287109</ele>
        <time>2020-06-14T22:00:02.631Z</time>
      </trkpt>
      <trkpt lat="40.10626673698" lon="-0.53003668785">
        <ele>852.19476318359</ele>
        <time>2020-06-14T22:00:04.833Z</time>
      </trkpt>
      <trkpt lat="40.10678172112" lon="-0.53084135056">
        <ele>858.46545410156</ele>
        <time>2020-06-14T22:00:07.051Z</time>
      </trkpt>
      <trkpt lat="40.10787606239" lon="-0.53118467331">
        <ele>864.80682373047</ele>
        <time>2020-06-14T22:00:09.292Z</time>
      </trkpt>
      <trkpt lat="40.10846614838" lon="-0.53101301193">
        <ele>863.38555908203</ele>
        <time>2020-06-14T22:00:11.545Z</time>
      </trkpt>
      <trkpt lat="40.10866999626" lon="-0.53105592728">
        <ele>863.20538330078</ele>
        <time>2020-06-14T22:00:13.802Z</time>
      </trkpt>
      <trkpt lat="40.10988235474" lon="-0.53205370903">
        <ele>855.11395263672</ele>
        <time>2020-06-14T22:00:16.088Z</time>
      </trkpt>
      <trkpt lat="40.11082649231" lon="-0.53314805031">
        <ele>848.34020996094</ele>
        <time>2020-06-14T22:00:18.399Z</time>
      </trkpt>
      <trkpt lat="40.11141657829" lon="-0.53368449211">
        <ele>849.99792480469</ele>
        <time>2020-06-14T22:00:20.724Z</time>
      </trkpt>
      <trkpt lat="40.11245727539" lon="-0.53357720375">
        <ele>850.00201416016</ele>
        <time>2020-06-14T22:00:23.070Z</time>
      </trkpt>
      <trkpt lat="40.11344432831" lon="-0.53328752518">
        <ele>842.20373535156</ele>
        <time>2020-06-14T22:00:25.436Z</time>
      </trkpt>
      <trkpt lat="40.11369109154" lon="-0.53334116936">
        <ele>839.25268554688</ele>
        <time>2020-06-14T22:00:27.807Z</time>
      </trkpt>
      <trkpt lat="40.11412024498" lon="-0.53375959396">
        <ele>837.87225341797</ele>
        <time>2020-06-14T22:00:30.189Z</time>
      </trkpt>
      <trkpt lat="40.11420607567" lon="-0.5340385437">
        <ele>837.81890869141</ele>
        <time>2020-06-14T22:00:32.576Z</time>
      </trkpt>
      <trkpt lat="40.11402368546" lon="-0.53461790085">
        <ele>845.24578857422</ele>
        <time>2020-06-14T22:00:34.972Z</time>
      </trkpt>
      <trkpt lat="40.11412663364" lon="-0.53516293788">
        <ele>847.47723388672</ele>
        <time>2020-06-14T22:00:37.377Z</time>
      </trkpt>
      <trkpt lat="40.11413675733" lon="-0.53521653637">
        <ele>848.01458740234</ele>
        <time>2020-06-14T22:00:39.783Z</time>
      </trkpt>
      <trkpt lat="40.114145" lon="-0.535214">
        <ele>847.84265136719</ele>
        <time>2020-06-14T22:00:42.189Z</time>
      </trkpt>
      <trkpt lat="40.114159" lon="-0.535258">
        <ele>848.18817138672</ele>
        <time>2020-06-14T22:00:44.596Z</time>
      </trkpt>
      <trkpt lat="40.114171" lon="-0.5353">
        <ele>848.54095458984</ele>
        <time>2020-06-14T22:00:47.003Z</time>
      </trkpt>
      <trkpt lat="40.11418" lon="-0.535342">
        <ele>848.94409179688</ele>
        <time>2020-06-14T22:00:49.411Z</time>
      </trkpt>
      <trkpt lat="40.114188" lon="-0.535384">
        <ele>849.36401367188</ele>
        <time>2020-06-14T22:00:51.820Z</time>
      </trkpt>
      <trkpt lat="40.114193" lon="-0.535425">
        <ele>849.82110595703</ele>
        <time>2020-06-14T22:00:54.229Z</time>
      </trkpt>
      <trkpt lat="40.114201" lon="-0.535464">
        <ele>850.20147705078</ele>
        <time>2020-06-14T22:00:56.639Z</time>
      </trkpt>
      <trkpt lat="40.11421" lon="-0.535502">
        <ele>850.55181884766</ele>
        <time>2020-06-14T22:00:59.050Z</time>
      </trkpt>
      <trkpt lat="40.114222" lon="-0.535575">
        <ele>851.48071289062</ele>
        <time>2020-06-14T22:01:01.462Z</time>
      </trkpt>
      <trkpt lat="40.11422" lon="-0.535612">
        <ele>852.09143066406</ele>
        <time>2020-06-14T22:01:03.874Z</time>
      </trkpt>
      <trkpt lat="40.114134" lon="-0.535943">
        <ele>858.69873046875</ele>
        <time>2020-06-14T22:01:06.292Z</time>
      </trkpt>
      <trkpt lat="40.114136" lon="-0.536154">
        <ele>863.04730224609</ele>
        <time>2020-06-14T22:01:08.713Z</time>
      </trkpt>
      <trkpt lat="40.114154" lon="-0.536172">
        <ele>863.24169921875</ele>
        <time>2020-06-14T22:01:11.134Z</time>
      </trkpt>
      <trkpt lat="40.114173" lon="-0.536191">
        <ele>863.44683837891</ele>
        <time>2020-06-14T22:01:13.556Z</time>
      </trkpt>
      <trkpt lat="40.114189" lon="-0.536206">
        <ele>863.59802246094</ele>
        <time>2020-06-14T22:01:15.978Z</time>
      </trkpt>
      <trkpt lat="40.11421" lon="-0.536231">
        <ele>863.91119384766</ele>
        <time>2020-06-14T22:01:18.401Z</time>
      </trkpt>
      <trkpt lat="40.114227" lon="-0.536267">
        <ele>864.50506591797</ele>
        <time>2020-06-14T22:01:20.824Z</time>
      </trkpt>
      <trkpt lat="40.114239" lon="-0.536298">
        <ele>865.04498291016</ele>
        <time>2020-06-14T22:01:23.248Z</time>
      </trkpt>
      <trkpt lat="40.114251" lon="-0.53633">
        <ele>865.60650634766</ele>
        <time>2020-06-14T22:01:25.673Z</time>
      </trkpt>
      <trkpt lat="40.114262" lon="-0.536366">
        <ele>866.16754150391</ele>
        <time>2020-06-14T22:01:28.098Z</time>
      </trkpt>
      <trkpt lat="40.11444" lon="-0.536637">
        <ele>867.82281494141</ele>
        <time>2020-06-14T22:01:30.529Z</time>
      </trkpt>
      <trkpt lat="40.114459" lon="-0.536636">
        <ele>867.42687988281</ele>
        <time>2020-06-14T22:01:32.960Z</time>
      </trkpt>
      <trkpt lat="40.11449" lon="-0.536637">
        <ele>866.80297851562</ele>
        <time>2020-06-14T22:01:35.392Z</time>
      </trkpt>
      <trkpt lat="40.114507" lon="-0.536635">
        <ele>866.439453125</ele>
        <time>2020-06-14T22:01:37.824Z</time>
      </trkpt>
      <trkpt lat="40.114521" lon="-0.536627">
        <ele>866.08673095703</ele>
        <time>2020-06-14T22:01:40.256Z</time>
      </trkpt>
      <trkpt lat="40.114536" lon="-0.536617">
        <ele>865.69677734375</ele>
        <time>2020-06-14T22:01:42.689Z</time>
      </trkpt>
      <trkpt lat="40.114552" lon="-0.536608">
        <ele>865.29486083984</ele>
        <time>2020-06-14T22:01:45.122Z</time>
      </trkpt>
      <trkpt lat="40.114798" lon="-0.536555">
        <ele>861.94085693359</ele>
        <time>2020-06-14T22:01:47.560Z</time>
      </trkpt>
      <trkpt lat="40.115039" lon="-0.536883">
        <ele>862.38238525391</ele>
        <time>2020-06-14T22:01:50.005Z</time>
      </trkpt>
      <trkpt lat="40.114925" lon="-0.537308">
        <ele>866.88323974609</ele>
        <time>2020-06-14T22:01:52.457Z</time>
      </trkpt>
      <trkpt lat="40.114791" lon="-0.537743">
        <ele>871.30090332031</ele>
        <time>2020-06-14T22:01:54.916Z</time>
      </trkpt>
      <trkpt lat="40.114708" lon="-0.538043">
        <ele>875.63226318359</ele>
        <time>2020-06-14T22:01:57.380Z</time>
      </trkpt>
      <trkpt lat="40.114579" lon="-0.538339">
        <ele>881.99517822266</ele>
        <time>2020-06-14T22:01:59.849Z</time>
      </trkpt>
      <trkpt lat="40.114562" lon="-0.53866">
        <ele>888.68524169922</ele>
        <time>2020-06-14T22:02:02.323Z</time>
      </trkpt>
      <trkpt lat="40.114582" lon="-0.538685">
        <ele>889.02722167969</ele>
        <time>2020-06-14T22:02:04.798Z</time>
      </trkpt>
      <trkpt lat="40.114607" lon="-0.538704">
        <ele>889.23559570312</ele>
        <time>2020-06-14T22:02:07.273Z</time>
      </trkpt>
      <trkpt lat="40.114944" lon="-0.538886">
        <ele>892.71160888672</ele>
        <time>2020-06-14T22:02:09.755Z</time>
      </trkpt>
      <trkpt lat="40.115191" lon="-0.538873">
        <ele>892.10333251953</ele>
        <time>2020-06-14T22:02:12.242Z</time>
      </trkpt>
      <trkpt lat="40.115211" lon="-0.538854">
        <ele>891.62341308594</ele>
        <time>2020-06-14T22:02:14.730Z</time>
      </trkpt>
      <trkpt lat="40.115232" lon="-0.538837">
        <ele>891.19848632812</ele>
        <time>2020-06-14T22:02:17.218Z</time>
      </trkpt>
      <trkpt lat="40.11555" lon="-0.538724">
        <ele>887.283203125</ele>
        <time>2020-06-14T22:02:19.713Z</time>
      </trkpt>
      <trkpt lat="40.115863" lon="-0.538734">
        <ele>879.48828125</ele>
        <time>2020-06-14T22:02:22.214Z</time>
      </trkpt>
      <trkpt lat="40.11596" lon="-0.53901">
        <ele>879.44085693359</ele>
        <time>2020-06-14T22:02:24.720Z</time>
      </trkpt>
      <trkpt lat="40.116059" lon="-0.539501">
        <ele>880.03570556641</ele>
        <time>2020-06-14T22:02:27.234Z</time>
      </trkpt>
      <trkpt lat="40.116163" lon="-0.539946">
        <ele>880.29437255859</ele>
        <time>2020-06-14T22:02:29.755Z</time>
      </trkpt>
      <trkpt lat="40.116142" lon="-0.540058">
        <ele>881.75573730469</ele>
        <time>2020-06-14T22:02:32.278Z</time>
      </trkpt>
      <trkpt lat="40.116046" lon="-0.54039">
        <ele>887.14044189453</ele>
        <time>2020-06-14T22:02:34.806Z</time>
      </trkpt>
      <trkpt lat="40.115924" lon="-0.540829">
        <ele>897.20458984375</ele>
        <time>2020-06-14T22:02:37.341Z</time>
      </trkpt>
      <trkpt lat="40.115942" lon="-0.540918">
        <ele>897.53253173828</ele>
        <time>2020-06-14T22:02:39.878Z</time>
      </trkpt>
      <trkpt lat="40.1161" lon="-0.541336">
        <ele>895.47845458984</ele>
        <time>2020-06-14T22:02:42.422Z</time>
      </trkpt>
      <trkpt lat="40.116262" lon="-0.541765">
        <ele>897.44946289062</ele>
        <time>2020-06-14T22:02:44.973Z</time>
      </trkpt>
      <trkpt lat="40.116523" lon="-0.542145">
        <ele>897.77227783203</ele>
        <time>2020-06-14T22:02:47.532Z</time>
      </trkpt>
      <trkpt lat="40.116627" lon="-0.542422">
        <ele>900.64318847656</ele>
        <time>2020-06-14T22:02:50.096Z</time>
      </trkpt>
      <trkpt lat="40.11686" lon="-0.542825">
        <ele>902.22247314453</ele>
        <time>2020-06-14T22:02:52.667Z</time>
      </trkpt>
      <trkpt lat="40.11705" lon="-0.542967">
        <ele>899.70526123047</ele>
        <time>2020-06-14T22:02:55.243Z</time>
      </trkpt>
      <trkpt lat="40.117076" lon="-0.543012">
        <ele>899.76165771484</ele>
        <time>2020-06-14T22:02:57.820Z</time>
      </trkpt>
      <trkpt lat="40.117098" lon="-0.54306">
        <ele>899.32757568359</ele>
        <time>2020-06-14T22:03:00.397Z</time>
      </trkpt>
      <trkpt lat="40.117114" lon="-0.543112">
        <ele>899.22277832031</ele>
        <time>2020-06-14T22:03:02.975Z</time>
      </trkpt>
      <trkpt lat="40.117127" lon="-0.543165">
        <ele>899.22637939453</ele>
        <time>2020-06-14T22:03:05.554Z</time>
      </trkpt>
      <trkpt lat="40.117173" lon="-0.543738">
        <ele>900.62658691406</ele>
        <time>2020-06-14T22:03:08.142Z</time>
      </trkpt>
      <trkpt lat="40.116962" lon="-0.544251">
        <ele>901.9658203125</ele>
        <time>2020-06-14T22:03:10.739Z</time>
      </trkpt>
      <trkpt lat="40.116765" lon="-0.544487">
        <ele>905.56280517578</ele>
        <time>2020-06-14T22:03:13.341Z</time>
      </trkpt>
      <trkpt lat="40.116742" lon="-0.544535">
        <ele>905.76202392578</ele>
        <time>2020-06-14T22:03:15.944Z</time>
      </trkpt>
      <trkpt lat="40.116721" lon="-0.54458">
        <ele>905.93115234375</ele>
        <time>2020-06-14T22:03:18.548Z</time>
      </trkpt>
      <trkpt lat="40.116551" lon="-0.545068">
        <ele>906.43798828125</ele>
        <time>2020-06-14T22:03:21.160Z</time>
      </trkpt>
      <trkpt lat="40.116272" lon="-0.545563">
        <ele>911.77178955078</ele>
        <time>2020-06-14T22:03:23.782Z</time>
      </trkpt>
      <trkpt lat="40.116254" lon="-0.545614">
        <ele>912.53973388672</ele>
        <time>2020-06-14T22:03:26.405Z</time>
      </trkpt>
      <trkpt lat="40.116242" lon="-0.545666">
        <ele>913.28839111328</ele>
        <time>2020-06-14T22:03:29.028Z</time>
      </trkpt>
      <trkpt lat="40.116123" lon="-0.546385">
        <ele>923.42681884766</ele>
        <time>2020-06-14T22:03:31.663Z</time>
      </trkpt>
      <trkpt lat="40.116371" lon="-0.546583">
        <ele>926.51263427734</ele>
        <time>2020-06-14T22:03:34.303Z</time>
      </trkpt>
      <trkpt lat="40.116701" lon="-0.546815">
        <ele>927.74285888672</ele>
        <time>2020-06-14T22:03:36.951Z</time>
      </trkpt>
      <trkpt lat="40.116934" lon="-0.547094">
        <ele>929.57855224609</ele>
        <time>2020-06-14T22:03:39.605Z</time>
      </trkpt>
      <trkpt lat="40.117282" lon="-0.54751">
        <ele>932.57604980469</ele>
        <time>2020-06-14T22:03:42.269Z</time>
      </trkpt>
      <trkpt lat="40.11769" lon="-0.547726">
        <ele>928.33892822266</ele>
        <time>2020-06-14T22:03:44.942Z</time>
      </trkpt>
      <trkpt lat="40.117837" lon="-0.548338">
        <ele>922.29321289062</ele>
        <time>2020-06-14T22:03:47.624Z</time>
      </trkpt>
      <trkpt lat="40.117819" lon="-0.548387">
        <ele>922.44921875</ele>
        <time>2020-06-14T22:03:50.307Z</time>
      </trkpt>
      <trkpt lat="40.117792" lon="-0.548435">
        <ele>922.92791748047</ele>
        <time>2020-06-14T22:03:52.991Z</time>
      </trkpt>
      <trkpt lat="40.117726" lon="-0.548521">
        <ele>924.39886474609</ele>
        <time>2020-06-14T22:03:55.677Z</time>
      </trkpt>
      <trkpt lat="40.117692" lon="-0.548562">
        <ele>925.18835449219</ele>
        <time>2020-06-14T22:03:58.364Z</time>
      </trkpt>
      <trkpt lat="40.117664" lon="-0.548603">
        <ele>925.76904296875</ele>
        <time>2020-06-14T22:04:01.052Z</time>
      </trkpt>
      <trkpt lat="40.117642" lon="-0.548645">
        <ele>926.13140869141</ele>
        <time>2020-06-14T22:04:03.741Z</time>
      </trkpt>
      <trkpt lat="40.117629" lon="-0.548688">
        <ele>926.17095947266</ele>
        <time>2020-06-14T22:04:06.430Z</time>
      </trkpt>
      <trkpt lat="40.117623" lon="-0.548732">
        <ele>925.95739746094</ele>
        <time>2020-06-14T22:04:09.120Z</time>
      </trkpt>
      <trkpt lat="40.117625" lon="-0.548772">
        <ele>925.50390625</ele>
        <time>2020-06-14T22:04:11.811Z</time>
      </trkpt>
      <trkpt lat="40.11763" lon="-0.548838">
        <ele>924.69641113281</ele>
        <time>2020-06-14T22:04:14.503Z</time>
      </trkpt>
      <trkpt lat="40.117621" lon="-0.548863">
        <ele>924.95483398438</ele>
        <time>2020-06-14T22:04:17.195Z</time>
      </trkpt>
      <trkpt lat="40.117618" lon="-0.548881">
        <ele>925.03759765625</ele>
        <time>2020-06-14T22:04:19.887Z</time>
      </trkpt>
      <trkpt lat="40.117632" lon="-0.548961">
        <ele>924.45452880859</ele>
        <time>2020-06-14T22:04:22.580Z</time>
      </trkpt>
      <trkpt lat="40.117638" lon="-0.548999">
        <ele>924.20013427734</ele>
        <time>2020-06-14T22:04:25.274Z</time>
      </trkpt>
      <trkpt lat="40.117659" lon="-0.549137">
        <ele>923.32604980469</ele>
        <time>2020-06-14T22:04:27.970Z</time>
      </trkpt>
      <trkpt lat="40.117794" lon="-0.549527">
        <ele>918.79077148438</ele>
        <time>2020-06-14T22:04:30.673Z</time>
      </trkpt>
      <trkpt lat="40.117806" lon="-0.549585">
        <ele>918.38763427734</ele>
        <time>2020-06-14T22:04:33.377Z</time>
      </trkpt>
      <trkpt lat="40.117845" lon="-0.549847">
        <ele>915.83508300781</ele>
        <time>2020-06-14T22:04:36.085Z</time>
      </trkpt>
      <trkpt lat="40.11784" lon="-0.549922">
        <ele>915.46313476562</ele>
        <time>2020-06-14T22:04:38.794Z</time>
      </trkpt>
      <trkpt lat="40.117821" lon="-0.550002">
        <ele>915.52557373047</ele>
        <time>2020-06-14T22:04:41.504Z</time>
      </trkpt>
      <trkpt lat="40.117792" lon="-0.550087">
        <ele>915.88787841797</ele>
        <time>2020-06-14T22:04:44.216Z</time>
      </trkpt>
      <trkpt lat="40.117763" lon="-0.550179">
        <ele>916.19982910156</ele>
        <time>2020-06-14T22:04:46.929Z</time>
      </trkpt>
      <trkpt lat="40.117741" lon="-0.550281">
        <ele>916.20465087891</ele>
        <time>2020-06-14T22:04:49.644Z</time>
      </trkpt>
      <trkpt lat="40.117726" lon="-0.550388">
        <ele>915.93829345703</ele>
        <time>2020-06-14T22:04:52.361Z</time>
      </trkpt>
      <trkpt lat="40.117716" lon="-0.550502">
        <ele>915.45355224609</ele>
        <time>2020-06-14T22:04:55.079Z</time>
      </trkpt>
      <trkpt lat="40.117681" lon="-0.550865">
        <ele>913.45709228516</ele>
        <time>2020-06-14T22:04:57.803Z</time>
      </trkpt>
      <trkpt lat="40.117686" lon="-0.550993">
        <ele>913.67425537109</ele>
        <time>2020-06-14T22:05:00.529Z</time>
      </trkpt>
      <trkpt lat="40.117713" lon="-0.551119">
        <ele>913.49066162109</ele>
        <time>2020-06-14T22:05:03.257Z</time>
      </trkpt>
      <trkpt lat="40.117758" lon="-0.551237">
        <ele>912.96392822266</ele>
        <time>2020-06-14T22:05:05.987Z</time>
      </trkpt>
      <trkpt lat="40.117818" lon="-0.551336">
        <ele>912.12170410156</ele>
        <time>2020-06-14T22:05:08.719Z</time>
      </trkpt>
      <trkpt lat="40.117883" lon="-0.551423">
        <ele>910.08325195312</ele>
        <time>2020-06-14T22:05:11.453Z</time>
      </trkpt>
      <trkpt lat="40.117941" lon="-0.551503">
        <ele>908.09118652344</ele>
        <time>2020-06-14T22:05:14.188Z</time>
      </trkpt>
      <trkpt lat="40.11798" lon="-0.551586">
        <ele>905.74438476562</ele>
        <time>2020-06-14T22:05:16.925Z</time>
      </trkpt>
      <trkpt lat="40.11799" lon="-0.55168">
        <ele>904.357421875</ele>
        <time>2020-06-14T22:05:19.663Z</time>
      </trkpt>
      <trkpt lat="40.117972" lon="-0.551779">
        <ele>903.95788574219</ele>
        <time>2020-06-14T22:05:22.403Z</time>
      </trkpt>
      <trkpt lat="40.117934" lon="-0.551878">
        <ele>904.25219726562</ele>
        <time>2020-06-14T22:05:25.145Z</time>
      </trkpt>
      <trkpt lat="40.11789" lon="-0.551982">
        <ele>903.92108154297</ele>
        <time>2020-06-14T22:05:27.888Z</time>
      </trkpt>
      <trkpt lat="40.117857" lon="-0.552094">
        <ele>903.30554199219</ele>
        <time>2020-06-14T22:05:30.633Z</time>
      </trkpt>
      <trkpt lat="40.117836" lon="-0.552212">
        <ele>902.32012939453</ele>
        <time>2020-06-14T22:05:33.380Z</time>
      </trkpt>
      <trkpt lat="40.117792" lon="-0.552449">
        <ele>901.07220458984</ele>
        <time>2020-06-14T22:05:36.131Z</time>
      </trkpt>
      <trkpt lat="40.117754" lon="-0.552561">
        <ele>900.89947509766</ele>
        <time>2020-06-14T22:05:38.884Z</time>
      </trkpt>
      <trkpt lat="40.11771632912" lon="-0.55266234012">
        <ele>900.77465820312</ele>
        <time>2020-06-14T22:05:41.638Z</time>
      </trkpt>
      <trkpt lat="40.11769383435" lon="-0.55272285416">
        <ele>900.7001953125</ele>
        <time>2020-06-14T22:05:44.393Z</time>
      </trkpt>
      <trkpt lat="40.11769378558" lon="-0.5527228117">
        <ele>900.70086669922</ele>
        <time>2020-06-14T22:05:47.148Z</time>
      </trkpt>
      <trkpt lat="40.11767333373" lon="-0.55271057412">
        <ele>900.95587158203</ele>
        <time>2020-06-14T22:05:49.904Z</time>
      </trkpt>
      <trkpt lat="40.11764652391" lon="-0.55278773418">
        <ele>900.84289550781</ele>
        <time>2020-06-14T22:05:52.661Z</time>
      </trkpt>
      <trkpt lat="40.11762522161" lon="-0.55284904316">
        <ele>900.75311279297</ele>
        <time>2020-06-14T22:05:55.419Z</time>
      </trkpt>
      <trkpt lat="40.11759638786" lon="-0.552932024">
        <ele>900.63165283203</ele>
        <time>2020-06-14T22:05:58.179Z</time>
      </trkpt>
      <trkpt lat="40.1175823032" lon="-0.55289871647">
        <ele>900.92669677734</ele>
        <time>2020-06-14T22:06:00.939Z</time>
      </trkpt>
      <trkpt lat="40.11755732819" lon="-0.55283965543">
        <ele>901.44989013672</ele>
        <time>2020-06-14T22:06:03.700Z</time>
      </trkpt>
      <trkpt lat="40.11758765707" lon="-0.55281753315">
        <ele>901.26495361328</ele>
        <time>2020-06-14T22:06:06.462Z</time>
      </trkpt>
      <trkpt lat="40.11756" lon="-0.552753">
        <ele>901.84008789062</ele>
        <time>2020-06-14T22:06:09.225Z</time>
      </trkpt>
      <trkpt lat="40.117464" lon="-0.552539">
        <ele>904.69934082031</ele>
        <time>2020-06-14T22:06:11.992Z</time>
      </trkpt>
      <trkpt lat="40.117435" lon="-0.552455">
        <ele>906.32983398438</ele>
        <time>2020-06-14T22:06:14.760Z</time>
      </trkpt>
      <trkpt lat="40.117435" lon="-0.552388">
        <ele>907.21411132812</ele>
        <time>2020-06-14T22:06:17.529Z</time>
      </trkpt>
      <trkpt lat="40.117426" lon="-0.552368">
        <ele>907.64001464844</ele>
        <time>2020-06-14T22:06:20.299Z</time>
      </trkpt>
      <trkpt lat="40.1174" lon="-0.552313">
        <ele>908.83386230469</ele>
        <time>2020-06-14T22:06:23.070Z</time>
      </trkpt>
      <trkpt lat="40.117374" lon="-0.552173">
        <ele>911.14508056641</ele>
        <time>2020-06-14T22:06:25.843Z</time>
      </trkpt>
      <trkpt lat="40.117359" lon="-0.552121">
        <ele>911.97650146484</ele>
        <time>2020-06-14T22:06:28.617Z</time>
      </trkpt>
      <trkpt lat="40.117354" lon="-0.551896">
        <ele>914.49609375</ele>
        <time>2020-06-14T22:06:31.394Z</time>
      </trkpt>
      <trkpt lat="40.117361" lon="-0.551659">
        <ele>916.92932128906</ele>
        <time>2020-06-14T22:06:34.175Z</time>
      </trkpt>
      <trkpt lat="40.11732" lon="-0.551534">
        <ele>919.01696777344</ele>
        <time>2020-06-14T22:06:36.958Z</time>
      </trkpt>
      <trkpt lat="40.117313" lon="-0.551482">
        <ele>919.70440673828</ele>
        <time>2020-06-14T22:06:39.742Z</time>
      </trkpt>
      <trkpt lat="40.117232" lon="-0.551426">
        <ele>921.76690673828</ele>
        <time>2020-06-14T22:06:42.528Z</time>
      </trkpt>
      <trkpt lat="40.116995" lon="-0.551234">
        <ele>923.82214355469</ele>
        <time>2020-06-14T22:06:45.319Z</time>
      </trkpt>
      <trkpt lat="40.116846" lon="-0.551051">
        <ele>922.66192626953</ele>
        <time>2020-06-14T22:06:48.114Z</time>
      </trkpt>
      <trkpt lat="40.116745" lon="-0.550883">
        <ele>922.45556640625</ele>
        <time>2020-06-14T22:06:50.913Z</time>
      </trkpt>
      <trkpt lat="40.116732" lon="-0.550858">
        <ele>922.75109863281</ele>
        <time>2020-06-14T22:06:53.712Z</time>
      </trkpt>
      <trkpt lat="40.116633" lon="-0.55072">
        <ele>925.32464599609</ele>
        <time>2020-06-14T22:06:56.514Z</time>
      </trkpt>
      <trkpt lat="40.116598" lon="-0.550675">
        <ele>926.13452148438</ele>
        <time>2020-06-14T22:06:59.317Z</time>
      </trkpt>
      <trkpt lat="40.116509" lon="-0.550649">
        <ele>925.85974121094</ele>
        <time>2020-06-14T22:07:02.122Z</time>
      </trkpt>
      <trkpt lat="40.116428" lon="-0.550611">
        <ele>925.98815917969</ele>
        <time>2020-06-14T22:07:04.928Z</time>
      </trkpt>
      <trkpt lat="40.116327" lon="-0.550484">
        <ele>927.79113769531</ele>
        <time>2020-06-14T22:07:07.737Z</time>
      </trkpt>
      <trkpt lat="40.116228" lon="-0.550504">
        <ele>926.86212158203</ele>
        <time>2020-06-14T22:07:10.548Z</time>
      </trkpt>
      <trkpt lat="40.116161" lon="-0.55047">
        <ele>927.43920898438</ele>
        <time>2020-06-14T22:07:13.361Z</time>
      </trkpt>
      <trkpt lat="40.116095" lon="-0.550423">
        <ele>928.39666748047</ele>
        <time>2020-06-14T22:07:16.175Z</time>
      </trkpt>
      <trkpt lat="40.116007" lon="-0.550428">
        <ele>927.72479248047</ele>
        <time>2020-06-14T22:07:18.991Z</time>
      </trkpt>
      <trkpt lat="40.115994" lon="-0.550427">
        <ele>927.67559814453</ele>
        <time>2020-06-14T22:07:21.807Z</time>
      </trkpt>
      <trkpt lat="40.115846" lon="-0.550412">
        <ele>927.21966552734</ele>
        <time>2020-06-14T22:07:24.626Z</time>
      </trkpt>
      <trkpt lat="40.115794" lon="-0.550419">
        <ele>926.70611572266</ele>
        <time>2020-06-14T22:07:27.446Z</time>
      </trkpt>
      <trkpt lat="40.115696" lon="-0.550425">
        <ele>925.94543457031</ele>
        <time>2020-06-14T22:07:30.268Z</time>
      </trkpt>
      <trkpt lat="40.115602" lon="-0.550443">
        <ele>924.86322021484</ele>
        <time>2020-06-14T22:07:33.092Z</time>
      </trkpt>
      <trkpt lat="40.115437" lon="-0.550528">
        <ele>921.57055664062</ele>
        <time>2020-06-14T22:07:35.920Z</time>
      </trkpt>
      <trkpt lat="40.115423" lon="-0.550545">
        <ele>921.46759033203</ele>
        <time>2020-06-14T22:07:38.748Z</time>
      </trkpt>
      <trkpt lat="40.115342" lon="-0.550588">
        <ele>922.14038085938</ele>
        <time>2020-06-14T22:07:41.578Z</time>
      </trkpt>
      <trkpt lat="40.115114" lon="-0.550647">
        <ele>924.90832519531</ele>
        <time>2020-06-14T22:07:44.412Z</time>
      </trkpt>
      <trkpt lat="40.114976" lon="-0.55072">
        <ele>925.91259765625</ele>
        <time>2020-06-14T22:07:47.249Z</time>
      </trkpt>
      <trkpt lat="40.114962" lon="-0.55073">
        <ele>925.9677734375</ele>
        <time>2020-06-14T22:07:50.087Z</time>
      </trkpt>
      <trkpt lat="40.114764" lon="-0.550821">
        <ele>927.65588378906</ele>
        <time>2020-06-14T22:07:52.929Z</time>
      </trkpt>
      <trkpt lat="40.114727" lon="-0.550845">
        <ele>927.84545898438</ele>
        <time>2020-06-14T22:07:55.772Z</time>
      </trkpt>
      <trkpt lat="40.114505" lon="-0.551063">
        <ele>928.47180175781</ele>
        <time>2020-06-14T22:07:58.620Z</time>
      </trkpt>
      <trkpt lat="40.114418" lon="-0.551175">
        <ele>928.64813232422</ele>
        <time>2020-06-14T22:08:01.471Z</time>
      </trkpt>
      <trkpt lat="40.114391" lon="-0.551211">
        <ele>928.68054199219</ele>
        <time>2020-06-14T22:08:04.322Z</time>
      </trkpt>
      <trkpt lat="40.114329" lon="-0.551277">
        <ele>929.05487060547</ele>
        <time>2020-06-14T22:08:07.175Z</time>
      </trkpt>
      <trkpt lat="40.114154" lon="-0.551567">
        <ele>923.64282226562</ele>
        <time>2020-06-14T22:08:10.034Z</time>
      </trkpt>
      <trkpt lat="40.114063" lon="-0.55172">
        <ele>920.06140136719</ele>
        <time>2020-06-14T22:08:12.896Z</time>
      </trkpt>
      <trkpt lat="40.113998" lon="-0.551777">
        <ele>919.51068115234</ele>
        <time>2020-06-14T22:08:15.759Z</time>
      </trkpt>
      <trkpt lat="40.113853" lon="-0.551926">
        <ele>917.44342041016</ele>
        <time>2020-06-14T22:08:18.626Z</time>
      </trkpt>
      <trkpt lat="40.113709" lon="-0.551977">
        <ele>919.25811767578</ele>
        <time>2020-06-14T22:08:21.496Z</time>
      </trkpt>
      <trkpt lat="40.113675" lon="-0.551983">
        <ele>919.96600341797</ele>
        <time>2020-06-14T22:08:24.367Z</time>
      </trkpt>
      <trkpt lat="40.113592" lon="-0.551998">
        <ele>921.68054199219</ele>
        <time>2020-06-14T22:08:27.239Z</time>
      </trkpt>
      <trkpt lat="40.113421" lon="-0.552063">
        <ele>923.90374755859</ele>
        <time>2020-06-14T22:08:30.115Z</time>
      </trkpt>
      <trkpt lat="40.113199" lon="-0.551996">
        <ele>932.60229492188</ele>
        <time>2020-06-14T22:08:32.995Z</time>
      </trkpt>
      <trkpt lat="40.11314" lon="-0.551965">
        <ele>935.38024902344</ele>
        <time>2020-06-14T22:08:35.877Z</time>
      </trkpt>
      <trkpt lat="40.112818" lon="-0.55191">
        <ele>941.40277099609</ele>
        <time>2020-06-14T22:08:38.765Z</time>
      </trkpt>
      <trkpt lat="40.112765" lon="-0.551896">
        <ele>941.90313720703</ele>
        <time>2020-06-14T22:08:41.654Z</time>
      </trkpt>
      <trkpt lat="40.112651" lon="-0.551928">
        <ele>941.04162597656</ele>
        <time>2020-06-14T22:08:44.546Z</time>
      </trkpt>
      <trkpt lat="40.112373" lon="-0.551967">
        <ele>940.15863037109</ele>
        <time>2020-06-14T22:08:47.443Z</time>
      </trkpt>
      <trkpt lat="40.112163" lon="-0.552023">
        <ele>939.42907714844</ele>
        <time>2020-06-14T22:08:50.344Z</time>
      </trkpt>
      <trkpt lat="40.111967" lon="-0.552096">
        <ele>939.39404296875</ele>
        <time>2020-06-14T22:08:53.250Z</time>
      </trkpt>
      <trkpt lat="40.111637" lon="-0.552237">
        <ele>935.99810791016</ele>
        <time>2020-06-14T22:08:56.162Z</time>
      </trkpt>
      <trkpt lat="40.111457" lon="-0.552275">
        <ele>935.46539306641</ele>
        <time>2020-06-14T22:08:59.078Z</time>
      </trkpt>
      <trkpt lat="40.111291" lon="-0.552279">
        <ele>937.87939453125</ele>
        <time>2020-06-14T22:09:01.997Z</time>
      </trkpt>
      <trkpt lat="40.111056" lon="-0.552407">
        <ele>917.33569335938</ele>
        <time>2020-06-14T22:09:04.922Z</time>
      </trkpt>
      <trkpt lat="40.110982" lon="-0.552438">
        <ele>911.92333984375</ele>
        <time>2020-06-14T22:09:07.848Z</time>
      </trkpt>
      <trkpt lat="40.110845" lon="-0.552495">
        <ele>902.85168457031</ele>
        <time>2020-06-14T22:09:10.777Z</time>
      </trkpt>
      <trkpt lat="40.110699" lon="-0.552494">
        <ele>900.51806640625</ele>
        <time>2020-06-14T22:09:13.709Z</time>
      </trkpt>
      <trkpt lat="40.110684" lon="-0.552499">
        <ele>899.67218017578</ele>
        <time>2020-06-14T22:09:16.641Z</time>
      </trkpt>
      <trkpt lat="40.110683" lon="-0.552499">
        <ele>899.65539550781</ele>
        <time>2020-06-14T22:09:19.573Z</time>
      </trkpt>
      <trkpt lat="40.110681" lon="-0.552504">
        <ele>899.02789306641</ele>
        <time>2020-06-14T22:09:22.505Z</time>
      </trkpt>
      <trkpt lat="40.110682" lon="-0.552517">
        <ele>897.50054931641</ele>
        <time>2020-06-14T22:09:25.438Z</time>
      </trkpt>
      <trkpt lat="40.110683" lon="-0.552518">
        <ele>897.39855957031</ele>
        <time>2020-06-14T22:09:28.371Z</time>
      </trkpt>
      <trkpt lat="40.110687" lon="-0.55252">
        <ele>897.22821044922</ele>
        <time>2020-06-14T22:09:31.304Z</time>
      </trkpt>
      <trkpt lat="40.110685" lon="-0.552515">
        <ele>897.78851318359</ele>
        <time>2020-06-14T22:09:34.237Z</time>
      </trkpt>
      <trkpt lat="40.110685" lon="-0.552514">
        <ele>897.90728759766</ele>
        <time>2020-06-14T22:09:37.170Z</time>
      </trkpt>
      <trkpt lat="40.110685" lon="-0.552511">
        <ele>898.26361083984</ele>
        <time>2020-06-14T22:09:40.103Z</time>
      </trkpt>
      <trkpt lat="40.110683" lon="-0.55251">
        <ele>898.34881591797</ele>
        <time>2020-06-14T22:09:43.036Z</time>
      </trkpt>
      <trkpt lat="40.110682" lon="-0.552517">
        <ele>897.50054931641</ele>
        <time>2020-06-14T22:09:45.969Z</time>
      </trkpt>
      <trkpt lat="40.11068" lon="-0.552518">
        <ele>897.34820556641</ele>
        <time>2020-06-14T22:09:48.902Z</time>
      </trkpt>
      <trkpt lat="40.110681" lon="-0.552513">
        <ele>897.95886230469</ele>
        <time>2020-06-14T22:09:51.835Z</time>
      </trkpt>
      <trkpt lat="40.110672" lon="-0.552484">
        <ele>901.25231933594</ele>
        <time>2020-06-14T22:09:54.769Z</time>
      </trkpt>
      <trkpt lat="40.110673" lon="-0.552483">
        <ele>901.38787841797</ele>
        <time>2020-06-14T22:09:57.703Z</time>
      </trkpt>
      <trkpt lat="40.11049" lon="-0.552352">
        <ele>913.87420654297</ele>
        <time>2020-06-14T22:10:00.641Z</time>
      </trkpt>
      <trkpt lat="40.110302" lon="-0.552177">
        <ele>925.90802001953</ele>
        <time>2020-06-14T22:10:03.583Z</time>
      </trkpt>
      <trkpt lat="40.110282" lon="-0.552171">
        <ele>925.04852294922</ele>
        <time>2020-06-14T22:10:06.526Z</time>
      </trkpt>
      <trkpt lat="40.110192" lon="-0.552161">
        <ele>919.92541503906</ele>
        <time>2020-06-14T22:10:09.471Z</time>
      </trkpt>
      <trkpt lat="40.110129" lon="-0.552162">
        <ele>916.20483398438</ele>
        <time>2020-06-14T22:10:12.417Z</time>
      </trkpt>
      <trkpt lat="40.110038" lon="-0.552086">
        <ele>912.13153076172</ele>
        <time>2020-06-14T22:10:15.365Z</time>
      </trkpt>
      <trkpt lat="40.109871" lon="-0.552014">
        <ele>903.52294921875</ele>
        <time>2020-06-14T22:10:18.316Z</time>
      </trkpt>
      <trkpt lat="40.109779" lon="-0.551965">
        <ele>900.66461181641</ele>
        <time>2020-06-14T22:10:21.269Z</time>
      </trkpt>
      <trkpt lat="40.109775" lon="-0.551963">
        <ele>900.77978515625</ele>
        <time>2020-06-14T22:10:24.223Z</time>
      </trkpt>
      <trkpt lat="40.109645" lon="-0.551858">
        <ele>907.30670166016</ele>
        <time>2020-06-14T22:10:27.180Z</time>
      </trkpt>
      <trkpt lat="40.109477" lon="-0.551752">
        <ele>903.78607177734</ele>
        <time>2020-06-14T22:10:30.140Z</time>
      </trkpt>
      <trkpt lat="40.109397" lon="-0.551706">
        <ele>900.17224121094</ele>
        <time>2020-06-14T22:10:33.102Z</time>
      </trkpt>
      <trkpt lat="40.109311" lon="-0.551615">
        <ele>899.30297851562</ele>
        <time>2020-06-14T22:10:36.066Z</time>
      </trkpt>
      <trkpt lat="40.109241" lon="-0.551449">
        <ele>906.59057617188</ele>
        <time>2020-06-14T22:10:39.033Z</time>
      </trkpt>
      <trkpt lat="40.109173" lon="-0.551269">
        <ele>909.46575927734</ele>
        <time>2020-06-14T22:10:42.003Z</time>
      </trkpt>
      <trkpt lat="40.109161" lon="-0.551253">
        <ele>908.5107421875</ele>
        <time>2020-06-14T22:10:44.974Z</time>
      </trkpt>
      <trkpt lat="40.109152" lon="-0.551189">
        <ele>907.73205566406</ele>
        <time>2020-06-14T22:10:47.946Z</time>
      </trkpt>
      <trkpt lat="40.109144" lon="-0.551156">
        <ele>907.06854248047</ele>
        <time>2020-06-14T22:10:50.918Z</time>
      </trkpt>
      <trkpt lat="40.109153" lon="-0.551094">
        <ele>907.69604492188</ele>
        <time>2020-06-14T22:10:53.891Z</time>
      </trkpt>
      <trkpt lat="40.109134" lon="-0.551047">
        <ele>906.15789794922</ele>
        <time>2020-06-14T22:10:56.865Z</time>
      </trkpt>
      <trkpt lat="40.109085" lon="-0.551027">
        <ele>902.31256103516</ele>
        <time>2020-06-14T22:10:59.840Z</time>
      </trkpt>
      <trkpt lat="40.109048" lon="-0.550981">
        <ele>903.15148925781</ele>
        <time>2020-06-14T22:11:02.816Z</time>
      </trkpt>
      <trkpt lat="40.109028" lon="-0.550777">
        <ele>911.82849121094</ele>
        <time>2020-06-14T22:11:05.795Z</time>
      </trkpt>
      <trkpt lat="40.10905" lon="-0.550628">
        <ele>919.30804443359</ele>
        <time>2020-06-14T22:11:08.776Z</time>
      </trkpt>
      <trkpt lat="40.109071" lon="-0.55052">
        <ele>924.88708496094</ele>
        <time>2020-06-14T22:11:11.759Z</time>
      </trkpt>
      <trkpt lat="40.109071" lon="-0.550479">
        <ele>925.54315185547</ele>
        <time>2020-06-14T22:11:14.743Z</time>
      </trkpt>
      <trkpt lat="40.109065" lon="-0.550367">
        <ele>925.75909423828</ele>
        <time>2020-06-14T22:11:17.729Z</time>
      </trkpt>
      <trkpt lat="40.109063" lon="-0.550349">
        <ele>925.76153564453</ele>
        <time>2020-06-14T22:11:20.715Z</time>
      </trkpt>
      <trkpt lat="40.109101" lon="-0.55019">
        <ele>927.51922607422</ele>
        <time>2020-06-14T22:11:23.703Z</time>
      </trkpt>
      <trkpt lat="40.109134" lon="-0.549988">
        <ele>928.16491699219</ele>
        <time>2020-06-14T22:11:26.695Z</time>
      </trkpt>
      <trkpt lat="40.109158" lon="-0.549926">
        <ele>928.86322021484</ele>
        <time>2020-06-14T22:11:29.688Z</time>
      </trkpt>
      <trkpt lat="40.109148" lon="-0.549836">
        <ele>928.15533447266</ele>
        <time>2020-06-14T22:11:32.682Z</time>
      </trkpt>
      <trkpt lat="40.109135" lon="-0.549806">
        <ele>927.54821777344</ele>
        <time>2020-06-14T22:11:35.677Z</time>
      </trkpt>
      <trkpt lat="40.109112" lon="-0.549754">
        <ele>926.47802734375</ele>
        <time>2020-06-14T22:11:38.672Z</time>
      </trkpt>
      <trkpt lat="40.109102" lon="-0.549731">
        <ele>926.01129150391</ele>
        <time>2020-06-14T22:11:41.668Z</time>
      </trkpt>
      <trkpt lat="40.109066" lon="-0.549631">
        <ele>923.95660400391</ele>
        <time>2020-06-14T22:11:44.666Z</time>
      </trkpt>
      <trkpt lat="40.109054" lon="-0.549597">
        <ele>923.12872314453</ele>
        <time>2020-06-14T22:11:47.664Z</time>
      </trkpt>
      <trkpt lat="40.109057" lon="-0.549299">
        <ele>920.54699707031</ele>
        <time>2020-06-14T22:11:50.667Z</time>
      </trkpt>
      <trkpt lat="40.109032" lon="-0.549155">
        <ele>919.04602050781</ele>
        <time>2020-06-14T22:11:53.672Z</time>
      </trkpt>
      <trkpt lat="40.108965" lon="-0.548842">
        <ele>915.37341308594</ele>
        <time>2020-06-14T22:11:56.682Z</time>
      </trkpt>
      <trkpt lat="40.10895" lon="-0.548791">
        <ele>913.56408691406</ele>
        <time>2020-06-14T22:11:59.693Z</time>
      </trkpt>
      <trkpt lat="40.108973" lon="-0.548649">
        <ele>910.56097412109</ele>
        <time>2020-06-14T22:12:02.706Z</time>
      </trkpt>
      <trkpt lat="40.108983" lon="-0.548597">
        <ele>909.93505859375</ele>
        <time>2020-06-14T22:12:05.720Z</time>
      </trkpt>
      <trkpt lat="40.108991" lon="-0.548478">
        <ele>908.65130615234</ele>
        <time>2020-06-14T22:12:08.736Z</time>
      </trkpt>
      <trkpt lat="40.109004" lon="-0.548435">
        <ele>908.36932373047</ele>
        <time>2020-06-14T22:12:11.752Z</time>
      </trkpt>
      <trkpt lat="40.109072" lon="-0.548465">
        <ele>909.95306396484</ele>
        <time>2020-06-14T22:12:14.770Z</time>
      </trkpt>
      <trkpt lat="40.109086" lon="-0.548441">
        <ele>909.91705322266</ele>
        <time>2020-06-14T22:12:17.788Z</time>
      </trkpt>
      <trkpt lat="40.109057" lon="-0.548435">
        <ele>909.32318115234</ele>
        <time>2020-06-14T22:12:20.807Z</time>
      </trkpt>
      <trkpt lat="40.109035" lon="-0.548432">
        <ele>908.89123535156</ele>
        <time>2020-06-14T22:12:23.826Z</time>
      </trkpt>
      <trkpt lat="40.109032" lon="-0.548432">
        <ele>908.83721923828</ele>
        <time>2020-06-14T22:12:26.845Z</time>
      </trkpt>
      <trkpt lat="40.109031" lon="-0.548343">
        <ele>907.75140380859</ele>
        <time>2020-06-14T22:12:29.866Z</time>
      </trkpt>
      <trkpt lat="40.109022" lon="-0.548275">
        <ele>906.77355957031</ele>
        <time>2020-06-14T22:12:32.888Z</time>
      </trkpt>
      <trkpt lat="40.109021" lon="-0.548273">
        <ele>906.73156738281</ele>
        <time>2020-06-14T22:12:35.910Z</time>
      </trkpt>
      <trkpt lat="40.109004" lon="-0.548237">
        <ele>905.99371337891</ele>
        <time>2020-06-14T22:12:38.932Z</time>
      </trkpt>
      <trkpt lat="40.109025" lon="-0.548163">
        <ele>905.48382568359</ele>
        <time>2020-06-14T22:12:41.956Z</time>
      </trkpt>
      <trkpt lat="40.109035" lon="-0.548087">
        <ele>904.751953125</ele>
        <time>2020-06-14T22:12:44.981Z</time>
      </trkpt>
      <trkpt lat="40.109049" lon="-0.547901">
        <ele>900.08953857422</ele>
        <time>2020-06-14T22:12:48.009Z</time>
      </trkpt>
      <trkpt lat="40.109056" lon="-0.547822">
        <ele>897.27722167969</ele>
        <time>2020-06-14T22:12:51.038Z</time>
      </trkpt>
      <trkpt lat="40.10904" lon="-0.547655">
        <ele>892.03955078125</ele>
        <time>2020-06-14T22:12:54.070Z</time>
      </trkpt>
      <trkpt lat="40.109069" lon="-0.547552">
        <ele>889.88470458984</ele>
        <time>2020-06-14T22:12:57.103Z</time>
      </trkpt>
      <trkpt lat="40.109008" lon="-0.547462">
        <ele>887.79461669922</ele>
        <time>2020-06-14T22:13:00.138Z</time>
      </trkpt>
      <trkpt lat="40.108988" lon="-0.547388">
        <ele>886.14849853516</ele>
        <time>2020-06-14T22:13:03.174Z</time>
      </trkpt>
      <trkpt lat="40.108993" lon="-0.547363">
        <ele>885.62060546875</ele>
        <time>2020-06-14T22:13:06.211Z</time>
      </trkpt>
      <trkpt lat="40.109059" lon="-0.547225">
        <ele>882.79864501953</ele>
        <time>2020-06-14T22:13:09.250Z</time>
      </trkpt>
      <trkpt lat="40.109041" lon="-0.547138">
        <ele>880.74700927734</ele>
        <time>2020-06-14T22:13:12.291Z</time>
      </trkpt>
      <trkpt lat="40.109118" lon="-0.547079">
        <ele>879.44519042969</ele>
        <time>2020-06-14T22:13:15.333Z</time>
      </trkpt>
      <trkpt lat="40.109168" lon="-0.547129">
        <ele>880.82501220703</ele>
        <time>2020-06-14T22:13:18.377Z</time>
      </trkpt>
      <trkpt lat="40.109212" lon="-0.547142">
        <ele>881.25811767578</ele>
        <time>2020-06-14T22:13:21.422Z</time>
      </trkpt>
      <trkpt lat="40.109339" lon="-0.547165">
        <ele>882.14239501953</ele>
        <time>2020-06-14T22:13:24.469Z</time>
      </trkpt>
      <trkpt lat="40.109358" lon="-0.54715">
        <ele>881.80999755859</ele>
        <time>2020-06-14T22:13:27.517Z</time>
      </trkpt>
      <trkpt lat="40.109381" lon="-0.547122">
        <ele>881.15972900391</ele>
        <time>2020-06-14T22:13:30.565Z</time>
      </trkpt>
      <trkpt lat="40.109386" lon="-0.546941">
        <ele>876.61126708984</ele>
        <time>2020-06-14T22:13:33.616Z</time>
      </trkpt>
      <trkpt lat="40.109345" lon="-0.546857">
        <ele>874.396484375</ele>
        <time>2020-06-14T22:13:36.668Z</time>
      </trkpt>
      <trkpt lat="40.109272" lon="-0.546778">
        <ele>872.23083496094</ele>
        <time>2020-06-14T22:13:39.722Z</time>
      </trkpt>
      <trkpt lat="40.109225" lon="-0.546728">
        <ele>870.85821533203</ele>
        <time>2020-06-14T22:13:42.778Z</time>
      </trkpt>
      <trkpt lat="40.109188" lon="-0.546697">
        <ele>869.91949462891</ele>
        <time>2020-06-14T22:13:45.834Z</time>
      </trkpt>
      <trkpt lat="40.109167" lon="-0.54669">
        <ele>869.65911865234</ele>
        <time>2020-06-14T22:13:48.891Z</time>
      </trkpt>
      <trkpt lat="40.109115" lon="-0.546678">
        <ele>869.15521240234</ele>
        <time>2020-06-14T22:13:51.949Z</time>
      </trkpt>
      <trkpt lat="40.109069" lon="-0.546614">
        <ele>867.30035400391</ele>
        <time>2020-06-14T22:13:55.008Z</time>
      </trkpt>
      <trkpt lat="40.109058" lon="-0.546603">
        <ele>866.97039794922</ele>
        <time>2020-06-14T22:13:58.068Z</time>
      </trkpt>
      <trkpt lat="40.108913" lon="-0.546581">
        <ele>865.86779785156</ele>
        <time>2020-06-14T22:14:01.130Z</time>
      </trkpt>
      <trkpt lat="40.108751" lon="-0.546572">
        <ele>864.73376464844</ele>
        <time>2020-06-14T22:14:04.196Z</time>
      </trkpt>
      <trkpt lat="40.10868" lon="-0.54657">
        <ele>863.14758300781</ele>
        <time>2020-06-14T22:14:07.263Z</time>
      </trkpt>
      <trkpt lat="40.108505" lon="-0.546564">
        <ele>859.68908691406</ele>
        <time>2020-06-14T22:14:10.334Z</time>
      </trkpt>
      <trkpt lat="40.108152" lon="-0.546597">
        <ele>856.77600097656</ele>
        <time>2020-06-14T22:14:13.412Z</time>
      </trkpt>
      <trkpt lat="40.10814" lon="-0.546594">
        <ele>856.61761474609</ele>
        <time>2020-06-14T22:14:16.490Z</time>
      </trkpt>
      <trkpt lat="40.108059" lon="-0.546575">
        <ele>855.56658935547</ele>
        <time>2020-06-14T22:14:19.570Z</time>
      </trkpt>
      <trkpt lat="40.107866" lon="-0.546868">
        <ele>856.77459716797</ele>
        <time>2020-06-14T22:14:22.656Z</time>
      </trkpt>
      <trkpt lat="40.10779" lon="-0.547028">
        <ele>857.07214355469</ele>
        <time>2020-06-14T22:14:25.744Z</time>
      </trkpt>
      <trkpt lat="40.107735" lon="-0.547135">
        <ele>857.16094970703</ele>
        <time>2020-06-14T22:14:28.834Z</time>
      </trkpt>
      <trkpt lat="40.107524" lon="-0.547289">
        <ele>851.04919433594</ele>
        <time>2020-06-14T22:14:31.929Z</time>
      </trkpt>
      <trkpt lat="40.107485" lon="-0.547297">
        <ele>849.94299316406</ele>
        <time>2020-06-14T22:14:35.025Z</time>
      </trkpt>
      <trkpt lat="40.107483" lon="-0.54733">
        <ele>849.57342529297</ele>
        <time>2020-06-14T22:14:38.122Z</time>
      </trkpt>
      <trkpt lat="40.10748" lon="-0.547317">
        <ele>849.61901855469</ele>
        <time>2020-06-14T22:14:41.219Z</time>
      </trkpt>
      <trkpt lat="40.107448" lon="-0.547314">
        <ele>848.80316162109</ele>
        <time>2020-06-14T22:14:44.316Z</time>
      </trkpt>
      <trkpt lat="40.107374" lon="-0.547332">
        <ele>846.67712402344</ele>
        <time>2020-06-14T22:14:47.415Z</time>
      </trkpt>
      <trkpt lat="40.107321" lon="-0.547288">
        <ele>845.70050048828</ele>
        <time>2020-06-14T22:14:50.515Z</time>
      </trkpt>
      <trkpt lat="40.107232" lon="-0.547269">
        <ele>843.53363037109</ele>
        <time>2020-06-14T22:14:53.617Z</time>
      </trkpt>
      <trkpt lat="40.1072" lon="-0.547313">
        <ele>842.26666259766</ele>
        <time>2020-06-14T22:14:56.720Z</time>
      </trkpt>
      <trkpt lat="40.107153" lon="-0.547387">
        <ele>840.31579589844</ele>
        <time>2020-06-14T22:14:59.824Z</time>
      </trkpt>
      <trkpt lat="40.107053" lon="-0.547398">
        <ele>837.7451171875</ele>
        <time>2020-06-14T22:15:02.930Z</time>
      </trkpt>
      <trkpt lat="40.107036" lon="-0.54738">
        <ele>837.53033447266</ele>
        <time>2020-06-14T22:15:06.037Z</time>
      </trkpt>
      <trkpt lat="40.106996" lon="-0.547328">
        <ele>837.11761474609</ele>
        <time>2020-06-14T22:15:09.145Z</time>
      </trkpt>
      <trkpt lat="40.106972" lon="-0.547312">
        <ele>836.72406005859</ele>
        <time>2020-06-14T22:15:12.253Z</time>
      </trkpt>
      <trkpt lat="40.106951" lon="-0.547298">
        <ele>836.31622314453</ele>
        <time>2020-06-14T22:15:15.362Z</time>
      </trkpt>
      <trkpt lat="40.106891" lon="-0.547317">
        <ele>834.66766357422</ele>
        <time>2020-06-14T22:15:18.472Z</time>
      </trkpt>
      <trkpt lat="40.106726" lon="-0.547437">
        <ele>829.64654541016</ele>
        <time>2020-06-14T22:15:21.586Z</time>
      </trkpt>
      <trkpt lat="40.106672" lon="-0.547504">
        <ele>827.80364990234</ele>
        <time>2020-06-14T22:15:24.701Z</time>
      </trkpt>
      <trkpt lat="40.106485" lon="-0.54765">
        <ele>822.04095458984</ele>
        <time>2020-06-14T22:15:27.821Z</time>
      </trkpt>
      <trkpt lat="40.106241" lon="-0.547725">
        <ele>815.96868896484</ele>
        <time>2020-06-14T22:15:30.946Z</time>
      </trkpt>
      <trkpt lat="40.106071" lon="-0.547779">
        <ele>815.17205810547</ele>
        <time>2020-06-14T22:15:34.074Z</time>
      </trkpt>
      <trkpt lat="40.105896" lon="-0.547867">
        <ele>814.11859130859</ele>
        <time>2020-06-14T22:15:37.206Z</time>
      </trkpt>
      <trkpt lat="40.105766" lon="-0.547895">
        <ele>813.60510253906</ele>
        <time>2020-06-14T22:15:40.341Z</time>
      </trkpt>
      <trkpt lat="40.10567" lon="-0.547949">
        <ele>812.98602294922</ele>
        <time>2020-06-14T22:15:43.478Z</time>
      </trkpt>
      <trkpt lat="40.105655" lon="-0.547964">
        <ele>812.84204101562</ele>
        <time>2020-06-14T22:15:46.615Z</time>
      </trkpt>
      <trkpt lat="40.10559" lon="-0.547891">
        <ele>813.21154785156</ele>
        <time>2020-06-14T22:15:49.754Z</time>
      </trkpt>
      <trkpt lat="40.105536" lon="-0.547875">
        <ele>813.19714355469</ele>
        <time>2020-06-14T22:15:52.894Z</time>
      </trkpt>
      <trkpt lat="40.105532" lon="-0.547876">
        <ele>813.18035888672</ele>
        <time>2020-06-14T22:15:56.034Z</time>
      </trkpt>
      <trkpt lat="40.105443" lon="-0.547983">
        <ele>812.19653320312</ele>
        <time>2020-06-14T22:15:59.176Z</time>
      </trkpt>
      <trkpt lat="40.105417" lon="-0.547991">
        <ele>812.07653808594</ele>
        <time>2020-06-14T22:16:02.319Z</time>
      </trkpt>
      <trkpt lat="40.105395" lon="-0.548061">
        <ele>811.90411376953</ele>
        <time>2020-06-14T22:16:05.463Z</time>
      </trkpt>
      <trkpt lat="40.105391" lon="-0.548094">
        <ele>811.33178710938</ele>
        <time>2020-06-14T22:16:08.608Z</time>
      </trkpt>
      <trkpt lat="40.105424" lon="-0.548205">
        <ele>808.23626708984</ele>
        <time>2020-06-14T22:16:11.754Z</time>
      </trkpt>
      <trkpt lat="40.105347" lon="-0.548189">
        <ele>810.50274658203</ele>
        <time>2020-06-14T22:16:14.902Z</time>
      </trkpt>
      <trkpt lat="40.10535" lon="-0.548236">
        <ele>809.46850585938</ele>
        <time>2020-06-14T22:16:18.051Z</time>
      </trkpt>
      <trkpt lat="40.105326" lon="-0.548234">
        <ele>810.11401367188</ele>
        <time>2020-06-14T22:16:21.200Z</time>
      </trkpt>
      <trkpt lat="40.105279" lon="-0.548183">
        <ele>812.33843994141</ele>
        <time>2020-06-14T22:16:24.350Z</time>
      </trkpt>
      <trkpt lat="40.105282" lon="-0.54818">
        <ele>812.32403564453</ele>
        <time>2020-06-14T22:16:27.501Z</time>
      </trkpt>
      <trkpt lat="40.105272" lon="-0.548075">
        <ele>812.09613037109</ele>
        <time>2020-06-14T22:16:30.653Z</time>
      </trkpt>
      <trkpt lat="40.105264" lon="-0.547995">
        <ele>811.68060302734</ele>
        <time>2020-06-14T22:16:33.806Z</time>
      </trkpt>
      <trkpt lat="40.105253" lon="-0.547949">
        <ele>811.9853515625</ele>
        <time>2020-06-14T22:16:36.960Z</time>
      </trkpt>
      <trkpt lat="40.105215" lon="-0.54784">
        <ele>812.67883300781</ele>
        <time>2020-06-14T22:16:40.116Z</time>
      </trkpt>
      <trkpt lat="40.105159" lon="-0.547662">
        <ele>813.82586669922</ele>
        <time>2020-06-14T22:16:43.275Z</time>
      </trkpt>
      <trkpt lat="40.105207" lon="-0.547257">
        <ele>815.64276123047</ele>
        <time>2020-06-14T22:16:46.440Z</time>
      </trkpt>
      <trkpt lat="40.10529" lon="-0.54712">
        <ele>815.92108154297</ele>
        <time>2020-06-14T22:16:49.608Z</time>
      </trkpt>
      <trkpt lat="40.105347" lon="-0.546991">
        <ele>815.29840087891</ele>
        <time>2020-06-14T22:16:52.778Z</time>
      </trkpt>
      <trkpt lat="40.10536" lon="-0.546955">
        <ele>815.09320068359</ele>
        <time>2020-06-14T22:16:55.949Z</time>
      </trkpt>
      <trkpt lat="40.105457" lon="-0.546699">
        <ele>813.62951660156</ele>
        <time>2020-06-14T22:16:59.124Z</time>
      </trkpt>
      <trkpt lat="40.105475" lon="-0.546595">
        <ele>812.78247070312</ele>
        <time>2020-06-14T22:17:02.301Z</time>
      </trkpt>
      <trkpt lat="40.10553" lon="-0.546401">
        <ele>811.38226318359</ele>
        <time>2020-06-14T22:17:05.481Z</time>
      </trkpt>
      <trkpt lat="40.105538" lon="-0.54632">
        <ele>810.81982421875</ele>
        <time>2020-06-14T22:17:08.662Z</time>
      </trkpt>
      <trkpt lat="40.10554" lon="-0.546283">
        <ele>810.74780273438</ele>
        <time>2020-06-14T22:17:11.844Z</time>
      </trkpt>
      <trkpt lat="40.105449" lon="-0.546336">
        <ele>810.11071777344</ele>
        <time>2020-06-14T22:17:15.028Z</time>
      </trkpt>
      <trkpt lat="40.105453" lon="-0.546353">
        <ele>810.27484130859</ele>
        <time>2020-06-14T22:17:18.212Z</time>
      </trkpt>
      <trkpt lat="40.105441" lon="-0.546416">
        <ele>810.77880859375</ele>
        <time>2020-06-14T22:17:21.397Z</time>
      </trkpt>
      <trkpt lat="40.105405" lon="-0.546511">
        <ele>811.31744384766</ele>
        <time>2020-06-14T22:17:24.584Z</time>
      </trkpt>
      <trkpt lat="40.105326" lon="-0.5467">
        <ele>812.27850341797</ele>
        <time>2020-06-14T22:17:27.774Z</time>
      </trkpt>
      <trkpt lat="40.105199" lon="-0.546846">
        <ele>812.30847167969</ele>
        <time>2020-06-14T22:17:30.967Z</time>
      </trkpt>
      <trkpt lat="40.105041" lon="-0.546989">
        <ele>811.97491455078</ele>
        <time>2020-06-14T22:17:34.164Z</time>
      </trkpt>
      <trkpt lat="40.105011" lon="-0.547035">
        <ele>812.09252929688</ele>
        <time>2020-06-14T22:17:37.362Z</time>
      </trkpt>
      <trkpt lat="40.104884" lon="-0.54735">
        <ele>812.26647949219</ele>
        <time>2020-06-14T22:17:40.566Z</time>
      </trkpt>
      <trkpt lat="40.104859" lon="-0.547507">
        <ele>812.18493652344</ele>
        <time>2020-06-14T22:17:43.772Z</time>
      </trkpt>
      <trkpt lat="40.10469" lon="-0.547769">
        <ele>810.67437744141</ele>
        <time>2020-06-14T22:17:46.983Z</time>
      </trkpt>
      <trkpt lat="40.104634" lon="-0.547809">
        <ele>810.11767578125</ele>
        <time>2020-06-14T22:17:50.196Z</time>
      </trkpt>
      <trkpt lat="40.104243" lon="-0.547815">
        <ele>810.62823486328</ele>
        <time>2020-06-14T22:17:53.416Z</time>
      </trkpt>
      <trkpt lat="40.104162" lon="-0.547949">
        <ele>810.9833984375</ele>
        <time>2020-06-14T22:17:56.639Z</time>
      </trkpt>
      <trkpt lat="40.104125" lon="-0.548005">
        <ele>811.13934326172</ele>
        <time>2020-06-14T22:17:59.863Z</time>
      </trkpt>
      <trkpt lat="40.10403" lon="-0.54813">
        <ele>812.693359375</ele>
        <time>2020-06-14T22:18:03.090Z</time>
      </trkpt>
      <trkpt lat="40.103912" lon="-0.548157">
        <ele>813.26806640625</ele>
        <time>2020-06-14T22:18:06.319Z</time>
      </trkpt>
      <trkpt lat="40.103902" lon="-0.548178">
        <ele>813.51879882812</ele>
        <time>2020-06-14T22:18:09.549Z</time>
      </trkpt>
      <trkpt lat="40.103857" lon="-0.548104">
        <ele>812.82769775391</ele>
        <time>2020-06-14T22:18:12.780Z</time>
      </trkpt>
      <trkpt lat="40.103716" lon="-0.547886">
        <ele>811.30310058594</ele>
        <time>2020-06-14T22:18:16.015Z</time>
      </trkpt>
      <trkpt lat="40.103457" lon="-0.5477">
        <ele>813.90783691406</ele>
        <time>2020-06-14T22:18:19.256Z</time>
      </trkpt>
      <trkpt lat="40.103161" lon="-0.547606">
        <ele>816.28778076172</ele>
        <time>2020-06-14T22:18:22.503Z</time>
      </trkpt>
      <trkpt lat="40.102851" lon="-0.547338">
        <ele>812.91864013672</ele>
        <time>2020-06-14T22:18:25.758Z</time>
      </trkpt>
      <trkpt lat="40.102788" lon="-0.547257">
        <ele>812.11895751953</ele>
        <time>2020-06-14T22:18:29.015Z</time>
      </trkpt>
      <trkpt lat="40.102689" lon="-0.547114">
        <ele>810.7236328125</ele>
        <time>2020-06-14T22:18:32.275Z</time>
      </trkpt>
      <trkpt lat="40.10244" lon="-0.546756">
        <ele>809.83032226562</ele>
        <time>2020-06-14T22:18:35.542Z</time>
      </trkpt>
      <trkpt lat="40.102382" lon="-0.5467">
        <ele>808.29455566406</ele>
        <time>2020-06-14T22:18:38.810Z</time>
      </trkpt>
      <trkpt lat="40.102161" lon="-0.546474">
        <ele>802.03399658203</ele>
        <time>2020-06-14T22:18:42.084Z</time>
      </trkpt>
      <trkpt lat="40.102025" lon="-0.546438">
        <ele>801.42974853516</ele>
        <time>2020-06-14T22:18:45.361Z</time>
      </trkpt>
      <trkpt lat="40.101796" lon="-0.54633">
        <ele>800.1171875</ele>
        <time>2020-06-14T22:18:48.643Z</time>
      </trkpt>
      <trkpt lat="40.101587" lon="-0.54629">
        <ele>801.33380126953</ele>
        <time>2020-06-14T22:18:51.929Z</time>
      </trkpt>
      <trkpt lat="40.101448" lon="-0.546192">
        <ele>801.62896728516</ele>
        <time>2020-06-14T22:18:55.218Z</time>
      </trkpt>
      <trkpt lat="40.101412" lon="-0.546198">
        <ele>801.93127441406</ele>
        <time>2020-06-14T22:18:58.508Z</time>
      </trkpt>
      <trkpt lat="40.101317" lon="-0.546363">
        <ele>804.28826904297</ele>
        <time>2020-06-14T22:19:01.801Z</time>
      </trkpt>
      <trkpt lat="40.101274" lon="-0.546483">
        <ele>808.05322265625</ele>
        <time>2020-06-14T22:19:05.096Z</time>
      </trkpt>
      <trkpt lat="40.101155" lon="-0.54665">
        <ele>810.62353515625</ele>
        <time>2020-06-14T22:19:08.395Z</time>
      </trkpt>
      <trkpt lat="40.101049" lon="-0.546662">
        <ele>808.80700683594</ele>
        <time>2020-06-14T22:19:11.696Z</time>
      </trkpt>
      <trkpt lat="40.100992" lon="-0.546684">
        <ele>808.27789306641</ele>
        <time>2020-06-14T22:19:14.998Z</time>
      </trkpt>
      <trkpt lat="40.100897" lon="-0.546929">
        <ele>813.39508056641</ele>
        <time>2020-06-14T22:19:18.304Z</time>
      </trkpt>
      <trkpt lat="40.100849" lon="-0.547002">
        <ele>814.51806640625</ele>
        <time>2020-06-14T22:19:21.612Z</time>
      </trkpt>
      <trkpt lat="40.100585" lon="-0.546995">
        <ele>809.13116455078</ele>
        <time>2020-06-14T22:19:24.925Z</time>
      </trkpt>
      <trkpt lat="40.100475" lon="-0.546988">
        <ele>807.52819824219</ele>
        <time>2020-06-14T22:19:28.240Z</time>
      </trkpt>
      <trkpt lat="40.100285" lon="-0.547013">
        <ele>806.45251464844</ele>
        <time>2020-06-14T22:19:31.559Z</time>
      </trkpt>
      <trkpt lat="40.100118" lon="-0.547089">
        <ele>806.89166259766</ele>
        <time>2020-06-14T22:19:34.881Z</time>
      </trkpt>
      <trkpt lat="40.099903" lon="-0.547181">
        <ele>807.35595703125</ele>
        <time>2020-06-14T22:19:38.208Z</time>
      </trkpt>
      <trkpt lat="40.099784" lon="-0.547302">
        <ele>809.54803466797</ele>
        <time>2020-06-14T22:19:41.538Z</time>
      </trkpt>
      <trkpt lat="40.099704" lon="-0.547423">
        <ele>812.02081298828</ele>
        <time>2020-06-14T22:19:44.870Z</time>
      </trkpt>
      <trkpt lat="40.099667" lon="-0.547496">
        <ele>813.59375</ele>
        <time>2020-06-14T22:19:48.204Z</time>
      </trkpt>
      <trkpt lat="40.099616" lon="-0.547623">
        <ele>816.42645263672</ele>
        <time>2020-06-14T22:19:51.540Z</time>
      </trkpt>
      <trkpt lat="40.099593" lon="-0.547676">
        <ele>817.44903564453</ele>
        <time>2020-06-14T22:19:54.877Z</time>
      </trkpt>
      <trkpt lat="40.099405" lon="-0.548009">
        <ele>820.63848876953</ele>
        <time>2020-06-14T22:19:58.220Z</time>
      </trkpt>
      <trkpt lat="40.099357" lon="-0.548048">
        <ele>819.96899414062</ele>
        <time>2020-06-14T22:20:01.564Z</time>
      </trkpt>
      <trkpt lat="40.099258" lon="-0.547989">
        <ele>816.09088134766</ele>
        <time>2020-06-14T22:20:04.911Z</time>
      </trkpt>
      <trkpt lat="40.099133" lon="-0.547918">
        <ele>810.8525390625</ele>
        <time>2020-06-14T22:20:08.260Z</time>
      </trkpt>
      <trkpt lat="40.099027" lon="-0.547829">
        <ele>805.68499755859</ele>
        <time>2020-06-14T22:20:11.612Z</time>
      </trkpt>
      <trkpt lat="40.098922" lon="-0.547788">
        <ele>801.21508789062</ele>
        <time>2020-06-14T22:20:14.966Z</time>
      </trkpt>
      <trkpt lat="40.09887" lon="-0.547777">
        <ele>798.97387695312</ele>
        <time>2020-06-14T22:20:18.321Z</time>
      </trkpt>
      <trkpt lat="40.098786" lon="-0.547724">
        <ele>794.16986083984</ele>
        <time>2020-06-14T22:20:21.678Z</time>
      </trkpt>
      <trkpt lat="40.098697" lon="-0.547633">
        <ele>788.16040039062</ele>
        <time>2020-06-14T22:20:25.037Z</time>
      </trkpt>
      <trkpt lat="40.09867" lon="-0.54761">
        <ele>786.51306152344</ele>
        <time>2020-06-14T22:20:28.397Z</time>
      </trkpt>
      <trkpt lat="40.098574" lon="-0.547534">
        <ele>780.84997558594</ele>
        <time>2020-06-14T22:20:31.759Z</time>
      </trkpt>
      <trkpt lat="40.098554" lon="-0.547523">
        <ele>779.83258056641</ele>
        <time>2020-06-14T22:20:35.121Z</time>
      </trkpt>
      <trkpt lat="40.098409" lon="-0.54745">
        <ele>774.35034179688</ele>
        <time>2020-06-14T22:20:38.487Z</time>
      </trkpt>
      <trkpt lat="40.098266" lon="-0.547454">
        <ele>772.68737792969</ele>
        <time>2020-06-14T22:20:41.855Z</time>
      </trkpt>
      <trkpt lat="40.098218" lon="-0.547469">
        <ele>772.30944824219</ele>
        <time>2020-06-14T22:20:45.224Z</time>
      </trkpt>
      <trkpt lat="40.098174" lon="-0.547464">
        <ele>771.71557617188</ele>
        <time>2020-06-14T22:20:48.594Z</time>
      </trkpt>
      <trkpt lat="40.098029" lon="-0.54745">
        <ele>769.79107666016</ele>
        <time>2020-06-14T22:20:51.967Z</time>
      </trkpt>
      <trkpt lat="40.097915" lon="-0.547388">
        <ele>766.61846923828</ele>
        <time>2020-06-14T22:20:55.343Z</time>
      </trkpt>
      <trkpt lat="40.097793" lon="-0.547392">
        <ele>758.62060546875</ele>
        <time>2020-06-14T22:20:58.721Z</time>
      </trkpt>
      <trkpt lat="40.097734" lon="-0.547197">
        <ele>758.92150878906</ele>
        <time>2020-06-14T22:21:02.102Z</time>
      </trkpt>
      <trkpt lat="40.097798" lon="-0.547124">
        <ele>759.58728027344</ele>
        <time>2020-06-14T22:21:05.485Z</time>
      </trkpt>
      <trkpt lat="40.097825" lon="-0.547096">
        <ele>759.39172363281</ele>
        <time>2020-06-14T22:21:08.869Z</time>
      </trkpt>
      <trkpt lat="40.097925" lon="-0.546956">
        <ele>757.44805908203</ele>
        <time>2020-06-14T22:21:12.256Z</time>
      </trkpt>
      <trkpt lat="40.098015" lon="-0.546826">
        <ele>753.01489257812</ele>
        <time>2020-06-14T22:21:15.645Z</time>
      </trkpt>
      <trkpt lat="40.098023" lon="-0.546823">
        <ele>752.88531494141</ele>
        <time>2020-06-14T22:21:19.034Z</time>
      </trkpt>
      <trkpt lat="40.098026" lon="-0.546822">
        <ele>752.84094238281</ele>
        <time>2020-06-14T22:21:22.424Z</time>
      </trkpt>
      <trkpt lat="40.098028" lon="-0.546822">
        <ele>752.83374023438</ele>
        <time>2020-06-14T22:21:25.814Z</time>
      </trkpt>
      <trkpt lat="40.098033" lon="-0.546805">
        <ele>752.24462890625</ele>
        <time>2020-06-14T22:21:29.204Z</time>
      </trkpt>
      <trkpt lat="40.098018" lon="-0.546791">
        <ele>751.82830810547</ele>
        <time>2020-06-14T22:21:32.594Z</time>
      </trkpt>
      <trkpt lat="40.097986" lon="-0.546664">
        <ele>747.67700195312</ele>
        <time>2020-06-14T22:21:35.986Z</time>
      </trkpt>
      <trkpt lat="40.097942" lon="-0.546538">
        <ele>743.60247802734</ele>
        <time>2020-06-14T22:21:39.380Z</time>
      </trkpt>
      <trkpt lat="40.097881" lon="-0.546347">
        <ele>737.14874267578</ele>
        <time>2020-06-14T22:21:42.778Z</time>
      </trkpt>
      <trkpt lat="40.097872" lon="-0.546227">
        <ele>733.60546875</ele>
        <time>2020-06-14T22:21:46.177Z</time>
      </trkpt>
      <trkpt lat="40.097864" lon="-0.546119">
        <ele>730.25561523438</ele>
        <time>2020-06-14T22:21:49.578Z</time>
      </trkpt>
      <trkpt lat="40.097865" lon="-0.546055">
        <ele>728.25677490234</ele>
        <time>2020-06-14T22:21:52.980Z</time>
      </trkpt>
      <trkpt lat="40.097862" lon="-0.546007">
        <ele>726.7666015625</ele>
        <time>2020-06-14T22:21:56.383Z</time>
      </trkpt>
      <trkpt lat="40.097866" lon="-0.545946">
        <ele>724.85412597656</ele>
        <time>2020-06-14T22:21:59.787Z</time>
      </trkpt>
      <trkpt lat="40.097875" lon="-0.545938">
        <ele>724.5830078125</ele>
        <time>2020-06-14T22:22:03.191Z</time>
      </trkpt>
      <trkpt lat="40.097875" lon="-0.545931">
        <ele>724.36462402344</ele>
        <time>2020-06-14T22:22:06.595Z</time>
      </trkpt>
      <trkpt lat="40.097874" lon="-0.54593">
        <ele>724.33581542969</ele>
        <time>2020-06-14T22:22:09.999Z</time>
      </trkpt>
      <trkpt lat="40.097971" lon="-0.545857">
        <ele>721.14691162109</ele>
        <time>2020-06-14T22:22:13.405Z</time>
      </trkpt>
      <trkpt lat="40.098038" lon="-0.545776">
        <ele>717.25354003906</ele>
        <time>2020-06-14T22:22:16.813Z</time>
      </trkpt>
      <trkpt lat="40.098045" lon="-0.545745">
        <ele>716.14373779297</ele>
        <time>2020-06-14T22:22:20.222Z</time>
      </trkpt>
      <trkpt lat="40.09805" lon="-0.545556">
        <ele>710.14593505859</ele>
        <time>2020-06-14T22:22:23.634Z</time>
      </trkpt>
      <trkpt lat="40.098013" lon="-0.545455">
        <ele>707.93731689453</ele>
        <time>2020-06-14T22:22:27.047Z</time>
      </trkpt>
      <trkpt lat="40.09802" lon="-0.54537">
        <ele>705.44891357422</ele>
        <time>2020-06-14T22:22:30.462Z</time>
      </trkpt>
      <trkpt lat="40.097922" lon="-0.545115">
        <ele>700.27569580078</ele>
        <time>2020-06-14T22:22:33.881Z</time>
      </trkpt>
      <trkpt lat="40.097863" lon="-0.54505">
        <ele>698.97747802734</ele>
        <time>2020-06-14T22:22:37.302Z</time>
      </trkpt>
      <trkpt lat="40.097798" lon="-0.545031">
        <ele>698.99908447266</ele>
        <time>2020-06-14T22:22:40.724Z</time>
      </trkpt>
      <trkpt lat="40.097791" lon="-0.545013">
        <ele>698.56115722656</ele>
        <time>2020-06-14T22:22:44.146Z</time>
      </trkpt>
      <trkpt lat="40.097774" lon="-0.545006">
        <ele>698.51080322266</ele>
        <time>2020-06-14T22:22:47.569Z</time>
      </trkpt>
      <trkpt lat="40.097677" lon="-0.54504">
        <ele>700.263671875</ele>
        <time>2020-06-14T22:22:50.994Z</time>
      </trkpt>
      <trkpt lat="40.097513" lon="-0.545004">
        <ele>700.21636962891</ele>
        <time>2020-06-14T22:22:54.422Z</time>
      </trkpt>
      <trkpt lat="40.097398" lon="-0.544949">
        <ele>698.8486328125</ele>
        <time>2020-06-14T22:22:57.852Z</time>
      </trkpt>
      <trkpt lat="40.097361" lon="-0.544938">
        <ele>698.62542724609</ele>
        <time>2020-06-14T22:23:01.283Z</time>
      </trkpt>
      <trkpt lat="40.097234" lon="-0.54493">
        <ele>698.82342529297</ele>
        <time>2020-06-14T22:23:04.717Z</time>
      </trkpt>
      <trkpt lat="40.097218" lon="-0.544945">
        <ele>699.36694335938</ele>
        <time>2020-06-14T22:23:08.151Z</time>
      </trkpt>
      <trkpt lat="40.097192" lon="-0.54499">
        <ele>700.91827392578</ele>
        <time>2020-06-14T22:23:11.586Z</time>
      </trkpt>
      <trkpt lat="40.097173" lon="-0.544932">
        <ele>699.10778808594</ele>
        <time>2020-06-14T22:23:15.022Z</time>
      </trkpt>
      <trkpt lat="40.097097" lon="-0.544913">
        <ele>698.68182373047</ele>
        <time>2020-06-14T22:23:18.459Z</time>
      </trkpt>
      <trkpt lat="40.097045" lon="-0.544885">
        <ele>696.40216064453</ele>
        <time>2020-06-14T22:23:21.898Z</time>
      </trkpt>
      <trkpt lat="40.096939" lon="-0.544691">
        <ele>688.35192871094</ele>
        <time>2020-06-14T22:23:25.340Z</time>
      </trkpt>
      <trkpt lat="40.096917" lon="-0.544633">
        <ele>686.02996826172</ele>
        <time>2020-06-14T22:23:28.783Z</time>
      </trkpt>
      <trkpt lat="40.096783" lon="-0.544485">
        <ele>678.13049316406</ele>
        <time>2020-06-14T22:23:32.230Z</time>
      </trkpt>
      <trkpt lat="40.096725" lon="-0.544386">
        <ele>673.45367431641</ele>
        <time>2020-06-14T22:23:35.679Z</time>
      </trkpt>
      <trkpt lat="40.096615" lon="-0.544227">
        <ele>667.49859619141</ele>
        <time>2020-06-14T22:23:39.131Z</time>
      </trkpt>
      <trkpt lat="40.096519" lon="-0.544268">
        <ele>668.18731689453</ele>
        <time>2020-06-14T22:23:42.585Z</time>
      </trkpt>
      <trkpt lat="40.096481" lon="-0.544305">
        <ele>668.80877685547</ele>
        <time>2020-06-14T22:23:46.040Z</time>
      </trkpt>
      <trkpt lat="40.096316" lon="-0.544392">
        <ele>670.27014160156</ele>
        <time>2020-06-14T22:23:49.498Z</time>
      </trkpt>
      <trkpt lat="40.096127" lon="-0.544414">
        <ele>667.63067626953</ele>
        <time>2020-06-14T22:23:52.960Z</time>
      </trkpt>
      <trkpt lat="40.096032" lon="-0.544407">
        <ele>665.46142578125</ele>
        <time>2020-06-14T22:23:56.424Z</time>
      </trkpt>
      <trkpt lat="40.095982" lon="-0.544407">
        <ele>664.38165283203</ele>
        <time>2020-06-14T22:23:59.889Z</time>
      </trkpt>
      <trkpt lat="40.09574" lon="-0.544359">
        <ele>658.46508789062</ele>
        <time>2020-06-14T22:24:03.359Z</time>
      </trkpt>
      <trkpt lat="40.095584" lon="-0.544317">
        <ele>657.47888183594</ele>
        <time>2020-06-14T22:24:06.832Z</time>
      </trkpt>
      <trkpt lat="40.095459" lon="-0.544291">
        <ele>656.69781494141</ele>
        <time>2020-06-14T22:24:10.308Z</time>
      </trkpt>
      <trkpt lat="40.095329" lon="-0.544289">
        <ele>653.67260742188</ele>
        <time>2020-06-14T22:24:13.786Z</time>
      </trkpt>
      <trkpt lat="40.095112" lon="-0.544364">
        <ele>647.7744140625</ele>
        <time>2020-06-14T22:24:17.269Z</time>
      </trkpt>
      <trkpt lat="40.095079" lon="-0.544372">
        <ele>646.87335205078</ele>
        <time>2020-06-14T22:24:20.752Z</time>
      </trkpt>
      <trkpt lat="40.095031" lon="-0.544358">
        <ele>645.53198242188</ele>
        <time>2020-06-14T22:24:24.236Z</time>
      </trkpt>
      <trkpt lat="40.09497" lon="-0.544408">
        <ele>643.90863037109</ele>
        <time>2020-06-14T22:24:27.722Z</time>
      </trkpt>
      <trkpt lat="40.094917" lon="-0.544446">
        <ele>642.49163818359</ele>
        <time>2020-06-14T22:24:31.209Z</time>
      </trkpt>
      <trkpt lat="40.094876" lon="-0.544421">
        <ele>641.33026123047</ele>
        <time>2020-06-14T22:24:34.697Z</time>
      </trkpt>
      <trkpt lat="40.094828" lon="-0.544439">
        <ele>640.08459472656</ele>
        <time>2020-06-14T22:24:38.186Z</time>
      </trkpt>
      <trkpt lat="40.094822" lon="-0.54444">
        <ele>639.96820068359</ele>
        <time>2020-06-14T22:24:41.675Z</time>
      </trkpt>
      <trkpt lat="40.094796" lon="-0.544458">
        <ele>639.34912109375</ele>
        <time>2020-06-14T22:24:45.165Z</time>
      </trkpt>
      <trkpt lat="40.094671" lon="-0.544507">
        <ele>636.68792724609</ele>
        <time>2020-06-14T22:24:48.657Z</time>
      </trkpt>
      <trkpt lat="40.094659" lon="-0.544506">
        <ele>636.48040771484</ele>
        <time>2020-06-14T22:24:52.150Z</time>
      </trkpt>
      <trkpt lat="40.094637" lon="-0.544494">
        <ele>636.18524169922</ele>
        <time>2020-06-14T22:24:55.643Z</time>
      </trkpt>
      <trkpt lat="40.094702" lon="-0.544341">
        <ele>638.64001464844</ele>
        <time>2020-06-14T22:24:59.139Z</time>
      </trkpt>
      <trkpt lat="40.094714" lon="-0.544305">
        <ele>639.15832519531</ele>
        <time>2020-06-14T22:25:02.635Z</time>
      </trkpt>
      <trkpt lat="40.094697" lon="-0.544284">
        <ele>639.02874755859</ele>
        <time>2020-06-14T22:25:06.132Z</time>
      </trkpt>
      <trkpt lat="40.094631" lon="-0.544352">
        <ele>637.26983642578</ele>
        <time>2020-06-14T22:25:09.630Z</time>
      </trkpt>
      <trkpt lat="40.094612" lon="-0.544374">
        <ele>636.7431640625</ele>
        <time>2020-06-14T22:25:13.129Z</time>
      </trkpt>
      <trkpt lat="40.094476" lon="-0.544516">
        <ele>632.95489501953</ele>
        <time>2020-06-14T22:25:16.631Z</time>
      </trkpt>
      <trkpt lat="40.094439" lon="-0.544536">
        <ele>632.07666015625</ele>
        <time>2020-06-14T22:25:20.134Z</time>
      </trkpt>
      <trkpt lat="40.094439" lon="-0.544537">
        <ele>632.06823730469</ele>
        <time>2020-06-14T22:25:23.637Z</time>
      </trkpt>
      <trkpt lat="40.09437" lon="-0.544576">
        <ele>630.41613769531</ele>
        <time>2020-06-14T22:25:27.142Z</time>
      </trkpt>
      <trkpt lat="40.09435" lon="-0.544613">
        <ele>629.72143554688</ele>
        <time>2020-06-14T22:25:30.647Z</time>
      </trkpt>
      <trkpt lat="40.094325" lon="-0.544647">
        <ele>628.95599365234</ele>
        <time>2020-06-14T22:25:34.153Z</time>
      </trkpt>
      <trkpt lat="40.094269" lon="-0.54466">
        <ele>627.77178955078</ele>
        <time>2020-06-14T22:25:37.660Z</time>
      </trkpt>
      <trkpt lat="40.094226" lon="-0.54463">
        <ele>627.1982421875</ele>
        <time>2020-06-14T22:25:41.168Z</time>
      </trkpt>
      <trkpt lat="40.094187" lon="-0.544587">
        <ele>626.81072998047</ele>
        <time>2020-06-14T22:25:44.677Z</time>
      </trkpt>
      <trkpt lat="40.094147" lon="-0.544544">
        <ele>626.40399169922</ele>
        <time>2020-06-14T22:25:48.187Z</time>
      </trkpt>
      <trkpt lat="40.094132" lon="-0.5445">
        <ele>626.48559570312</ele>
        <time>2020-06-14T22:25:51.698Z</time>
      </trkpt>
      <trkpt lat="40.094122" lon="-0.544483">
        <ele>626.43640136719</ele>
        <time>2020-06-14T22:25:55.209Z</time>
      </trkpt>
      <trkpt lat="40.094122" lon="-0.544479">
        <ele>626.46997070312</ele>
        <time>2020-06-14T22:25:58.720Z</time>
      </trkpt>
      <trkpt lat="40.094165" lon="-0.544333">
        <ele>628.52166748047</ele>
        <time>2020-06-14T22:26:02.234Z</time>
      </trkpt>
      <trkpt lat="40.094295" lon="-0.544213">
        <ele>632.02508544922</ele>
        <time>2020-06-14T22:26:05.751Z</time>
      </trkpt>
      <trkpt lat="40.094332" lon="-0.544086">
        <ele>633.46667480469</ele>
        <time>2020-06-14T22:26:09.270Z</time>
      </trkpt>
      <trkpt lat="40.094263" lon="-0.544076">
        <ele>630.99389648438</ele>
        <time>2020-06-14T22:26:12.791Z</time>
      </trkpt>
      <trkpt lat="40.094191" lon="-0.544147">
        <ele>628.99981689453</ele>
        <time>2020-06-14T22:26:16.313Z</time>
      </trkpt>
      <trkpt lat="40.094177" lon="-0.544151">
        <ele>628.54150390625</ele>
        <time>2020-06-14T22:26:19.836Z</time>
      </trkpt>
      <trkpt lat="40.09417165241" lon="-0.5441538463">
        <ele>628.37591552734</ele>
        <time>2020-06-14T22:26:23.359Z</time>
      </trkpt>
      <trkpt lat="40.09417164628" lon="-0.54415384957">
        <ele>628.37573242188</ele>
        <time>2020-06-14T22:26:26.882Z</time>
      </trkpt>
      <trkpt lat="40.09417156909" lon="-0.54415389065">
        <ele>628.37335205078</ele>
        <time>2020-06-14T22:26:30.405Z</time>
      </trkpt>
      <trkpt lat="40.09409141031" lon="-0.54419655582">
        <ele>625.89141845703</ele>
        <time>2020-06-14T22:26:33.929Z</time>
      </trkpt>
      <trkpt lat="40.09399906732" lon="-0.54400898516">
        <ele>621.328125</ele>
        <time>2020-06-14T22:26:37.457Z</time>
      </trkpt>
      <trkpt lat="40.09373554029" lon="-0.54423093796">
        <ele>614.01177978516</ele>
        <time>2020-06-14T22:26:40.991Z</time>
      </trkpt>
      <trkpt lat="40.09373545647" lon="-0.54423093796">
        <ele>614.00958251953</ele>
        <time>2020-06-14T22:26:44.525Z</time>
      </trkpt>
      <trkpt lat="40.09360671043" lon="-0.54452061653">
        <ele>612.69659423828</ele>
        <time>2020-06-14T22:26:48.064Z</time>
      </trkpt>
      <trkpt lat="40.09357452393" lon="-0.54508924484">
        <ele>605.61828613281</ele>
        <time>2020-06-14T22:26:51.612Z</time>
      </trkpt>
      <trkpt lat="40.09334921837" lon="-0.5453145504">
        <ele>596.42736816406</ele>
        <time>2020-06-14T22:26:55.166Z</time>
      </trkpt>
      <trkpt lat="40.09314537048" lon="-0.5447781086">
        <ele>600.11553955078</ele>
        <time>2020-06-14T22:26:58.729Z</time>
      </trkpt>
      <trkpt lat="40.0928235054" lon="-0.54457426071">
        <ele>594.95440673828</ele>
        <time>2020-06-14T22:27:02.299Z</time>
      </trkpt>
      <trkpt lat="40.09222269058" lon="-0.54491758347">
        <ele>585.08905029297</ele>
        <time>2020-06-14T22:27:05.882Z</time>
      </trkpt>
      <trkpt lat="40.09148248471" lon="-0.54498195648">
        <ele>585.03918457031</ele>
        <time>2020-06-14T22:27:09.480Z</time>
      </trkpt>
      <trkpt lat="40.0905919075" lon="-0.54513216019">
        <ele>589.72833251953</ele>
        <time>2020-06-14T22:27:13.096Z</time>
      </trkpt>
      <trkpt lat="40.09011983871" lon="-0.54536819458">
        <ele>591.70159912109</ele>
        <time>2020-06-14T22:27:16.722Z</time>
      </trkpt>
      <trkpt lat="40.08974432945" lon="-0.54584026337">
        <ele>587.13043212891</ele>
        <time>2020-06-14T22:27:20.359Z</time>
      </trkpt>
      <trkpt lat="40.08906841278" lon="-0.54641962051">
        <ele>587.93078613281</ele>
        <time>2020-06-14T22:27:24.012Z</time>
      </trkpt>
      <trkpt lat="40.08780249394" lon="-0.54688096046">
        <ele>590.69323730469</ele>
        <time>2020-06-14T22:27:27.691Z</time>
      </trkpt>
      <trkpt lat="40.08757710457" lon="-0.54687023163">
        <ele>591.50439453125</ele>
        <time>2020-06-14T22:27:31.374Z</time>
      </trkpt>
      <trkpt lat="40.08723378181" lon="-0.54652690887">
        <ele>598.52398681641</ele>
        <time>2020-06-14T22:27:35.066Z</time>
      </trkpt>
      <trkpt lat="40.0869333744" lon="-0.54660201073">
        <ele>596.86437988281</ele>
        <time>2020-06-14T22:27:38.764Z</time>
      </trkpt>
      <trkpt lat="40.08674025536" lon="-0.54690241814">
        <ele>590.96875</ele>
        <time>2020-06-14T22:27:42.468Z</time>
      </trkpt>
      <trkpt lat="40.08662223816" lon="-0.54732084274">
        <ele>584.51391601562</ele>
        <time>2020-06-14T22:27:46.179Z</time>
      </trkpt>
      <trkpt lat="40.08590340614" lon="-0.54849028587">
        <ele>580.55474853516</ele>
        <time>2020-06-14T22:27:49.913Z</time>
      </trkpt>
      <trkpt lat="40.08449792862" lon="-0.55026054382">
        <ele>589.61187744141</ele>
        <time>2020-06-14T22:27:53.686Z</time>
      </trkpt>
      <trkpt lat="40.08449290448" lon="-0.55027291306">
        <ele>589.71569824219</ele>
        <time>2020-06-14T22:27:57.459Z</time>
      </trkpt>
      <trkpt lat="40.0844928623" lon="-0.5502730169">
        <ele>589.71661376953</ele>
        <time>2020-06-14T22:28:01.232Z</time>
      </trkpt>
      <trkpt lat="40.08437236771" lon="-0.55056966841">
        <ele>592.87438964844</ele>
        <time>2020-06-14T22:28:05.011Z</time>
      </trkpt>
      <trkpt lat="40.08435845375" lon="-0.55060386658">
        <ele>593.53167724609</ele>
        <time>2020-06-14T22:28:08.790Z</time>
      </trkpt>
      <trkpt lat="40.08435853757" lon="-0.55060386658">
        <ele>593.52844238281</ele>
        <time>2020-06-14T22:28:12.569Z</time>
      </trkpt>
      <trkpt lat="40.08437957342" lon="-0.55066901204">
        <ele>592.95526123047</ele>
        <time>2020-06-14T22:28:16.349Z</time>
      </trkpt>
      <trkpt lat="40.084433027015834" lon="-0.5504962132313508">
        <ele>590.4071655273438</ele>
        <time>2020-06-14T21:49:52.000Z</time>
      </trkpt>
      <trkpt lat="40.08441058918834" lon="-0.5506585165858269">
        <ele>591.7266845703125</ele>
        <time>2020-06-14T21:49:52.003Z</time>
      </trkpt>
      <trkpt lat="40.084418719634414" lon="-0.5507142562419176">
        <ele>591.7465209960938</ele>
        <time>2020-06-14T21:49:52.006Z</time>
      </trkpt>
      <trkpt lat="40.084564397111535" lon="-0.5511143244802952">
        <ele>590.2125854492188</ele>
        <time>2020-06-14T21:49:52.016Z</time>
      </trkpt>
      <trkpt lat="40.08460018783808" lon="-0.5512927751988173">
        <ele>590.5089721679688</ele>
        <time>2020-06-14T21:49:52.029Z</time>
      </trkpt>
      <trkpt lat="40.084622567519546" lon="-0.5514847207814455">
        <ele>590.1284790039062</ele>
        <time>2020-06-14T21:49:52.045Z</time>
      </trkpt>
      <trkpt lat="40.084637235850096" lon="-0.5518978647887707">
        <ele>590.0082397460938</ele>
        <time>2020-06-14T21:49:52.067Z</time>
      </trkpt>
      <trkpt lat="40.08471376262605" lon="-0.5523928161710501">
        <ele>589.2530517578125</ele>
        <time>2020-06-14T21:49:52.097Z</time>
      </trkpt>
      <trkpt lat="40.084703620523214" lon="-0.5527993384748697">
        <ele>592.5567626953125</ele>
        <time>2020-06-14T21:49:52.133Z</time>
      </trkpt>
      <trkpt lat="40.08471761830151" lon="-0.552968317642808">
        <ele>593.1566772460938</ele>
        <time>2020-06-14T21:49:52.172Z</time>
      </trkpt>
      <trkpt lat="40.08476539514959" lon="-0.5531321838498116">
        <ele>593.1971435546875</ele>
        <time>2020-06-14T21:49:52.214Z</time>
      </trkpt>
      <trkpt lat="40.08502347394824" lon="-0.5535013228654861">
        <ele>588.4674072265625</ele>
        <time>2020-06-14T21:49:52.263Z</time>
      </trkpt>
      <trkpt lat="40.08510167710483" lon="-0.5536962859332561">
        <ele>589.021240234375</ele>
        <time>2020-06-14T21:49:52.316Z</time>
      </trkpt>
      <trkpt lat="40.08511584252119" lon="-0.5539177358150482">
        <ele>593.3416748046875</ele>
        <time>2020-06-14T21:49:52.372Z</time>
      </trkpt>
      <trkpt lat="40.0850894395262" lon="-0.554452333599329">
        <ele>611.259521484375</ele>
        <time>2020-06-14T21:49:52.436Z</time>
      </trkpt>
      <trkpt lat="40.085141407325864" lon="-0.5546721071004868">
        <ele>616.6331787109375</ele>
        <time>2020-06-14T21:49:52.504Z</time>
      </trkpt>
      <trkpt lat="40.085268057882786" lon="-0.5548400804400444">
        <ele>619.010498046875</ele>
        <time>2020-06-14T21:49:52.575Z</time>
      </trkpt>
      <trkpt lat="40.08536847308278" lon="-0.5549238156527281">
        <ele>619.3943481445312</ele>
        <time>2020-06-14T21:49:52.649Z</time>
      </trkpt>
      <trkpt lat="40.08547550998628" lon="-0.5549762863665819">
        <ele>617.8865356445312</ele>
        <time>2020-06-14T21:49:52.725Z</time>
      </trkpt>
      <trkpt lat="40.08558740839362" lon="-0.5549800582230091">
        <ele>613.614501953125</ele>
        <time>2020-06-14T21:49:52.803Z</time>
      </trkpt>
      <trkpt lat="40.08594640530646" lon="-0.5549375619739294">
        <ele>597.6160278320312</ele>
        <time>2020-06-14T21:49:52.889Z</time>
      </trkpt>
      <trkpt lat="40.086061069741845" lon="-0.5549745261669159">
        <ele>594.0543212890625</ele>
        <time>2020-06-14T21:49:52.977Z</time>
      </trkpt>
      <trkpt lat="40.08610918186605" lon="-0.5550061259418726">
        <ele>592.9981689453125</ele>
        <time>2020-06-14T21:49:53.066Z</time>
      </trkpt>
      <trkpt lat="40.08618839085102" lon="-0.5551023501902819">
        <ele>592.850341796875</ele>
        <time>2020-06-14T21:49:53.157Z</time>
      </trkpt>
      <trkpt lat="40.08624547161162" lon="-0.5552282463759184">
        <ele>594.7794189453125</ele>
        <time>2020-06-14T21:49:53.250Z</time>
      </trkpt>
      <trkpt lat="40.08635887876153" lon="-0.5557506904006004">
        <ele>607.1240844726562</ele>
        <time>2020-06-14T21:49:53.352Z</time>
      </trkpt>
      <trkpt lat="40.08646784350276" lon="-0.5559685360640287">
        <ele>608.9519653320312</ele>
        <time>2020-06-14T21:49:53.458Z</time>
      </trkpt>
      <trkpt lat="40.086572701111436" lon="-0.5560769140720367">
        <ele>607.692626953125</ele>
        <time>2020-06-14T21:49:53.566Z</time>
      </trkpt>
      <trkpt lat="40.08670857176185" lon="-0.5561323184520006">
        <ele>603.2864379882812</ele>
        <time>2020-06-14T21:49:53.677Z</time>
      </trkpt>
      <trkpt lat="40.08699649013579" lon="-0.5562148801982403">
        <ele>593.0297241210938</ele>
        <time>2020-06-14T21:49:53.794Z</time>
      </trkpt>
      <trkpt lat="40.08712599053979" lon="-0.5563228391110897">
        <ele>590.9033203125</ele>
        <time>2020-06-14T21:49:53.914Z</time>
      </trkpt>
      <trkpt lat="40.08717678487301" lon="-0.5564033892005682">
        <ele>590.6791381835938</ele>
        <time>2020-06-14T21:49:54.036Z</time>
      </trkpt>
      <trkpt lat="40.08720922283828" lon="-0.5564986076205969">
        <ele>590.8900146484375</ele>
        <time>2020-06-14T21:49:54.159Z</time>
      </trkpt>
      <trkpt lat="40.08722087368369" lon="-0.5566046386957169">
        <ele>591.7413940429688</ele>
        <time>2020-06-14T21:49:54.284Z</time>
      </trkpt>
      <trkpt lat="40.08712607435882" lon="-0.5575886741280556">
        <ele>607.2406616210938</ele>
        <time>2020-06-14T21:49:54.424Z</time>
      </trkpt>
      <trkpt lat="40.08713931776583" lon="-0.5577805358916521">
        <ele>610.1378784179688</ele>
        <time>2020-06-14T21:49:54.567Z</time>
      </trkpt>
      <trkpt lat="40.08716739714146" lon="-0.5578666180372238">
        <ele>611.2783813476562</ele>
        <time>2020-06-14T21:49:54.712Z</time>
      </trkpt>
      <trkpt lat="40.08721106685698" lon="-0.5579386185854673">
        <ele>611.8326416015625</ele>
        <time>2020-06-14T21:49:54.858Z</time>
      </trkpt>
      <trkpt lat="40.08732791058719" lon="-0.5580403748899698">
        <ele>611.1548461914062</ele>
        <time>2020-06-14T21:49:55.007Z</time>
      </trkpt>
      <trkpt lat="40.0873929541558" lon="-0.5580578930675983">
        <ele>610.4014892578125</ele>
        <time>2020-06-14T21:49:55.157Z</time>
      </trkpt>
      <trkpt lat="40.087952530011535" lon="-0.5579073540866375">
        <ele>601.5460205078125</ele>
        <time>2020-06-14T21:49:55.319Z</time>
      </trkpt>
      <trkpt lat="40.08807113394141" lon="-0.5579108744859695">
        <ele>598.4801025390625</ele>
        <time>2020-06-14T21:49:55.483Z</time>
      </trkpt>
      <trkpt lat="40.0881287176162" lon="-0.5579314939677715">
        <ele>596.6146850585938</ele>
        <time>2020-06-14T21:49:55.648Z</time>
      </trkpt>
      <trkpt lat="40.088231982663274" lon="-0.5580186657607555">
        <ele>593.1780395507812</ele>
        <time>2020-06-14T21:49:55.816Z</time>
      </trkpt>
      <trkpt lat="40.08829769678414" lon="-0.5581542011350393">
        <ele>589.748291015625</ele>
        <time>2020-06-14T21:49:55.986Z</time>
      </trkpt>
      <trkpt lat="40.08832359686494" lon="-0.558314211666584">
        <ele>587.3734741210938</ele>
        <time>2020-06-14T21:49:56.159Z</time>
      </trkpt>
      <trkpt lat="40.08829870261252" lon="-0.5584730487316847">
        <ele>586.6553344726562</ele>
        <time>2020-06-14T21:49:56.334Z</time>
      </trkpt>
      <trkpt lat="40.08818035013974" lon="-0.558775719255209">
        <ele>588.4568481445312</ele>
        <time>2020-06-14T21:49:56.514Z</time>
      </trkpt>
      <trkpt lat="40.088034588843584" lon="-0.5590568482875824">
        <ele>592.4152221679688</ele>
        <time>2020-06-14T21:49:56.700Z</time>
      </trkpt>
      <trkpt lat="40.087949596345425" lon="-0.559177128598094">
        <ele>594.9049072265625</ele>
        <time>2020-06-14T21:49:56.888Z</time>
      </trkpt>
      <trkpt lat="40.08765262551606" lon="-0.5594944674521685">
        <ele>603.480712890625</ele>
        <time>2020-06-14T21:49:57.084Z</time>
      </trkpt>
      <trkpt lat="40.08753729052842" lon="-0.5595357064157724">
        <ele>606.712890625</ele>
        <time>2020-06-14T21:49:57.282Z</time>
      </trkpt>
      <trkpt lat="40.087394462898374" lon="-0.5595404841005802">
        <ele>610.6600341796875</ele>
        <time>2020-06-14T21:49:57.483Z</time>
      </trkpt>
      <trkpt lat="40.087331514805555" lon="-0.5595819745212793">
        <ele>612.4468383789062</ele>
        <time>2020-06-14T21:49:57.685Z</time>
      </trkpt>
      <trkpt lat="40.08727963082492" lon="-0.5596671346575022">
        <ele>613.9807739257812</ele>
        <time>2020-06-14T21:49:57.889Z</time>
      </trkpt>
      <trkpt lat="40.08724861778319" lon="-0.5598009936511517">
        <ele>617.3950805664062</ele>
        <time>2020-06-14T21:49:58.095Z</time>
      </trkpt>
      <trkpt lat="40.08731919340789" lon="-0.5599969625473022">
        <ele>619.444580078125</ele>
        <time>2020-06-14T21:49:58.305Z</time>
      </trkpt>
      <trkpt lat="40.08738365024328" lon="-0.5600895825773478">
        <ele>619.5549926757812</ele>
        <time>2020-06-14T21:49:58.516Z</time>
      </trkpt>
      <trkpt lat="40.087599735707045" lon="-0.5602636747062206">
        <ele>614.9952392578125</ele>
        <time>2020-06-14T21:49:58.733Z</time>
      </trkpt>
      <trkpt lat="40.08793752640486" lon="-0.5606334004551172">
        <ele>605.8295288085938</ele>
        <time>2020-06-14T21:49:58.958Z</time>
      </trkpt>
      <trkpt lat="40.088017992675304" lon="-0.5608343984931707">
        <ele>603.5125122070312</ele>
        <time>2020-06-14T21:49:59.187Z</time>
      </trkpt>
      <trkpt lat="40.08802620694041" lon="-0.5609789025038481">
        <ele>603.2759399414062</ele>
        <time>2020-06-14T21:49:59.418Z</time>
      </trkpt>
      <trkpt lat="40.08798211812973" lon="-0.5611825827509165">
        <ele>604.5455322265625</ele>
        <time>2020-06-14T21:49:59.652Z</time>
      </trkpt>
      <trkpt lat="40.08791673928499" lon="-0.5613418389111757">
        <ele>606.4459228515625</ele>
        <time>2020-06-14T21:49:59.889Z</time>
      </trkpt>
      <trkpt lat="40.087865609675646" lon="-0.5614210478961468">
        <ele>606.1436767578125</ele>
        <time>2020-06-14T21:50:00.128Z</time>
      </trkpt>
      <trkpt lat="40.087737031280994" lon="-0.5615539010614157">
        <ele>606.69921875</ele>
        <time>2020-06-14T21:50:00.370Z</time>
      </trkpt>
      <trkpt lat="40.08765866048634" lon="-0.5616095568984747">
        <ele>607.4716796875</ele>
        <time>2020-06-14T21:50:00.614Z</time>
      </trkpt>
      <trkpt lat="40.087493788450956" lon="-0.561689268797636">
        <ele>610.4085693359375</ele>
        <time>2020-06-14T21:50:00.861Z</time>
      </trkpt>
      <trkpt lat="40.0873155053705" lon="-0.5617480259388685">
        <ele>614.2757568359375</ele>
        <time>2020-06-14T21:50:01.112Z</time>
      </trkpt>
      <trkpt lat="40.08716572076082" lon="-0.5617632810026407">
        <ele>618.3842163085938</ele>
        <time>2020-06-14T21:50:01.366Z</time>
      </trkpt>
      <trkpt lat="40.08709908463061" lon="-0.5617962218821049">
        <ele>619.552978515625</ele>
        <time>2020-06-14T21:50:01.621Z</time>
      </trkpt>
      <trkpt lat="40.08704544045031" lon="-0.5618458427488804">
        <ele>619.6588745117188</ele>
        <time>2020-06-14T21:50:01.878Z</time>
      </trkpt>
      <trkpt lat="40.086991963908076" lon="-0.5619531311094761">
        <ele>618.3030395507812</ele>
        <time>2020-06-14T21:50:02.137Z</time>
      </trkpt>
      <trkpt lat="40.08691434748471" lon="-0.5623272154480219">
        <ele>610.2908325195312</ele>
        <time>2020-06-14T21:50:02.402Z</time>
      </trkpt>
      <trkpt lat="40.08684268221259" lon="-0.5624585598707199">
        <ele>608.5697631835938</ele>
        <time>2020-06-14T21:50:02.669Z</time>
      </trkpt>
      <trkpt lat="40.086779901757836" lon="-0.5625207535922527">
        <ele>608.3551025390625</ele>
        <time>2020-06-14T21:50:02.938Z</time>
      </trkpt>
      <trkpt lat="40.086705051362514" lon="-0.5625487491488457">
        <ele>609.1851196289062</ele>
        <time>2020-06-14T21:50:03.208Z</time>
      </trkpt>
      <trkpt lat="40.08639601059258" lon="-0.5625427141785622">
        <ele>617.1454467773438</ele>
        <time>2020-06-14T21:50:03.484Z</time>
      </trkpt>
      <trkpt lat="40.0859634205699" lon="-0.5623816978186369">
        <ele>632.5818481445312</ele>
        <time>2020-06-14T21:50:03.769Z</time>
      </trkpt>
      <trkpt lat="40.08580734953284" lon="-0.5623008962720633">
        <ele>637.891357421875</ele>
        <time>2020-06-14T21:50:04.058Z</time>
      </trkpt>
      <trkpt lat="40.08574993349612" lon="-0.5622913409024477">
        <ele>639.360595703125</ele>
        <time>2020-06-14T21:50:04.348Z</time>
      </trkpt>
      <trkpt lat="40.0853917747736" lon="-0.5623680353164673">
        <ele>645.5862426757812</ele>
        <time>2020-06-14T21:50:04.645Z</time>
      </trkpt>
      <trkpt lat="40.085134115070105" lon="-0.5624553747475147">
        <ele>651.131591796875</ele>
        <time>2020-06-14T21:50:04.947Z</time>
      </trkpt>
      <trkpt lat="40.08505582809448" lon="-0.5625435523688793">
        <ele>651.411376953125</ele>
        <time>2020-06-14T21:50:05.252Z</time>
      </trkpt>
      <trkpt lat="40.08471267297864" lon="-0.5628551915287971">
        <ele>654.074951171875</ele>
        <time>2020-06-14T21:50:05.565Z</time>
      </trkpt>
      <trkpt lat="40.08451544679701" lon="-0.5630698520690203">
        <ele>657.5985107421875</ele>
        <time>2020-06-14T21:50:05.883Z</time>
      </trkpt>
      <trkpt lat="40.08447336964309" lon="-0.5631413497030735">
        <ele>659.5791625976562</ele>
        <time>2020-06-14T21:50:06.202Z</time>
      </trkpt>
      <trkpt lat="40.08441964164376" lon="-0.5633130948990583">
        <ele>662.9554443359375</ele>
        <time>2020-06-14T21:50:06.524Z</time>
      </trkpt>
      <trkpt lat="40.08438904769719" lon="-0.5634947307407856">
        <ele>665.5821533203125</ele>
        <time>2020-06-14T21:50:06.849Z</time>
      </trkpt>
      <trkpt lat="40.08438401855528" lon="-0.5639597587287426">
        <ele>667.4359130859375</ele>
        <time>2020-06-14T21:50:07.181Z</time>
      </trkpt>
      <trkpt lat="40.08440958335996" lon="-0.5642213579267263">
        <ele>663.6909790039062</ele>
        <time>2020-06-14T21:50:07.517Z</time>
      </trkpt>
      <trkpt lat="40.084465155377984" lon="-0.5643553845584393">
        <ele>660.2434692382812</ele>
        <time>2020-06-14T21:50:07.856Z</time>
      </trkpt>
      <trkpt lat="40.084571186453104" lon="-0.5644967034459114">
        <ele>654.9010009765625</ele>
        <time>2020-06-14T21:50:08.198Z</time>
      </trkpt>
      <trkpt lat="40.084589375182986" lon="-0.5645770020782948">
        <ele>653.3792114257812</ele>
        <time>2020-06-14T21:50:08.541Z</time>
      </trkpt>
      <trkpt lat="40.08458074182272" lon="-0.5646577198058367">
        <ele>652.818359375</ele>
        <time>2020-06-14T21:50:08.885Z</time>
      </trkpt>
      <trkpt lat="40.08454419672489" lon="-0.5647217575460672">
        <ele>653.0119018554688</ele>
        <time>2020-06-14T21:50:09.230Z</time>
      </trkpt>
      <trkpt lat="40.08443112485111" lon="-0.5648121144622564">
        <ele>655.2388305664062</ele>
        <time>2020-06-14T21:50:09.578Z</time>
      </trkpt>
      <trkpt lat="40.084165669977665" lon="-0.5649323109537363">
        <ele>662.3419799804688</ele>
        <time>2020-06-14T21:50:09.932Z</time>
      </trkpt>
      <trkpt lat="40.083978082984686" lon="-0.5650478973984718">
        <ele>666.7364501953125</ele>
        <time>2020-06-14T21:50:10.290Z</time>
      </trkpt>
      <trkpt lat="40.0838528573513" lon="-0.5652835126966238">
        <ele>666.4380493164062</ele>
        <time>2020-06-14T21:50:10.652Z</time>
      </trkpt>
      <trkpt lat="40.083673065528274" lon="-0.565525833517313">
        <ele>668.4989624023438</ele>
        <time>2020-06-14T21:50:11.019Z</time>
      </trkpt>
      <trkpt lat="40.08348925039172" lon="-0.5658273305743933">
        <ele>673.7573852539062</ele>
        <time>2020-06-14T21:50:11.392Z</time>
      </trkpt>
      <trkpt lat="40.08329462260008" lon="-0.5661906860768795">
        <ele>679.4549560546875</ele>
        <time>2020-06-14T21:50:11.772Z</time>
      </trkpt>
      <trkpt lat="40.08317928761244" lon="-0.566347511485219">
        <ele>683.0287475585938</ele>
        <time>2020-06-14T21:50:12.155Z</time>
      </trkpt>
      <trkpt lat="40.0830705743283" lon="-0.566565440967679">
        <ele>685.3729248046875</ele>
        <time>2020-06-14T21:50:12.542Z</time>
      </trkpt>
      <trkpt lat="40.08302045054734" lon="-0.5667003057897091">
        <ele>686.2061767578125</ele>
        <time>2020-06-14T21:50:12.932Z</time>
      </trkpt>
      <trkpt lat="40.08300737477839" lon="-0.5668744817376137">
        <ele>685.4229736328125</ele>
        <time>2020-06-14T21:50:13.324Z</time>
      </trkpt>
      <trkpt lat="40.08301114663482" lon="-0.5670371744781733">
        <ele>684.1160278320312</ele>
        <time>2020-06-14T21:50:13.719Z</time>
      </trkpt>
      <trkpt lat="40.08304207585752" lon="-0.5672002863138914">
        <ele>683.0662231445312</ele>
        <time>2020-06-14T21:50:14.117Z</time>
      </trkpt>
      <trkpt lat="40.08303126320243" lon="-0.5673716124147177">
        <ele>684.3923950195312</ele>
        <time>2020-06-14T21:50:14.517Z</time>
      </trkpt>
      <trkpt lat="40.083015505224466" lon="-0.5674535036087036">
        <ele>685.3185424804688</ele>
        <time>2020-06-14T21:50:14.918Z</time>
      </trkpt>
      <trkpt lat="40.08292640559375" lon="-0.5676817428320646">
        <ele>689.1988525390625</ele>
        <time>2020-06-14T21:50:15.323Z</time>
      </trkpt>
      <trkpt lat="40.08288332261145" lon="-0.5679939687252045">
        <ele>692.7777099609375</ele>
        <time>2020-06-14T21:50:15.733Z</time>
      </trkpt>
      <trkpt lat="40.0828274153173" lon="-0.5681102257221937">
        <ele>695.2116088867188</ele>
        <time>2020-06-14T21:50:16.145Z</time>
      </trkpt>
      <trkpt lat="40.0827497150749" lon="-0.568340728059411">
        <ele>699.993408203125</ele>
        <time>2020-06-14T21:50:16.561Z</time>
      </trkpt>
      <trkpt lat="40.08263756521046" lon="-0.568426139652729">
        <ele>704.2796020507812</ele>
        <time>2020-06-14T21:50:16.980Z</time>
      </trkpt>
      <trkpt lat="40.0825837533921" lon="-0.5685258843004704">
        <ele>706.9707641601562</ele>
        <time>2020-06-14T21:50:17.401Z</time>
      </trkpt>
      <trkpt lat="40.08248828351498" lon="-0.5686082784086466">
        <ele>710.72412109375</ele>
        <time>2020-06-14T21:50:17.824Z</time>
      </trkpt>
      <trkpt lat="40.08242575451732" lon="-0.5686951987445354">
        <ele>713.5382080078125</ele>
        <time>2020-06-14T21:50:18.249Z</time>
      </trkpt>
      <trkpt lat="40.08240454830229" lon="-0.5688144732266665">
        <ele>715.4622802734375</ele>
        <time>2020-06-14T21:50:18.676Z</time>
      </trkpt>
      <trkpt lat="40.08235802873969" lon="-0.5689181573688984">
        <ele>717.5340576171875</ele>
        <time>2020-06-14T21:50:19.105Z</time>
      </trkpt>
      <trkpt lat="40.082345623523" lon="-0.5690811015665531">
        <ele>718.6881103515625</ele>
        <time>2020-06-14T21:50:19.536Z</time>
      </trkpt>
      <trkpt lat="40.082298098132014" lon="-0.5691923294216394">
        <ele>720.6474609375</ele>
        <time>2020-06-14T21:50:19.969Z</time>
      </trkpt>
      <trkpt lat="40.08212777785957" lon="-0.5697384104132652">
        <ele>728.341796875</ele>
        <time>2020-06-14T21:50:20.411Z</time>
      </trkpt>
      <trkpt lat="40.08208586834371" lon="-0.5700824875384569">
        <ele>729.2880859375</ele>
        <time>2020-06-14T21:50:20.858Z</time>
      </trkpt>
      <trkpt lat="40.082038678228855" lon="-0.5703255627304316">
        <ele>730.47705078125</ele>
        <time>2020-06-14T21:50:21.309Z</time>
      </trkpt>
      <trkpt lat="40.0817652605474" lon="-0.5706936120986938">
        <ele>738.0225219726562</ele>
        <time>2020-06-14T21:50:21.768Z</time>
      </trkpt>
      <trkpt lat="40.08169996552169" lon="-0.5708064325153828">
        <ele>740.0737915039062</ele>
        <time>2020-06-14T21:50:22.229Z</time>
      </trkpt>
      <trkpt lat="40.08164715953171" lon="-0.5709374416619539">
        <ele>741.8757934570312</ele>
        <time>2020-06-14T21:50:22.693Z</time>
      </trkpt>
      <trkpt lat="40.08157046511769" lon="-0.5712096020579338">
        <ele>745.611083984375</ele>
        <time>2020-06-14T21:50:23.161Z</time>
      </trkpt>
      <trkpt lat="40.08152939379215" lon="-0.5714872945100069">
        <ele>749.9786376953125</ele>
        <time>2020-06-14T21:50:23.633Z</time>
      </trkpt>
      <trkpt lat="40.08152964524925" lon="-0.5716614704579115">
        <ele>752.899169921875</ele>
        <time>2020-06-14T21:50:24.108Z</time>
      </trkpt>
      <trkpt lat="40.08158152922988" lon="-0.5718749575316906">
        <ele>755.3399658203125</ele>
        <time>2020-06-14T21:50:24.586Z</time>
      </trkpt>
      <trkpt lat="40.08171119727194" lon="-0.5722290091216564">
        <ele>755.7404174804688</ele>
        <time>2020-06-14T21:50:25.070Z</time>
      </trkpt>
      <trkpt lat="40.08177498355508" lon="-0.5724730063229799">
        <ele>756.6914672851562</ele>
        <time>2020-06-14T21:50:25.558Z</time>
      </trkpt>
      <trkpt lat="40.081808594986796" lon="-0.5726568214595318">
        <ele>758.7007446289062</ele>
        <time>2020-06-14T21:50:26.049Z</time>
      </trkpt>
      <trkpt lat="40.081837344914675" lon="-0.5730158183723688">
        <ele>763.63916015625</ele>
        <time>2020-06-14T21:50:26.546Z</time>
      </trkpt>
      <trkpt lat="40.08181907236576" lon="-0.5733518488705158">
        <ele>766.8676147460938</ele>
        <time>2020-06-14T21:50:27.048Z</time>
      </trkpt>
      <trkpt lat="40.08173927664757" lon="-0.5736173875629902">
        <ele>772.6353149414062</ele>
        <time>2020-06-14T21:50:27.554Z</time>
      </trkpt>
      <trkpt lat="40.0816600676626" lon="-0.573991471901536">
        <ele>780.6573486328125</ele>
        <time>2020-06-14T21:50:28.066Z</time>
      </trkpt>
      <trkpt lat="40.081648249179125" lon="-0.5742992553859949">
        <ele>787.0282592773438</ele>
        <time>2020-06-14T21:50:28.583Z</time>
      </trkpt>
      <trkpt lat="40.08160935714841" lon="-0.5744270794093609">
        <ele>789.8553466796875</ele>
        <time>2020-06-14T21:50:29.102Z</time>
      </trkpt>
      <trkpt lat="40.0815889891237" lon="-0.5745657999068499">
        <ele>792.7138671875</ele>
        <time>2020-06-14T21:50:29.623Z</time>
      </trkpt>
      <trkpt lat="40.08146611042321" lon="-0.5749056860804558">
        <ele>800.6904907226562</ele>
        <time>2020-06-14T21:50:30.150Z</time>
      </trkpt>
      <trkpt lat="40.08141724392772" lon="-0.5749585758894682">
        <ele>802.2383422851562</ele>
        <time>2020-06-14T21:50:30.678Z</time>
      </trkpt>
      <trkpt lat="40.08133577182889" lon="-0.5750068556517363">
        <ele>804.0050659179688</ele>
        <time>2020-06-14T21:50:31.208Z</time>
      </trkpt>
      <trkpt lat="40.08107827976346" lon="-0.575018422678113">
        <ele>807.8256225585938</ele>
        <time>2020-06-14T21:50:31.743Z</time>
      </trkpt>
      <trkpt lat="40.081005189567804" lon="-0.5749439913779497">
        <ele>807.447509765625</ele>
        <time>2020-06-14T21:50:32.280Z</time>
      </trkpt>
      <trkpt lat="40.08079011251108" lon="-0.5748023083199385">
        <ele>807.0724487304688</ele>
        <time>2020-06-14T21:50:32.822Z</time>
      </trkpt>
      <trkpt lat="40.08078991676489" lon="-0.5748021793716006">
        <ele>807.0720825195312</ele>
        <time>2020-06-14T21:50:33.364Z</time>
      </trkpt>
      <trkpt lat="40.080789774656296" lon="-0.5748020857572556">
        <ele>807.0718383789062</ele>
        <time>2020-06-14T21:50:33.906Z</time>
      </trkpt>
      <trkpt lat="40.08062322624028" lon="-0.574714494869113">
        <ele>807.2731323242188</ele>
        <time>2020-06-14T21:50:34.452Z</time>
      </trkpt>
      <trkpt lat="40.080545861274004" lon="-0.5746375489979982">
        <ele>806.6386108398438</ele>
        <time>2020-06-14T21:50:35.000Z</time>
      </trkpt>
      <trkpt lat="40.080456929281354" lon="-0.5744331143796444">
        <ele>806.531494140625</ele>
        <time>2020-06-14T21:50:35.551Z</time>
      </trkpt>
      <trkpt lat="40.08042843081057" lon="-0.5743227247148752">
        <ele>806.4867553710938</ele>
        <time>2020-06-14T21:50:36.104Z</time>
      </trkpt>
      <trkpt lat="40.08032030425966" lon="-0.5736738815903664">
        <ele>806.1690063476562</ele>
        <time>2020-06-14T21:50:36.667Z</time>
      </trkpt>
      <trkpt lat="40.08019926957786" lon="-0.5730926804244518">
        <ele>809.2941284179688</ele>
        <time>2020-06-14T21:50:37.239Z</time>
      </trkpt>
      <trkpt lat="40.08011964149773" lon="-0.572907691821456">
        <ele>810.2037963867188</ele>
        <time>2020-06-14T21:50:37.815Z</time>
      </trkpt>
      <trkpt lat="40.07997438311577" lon="-0.5726614315062761">
        <ele>811.6742553710938</ele>
        <time>2020-06-14T21:50:38.395Z</time>
      </trkpt>
      <trkpt lat="40.07992551662028" lon="-0.5726116430014372">
        <ele>812.7431030273438</ele>
        <time>2020-06-14T21:50:38.977Z</time>
      </trkpt>
      <trkpt lat="40.07983750663698" lon="-0.5725781992077827">
        <ele>815.1823120117188</ele>
        <time>2020-06-14T21:50:39.561Z</time>
      </trkpt>
      <trkpt lat="40.0797775760293" lon="-0.5725886765867472">
        <ele>817.0427856445312</ele>
        <time>2020-06-14T21:50:40.146Z</time>
      </trkpt>
      <trkpt lat="40.07972275838256" lon="-0.5726255569607019">
        <ele>818.9083251953125</ele>
        <time>2020-06-14T21:50:40.732Z</time>
      </trkpt>
      <trkpt lat="40.07968210615218" lon="-0.5726883374154568">
        <ele>820.5042724609375</ele>
        <time>2020-06-14T21:50:41.319Z</time>
      </trkpt>
      <trkpt lat="40.07966626435518" lon="-0.5727693066000938">
        <ele>821.4652099609375</ele>
        <time>2020-06-14T21:50:41.908Z</time>
      </trkpt>
      <trkpt lat="40.07969602011144" lon="-0.5729881580919027">
        <ele>822.1578369140625</ele>
        <time>2020-06-14T21:50:42.500Z</time>
      </trkpt>
      <trkpt lat="40.079817892983556" lon="-0.5733909085392952">
        <ele>820.076416015625</ele>
        <time>2020-06-14T21:50:43.099Z</time>
      </trkpt>
      <trkpt lat="40.079881930723786" lon="-0.5738731194287539">
        <ele>818.892822265625</ele>
        <time>2020-06-14T21:50:43.705Z</time>
      </trkpt>
      <trkpt lat="40.07986994460225" lon="-0.5739538371562958">
        <ele>819.5285034179688</ele>
        <time>2020-06-14T21:50:44.312Z</time>
      </trkpt>
      <trkpt lat="40.07983222603798" lon="-0.5740022007375956">
        <ele>820.7886962890625</ele>
        <time>2020-06-14T21:50:44.920Z</time>
      </trkpt>
      <trkpt lat="40.07977657020092" lon="-0.5739965848624706">
        <ele>822.37109375</ele>
        <time>2020-06-14T21:50:45.530Z</time>
      </trkpt>
      <trkpt lat="40.07975410670042" lon="-0.5739704333245754">
        <ele>822.923828125</ele>
        <time>2020-06-14T21:50:46.140Z</time>
      </trkpt>
      <trkpt lat="40.07970708422363" lon="-0.5737605504691601">
        <ele>823.8267822265625</ele>
        <time>2020-06-14T21:50:46.753Z</time>
      </trkpt>
      <trkpt lat="40.07962443865836" lon="-0.5735107697546482">
        <ele>825.4703979492188</ele>
        <time>2020-06-14T21:50:47.371Z</time>
      </trkpt>
      <trkpt lat="40.079528130590916" lon="-0.5732720531523228">
        <ele>826.8622436523438</ele>
        <time>2020-06-14T21:50:47.993Z</time>
      </trkpt>
      <trkpt lat="40.07938429713249" lon="-0.573018416762352">
        <ele>828.3483276367188</ele>
        <time>2020-06-14T21:50:48.620Z</time>
      </trkpt>
      <trkpt lat="40.07928497157991" lon="-0.5729113798588514">
        <ele>829.2635498046875</ele>
        <time>2020-06-14T21:50:49.249Z</time>
      </trkpt>
      <trkpt lat="40.07908221334219" lon="-0.5727764312177896">
        <ele>831.6165161132812</ele>
        <time>2020-06-14T21:50:49.883Z</time>
      </trkpt>
      <trkpt lat="40.0790108833462" lon="-0.5727087054401636">
        <ele>832.5889892578125</ele>
        <time>2020-06-14T21:50:50.519Z</time>
      </trkpt>
      <trkpt lat="40.07888817228377" lon="-0.5725482758134604">
        <ele>834.8993530273438</ele>
        <time>2020-06-14T21:50:51.158Z</time>
      </trkpt>
      <trkpt lat="40.07881340570748" lon="-0.5724080465734005">
        <ele>836.256103515625</ele>
        <time>2020-06-14T21:50:51.800Z</time>
      </trkpt>
      <trkpt lat="40.07873419672251" lon="-0.5721407476812601">
        <ele>837.5399780273438</ele>
        <time>2020-06-14T21:50:52.446Z</time>
      </trkpt>
      <trkpt lat="40.078547364100814" lon="-0.5712313111871481">
        <ele>845.5573120117188</ele>
        <time>2020-06-14T21:50:53.106Z</time>
      </trkpt>
      <trkpt lat="40.07851802743971" lon="-0.5710254516452551">
        <ele>848.0969848632812</ele>
        <time>2020-06-14T21:50:53.770Z</time>
      </trkpt>
      <trkpt lat="40.078353406861424" lon="-0.5704729165881872">
        <ele>853.2434692382812</ele>
        <time>2020-06-14T21:50:54.443Z</time>
      </trkpt>
      <trkpt lat="40.078310407698154" lon="-0.5703823082149029">
        <ele>854.1021118164062</ele>
        <time>2020-06-14T21:50:55.117Z</time>
      </trkpt>
      <trkpt lat="40.078212171792984" lon="-0.5702610220760107">
        <ele>855.4466552734375</ele>
        <time>2020-06-14T21:50:55.794Z</time>
      </trkpt>
      <trkpt lat="40.07813589647412" lon="-0.5702009238302708">
        <ele>855.7445678710938</ele>
        <time>2020-06-14T21:50:56.473Z</time>
      </trkpt>
      <trkpt lat="40.078012431040406" lon="-0.5701502971351147">
        <ele>855.8660888671875</ele>
        <time>2020-06-14T21:50:57.154Z</time>
      </trkpt>
      <trkpt lat="40.07762166671455" lon="-0.5701343715190887">
        <ele>859.2330932617188</ele>
        <time>2020-06-14T21:50:57.843Z</time>
      </trkpt>
      <trkpt lat="40.07731329649687" lon="-0.5701440945267677">
        <ele>861.4576416015625</ele>
        <time>2020-06-14T21:50:58.538Z</time>
      </trkpt>
      <trkpt lat="40.077060079202056" lon="-0.5701832380145788">
        <ele>862.4259033203125</ele>
        <time>2020-06-14T21:50:59.239Z</time>
      </trkpt>
      <trkpt lat="40.07688146084547" lon="-0.5702386423945427">
        <ele>862.6918334960938</ele>
        <time>2020-06-14T21:50:59.943Z</time>
      </trkpt>
      <trkpt lat="40.07658247835934" lon="-0.5703750997781754">
        <ele>863.3467407226562</ele>
        <time>2020-06-14T21:51:00.654Z</time>
      </trkpt>
      <trkpt lat="40.0762705039233" lon="-0.5705538857728243">
        <ele>864.153564453125</ele>
        <time>2020-06-14T21:51:01.371Z</time>
      </trkpt>
      <trkpt lat="40.07607654668391" lon="-0.5707045923918486">
        <ele>864.6959838867188</ele>
        <time>2020-06-14T21:51:02.093Z</time>
      </trkpt>
      <trkpt lat="40.075743701308966" lon="-0.5710222665220499">
        <ele>865.8394165039062</ele>
        <time>2020-06-14T21:51:02.823Z</time>
      </trkpt>
      <trkpt lat="40.07567647844553" lon="-0.5711338296532631">
        <ele>866.2410278320312</ele>
        <time>2020-06-14T21:51:03.555Z</time>
      </trkpt>
      <trkpt lat="40.07561696693301" lon="-0.5713979434221983">
        <ele>867.1277465820312</ele>
        <time>2020-06-14T21:51:04.292Z</time>
      </trkpt>
      <trkpt lat="40.07551856338978" lon="-0.571711678057909">
        <ele>867.880615234375</ele>
        <time>2020-06-14T21:51:05.034Z</time>
      </trkpt>
      <trkpt lat="40.07548461668193" lon="-0.571902533993125">
        <ele>868.3385620117188</ele>
        <time>2020-06-14T21:51:05.779Z</time>
      </trkpt>
      <trkpt lat="40.07549819536507" lon="-0.5723347887396812">
        <ele>869.0823974609375</ele>
        <time>2020-06-14T21:51:06.530Z</time>
      </trkpt>
      <trkpt lat="40.07549190893769" lon="-0.5730615835636854">
        <ele>868.5952758789062</ele>
        <time>2020-06-14T21:51:07.293Z</time>
      </trkpt>
      <trkpt lat="40.07553230971098" lon="-0.5733018927276134">
        <ele>865.0894165039062</ele>
        <time>2020-06-14T21:51:08.059Z</time>
      </trkpt>
      <trkpt lat="40.07557882927358" lon="-0.5734453909099102">
        <ele>863.1303100585938</ele>
        <time>2020-06-14T21:51:08.828Z</time>
      </trkpt>
      <trkpt lat="40.07564504630864" lon="-0.5735613964498043">
        <ele>861.7181396484375</ele>
        <time>2020-06-14T21:51:09.599Z</time>
      </trkpt>
      <trkpt lat="40.075724171474576" lon="-0.5736328102648258">
        <ele>861.0789794921875</ele>
        <time>2020-06-14T21:51:10.372Z</time>
      </trkpt>
      <trkpt lat="40.075892228633165" lon="-0.5737027991563082">
        <ele>860.9954833984375</ele>
        <time>2020-06-14T21:51:11.148Z</time>
      </trkpt>
      <trkpt lat="40.076351640746" lon="-0.5737085826694965">
        <ele>862.4913940429688</ele>
        <time>2020-06-14T21:51:11.934Z</time>
      </trkpt>
      <trkpt lat="40.07649212144315" lon="-0.5736933276057243">
        <ele>862.83154296875</ele>
        <time>2020-06-14T21:51:12.722Z</time>
      </trkpt>
      <trkpt lat="40.07681834511459" lon="-0.5737342312932014">
        <ele>865.130859375</ele>
        <time>2020-06-14T21:51:13.517Z</time>
      </trkpt>
      <trkpt lat="40.07703091017902" lon="-0.5736771505326033">
        <ele>866.7296142578125</ele>
        <time>2020-06-14T21:51:14.316Z</time>
      </trkpt>
      <trkpt lat="40.07715898565948" lon="-0.5736740492284298">
        <ele>865.405029296875</ele>
        <time>2020-06-14T21:51:15.118Z</time>
      </trkpt>
      <trkpt lat="40.07729770615697" lon="-0.5736920703202486">
        <ele>862.140625</ele>
        <time>2020-06-14T21:51:15.923Z</time>
      </trkpt>
      <trkpt lat="40.07753726094961" lon="-0.5737521685659885">
        <ele>859.8442993164062</ele>
        <time>2020-06-14T21:51:16.733Z</time>
      </trkpt>
      <trkpt lat="40.077618062496185" lon="-0.5737987719476223">
        <ele>859.4489135742188</ele>
        <time>2020-06-14T21:51:17.544Z</time>
      </trkpt>
      <trkpt lat="40.07775468751788" lon="-0.574022401124239">
        <ele>856.4718017578125</ele>
        <time>2020-06-14T21:51:18.360Z</time>
      </trkpt>
      <trkpt lat="40.077820401638746" lon="-0.574287436902523">
        <ele>864.6476440429688</ele>
        <time>2020-06-14T21:51:19.180Z</time>
      </trkpt>
      <trkpt lat="40.077902879565954" lon="-0.5744604393839836">
        <ele>870.8867797851562</ele>
        <time>2020-06-14T21:51:20.003Z</time>
      </trkpt>
      <trkpt lat="40.078010419383645" lon="-0.5748919397592545">
        <ele>875.8031005859375</ele>
        <time>2020-06-14T21:51:20.833Z</time>
      </trkpt>
      <trkpt lat="40.07801100611687" lon="-0.5750350188463926">
        <ele>876.4735717773438</ele>
        <time>2020-06-14T21:51:21.665Z</time>
      </trkpt>
      <trkpt lat="40.07803422398865" lon="-0.5751536227762699">
        <ele>876.4020385742188</ele>
        <time>2020-06-14T21:51:22.499Z</time>
      </trkpt>
      <trkpt lat="40.078181494027376" lon="-0.5755538586527109">
        <ele>879.1362915039062</ele>
        <time>2020-06-14T21:51:23.340Z</time>
      </trkpt>
      <trkpt lat="40.07825693115592" lon="-0.5756797548383474">
        <ele>880.8895263671875</ele>
        <time>2020-06-14T21:51:24.183Z</time>
      </trkpt>
      <trkpt lat="40.07828048430383" lon="-0.5757717881351709">
        <ele>882.5123901367188</ele>
        <time>2020-06-14T21:51:25.028Z</time>
      </trkpt>
      <trkpt lat="40.07834427058697" lon="-0.575829204171896">
        <ele>882.9946899414062</ele>
        <time>2020-06-14T21:51:25.874Z</time>
      </trkpt>
      <trkpt lat="40.0783789716661" lon="-0.575795341283083">
        <ele>881.9292602539062</ele>
        <time>2020-06-14T21:51:26.721Z</time>
      </trkpt>
      <trkpt lat="40.07838500663638" lon="-0.5757598020136356">
        <ele>881.1392211914062</ele>
        <time>2020-06-14T21:51:27.569Z</time>
      </trkpt>
      <trkpt lat="40.078327003866434" lon="-0.5755362566560507">
        <ele>877.2059936523438</ele>
        <time>2020-06-14T21:51:28.420Z</time>
      </trkpt>
      <trkpt lat="40.07831702940166" lon="-0.5754262860864401">
        <ele>874.9677734375</ele>
        <time>2020-06-14T21:51:29.273Z</time>
      </trkpt>
      <trkpt lat="40.07834100164473" lon="-0.5751807801425457">
        <ele>869.4068603515625</ele>
        <time>2020-06-14T21:51:30.130Z</time>
      </trkpt>
      <trkpt lat="40.07838886231184" lon="-0.5751414690166712">
        <ele>868.0410766601562</ele>
        <time>2020-06-14T21:51:30.988Z</time>
      </trkpt>
      <trkpt lat="40.07844359613955" lon="-0.575175080448389">
        <ele>868.1759643554688</ele>
        <time>2020-06-14T21:51:31.847Z</time>
      </trkpt>
      <trkpt lat="40.0785013474524" lon="-0.5752654373645782">
        <ele>869.5037231445312</ele>
        <time>2020-06-14T21:51:32.708Z</time>
      </trkpt>
      <trkpt lat="40.07851635105908" lon="-0.5753391981124878">
        <ele>870.9346923828125</ele>
        <time>2020-06-14T21:51:33.570Z</time>
      </trkpt>
      <trkpt lat="40.07851869799197" lon="-0.575628625229001">
        <ele>877.0200805664062</ele>
        <time>2020-06-14T21:51:34.437Z</time>
      </trkpt>
      <trkpt lat="40.07855775766075" lon="-0.5757973529398441">
        <ele>880.6130981445312</ele>
        <time>2020-06-14T21:51:35.306Z</time>
      </trkpt>
      <trkpt lat="40.07865314371884" lon="-0.5758965946733952">
        <ele>883.0083618164062</ele>
        <time>2020-06-14T21:51:36.178Z</time>
      </trkpt>
      <trkpt lat="40.078811729326844" lon="-0.5759939085692167">
        <ele>883.3838500976562</ele>
        <time>2020-06-14T21:51:37.053Z</time>
      </trkpt>
      <trkpt lat="40.0788380485028" lon="-0.576061550527811">
        <ele>884.2083740234375</ele>
        <time>2020-06-14T21:51:37.930Z</time>
      </trkpt>
      <trkpt lat="40.07879437878728" lon="-0.5761732812970877">
        <ele>889.0206909179688</ele>
        <time>2020-06-14T21:51:38.808Z</time>
      </trkpt>
      <trkpt lat="40.07852825336158" lon="-0.5764342099428177">
        <ele>896.2720336914062</ele>
        <time>2020-06-14T21:51:39.693Z</time>
      </trkpt>
      <trkpt lat="40.07848030887544" lon="-0.5765435937792063">
        <ele>896.9695434570312</ele>
        <time>2020-06-14T21:51:40.580Z</time>
      </trkpt>
      <trkpt lat="40.078413002192974" lon="-0.5767823942005634">
        <ele>899.4988403320312</ele>
        <time>2020-06-14T21:51:41.471Z</time>
      </trkpt>
      <trkpt lat="40.07817579433322" lon="-0.5770568177103996">
        <ele>902.1608276367188</ele>
        <time>2020-06-14T21:51:42.368Z</time>
      </trkpt>
      <trkpt lat="40.078148720785975" lon="-0.5772076081484556">
        <ele>903.6194458007812</ele>
        <time>2020-06-14T21:51:43.268Z</time>
      </trkpt>
      <trkpt lat="40.07818845100701" lon="-0.5773418862372637">
        <ele>901.7453002929688</ele>
        <time>2020-06-14T21:51:44.170Z</time>
      </trkpt>
      <trkpt lat="40.0782648101449" lon="-0.5774552095681429">
        <ele>900.57470703125</ele>
        <time>2020-06-14T21:51:45.074Z</time>
      </trkpt>
      <trkpt lat="40.0783131737262" lon="-0.5774884019047022">
        <ele>900.4813842773438</ele>
        <time>2020-06-14T21:51:45.979Z</time>
      </trkpt>
      <trkpt lat="40.07870754227042" lon="-0.5775870569050312">
        <ele>905.1448364257812</ele>
        <time>2020-06-14T21:51:46.892Z</time>
      </trkpt>
      <trkpt lat="40.07884274236858" lon="-0.5776360910385847">
        <ele>903.4235229492188</ele>
        <time>2020-06-14T21:51:47.808Z</time>
      </trkpt>
      <trkpt lat="40.07926435209811" lon="-0.5778684373944998">
        <ele>900.6923828125</ele>
        <time>2020-06-14T21:51:48.733Z</time>
      </trkpt>
      <trkpt lat="40.079344399273396" lon="-0.5779501609504223">
        <ele>902.7454833984375</ele>
        <time>2020-06-14T21:51:49.660Z</time>
      </trkpt>
      <trkpt lat="40.07946920581162" lon="-0.5781442858278751">
        <ele>902.7120971679688</ele>
        <time>2020-06-14T21:51:50.591Z</time>
      </trkpt>
      <trkpt lat="40.0796237681061" lon="-0.5781939066946507">
        <ele>904.790283203125</ele>
        <time>2020-06-14T21:51:51.525Z</time>
      </trkpt>
      <trkpt lat="40.07983868010342" lon="-0.5783540848642588">
        <ele>900.017578125</ele>
        <time>2020-06-14T21:51:52.464Z</time>
      </trkpt>
      <trkpt lat="40.079900957643986" lon="-0.578435305505991">
        <ele>898.7180786132812</ele>
        <time>2020-06-14T21:51:53.405Z</time>
      </trkpt>
      <trkpt lat="40.080196503549814" lon="-0.5789708252996206">
        <ele>910.3272094726562</ele>
        <time>2020-06-14T21:51:54.356Z</time>
      </trkpt>
      <trkpt lat="40.08020848967135" lon="-0.5790963862091303">
        <ele>911.179443359375</ele>
        <time>2020-06-14T21:51:55.309Z</time>
      </trkpt>
      <trkpt lat="40.08017370477319" lon="-0.5793003179132938">
        <ele>913.7760009765625</ele>
        <time>2020-06-14T21:51:56.265Z</time>
      </trkpt>
      <trkpt lat="40.0801729504019" lon="-0.5794903356581926">
        <ele>916.7271118164062</ele>
        <time>2020-06-14T21:51:57.224Z</time>
      </trkpt>
      <trkpt lat="40.0802059751004" lon="-0.5796363484114408">
        <ele>919.5592041015625</ele>
        <time>2020-06-14T21:51:58.186Z</time>
      </trkpt>
      <trkpt lat="40.08024528622627" lon="-0.5797199998050928">
        <ele>921.0860595703125</ele>
        <time>2020-06-14T21:51:59.149Z</time>
      </trkpt>
      <trkpt lat="40.080251946610844" lon="-0.5797282741368505">
        <ele>921.2376708984375</ele>
        <time>2020-06-14T21:52:00.112Z</time>
      </trkpt>
      <trkpt lat="40.08025207970249" lon="-0.5797284394793678">
        <ele>921.24072265625</ele>
        <time>2020-06-14T21:52:01.075Z</time>
      </trkpt>
      <trkpt lat="40.08030581935016" lon="-0.5797753818046899">
        <ele>922.36865234375</ele>
        <time>2020-06-14T21:52:02.040Z</time>
      </trkpt>
      <trkpt lat="40.080305845788516" lon="-0.5797754048989774">
        <ele>922.3692016601562</ele>
        <time>2020-06-14T21:52:03.005Z</time>
      </trkpt>
      <trkpt lat="40.08030603763302" lon="-0.5797755724779563">
        <ele>922.3732299804688</ele>
        <time>2020-06-14T21:52:03.970Z</time>
      </trkpt>
      <trkpt lat="40.080371751271834" lon="-0.5797509153672437">
        <ele>923.296875</ele>
        <time>2020-06-14T21:52:04.936Z</time>
      </trkpt>
      <trkpt lat="40.080371843880066" lon="-0.5797508806186914">
        <ele>923.2979736328125</ele>
        <time>2020-06-14T21:52:05.902Z</time>
      </trkpt>
      <trkpt lat="40.08037210949555" lon="-0.579750780954214">
        <ele>923.3011474609375</ele>
        <time>2020-06-14T21:52:06.868Z</time>
      </trkpt>
      <trkpt lat="40.08039548993111" lon="-0.5796614103019238">
        <ele>923.1334228515625</ele>
        <time>2020-06-14T21:52:07.835Z</time>
      </trkpt>
      <trkpt lat="40.08043999783695" lon="-0.579604497179389">
        <ele>922.6578979492188</ele>
        <time>2020-06-14T21:52:08.804Z</time>
      </trkpt>
      <trkpt lat="40.0805614516139" lon="-0.5795543733984232">
        <ele>919.7628784179688</ele>
        <time>2020-06-14T21:52:09.775Z</time>
      </trkpt>
      <trkpt lat="40.08065122179687" lon="-0.5795586481690407">
        <ele>919.34228515625</ele>
        <time>2020-06-14T21:52:10.748Z</time>
      </trkpt>
      <trkpt lat="40.08072288706899" lon="-0.5795819498598576">
        <ele>919.555419921875</ele>
        <time>2020-06-14T21:52:11.722Z</time>
      </trkpt>
      <trkpt lat="40.08079731836915" lon="-0.5796205066144466">
        <ele>920.1729125976562</ele>
        <time>2020-06-14T21:52:12.698Z</time>
      </trkpt>
      <trkpt lat="40.080831767991185" lon="-0.5796618293970823">
        <ele>921.1065673828125</ele>
        <time>2020-06-14T21:52:13.675Z</time>
      </trkpt>
      <trkpt lat="40.08085364475846" lon="-0.5797466542571783">
        <ele>921.460693359375</ele>
        <time>2020-06-14T21:52:14.653Z</time>
      </trkpt>
      <trkpt lat="40.080852806568146" lon="-0.5798591393977404">
        <ele>921.4656982421875</ele>
        <time>2020-06-14T21:52:15.633Z</time>
      </trkpt>
      <trkpt lat="40.08073277771473" lon="-0.5801205709576607">
        <ele>922.185791015625</ele>
        <time>2020-06-14T21:52:16.618Z</time>
      </trkpt>
      <trkpt lat="40.08072271943092" lon="-0.5802260152995586">
        <ele>922.3580322265625</ele>
        <time>2020-06-14T21:52:17.604Z</time>
      </trkpt>
      <trkpt lat="40.08088088594377" lon="-0.5807959847152233">
        <ele>934.2227783203125</ele>
        <time>2020-06-14T21:52:18.600Z</time>
      </trkpt>
      <trkpt lat="40.080897230654955" lon="-0.5809721723198891">
        <ele>936.6721801757812</ele>
        <time>2020-06-14T21:52:19.598Z</time>
      </trkpt>
      <trkpt lat="40.0808621942997" lon="-0.5811243038624525">
        <ele>938.0350341796875</ele>
        <time>2020-06-14T21:52:20.599Z</time>
      </trkpt>
      <trkpt lat="40.08082380518317" lon="-0.5811621900647879">
        <ele>937.9829711914062</ele>
        <time>2020-06-14T21:52:21.601Z</time>
      </trkpt>
      <trkpt lat="40.080718360841274" lon="-0.5811833124607801">
        <ele>936.8447265625</ele>
        <time>2020-06-14T21:52:22.605Z</time>
      </trkpt>
      <trkpt lat="40.08041669614613" lon="-0.5811484437435865">
        <ele>932.2403564453125</ele>
        <time>2020-06-14T21:52:23.615Z</time>
      </trkpt>
      <trkpt lat="40.08030320517719" lon="-0.5811565741896629">
        <ele>931.1221923828125</ele>
        <time>2020-06-14T21:52:24.627Z</time>
      </trkpt>
      <trkpt lat="40.080198934301734" lon="-0.5812080390751362">
        <ele>930.6754760742188</ele>
        <time>2020-06-14T21:52:25.642Z</time>
      </trkpt>
      <trkpt lat="40.08010790683329" lon="-0.5813159141689539">
        <ele>931.1162719726562</ele>
        <time>2020-06-14T21:52:26.659Z</time>
      </trkpt>
      <trkpt lat="40.08001402951777" lon="-0.581484641879797">
        <ele>932.6611938476562</ele>
        <time>2020-06-14T21:52:27.679Z</time>
      </trkpt>
      <trkpt lat="40.079953679814935" lon="-0.5816591531038284">
        <ele>934.7314453125</ele>
        <time>2020-06-14T21:52:28.702Z</time>
      </trkpt>
      <trkpt lat="40.079782605171204" lon="-0.5818787589669228">
        <ele>936.3094482421875</ele>
        <time>2020-06-14T21:52:29.730Z</time>
      </trkpt>
      <trkpt lat="40.079737761989236" lon="-0.5819722171872854">
        <ele>937.2828979492188</ele>
        <time>2020-06-14T21:52:30.760Z</time>
      </trkpt>
      <trkpt lat="40.07960147224367" lon="-0.5825070664286613">
        <ele>940.6640014648438</ele>
        <time>2020-06-14T21:52:31.798Z</time>
      </trkpt>
      <trkpt lat="40.079413801431656" lon="-0.5830434244126081">
        <ele>938.0951538085938</ele>
        <time>2020-06-14T21:52:32.845Z</time>
      </trkpt>
      <trkpt lat="40.07940030656755" lon="-0.5831708293408155">
        <ele>937.4332275390625</ele>
        <time>2020-06-14T21:52:33.894Z</time>
      </trkpt>
      <trkpt lat="40.07941514253616" lon="-0.583304101601243">
        <ele>936.589111328125</ele>
        <time>2020-06-14T21:52:34.945Z</time>
      </trkpt>
      <trkpt lat="40.079455710947514" lon="-0.5834323447197676">
        <ele>935.9344482421875</ele>
        <time>2020-06-14T21:52:35.999Z</time>
      </trkpt>
      <trkpt lat="40.07965746335685" lon="-0.5838812794536352">
        <ele>934.4905395507812</ele>
        <time>2020-06-14T21:52:37.061Z</time>
      </trkpt>
      <trkpt lat="40.07990850135684" lon="-0.5843061581254005">
        <ele>930.4349975585938</ele>
        <time>2020-06-14T21:52:38.131Z</time>
      </trkpt>
      <trkpt lat="40.07994077168405" lon="-0.584336668252945">
        <ele>930.4346923828125</ele>
        <time>2020-06-14T21:52:39.202Z</time>
      </trkpt>
      <trkpt lat="40.080025512725115" lon="-0.5843739677220583">
        <ele>931.5039672851562</ele>
        <time>2020-06-14T21:52:40.274Z</time>
      </trkpt>
      <trkpt lat="40.08027923293412" lon="-0.5844224151223898">
        <ele>935.9952392578125</ele>
        <time>2020-06-14T21:52:41.351Z</time>
      </trkpt>
      <trkpt lat="40.08036917075515" lon="-0.5844630673527718">
        <ele>937.1084594726562</ele>
        <time>2020-06-14T21:52:42.430Z</time>
      </trkpt>
      <trkpt lat="40.08065893314779" lon="-0.584795493632555">
        <ele>939.7431640625</ele>
        <time>2020-06-14T21:52:43.517Z</time>
      </trkpt>
      <trkpt lat="40.08100317791104" lon="-0.5853442568331957">
        <ele>942.0901489257812</ele>
        <time>2020-06-14T21:52:44.615Z</time>
      </trkpt>
      <trkpt lat="40.081159081310034" lon="-0.5856610927730799">
        <ele>940.6657104492188</ele>
        <time>2020-06-14T21:52:45.719Z</time>
      </trkpt>
      <trkpt lat="40.081543140113354" lon="-0.5861702933907509">
        <ele>939.197998046875</ele>
        <time>2020-06-14T21:52:46.834Z</time>
      </trkpt>
      <trkpt lat="40.081856371834874" lon="-0.5866841040551662">
        <ele>931.670166015625</ele>
        <time>2020-06-14T21:52:47.959Z</time>
      </trkpt>
      <trkpt lat="40.0820382591337" lon="-0.5869100801646709">
        <ele>927.4644775390625</ele>
        <time>2020-06-14T21:52:49.089Z</time>
      </trkpt>
      <trkpt lat="40.08217220194638" lon="-0.5872021056711674">
        <ele>919.936767578125</ele>
        <time>2020-06-14T21:52:50.224Z</time>
      </trkpt>
      <trkpt lat="40.08222660049796" lon="-0.5872792191803455">
        <ele>919.9525756835938</ele>
        <time>2020-06-14T21:52:51.361Z</time>
      </trkpt>
      <trkpt lat="40.082370517775416" lon="-0.587391285225749">
        <ele>920.9871826171875</ele>
        <time>2020-06-14T21:52:52.501Z</time>
      </trkpt>
      <trkpt lat="40.08244746364653" lon="-0.5874194484204054">
        <ele>921.8832397460938</ele>
        <time>2020-06-14T21:52:53.643Z</time>
      </trkpt>
      <trkpt lat="40.082603031769395" lon="-0.5874421633780003">
        <ele>924.0643920898438</ele>
        <time>2020-06-14T21:52:54.788Z</time>
      </trkpt>
      <trkpt lat="40.082673858851194" lon="-0.5874782893806696">
        <ele>924.779052734375</ele>
        <time>2020-06-14T21:52:55.934Z</time>
      </trkpt>
      <trkpt lat="40.082727083936334" lon="-0.587542075663805">
        <ele>924.92041015625</ele>
        <time>2020-06-14T21:52:57.082Z</time>
      </trkpt>
      <trkpt lat="40.08276371285319" lon="-0.5876253917813301">
        <ele>924.5921020507812</ele>
        <time>2020-06-14T21:52:58.231Z</time>
      </trkpt>
      <trkpt lat="40.08280947804451" lon="-0.5878097098320723">
        <ele>923.3156127929688</ele>
        <time>2020-06-14T21:52:59.383Z</time>
      </trkpt>
      <trkpt lat="40.08287678472698" lon="-0.5879723187536001">
        <ele>922.6094970703125</ele>
        <time>2020-06-14T21:53:00.538Z</time>
      </trkpt>
      <trkpt lat="40.08305565454066" lon="-0.5882063414901495">
        <ele>924.2103881835938</ele>
        <time>2020-06-14T21:53:01.698Z</time>
      </trkpt>
      <trkpt lat="40.08312673307955" lon="-0.5883313994854689">
        <ele>924.9368286132812</ele>
        <time>2020-06-14T21:53:02.860Z</time>
      </trkpt>
      <trkpt lat="40.08317015133798" lon="-0.5884675215929747">
        <ele>925.5239868164062</ele>
        <time>2020-06-14T21:53:04.025Z</time>
      </trkpt>
      <trkpt lat="40.08317434228957" lon="-0.5885384324938059">
        <ele>925.71923828125</ele>
        <time>2020-06-14T21:53:05.191Z</time>
      </trkpt>
      <trkpt lat="40.08317124098539" lon="-0.5886119417846203">
        <ele>925.8367919921875</ele>
        <time>2020-06-14T21:53:06.358Z</time>
      </trkpt>
      <trkpt lat="40.08310946635902" lon="-0.5888569448143244">
        <ele>924.5823974609375</ele>
        <time>2020-06-14T21:53:07.529Z</time>
      </trkpt>
      <trkpt lat="40.08310753852129" lon="-0.5889441166073084">
        <ele>924.6915893554688</ele>
        <time>2020-06-14T21:53:08.701Z</time>
      </trkpt>
      <trkpt lat="40.083141988143325" lon="-0.5890136025846004">
        <ele>924.6923217773438</ele>
        <time>2020-06-14T21:53:09.874Z</time>
      </trkpt>
      <trkpt lat="40.08332043886185" lon="-0.5891520716249943">
        <ele>924.4302368164062</ele>
        <time>2020-06-14T21:53:11.052Z</time>
      </trkpt>
      <trkpt lat="40.08346913382411" lon="-0.5893304385244846">
        <ele>923.8370361328125</ele>
        <time>2020-06-14T21:53:12.234Z</time>
      </trkpt>
      <trkpt lat="40.08352889679372" lon="-0.589464632794261">
        <ele>923.38916015625</ele>
        <time>2020-06-14T21:53:13.418Z</time>
      </trkpt>
      <trkpt lat="40.08354792371392" lon="-0.58962925337255">
        <ele>923.100341796875</ele>
        <time>2020-06-14T21:53:14.605Z</time>
      </trkpt>
      <trkpt lat="40.08353132754564" lon="-0.5900547187775373">
        <ele>920.7075805664062</ele>
        <time>2020-06-14T21:53:15.798Z</time>
      </trkpt>
      <trkpt lat="40.083460584282875" lon="-0.5905137956142426">
        <ele>917.8271484375</ele>
        <time>2020-06-14T21:53:16.998Z</time>
      </trkpt>
      <trkpt lat="40.08335564285517" lon="-0.5908768996596336">
        <ele>918.4512329101562</ele>
        <time>2020-06-14T21:53:18.204Z</time>
      </trkpt>
      <trkpt lat="40.083236787468195" lon="-0.5914819054305553">
        <ele>920.5869140625</ele>
        <time>2020-06-14T21:53:19.420Z</time>
      </trkpt>
      <trkpt lat="40.08316805586219" lon="-0.5917129945009947">
        <ele>921.306396484375</ele>
        <time>2020-06-14T21:53:20.640Z</time>
      </trkpt>
      <trkpt lat="40.08318180218339" lon="-0.5918340291827917">
        <ele>921.5638427734375</ele>
        <time>2020-06-14T21:53:21.862Z</time>
      </trkpt>
      <trkpt lat="40.083249444141984" lon="-0.5918977316468954">
        <ele>921.8893432617188</ele>
        <time>2020-06-14T21:53:23.085Z</time>
      </trkpt>
      <trkpt lat="40.08359503000975" lon="-0.5918585881590843">
        <ele>923.9075317382812</ele>
        <time>2020-06-14T21:53:24.315Z</time>
      </trkpt>
      <trkpt lat="40.08371380157769" lon="-0.5918686464428902">
        <ele>924.8832397460938</ele>
        <time>2020-06-14T21:53:25.548Z</time>
      </trkpt>
      <trkpt lat="40.08403583429754" lon="-0.5919826403260231">
        <ele>923.576416015625</ele>
        <time>2020-06-14T21:53:26.787Z</time>
      </trkpt>
      <trkpt lat="40.084457360208035" lon="-0.591963529586792">
        <ele>922.1063232421875</ele>
        <time>2020-06-14T21:53:28.035Z</time>
      </trkpt>
      <trkpt lat="40.08458216674626" lon="-0.591942323371768">
        <ele>921.2979736328125</ele>
        <time>2020-06-14T21:53:29.285Z</time>
      </trkpt>
      <trkpt lat="40.08469507098198" lon="-0.5919673852622509">
        <ele>919.6427612304688</ele>
        <time>2020-06-14T21:53:30.537Z</time>
      </trkpt>
      <trkpt lat="40.08476849645376" lon="-0.592033015564084">
        <ele>919.4100952148438</ele>
        <time>2020-06-14T21:53:31.791Z</time>
      </trkpt>
      <trkpt lat="40.08488969877362" lon="-0.5922506935894489">
        <ele>919.7545776367188</ele>
        <time>2020-06-14T21:53:33.049Z</time>
      </trkpt>
      <trkpt lat="40.08500251919031" lon="-0.5923856422305107">
        <ele>918.7726440429688</ele>
        <time>2020-06-14T21:53:34.310Z</time>
      </trkpt>
      <trkpt lat="40.085237715393305" lon="-0.5925767496228218">
        <ele>917.1469116210938</ele>
        <time>2020-06-14T21:53:35.577Z</time>
      </trkpt>
      <trkpt lat="40.08547039702535" lon="-0.5928242672234774">
        <ele>919.3546142578125</ele>
        <time>2020-06-14T21:53:36.850Z</time>
      </trkpt>
      <trkpt lat="40.085684387013316" lon="-0.5929469782859087">
        <ele>918.58935546875</ele>
        <time>2020-06-14T21:53:38.128Z</time>
      </trkpt>
      <trkpt lat="40.085818329826" lon="-0.593107994645834">
        <ele>918.1261596679688</ele>
        <time>2020-06-14T21:53:39.409Z</time>
      </trkpt>
      <trkpt lat="40.08630087599158" lon="-0.5935482960194349">
        <ele>917.666015625</ele>
        <time>2020-06-14T21:53:40.702Z</time>
      </trkpt>
      <trkpt lat="40.08641277439892" lon="-0.5937242321670055">
        <ele>921.598876953125</ele>
        <time>2020-06-14T21:53:41.999Z</time>
      </trkpt>
      <trkpt lat="40.086506232619286" lon="-0.5940245557576418">
        <ele>925.055419921875</ele>
        <time>2020-06-14T21:53:43.300Z</time>
      </trkpt>
      <trkpt lat="40.086591644212604" lon="-0.5941854044795036">
        <ele>925.899169921875</ele>
        <time>2020-06-14T21:53:44.605Z</time>
      </trkpt>
      <trkpt lat="40.086666494607925" lon="-0.5942532978951931">
        <ele>926.81396484375</ele>
        <time>2020-06-14T21:53:45.911Z</time>
      </trkpt>
      <trkpt lat="40.086859446018934" lon="-0.5943833012133837">
        <ele>928.5693359375</ele>
        <time>2020-06-14T21:53:47.222Z</time>
      </trkpt>
      <trkpt lat="40.08688468194006" lon="-0.5944825163882184">
        <ele>928.39599609375</ele>
        <time>2020-06-14T21:53:48.534Z</time>
      </trkpt>
      <trkpt lat="40.086884713460925" lon="-0.59448264031289">
        <ele>928.395751953125</ele>
        <time>2020-06-14T21:53:49.846Z</time>
      </trkpt>
      <trkpt lat="40.08695251904581" lon="-0.5945821984308522">
        <ele>928.7315063476562</ele>
        <time>2020-06-14T21:53:51.160Z</time>
      </trkpt>
      <trkpt lat="40.08695268234873" lon="-0.5945824382069987">
        <ele>928.7322998046875</ele>
        <time>2020-06-14T21:53:52.474Z</time>
      </trkpt>
      <trkpt lat="40.08688415931687" lon="-0.5945044298799151">
        <ele>928.2845458984375</ele>
        <time>2020-06-14T21:53:53.790Z</time>
      </trkpt>
      <trkpt lat="40.08688388550153" lon="-0.5945041181621493">
        <ele>928.28271484375</ele>
        <time>2020-06-14T21:53:55.106Z</time>
      </trkpt>
      <trkpt lat="40.086958444708756" lon="-0.5945846804085034">
        <ele>928.7906494140625</ele>
        <time>2020-06-14T21:53:56.424Z</time>
      </trkpt>
      <trkpt lat="40.08695845277891" lon="-0.594584689128414">
        <ele>928.7907104492188</ele>
        <time>2020-06-14T21:53:57.742Z</time>
      </trkpt>
      <trkpt lat="40.08695879080124" lon="-0.5945850543666893">
        <ele>928.7930297851562</ele>
        <time>2020-06-14T21:53:59.060Z</time>
      </trkpt>
      <trkpt lat="40.08707377128303" lon="-0.5947144702076912">
        <ele>928.9754638671875</ele>
        <time>2020-06-14T21:54:00.381Z</time>
      </trkpt>
      <trkpt lat="40.087232356891036" lon="-0.5948049109429121">
        <ele>930.5646362304688</ele>
        <time>2020-06-14T21:54:01.706Z</time>
      </trkpt>
      <trkpt lat="40.087335454300046" lon="-0.594914797693491">
        <ele>930.6654052734375</ele>
        <time>2020-06-14T21:54:03.033Z</time>
      </trkpt>
      <trkpt lat="40.087394043803215" lon="-0.5949541926383972">
        <ele>931.2205200195312</ele>
        <time>2020-06-14T21:54:04.362Z</time>
      </trkpt>
      <trkpt lat="40.087522035464644" lon="-0.5951679311692715">
        <ele>929.4923706054688</ele>
        <time>2020-06-14T21:54:05.695Z</time>
      </trkpt>
      <trkpt lat="40.0876331795007" lon="-0.5952108465135098">
        <ele>930.8629150390625</ele>
        <time>2020-06-14T21:54:07.030Z</time>
      </trkpt>
      <trkpt lat="40.087794698774815" lon="-0.5953302886337042">
        <ele>931.4849853515625</ele>
        <time>2020-06-14T21:54:08.369Z</time>
      </trkpt>
      <trkpt lat="40.087895868346095" lon="-0.595326516777277">
        <ele>933.7603759765625</ele>
        <time>2020-06-14T21:54:09.710Z</time>
      </trkpt>
      <trkpt lat="40.08809451945126" lon="-0.5953604634851217">
        <ele>935.8677368164062</ele>
        <time>2020-06-14T21:54:11.055Z</time>
      </trkpt>
      <trkpt lat="40.08815201930702" lon="-0.5954589508473873">
        <ele>934.2633056640625</ele>
        <time>2020-06-14T21:54:12.402Z</time>
      </trkpt>
      <trkpt lat="40.088288728147745" lon="-0.5955659877508879">
        <ele>933.9847412109375</ele>
        <time>2020-06-14T21:54:13.752Z</time>
      </trkpt>
      <trkpt lat="40.088542364537716" lon="-0.5959243979305029">
        <ele>932.8424682617188</ele>
        <time>2020-06-14T21:54:15.109Z</time>
      </trkpt>
      <trkpt lat="40.0886089168489" lon="-0.5959939677268267">
        <ele>933.2091674804688</ele>
        <time>2020-06-14T21:54:16.468Z</time>
      </trkpt>
      <trkpt lat="40.08876230567694" lon="-0.5960606876760721">
        <ele>935.065185546875</ele>
        <time>2020-06-14T21:54:17.830Z</time>
      </trkpt>
      <trkpt lat="40.088844280689955" lon="-0.5960673931986094">
        <ele>934.3742065429688</ele>
        <time>2020-06-14T21:54:19.194Z</time>
      </trkpt>
      <trkpt lat="40.0889662373811" lon="-0.5961072072386742">
        <ele>932.9199829101562</ele>
        <time>2020-06-14T21:54:20.560Z</time>
      </trkpt>
      <trkpt lat="40.08909976109862" lon="-0.5961995758116245">
        <ele>934.8050537109375</ele>
        <time>2020-06-14T21:54:21.929Z</time>
      </trkpt>
      <trkpt lat="40.089172096922994" lon="-0.5962276551872492">
        <ele>936.0629272460938</ele>
        <time>2020-06-14T21:54:23.300Z</time>
      </trkpt>
      <trkpt lat="40.089407628402114" lon="-0.5962287448346615">
        <ele>939.1831665039062</ele>
        <time>2020-06-14T21:54:24.676Z</time>
      </trkpt>
      <trkpt lat="40.089442892196246" lon="-0.5962141636201548">
        <ele>939.4911499023438</ele>
        <time>2020-06-14T21:54:26.052Z</time>
      </trkpt>
      <trkpt lat="40.089442939778436" lon="-0.5962141439453962">
        <ele>939.4915161132812</ele>
        <time>2020-06-14T21:54:27.428Z</time>
      </trkpt>
      <trkpt lat="40.08944297791635" lon="-0.596214128175748">
        <ele>939.4918823242188</ele>
        <time>2020-06-14T21:54:28.804Z</time>
      </trkpt>
      <trkpt lat="40.089443450557084" lon="-0.5962139327435807">
        <ele>939.4960327148438</ele>
        <time>2020-06-14T21:54:30.180Z</time>
      </trkpt>
      <trkpt lat="40.08944753201205" lon="-0.5962114559954309">
        <ele>939.5231323242188</ele>
        <time>2020-06-14T21:54:31.557Z</time>
      </trkpt>
      <trkpt lat="40.08944753612943" lon="-0.5962114534968889">
        <ele>939.5231323242188</ele>
        <time>2020-06-14T21:54:32.934Z</time>
      </trkpt>
      <trkpt lat="40.08944769510689" lon="-0.5962113570246096">
        <ele>939.5242309570312</ele>
        <time>2020-06-14T21:54:34.311Z</time>
      </trkpt>
      <trkpt lat="40.089448158675715" lon="-0.5962110757172923">
        <ele>939.5272827148438</ele>
        <time>2020-06-14T21:54:35.688Z</time>
      </trkpt>
      <trkpt lat="40.08949052185916" lon="-0.5961104448803161">
        <ele>938.999755859375</ele>
        <time>2020-06-14T21:54:37.066Z</time>
      </trkpt>
      <trkpt lat="40.08949060854692" lon="-0.5961102389591961">
        <ele>938.9986572265625</ele>
        <time>2020-06-14T21:54:38.444Z</time>
      </trkpt>
      <trkpt lat="40.089490801014115" lon="-0.5961097817657901">
        <ele>938.9962768554688</ele>
        <time>2020-06-14T21:54:39.822Z</time>
      </trkpt>
      <trkpt lat="40.08949697948992" lon="-0.5960824806243181">
        <ele>938.7830200195312</ele>
        <time>2020-06-14T21:54:41.201Z</time>
      </trkpt>
      <trkpt lat="40.089548360556364" lon="-0.5960279144346714">
        <ele>938.8719482421875</ele>
        <time>2020-06-14T21:54:42.581Z</time>
      </trkpt>
      <trkpt lat="40.08958398364484" lon="-0.5960258189588785">
        <ele>939.3194580078125</ele>
        <time>2020-06-14T21:54:43.962Z</time>
      </trkpt>
      <trkpt lat="40.08969387039542" lon="-0.5961244739592075">
        <ele>939.0902709960938</ele>
        <time>2020-06-14T21:54:45.345Z</time>
      </trkpt>
      <trkpt lat="40.089768720790744" lon="-0.5961549002677202">
        <ele>938.2513427734375</ele>
        <time>2020-06-14T21:54:46.730Z</time>
      </trkpt>
      <trkpt lat="40.089913476258516" lon="-0.5961689818650484">
        <ele>937.1177368164062</ele>
        <time>2020-06-14T21:54:48.118Z</time>
      </trkpt>
      <trkpt lat="40.09000760503113" lon="-0.5961559899151325">
        <ele>936.0933837890625</ele>
        <time>2020-06-14T21:54:49.508Z</time>
      </trkpt>
      <trkpt lat="40.09016686119139" lon="-0.5960974842309952">
        <ele>933.7029418945312</ele>
        <time>2020-06-14T21:54:50.901Z</time>
      </trkpt>
      <trkpt lat="40.090276496484876" lon="-0.5960234720259905">
        <ele>931.4501342773438</ele>
        <time>2020-06-14T21:54:52.297Z</time>
      </trkpt>
      <trkpt lat="40.09037531912327" lon="-0.5958840809762478">
        <ele>928.111572265625</ele>
        <time>2020-06-14T21:54:53.696Z</time>
      </trkpt>
      <trkpt lat="40.09045712649822" lon="-0.5958433449268341">
        <ele>926.20947265625</ele>
        <time>2020-06-14T21:54:55.096Z</time>
      </trkpt>
      <trkpt lat="40.090460573168535" lon="-0.5958164725851435">
        <ele>925.6307373046875</ele>
        <time>2020-06-14T21:54:56.497Z</time>
      </trkpt>
      <trkpt lat="40.09046060290026" lon="-0.5958162407783796">
        <ele>925.625732421875</ele>
        <time>2020-06-14T21:54:57.898Z</time>
      </trkpt>
      <trkpt lat="40.090460684736364" lon="-0.5958156027335235">
        <ele>925.6119995117188</ele>
        <time>2020-06-14T21:54:59.299Z</time>
      </trkpt>
      <trkpt lat="40.090464442525295" lon="-0.595614115982742">
        <ele>921.8821411132812</ele>
        <time>2020-06-14T21:55:00.703Z</time>
      </trkpt>
      <trkpt lat="40.09046444909844" lon="-0.5956137635246643">
        <ele>921.8756103515625</ele>
        <time>2020-06-14T21:55:02.107Z</time>
      </trkpt>
      <trkpt lat="40.09046445439076" lon="-0.595613479745225">
        <ele>921.870361328125</ele>
        <time>2020-06-14T21:55:03.511Z</time>
      </trkpt>
      <trkpt lat="40.09046162218162" lon="-0.5956175396676745">
        <ele>922.0216064453125</ele>
        <time>2020-06-14T21:55:04.915Z</time>
      </trkpt>
      <trkpt lat="40.090461561602915" lon="-0.5956176265061809">
        <ele>922.0248413085938</ele>
        <time>2020-06-14T21:55:06.319Z</time>
      </trkpt>
      <trkpt lat="40.09046131928825" lon="-0.5956179738600027">
        <ele>922.0377807617188</ele>
        <time>2020-06-14T21:55:07.723Z</time>
      </trkpt>
      <trkpt lat="40.090460887145994" lon="-0.5956185933283678">
        <ele>922.0608520507812</ele>
        <time>2020-06-14T21:55:09.127Z</time>
      </trkpt>
      <trkpt lat="40.09041144512594" lon="-0.5954387504607439">
        <ele>921.3209838867188</ele>
        <time>2020-06-14T21:55:10.534Z</time>
      </trkpt>
      <trkpt lat="40.09042955003679" lon="-0.5953153688460588">
        <ele>921.03857421875</ele>
        <time>2020-06-14T21:55:11.943Z</time>
      </trkpt>
      <trkpt lat="40.09051596745849" lon="-0.5951396841555834">
        <ele>918.2806396484375</ele>
        <time>2020-06-14T21:55:13.355Z</time>
      </trkpt>
      <trkpt lat="40.09060816839337" lon="-0.5950041487812996">
        <ele>915.2938842773438</ele>
        <time>2020-06-14T21:55:14.770Z</time>
      </trkpt>
      <trkpt lat="40.09096465073526" lon="-0.5946213472634554">
        <ele>904.3998413085938</ele>
        <time>2020-06-14T21:55:16.194Z</time>
      </trkpt>
      <trkpt lat="40.091049978509545" lon="-0.594492182135582">
        <ele>903.0303955078125</ele>
        <time>2020-06-14T21:55:17.621Z</time>
      </trkpt>
      <trkpt lat="40.091190626844764" lon="-0.5941755976527929">
        <ele>901.8927001953125</ele>
        <time>2020-06-14T21:55:19.053Z</time>
      </trkpt>
      <trkpt lat="40.091238822788" lon="-0.593868400901556">
        <ele>903.6566772460938</ele>
        <time>2020-06-14T21:55:20.490Z</time>
      </trkpt>
      <trkpt lat="40.091304536908865" lon="-0.5936816520988941">
        <ele>901.8331298828125</ele>
        <time>2020-06-14T21:55:21.930Z</time>
      </trkpt>
      <trkpt lat="40.09140361100435" lon="-0.5935125052928925">
        <ele>897.6524047851562</ele>
        <time>2020-06-14T21:55:23.373Z</time>
      </trkpt>
      <trkpt lat="40.09169161319733" lon="-0.5931696016341448">
        <ele>884.78515625</ele>
        <time>2020-06-14T21:55:24.824Z</time>
      </trkpt>
      <trkpt lat="40.09175933897495" lon="-0.5930388439446688">
        <ele>881.9998779296875</ele>
        <time>2020-06-14T21:55:26.278Z</time>
      </trkpt>
      <trkpt lat="40.091779036447406" lon="-0.5929597187787294">
        <ele>881.8511352539062</ele>
        <time>2020-06-14T21:55:27.733Z</time>
      </trkpt>
      <trkpt lat="40.09179747663438" lon="-0.5926946830004454">
        <ele>884.4197998046875</ele>
        <time>2020-06-14T21:55:29.192Z</time>
      </trkpt>
      <trkpt lat="40.091756489127874" lon="-0.5925359297543764">
        <ele>888.5803833007812</ele>
        <time>2020-06-14T21:55:30.654Z</time>
      </trkpt>
      <trkpt lat="40.091550294309855" lon="-0.5920073669403791">
        <ele>900.0535888671875</ele>
        <time>2020-06-14T21:55:32.125Z</time>
      </trkpt>
      <trkpt lat="40.09131451137364" lon="-0.5915834940969944">
        <ele>903.8601684570312</ele>
        <time>2020-06-14T21:55:33.604Z</time>
      </trkpt>
      <trkpt lat="40.09115223772824" lon="-0.5909504927694798">
        <ele>906.1281127929688</ele>
        <time>2020-06-14T21:55:35.093Z</time>
      </trkpt>
      <trkpt lat="40.09111820720136" lon="-0.5908764805644751">
        <ele>906.958984375</ele>
        <time>2020-06-14T21:55:36.583Z</time>
      </trkpt>
      <trkpt lat="40.0910852663219" lon="-0.5908456351608038">
        <ele>907.6653442382812</ele>
        <time>2020-06-14T21:55:38.074Z</time>
      </trkpt>
      <trkpt lat="40.090964399278164" lon="-0.590820237994194">
        <ele>910.0465698242188</ele>
        <time>2020-06-14T21:55:39.568Z</time>
      </trkpt>
      <trkpt lat="40.0907916482538" lon="-0.5907570384442806">
        <ele>909.072998046875</ele>
        <time>2020-06-14T21:55:41.065Z</time>
      </trkpt>
      <trkpt lat="40.090775387361646" lon="-0.5907365866005421">
        <ele>908.7294921875</ele>
        <time>2020-06-14T21:55:42.563Z</time>
      </trkpt>
      <trkpt lat="40.0907882116735" lon="-0.5906945094466209">
        <ele>908.022705078125</ele>
        <time>2020-06-14T21:55:44.061Z</time>
      </trkpt>
      <trkpt lat="40.09097445756197" lon="-0.5905262008309364">
        <ele>905.195556640625</ele>
        <time>2020-06-14T21:55:45.564Z</time>
      </trkpt>
      <trkpt lat="40.091131534427404" lon="-0.5902257096022367">
        <ele>907.079345703125</ele>
        <time>2020-06-14T21:55:47.072Z</time>
      </trkpt>
      <trkpt lat="40.09147812612355" lon="-0.5901042558252811">
        <ele>907.9536743164062</ele>
        <time>2020-06-14T21:55:48.588Z</time>
      </trkpt>
      <trkpt lat="40.09176470339298" lon="-0.5899467598646879">
        <ele>909.0874633789062</ele>
        <time>2020-06-14T21:55:50.110Z</time>
      </trkpt>
      <trkpt lat="40.09184818714857" lon="-0.5898848176002502">
        <ele>909.5333862304688</ele>
        <time>2020-06-14T21:55:51.634Z</time>
      </trkpt>
      <trkpt lat="40.09200685657561" lon="-0.5897110607475042">
        <ele>910.7842407226562</ele>
        <time>2020-06-14T21:55:53.162Z</time>
      </trkpt>
      <trkpt lat="40.09209780022502" lon="-0.5896421615034342">
        <ele>910.7664794921875</ele>
        <time>2020-06-14T21:55:54.692Z</time>
      </trkpt>
      <trkpt lat="40.092765586450696" lon="-0.5894108209758997">
        <ele>909.8976440429688</ele>
        <time>2020-06-14T21:55:56.236Z</time>
      </trkpt>
      <trkpt lat="40.09299290366471" lon="-0.5892972461879253">
        <ele>909.0441284179688</ele>
        <time>2020-06-14T21:55:57.785Z</time>
      </trkpt>
      <trkpt lat="40.093262046575546" lon="-0.5890498962253332">
        <ele>906.6791381835938</ele>
        <time>2020-06-14T21:55:59.340Z</time>
      </trkpt>
      <trkpt lat="40.093389032408595" lon="-0.5890604574233294">
        <ele>904.9525146484375</ele>
        <time>2020-06-14T21:56:00.898Z</time>
      </trkpt>
      <trkpt lat="40.09361794218421" lon="-0.5891617108136415">
        <ele>896.26318359375</ele>
        <time>2020-06-14T21:56:02.461Z</time>
      </trkpt>
      <trkpt lat="40.09375909343362" lon="-0.5891823302954435">
        <ele>889.2548828125</ele>
        <time>2020-06-14T21:56:04.026Z</time>
      </trkpt>
      <trkpt lat="40.093913320451975" lon="-0.5891434382647276">
        <ele>885.0462646484375</ele>
        <time>2020-06-14T21:56:05.595Z</time>
      </trkpt>
      <trkpt lat="40.094197718426585" lon="-0.5889871995896101">
        <ele>880.4332885742188</ele>
        <time>2020-06-14T21:56:07.170Z</time>
      </trkpt>
      <trkpt lat="40.094358483329415" lon="-0.5888319667428732">
        <ele>880.1966552734375</ele>
        <time>2020-06-14T21:56:08.749Z</time>
      </trkpt>
      <trkpt lat="40.0944440625608" lon="-0.5886763148009777">
        <ele>882.3453369140625</ele>
        <time>2020-06-14T21:56:10.331Z</time>
      </trkpt>
      <trkpt lat="40.09458194486797" lon="-0.5883433856070042">
        <ele>888.5669555664062</ele>
        <time>2020-06-14T21:56:11.918Z</time>
      </trkpt>
      <trkpt lat="40.09471697732806" lon="-0.5881553795188665">
        <ele>891.1512451171875</ele>
        <time>2020-06-14T21:56:13.509Z</time>
      </trkpt>
      <trkpt lat="40.094842202961445" lon="-0.5880562216043472">
        <ele>891.177001953125</ele>
        <time>2020-06-14T21:56:15.103Z</time>
      </trkpt>
      <trkpt lat="40.09496558457613" lon="-0.5880159046500921">
        <ele>889.274658203125</ele>
        <time>2020-06-14T21:56:16.700Z</time>
      </trkpt>
      <trkpt lat="40.09504043497145" lon="-0.5879730731248856">
        <ele>889.082763671875</ele>
        <time>2020-06-14T21:56:18.299Z</time>
      </trkpt>
      <trkpt lat="40.09519130922854" lon="-0.5878496076911688">
        <ele>890.2850341796875</ele>
        <time>2020-06-14T21:56:19.901Z</time>
      </trkpt>
      <trkpt lat="40.09537319652736" lon="-0.5877956282347441">
        <ele>887.7507934570312</ele>
        <time>2020-06-14T21:56:21.507Z</time>
      </trkpt>
      <trkpt lat="40.09557922370732" lon="-0.587565042078495">
        <ele>886.3760375976562</ele>
        <time>2020-06-14T21:56:23.118Z</time>
      </trkpt>
      <trkpt lat="40.09598474018276" lon="-0.5872337892651558">
        <ele>874.0132446289062</ele>
        <time>2020-06-14T21:56:24.739Z</time>
      </trkpt>
      <trkpt lat="40.09619873017073" lon="-0.5872004292905331">
        <ele>861.5498657226562</ele>
        <time>2020-06-14T21:56:26.364Z</time>
      </trkpt>
      <trkpt lat="40.09631364606321" lon="-0.5870612058788538">
        <ele>860.5709228515625</ele>
        <time>2020-06-14T21:56:27.992Z</time>
      </trkpt>
      <trkpt lat="40.096403919160366" lon="-0.586894154548645">
        <ele>861.6785888671875</ele>
        <time>2020-06-14T21:56:29.623Z</time>
      </trkpt>
      <trkpt lat="40.09645747952163" lon="-0.586846461519599">
        <ele>859.1276245117188</ele>
        <time>2020-06-14T21:56:31.256Z</time>
      </trkpt>
      <trkpt lat="40.096553368493915" lon="-0.5868003610521555">
        <ele>852.1097412109375</ele>
        <time>2020-06-14T21:56:32.891Z</time>
      </trkpt>
      <trkpt lat="40.09656636044383" lon="-0.5868350621312857">
        <ele>848.6041870117188</ele>
        <time>2020-06-14T21:56:34.526Z</time>
      </trkpt>
      <trkpt lat="40.09657080285251" lon="-0.5868214834481478">
        <ele>848.9929809570312</ele>
        <time>2020-06-14T21:56:36.162Z</time>
      </trkpt>
      <trkpt lat="40.09656837210059" lon="-0.5868498980998993">
        <ele>847.4710083007812</ele>
        <time>2020-06-14T21:56:37.798Z</time>
      </trkpt>
      <trkpt lat="40.09641598910093" lon="-0.5871643871068954">
        <ele>846.2939453125</ele>
        <time>2020-06-14T21:56:39.440Z</time>
      </trkpt>
      <trkpt lat="40.09626184590161" lon="-0.5873620323836803">
        <ele>847.9155883789062</ele>
        <time>2020-06-14T21:56:41.086Z</time>
      </trkpt>
      <trkpt lat="40.09605975821614" lon="-0.5875575821846724">
        <ele>852.89892578125</ele>
        <time>2020-06-14T21:56:42.737Z</time>
      </trkpt>
      <trkpt lat="40.09578013792634" lon="-0.5877688899636269">
        <ele>863.2073364257812</ele>
        <time>2020-06-14T21:56:44.395Z</time>
      </trkpt>
      <trkpt lat="40.09534327313304" lon="-0.5881886556744576">
        <ele>870.8524780273438</ele>
        <time>2020-06-14T21:56:46.063Z</time>
      </trkpt>
      <trkpt lat="40.09522559121251" lon="-0.5882613267749548">
        <ele>872.9215698242188</ele>
        <time>2020-06-14T21:56:47.734Z</time>
      </trkpt>
      <trkpt lat="40.0951034668833" lon="-0.5882837902754545">
        <ele>876.6357421875</ele>
        <time>2020-06-14T21:56:49.407Z</time>
      </trkpt>
      <trkpt lat="40.09494949132204" lon="-0.5883481632918119">
        <ele>878.5374755859375</ele>
        <time>2020-06-14T21:56:51.084Z</time>
      </trkpt>
      <trkpt lat="40.0948116928339" lon="-0.5884502548724413">
        <ele>878.7449951171875</ele>
        <time>2020-06-14T21:56:52.764Z</time>
      </trkpt>
      <trkpt lat="40.094755785539746" lon="-0.5885323975235224">
        <ele>877.461181640625</ele>
        <time>2020-06-14T21:56:54.446Z</time>
      </trkpt>
      <trkpt lat="40.09462486021221" lon="-0.5888502392917871">
        <ele>869.4131469726562</ele>
        <time>2020-06-14T21:56:56.133Z</time>
      </trkpt>
      <trkpt lat="40.0944697111845" lon="-0.5890944041311741">
        <ele>865.6603393554688</ele>
        <time>2020-06-14T21:56:57.825Z</time>
      </trkpt>
      <trkpt lat="40.09417835623026" lon="-0.589367737993598">
        <ele>866.48193359375</ele>
        <time>2020-06-14T21:56:59.524Z</time>
      </trkpt>
      <trkpt lat="40.093897730112076" lon="-0.589534118771553">
        <ele>871.5452880859375</ele>
        <time>2020-06-14T21:57:01.229Z</time>
      </trkpt>
      <trkpt lat="40.09381860494614" lon="-0.5896453466266394">
        <ele>870.22705078125</ele>
        <time>2020-06-14T21:57:02.937Z</time>
      </trkpt>
      <trkpt lat="40.09374727495015" lon="-0.5898118950426579">
        <ele>867.1190185546875</ele>
        <time>2020-06-14T21:57:04.648Z</time>
      </trkpt>
      <trkpt lat="40.0935423374176" lon="-0.5900559760630131">
        <ele>867.4312744140625</ele>
        <time>2020-06-14T21:57:06.364Z</time>
      </trkpt>
      <trkpt lat="40.09342390112579" lon="-0.5902314092963934">
        <ele>866.3743896484375</ele>
        <time>2020-06-14T21:57:08.084Z</time>
      </trkpt>
      <trkpt lat="40.09328568354249" lon="-0.5903790146112442">
        <ele>867.1973266601562</ele>
        <time>2020-06-14T21:57:09.807Z</time>
      </trkpt>
      <trkpt lat="40.09318417869508" lon="-0.5904578883200884">
        <ele>868.8644409179688</ele>
        <time>2020-06-14T21:57:11.533Z</time>
      </trkpt>
      <trkpt lat="40.09302165359259" lon="-0.590624688193202">
        <ele>869.6791381835938</ele>
        <time>2020-06-14T21:57:13.263Z</time>
      </trkpt>
      <trkpt lat="40.0928670912981" lon="-0.5907222535461187">
        <ele>872.8344116210938</ele>
        <time>2020-06-14T21:57:14.996Z</time>
      </trkpt>
      <trkpt lat="40.09266500361264" lon="-0.590807581320405">
        <ele>878.9121704101562</ele>
        <time>2020-06-14T21:57:16.733Z</time>
      </trkpt>
      <trkpt lat="40.092420587316155" lon="-0.5908427014946938">
        <ele>884.7705078125</ele>
        <time>2020-06-14T21:57:18.475Z</time>
      </trkpt>
      <trkpt lat="40.09223308414221" lon="-0.5909053143113852">
        <ele>888.2181396484375</ele>
        <time>2020-06-14T21:57:20.221Z</time>
      </trkpt>
      <trkpt lat="40.092107858508825" lon="-0.5909672565758228">
        <ele>890.1826171875</ele>
        <time>2020-06-14T21:57:21.970Z</time>
      </trkpt>
      <trkpt lat="40.09205471724272" lon="-0.5910110101103783">
        <ele>890.6697387695312</ele>
        <time>2020-06-14T21:57:23.720Z</time>
      </trkpt>
      <trkpt lat="40.09201959706843" lon="-0.5911010317504406">
        <ele>889.958251953125</ele>
        <time>2020-06-14T21:57:25.472Z</time>
      </trkpt>
      <trkpt lat="40.09203527122736" lon="-0.5911926459521055">
        <ele>888.0620727539062</ele>
        <time>2020-06-14T21:57:27.225Z</time>
      </trkpt>
      <trkpt lat="40.0920747499913" lon="-0.5912832543253899">
        <ele>885.64013671875</ele>
        <time>2020-06-14T21:57:28.980Z</time>
      </trkpt>
      <trkpt lat="40.092071229591966" lon="-0.591437816619873">
        <ele>884.2697143554688</ele>
        <time>2020-06-14T21:57:30.737Z</time>
      </trkpt>
      <trkpt lat="40.092176673933864" lon="-0.5917828157544136">
        <ele>876.1907348632812</ele>
        <time>2020-06-14T21:57:32.500Z</time>
      </trkpt>
      <trkpt lat="40.092096626758575" lon="-0.5921156611293554">
        <ele>876.7274780273438</ele>
        <time>2020-06-14T21:57:34.268Z</time>
      </trkpt>
      <trkpt lat="40.092049269005656" lon="-0.5921726580709219">
        <ele>878.1122436523438</ele>
        <time>2020-06-14T21:57:36.037Z</time>
      </trkpt>
      <trkpt lat="40.09198296815157" lon="-0.5922983027994633">
        <ele>880.3038940429688</ele>
        <time>2020-06-14T21:57:37.809Z</time>
      </trkpt>
      <trkpt lat="40.09199419990182" lon="-0.5923987179994583">
        <ele>878.4126586914062</ele>
        <time>2020-06-14T21:57:39.582Z</time>
      </trkpt>
      <trkpt lat="40.09208011440933" lon="-0.5925241112709045">
        <ele>872.4283447265625</ele>
        <time>2020-06-14T21:57:41.358Z</time>
      </trkpt>
      <trkpt lat="40.092103416100144" lon="-0.5925199203193188">
        <ele>871.330810546875</ele>
        <time>2020-06-14T21:57:43.134Z</time>
      </trkpt>
      <trkpt lat="40.09211448021233" lon="-0.5923282261937857">
        <ele>873.3563232421875</ele>
        <time>2020-06-14T21:57:44.913Z</time>
      </trkpt>
      <trkpt lat="40.0921730697155" lon="-0.5921611748635769">
        <ele>872.792236328125</ele>
        <time>2020-06-14T21:57:46.695Z</time>
      </trkpt>
      <trkpt lat="40.0921971257776" lon="-0.5923123005777597">
        <ele>869.7985229492188</ele>
        <time>2020-06-14T21:57:48.480Z</time>
      </trkpt>
      <trkpt lat="40.09222545661032" lon="-0.5923537909984589">
        <ele>867.959228515625</ele>
        <time>2020-06-14T21:57:50.265Z</time>
      </trkpt>
      <trkpt lat="40.09225512854755" lon="-0.5923536233603954">
        <ele>866.608642578125</ele>
        <time>2020-06-14T21:57:52.051Z</time>
      </trkpt>
      <trkpt lat="40.092330314219" lon="-0.5922368634492159">
        <ele>864.7217407226562</ele>
        <time>2020-06-14T21:57:53.839Z</time>
      </trkpt>
      <trkpt lat="40.092359483242035" lon="-0.5921515356749296">
        <ele>864.3741455078125</ele>
        <time>2020-06-14T21:57:55.629Z</time>
      </trkpt>
      <trkpt lat="40.09238353930414" lon="-0.592194115743041">
        <ele>862.8592529296875</ele>
        <time>2020-06-14T21:57:57.420Z</time>
      </trkpt>
      <trkpt lat="40.09239535778761" lon="-0.5921921879053116">
        <ele>862.3458251953125</ele>
        <time>2020-06-14T21:57:59.211Z</time>
      </trkpt>
      <trkpt lat="40.09249594062567" lon="-0.5920539703220129">
        <ele>858.97216796875</ele>
        <time>2020-06-14T21:58:01.005Z</time>
      </trkpt>
      <trkpt lat="40.09253072552383" lon="-0.59207484126091">
        <ele>857.2109375</ele>
        <time>2020-06-14T21:58:02.799Z</time>
      </trkpt>
      <trkpt lat="40.09257238358259" lon="-0.5920321773737669">
        <ele>855.6699829101562</ele>
        <time>2020-06-14T21:58:04.595Z</time>
      </trkpt>
      <trkpt lat="40.09270238690078" lon="-0.5919780302792788">
        <ele>850.1975708007812</ele>
        <time>2020-06-14T21:58:06.393Z</time>
      </trkpt>
      <trkpt lat="40.09275368414819" lon="-0.5919315107166767">
        <ele>848.24951171875</ele>
        <time>2020-06-14T21:58:08.193Z</time>
      </trkpt>
      <trkpt lat="40.092802215367556" lon="-0.5918322689831257">
        <ele>846.8703002929688</ele>
        <time>2020-06-14T21:58:09.994Z</time>
      </trkpt>
      <trkpt lat="40.09284060448408" lon="-0.5917919520288706">
        <ele>845.4586791992188</ele>
        <time>2020-06-14T21:58:11.796Z</time>
      </trkpt>
      <trkpt lat="40.09285384789109" lon="-0.5917459353804588">
        <ele>845.2413330078125</ele>
        <time>2020-06-14T21:58:13.599Z</time>
      </trkpt>
      <trkpt lat="40.09283825755119" lon="-0.5916462745517492">
        <ele>846.7891845703125</ele>
        <time>2020-06-14T21:58:15.404Z</time>
      </trkpt>
      <trkpt lat="40.09280355647206" lon="-0.5915522295981646">
        <ele>849.1611328125</ele>
        <time>2020-06-14T21:58:17.210Z</time>
      </trkpt>
      <trkpt lat="40.092766005545855" lon="-0.591502021998167">
        <ele>851.3097534179688</ele>
        <time>2020-06-14T21:58:19.017Z</time>
      </trkpt>
      <trkpt lat="40.09276667609811" lon="-0.591468159109354">
        <ele>851.6033935546875</ele>
        <time>2020-06-14T21:58:20.825Z</time>
      </trkpt>
      <trkpt lat="40.09295233525336" lon="-0.5914135929197073">
        <ele>844.0197143554688</ele>
        <time>2020-06-14T21:58:22.637Z</time>
      </trkpt>
      <trkpt lat="40.09327537380159" lon="-0.5915029440075159">
        <ele>836.2927856445312</ele>
        <time>2020-06-14T21:58:24.455Z</time>
      </trkpt>
      <trkpt lat="40.093339662998915" lon="-0.5915021058171988">
        <ele>834.9114379882812</ele>
        <time>2020-06-14T21:58:26.275Z</time>
      </trkpt>
      <trkpt lat="40.09348165243864" lon="-0.5914673209190369">
        <ele>832.1370849609375</ele>
        <time>2020-06-14T21:58:28.097Z</time>
      </trkpt>
      <trkpt lat="40.093590868636966" lon="-0.5913674086332321">
        <ele>830.6175537109375</ele>
        <time>2020-06-14T21:58:29.922Z</time>
      </trkpt>
      <trkpt lat="40.09366638958454" lon="-0.5912337172776461">
        <ele>831.0694580078125</ele>
        <time>2020-06-14T21:58:31.750Z</time>
      </trkpt>
      <trkpt lat="40.09416192770004" lon="-0.5907860398292542">
        <ele>825.0364990234375</ele>
        <time>2020-06-14T21:58:33.590Z</time>
      </trkpt>
      <trkpt lat="40.09440802037716" lon="-0.590643547475338">
        <ele>820.3436889648438</ele>
        <time>2020-06-14T21:58:35.435Z</time>
      </trkpt>
      <trkpt lat="40.094493264332414" lon="-0.5906825233250856">
        <ele>818.6442260742188</ele>
        <time>2020-06-14T21:58:37.282Z</time>
      </trkpt>
      <trkpt lat="40.09451078251004" lon="-0.5906391888856888">
        <ele>818.2791748046875</ele>
        <time>2020-06-14T21:58:39.130Z</time>
      </trkpt>
      <trkpt lat="40.0945474114269" lon="-0.590611444786191">
        <ele>817.8930053710938</ele>
        <time>2020-06-14T21:58:40.978Z</time>
      </trkpt>
      <trkpt lat="40.09465352632105" lon="-0.5906300526112318">
        <ele>816.7184448242188</ele>
        <time>2020-06-14T21:58:42.829Z</time>
      </trkpt>
      <trkpt lat="40.094743967056274" lon="-0.5905034858733416">
        <ele>814.2518310546875</ele>
        <time>2020-06-14T21:58:44.682Z</time>
      </trkpt>
      <trkpt lat="40.094849998131394" lon="-0.5904767476022243">
        <ele>811.99072265625</ele>
        <time>2020-06-14T21:58:46.537Z</time>
      </trkpt>
      <trkpt lat="40.09492551907897" lon="-0.5904386099427938">
        <ele>810.1282348632812</ele>
        <time>2020-06-14T21:58:48.394Z</time>
      </trkpt>
      <trkpt lat="40.09494949132204" lon="-0.59043207205832">
        <ele>809.6104736328125</ele>
        <time>2020-06-14T21:58:50.252Z</time>
      </trkpt>
      <trkpt lat="40.09501260705292" lon="-0.5904604028910398">
        <ele>808.8485107421875</ele>
        <time>2020-06-14T21:58:52.111Z</time>
      </trkpt>
      <trkpt lat="40.09512836113572" lon="-0.5903910007327795">
        <ele>805.8493041992188</ele>
        <time>2020-06-14T21:58:53.972Z</time>
      </trkpt>
      <trkpt lat="40.095195919275284" lon="-0.5903790984302759">
        <ele>804.4763793945312</ele>
        <time>2020-06-14T21:58:55.835Z</time>
      </trkpt>
      <trkpt lat="40.0955559220165" lon="-0.5903986282646656">
        <ele>795.8734741210938</ele>
        <time>2020-06-14T21:58:57.705Z</time>
      </trkpt>
      <trkpt lat="40.09558374993503" lon="-0.5903394520282745">
        <ele>793.8956298828125</ele>
        <time>2020-06-14T21:58:59.576Z</time>
      </trkpt>
      <trkpt lat="40.0955146830529" lon="-0.5901874043047428">
        <ele>794.5407104492188</ele>
        <time>2020-06-14T21:59:01.450Z</time>
      </trkpt>
      <trkpt lat="40.09551920928061" lon="-0.5901508592069149">
        <ele>793.8845825195312</ele>
        <time>2020-06-14T21:59:03.324Z</time>
      </trkpt>
      <trkpt lat="40.09558224119246" lon="-0.5901080276817083">
        <ele>790.8992919921875</ele>
        <time>2020-06-14T21:59:05.200Z</time>
      </trkpt>
      <trkpt lat="40.09572548791766" lon="-0.5900758411735296">
        <ele>784.9747314453125</ele>
        <time>2020-06-14T21:59:07.079Z</time>
      </trkpt>
      <trkpt lat="40.09575021453202" lon="-0.5900376196950674">
        <ele>783.5209350585938</ele>
        <time>2020-06-14T21:59:08.958Z</time>
      </trkpt>
      <trkpt lat="40.0957771204412" lon="-0.5900877434760332">
        <ele>783.1494750976562</ele>
        <time>2020-06-14T21:59:10.838Z</time>
      </trkpt>
      <trkpt lat="40.0958202034235" lon="-0.5900821276009083">
        <ele>781.4212646484375</ele>
        <time>2020-06-14T21:59:12.719Z</time>
      </trkpt>
      <trkpt lat="40.09582850150764" lon="-0.5900965444743633">
        <ele>781.2929077148438</ele>
        <time>2020-06-14T21:59:14.600Z</time>
      </trkpt>
      <trkpt lat="40.09583185426891" lon="-0.5902729835361242">
        <ele>786.325927734375</ele>
        <time>2020-06-14T21:59:16.484Z</time>
      </trkpt>
      <trkpt lat="40.095861945301294" lon="-0.5903101153671741">
        <ele>786.8704833984375</ele>
        <time>2020-06-14T21:59:18.369Z</time>
      </trkpt>
      <trkpt lat="40.09589212015271" lon="-0.590285724028945">
        <ele>785.494140625</ele>
        <time>2020-06-14T21:59:20.255Z</time>
      </trkpt>
      <trkpt lat="40.09594475850463" lon="-0.5901219416409731">
        <ele>779.3113403320312</ele>
        <time>2020-06-14T21:59:22.143Z</time>
      </trkpt>
      <trkpt lat="40.09597308933735" lon="-0.590003589168191">
        <ele>775.04150390625</ele>
        <time>2020-06-14T21:59:24.033Z</time>
      </trkpt>
      <trkpt lat="40.09597945958376" lon="-0.5898579955101013">
        <ele>772.3487548828125</ele>
        <time>2020-06-14T21:59:25.926Z</time>
      </trkpt>
      <trkpt lat="40.09599940851331" lon="-0.5898498650640249">
        <ele>771.4755859375</ele>
        <time>2020-06-14T21:59:27.819Z</time>
      </trkpt>
      <trkpt lat="40.09613821282983" lon="-0.58989018201828">
        <ele>768.1358642578125</ele>
        <time>2020-06-14T21:59:29.715Z</time>
      </trkpt>
      <trkpt lat="40.09617643430829" lon="-0.5900042597204447">
        <ele>770.9149169921875</ele>
        <time>2020-06-14T21:59:31.613Z</time>
      </trkpt>
      <trkpt lat="40.09627358056605" lon="-0.5901289824396372">
        <ele>772.7110595703125</ele>
        <time>2020-06-14T21:59:33.513Z</time>
      </trkpt>
      <trkpt lat="40.09635706432164" lon="-0.5901847220957279">
        <ele>771.4449462890625</ele>
        <time>2020-06-14T21:59:35.415Z</time>
      </trkpt>
      <trkpt lat="40.09642261080444" lon="-0.590256555005908">
        <ele>771.3264770507812</ele>
        <time>2020-06-14T21:59:37.319Z</time>
      </trkpt>
      <trkpt lat="40.09653375484049" lon="-0.5902808625251055">
        <ele>768.407958984375</ele>
        <time>2020-06-14T21:59:39.225Z</time>
      </trkpt>
      <trkpt lat="40.0965628400445" lon="-0.5903033260256052">
        <ele>768.5565795898438</ele>
        <time>2020-06-14T21:59:41.132Z</time>
      </trkpt>
      <trkpt lat="40.096648167818785" lon="-0.5904205050319433">
        <ele>771.0844116210938</ele>
        <time>2020-06-14T21:59:43.041Z</time>
      </trkpt>
      <trkpt lat="40.09670751169324" lon="-0.5904573015868664">
        <ele>771.01904296875</ele>
        <time>2020-06-14T21:59:44.952Z</time>
      </trkpt>
      <trkpt lat="40.096752773970366" lon="-0.5905086826533079">
        <ele>771.9203491210938</ele>
        <time>2020-06-14T21:59:46.864Z</time>
      </trkpt>
      <trkpt lat="40.09690498933196" lon="-0.5905588064342737">
        <ele>770.425048828125</ele>
        <time>2020-06-14T21:59:48.779Z</time>
      </trkpt>
      <trkpt lat="40.09695326909423" lon="-0.5905609857290983">
        <ele>769.2630615234375</ele>
        <time>2020-06-14T21:59:50.695Z</time>
      </trkpt>
      <trkpt lat="40.09699685499072" lon="-0.5905958544462919">
        <ele>769.9115600585938</ele>
        <time>2020-06-14T21:59:52.612Z</time>
      </trkpt>
      <trkpt lat="40.09707648307085" lon="-0.5906010512262583">
        <ele>769.89697265625</ele>
        <time>2020-06-14T21:59:54.531Z</time>
      </trkpt>
      <trkpt lat="40.097195003181696" lon="-0.5907345749437809">
        <ele>776.345947265625</ele>
        <time>2020-06-14T21:59:56.453Z</time>
      </trkpt>
      <trkpt lat="40.09724780917168" lon="-0.5907334852963686">
        <ele>773.850830078125</ele>
        <time>2020-06-14T21:59:58.376Z</time>
      </trkpt>
      <trkpt lat="40.09731042198837" lon="-0.5907839443534613">
        <ele>775.0523681640625</ele>
        <time>2020-06-14T22:00:00.300Z</time>
      </trkpt>
      <trkpt lat="40.097542349249125" lon="-0.5908653326332569">
        <ele>771.020751953125</ele>
        <time>2020-06-14T22:00:02.229Z</time>
      </trkpt>
      <trkpt lat="40.09763153269887" lon="-0.5909240059554577">
        <ele>767.9236450195312</ele>
        <time>2020-06-14T22:00:04.160Z</time>
      </trkpt>
      <trkpt lat="40.09784862399101" lon="-0.5908974353224039">
        <ele>749.260986328125</ele>
        <time>2020-06-14T22:00:06.096Z</time>
      </trkpt>
      <trkpt lat="40.09805959649384" lon="-0.590813783928752">
        <ele>735.0049438476562</ele>
        <time>2020-06-14T22:00:08.036Z</time>
      </trkpt>
      <trkpt lat="40.09825958870351" lon="-0.5908235069364309">
        <ele>729.6893920898438</ele>
        <time>2020-06-14T22:00:09.980Z</time>
      </trkpt>
      <trkpt lat="40.098306527361274" lon="-0.5908423662185669">
        <ele>729.1976318359375</ele>
        <time>2020-06-14T22:00:11.925Z</time>
      </trkpt>
      <trkpt lat="40.098403757438064" lon="-0.5909345671534538">
        <ele>729.3701171875</ele>
        <time>2020-06-14T22:00:13.872Z</time>
      </trkpt>
      <trkpt lat="40.0985124707222" lon="-0.5911032948642969">
        <ele>727.940673828125</ele>
        <time>2020-06-14T22:00:15.823Z</time>
      </trkpt>
      <trkpt lat="40.09871078655124" lon="-0.5912585277110338">
        <ele>721.6721801757812</ele>
        <time>2020-06-14T22:00:17.778Z</time>
      </trkpt>
      <trkpt lat="40.09881145320833" lon="-0.5914303567260504">
        <ele>723.4550170898438</ele>
        <time>2020-06-14T22:00:19.737Z</time>
      </trkpt>
      <trkpt lat="40.098926117643714" lon="-0.5915290117263794">
        <ele>725.2974853515625</ele>
        <time>2020-06-14T22:00:21.698Z</time>
      </trkpt>
      <trkpt lat="40.09904840961099" lon="-0.5915144272148609">
        <ele>722.5191040039062</ele>
        <time>2020-06-14T22:00:23.662Z</time>
      </trkpt>
      <trkpt lat="40.09917061775923" lon="-0.5913564283400774">
        <ele>714.0640258789062</ele>
        <time>2020-06-14T22:00:25.629Z</time>
      </trkpt>
      <trkpt lat="40.09921311400831" lon="-0.5913265887647867">
        <ele>712.375</ele>
        <time>2020-06-14T22:00:27.597Z</time>
      </trkpt>
      <trkpt lat="40.099515952169895" lon="-0.5912437755614519">
        <ele>704.6395874023438</ele>
        <time>2020-06-14T22:00:29.571Z</time>
      </trkpt>
      <trkpt lat="40.099654756486416" lon="-0.5912607908248901">
        <ele>702.0875854492188</ele>
        <time>2020-06-14T22:00:31.548Z</time>
      </trkpt>
      <trkpt lat="40.09977512061596" lon="-0.5913157761096954">
        <ele>699.7699584960938</ele>
        <time>2020-06-14T22:00:33.528Z</time>
      </trkpt>
      <trkpt lat="40.09991166181862" lon="-0.5913264211267233">
        <ele>695.7660522460938</ele>
        <time>2020-06-14T22:00:35.511Z</time>
      </trkpt>
      <trkpt lat="40.09996321052313" lon="-0.5913545843213797">
        <ele>694.8888549804688</ele>
        <time>2020-06-14T22:00:37.495Z</time>
      </trkpt>
      <trkpt lat="40.10007921606302" lon="-0.5914939753711224">
        <ele>695.7855834960938</ele>
        <time>2020-06-14T22:00:39.482Z</time>
      </trkpt>
      <trkpt lat="40.10012506507337" lon="-0.5915218032896519">
        <ele>695.2568359375</ele>
        <time>2020-06-14T22:00:41.470Z</time>
      </trkpt>
      <trkpt lat="40.10024819523096" lon="-0.5915466137230396">
        <ele>692.0938720703125</ele>
        <time>2020-06-14T22:00:43.460Z</time>
      </trkpt>
      <trkpt lat="40.10037375614047" lon="-0.5915322806686163">
        <ele>686.6451416015625</ele>
        <time>2020-06-14T22:00:45.453Z</time>
      </trkpt>
      <trkpt lat="40.10052186436951" lon="-0.5915427580475807">
        <ele>682.3232421875</ele>
        <time>2020-06-14T22:00:47.449Z</time>
      </trkpt>
      <trkpt lat="40.100676426663995" lon="-0.5914944782853127">
        <ele>677.5137329101562</ele>
        <time>2020-06-14T22:00:49.448Z</time>
      </trkpt>
      <trkpt lat="40.10080718435347" lon="-0.5915437638759613">
        <ele>675.4996337890625</ele>
        <time>2020-06-14T22:00:51.450Z</time>
      </trkpt>
      <trkpt lat="40.10104497894645" lon="-0.5915731005370617">
        <ele>670.4484252929688</ele>
        <time>2020-06-14T22:00:53.456Z</time>
      </trkpt>
      <trkpt lat="40.10122485458851" lon="-0.5914730206131935">
        <ele>663.4677124023438</ele>
        <time>2020-06-14T22:00:55.466Z</time>
      </trkpt>
      <trkpt lat="40.10129082016647" lon="-0.5914618726819754">
        <ele>661.736572265625</ele>
        <time>2020-06-14T22:00:57.478Z</time>
      </trkpt>
      <trkpt lat="40.101468516513705" lon="-0.5914798099547625">
        <ele>659.7142333984375</ele>
        <time>2020-06-14T22:00:59.493Z</time>
      </trkpt>
      <trkpt lat="40.10152895003557" lon="-0.591469332575798">
        <ele>658.7280883789062</ele>
        <time>2020-06-14T22:01:01.509Z</time>
      </trkpt>
      <trkpt lat="40.101587790995836" lon="-0.5914329551160336">
        <ele>657.2968139648438</ele>
        <time>2020-06-14T22:01:03.527Z</time>
      </trkpt>
      <trkpt lat="40.101637579500675" lon="-0.5914323683828115">
        <ele>656.629150390625</ele>
        <time>2020-06-14T22:01:05.546Z</time>
      </trkpt>
      <trkpt lat="40.101692229509354" lon="-0.5914502218365669">
        <ele>656.2291870117188</ele>
        <time>2020-06-14T22:01:07.566Z</time>
      </trkpt>
      <trkpt lat="40.101805133745074" lon="-0.5915230605751276">
        <ele>656.0499877929688</ele>
        <time>2020-06-14T22:01:09.588Z</time>
      </trkpt>
      <trkpt lat="40.10205801576376" lon="-0.5917961429804564">
        <ele>653.24853515625</ele>
        <time>2020-06-14T22:01:11.617Z</time>
      </trkpt>
      <trkpt lat="40.102174021303654" lon="-0.591821875423193">
        <ele>651.3545532226562</ele>
        <time>2020-06-14T22:01:13.648Z</time>
      </trkpt>
      <trkpt lat="40.10236730799079" lon="-0.5917824804782867">
        <ele>648.2880859375</ele>
        <time>2020-06-14T22:01:15.683Z</time>
      </trkpt>
      <trkpt lat="40.10283635929227" lon="-0.591603945940733">
        <ele>639.1110229492188</ele>
        <time>2020-06-14T22:01:17.728Z</time>
      </trkpt>
      <trkpt lat="40.10304900817573" lon="-0.5915026925504208">
        <ele>636.1728515625</ele>
        <time>2020-06-14T22:01:19.778Z</time>
      </trkpt>
      <trkpt lat="40.10328940115869" lon="-0.5913488008081913">
        <ele>634.4423217773438</ele>
        <time>2020-06-14T22:01:21.833Z</time>
      </trkpt>
      <trkpt lat="40.10327272117138" lon="-0.5913147702813148">
        <ele>634.4027709960938</ele>
        <time>2020-06-14T22:01:23.889Z</time>
      </trkpt>
      <trkpt lat="40.103155793622136" lon="-0.5912636406719685">
        <ele>634.9991455078125</ele>
        <time>2020-06-14T22:01:25.947Z</time>
      </trkpt>
      <trkpt lat="40.1030195876956" lon="-0.591173367574811">
        <ele>634.5833740234375</ele>
        <time>2020-06-14T22:01:28.008Z</time>
      </trkpt>
      <trkpt lat="40.10301623493433" lon="-0.5911174602806568">
        <ele>633.6993408203125</ele>
        <time>2020-06-14T22:01:30.070Z</time>
      </trkpt>
      <trkpt lat="40.10323818773031" lon="-0.5911570228636265">
        <ele>633.894287109375</ele>
        <time>2020-06-14T22:01:32.136Z</time>
      </trkpt>
      <trkpt lat="40.1034564524889" lon="-0.5912188813090324">
        <ele>632.6199340820312</ele>
        <time>2020-06-14T22:01:34.207Z</time>
      </trkpt>
      <trkpt lat="40.10351990814057" lon="-0.591219211377501">
        <ele>632.1647338867188</ele>
        <time>2020-06-14T22:01:36.279Z</time>
      </trkpt>
      <trkpt lat="40.103942" lon="-0.5962320000000253">
        <ele>617.3574829101562</ele>
        <time>2020-06-14T22:48:27.000Z</time>
      </trkpt>
      <trkpt lat="40.104016" lon="-0.596289">
        <ele>619.7703247070312</ele>
        <time>2020-06-14T22:48:27.002Z</time>
      </trkpt>
      <trkpt lat="40.104141" lon="-0.596346">
        <ele>622.856201171875</ele>
        <time>2020-06-14T22:48:27.006Z</time>
      </trkpt>
      <trkpt lat="40.104426" lon="-0.596391">
        <ele>627.5491333007812</ele>
        <time>2020-06-14T22:48:27.016Z</time>
      </trkpt>
      <trkpt lat="40.104589" lon="-0.596367">
        <ele>629.2473754882812</ele>
        <time>2020-06-14T22:48:27.029Z</time>
      </trkpt>
      <trkpt lat="40.104769" lon="-0.596317">
        <ele>628.2839965820312</ele>
        <time>2020-06-14T22:48:27.046Z</time>
      </trkpt>
      <trkpt lat="40.104934" lon="-0.596306">
        <ele>628.1652221679688</ele>
        <time>2020-06-14T22:48:27.066Z</time>
      </trkpt>
      <trkpt lat="40.105096" lon="-0.596275">
        <ele>627.4669189453125</ele>
        <time>2020-06-14T22:48:27.090Z</time>
      </trkpt>
      <trkpt lat="40.105051" lon="-0.596325">
        <ele>628.8527221679688</ele>
        <time>2020-06-14T22:48:27.115Z</time>
      </trkpt>
      <trkpt lat="40.104968" lon="-0.596313">
        <ele>628.4075927734375</ele>
        <time>2020-06-14T22:48:27.141Z</time>
      </trkpt>
      <trkpt lat="40.104423" lon="-0.596399">
        <ele>627.6727294921875</ele>
        <time>2020-06-14T22:48:27.178Z</time>
      </trkpt>
      <trkpt lat="40.104269" lon="-0.596403">
        <ele>625.7218627929688</ele>
        <time>2020-06-14T22:48:27.219Z</time>
      </trkpt>
      <trkpt lat="40.10413" lon="-0.596375">
        <ele>623.3162841796875</ele>
        <time>2020-06-14T22:48:27.262Z</time>
      </trkpt>
      <trkpt lat="40.103989" lon="-0.596276">
        <ele>619.08642578125</ele>
        <time>2020-06-14T22:48:27.309Z</time>
      </trkpt>
      <trkpt lat="40.103918" lon="-0.596196">
        <ele>616.1776733398438</ele>
        <time>2020-06-14T22:48:27.357Z</time>
      </trkpt>
      <trkpt lat="40.103899" lon="-0.596136">
        <ele>615.8369140625</ele>
        <time>2020-06-14T22:48:27.406Z</time>
      </trkpt>
      <trkpt lat="40.103851" lon="-0.596091">
        <ele>615.7433471679688</ele>
        <time>2020-06-14T22:48:27.457Z</time>
      </trkpt>
      <trkpt lat="40.103687" lon="-0.595844">
        <ele>614.3656005859375</ele>
        <time>2020-06-14T22:48:27.513Z</time>
      </trkpt>
      <trkpt lat="40.103602" lon="-0.595792">
        <ele>613.9912719726562</ele>
        <time>2020-06-14T22:48:27.570Z</time>
      </trkpt>
      <trkpt lat="40.103588" lon="-0.595633">
        <ele>613.6644897460938</ele>
        <time>2020-06-14T22:48:27.630Z</time>
      </trkpt>
      <trkpt lat="40.103531" lon="-0.595579">
        <ele>614.74072265625</ele>
        <time>2020-06-14T22:48:27.691Z</time>
      </trkpt>
      <trkpt lat="40.103575" lon="-0.595447">
        <ele>614.4595336914062</ele>
        <time>2020-06-14T22:48:27.755Z</time>
      </trkpt>
      <trkpt lat="40.103594" lon="-0.595182">
        <ele>613.890869140625</ele>
        <time>2020-06-14T22:48:27.823Z</time>
      </trkpt>
      <trkpt lat="40.103766" lon="-0.594187">
        <ele>615.1869506835938</ele>
        <time>2020-06-14T22:48:27.906Z</time>
      </trkpt>
      <trkpt lat="40.103758" lon="-0.593997">
        <ele>616.9362182617188</ele>
        <time>2020-06-14T22:48:27.992Z</time>
      </trkpt>
      <trkpt lat="40.103774" lon="-0.593804">
        <ele>618.312255859375</ele>
        <time>2020-06-14T22:48:28.081Z</time>
      </trkpt>
      <trkpt lat="40.103793" lon="-0.59361">
        <ele>619.68603515625</ele>
        <time>2020-06-14T22:48:28.173Z</time>
      </trkpt>
      <trkpt lat="40.103829" lon="-0.593467">
        <ele>620.6722412109375</ele>
        <time>2020-06-14T22:48:28.268Z</time>
      </trkpt>
      <trkpt lat="40.103806" lon="-0.593301">
        <ele>621.8948364257812</ele>
        <time>2020-06-14T22:48:28.365Z</time>
      </trkpt>
      <trkpt lat="40.103764" lon="-0.593201">
        <ele>622.7123413085938</ele>
        <time>2020-06-14T22:48:28.464Z</time>
      </trkpt>
      <trkpt lat="40.103761" lon="-0.59313">
        <ele>623.2666625976562</ele>
        <time>2020-06-14T22:48:28.564Z</time>
      </trkpt>
      <trkpt lat="40.103788" lon="-0.59248">
        <ele>627.753173828125</ele>
        <time>2020-06-14T22:48:28.674Z</time>
      </trkpt>
      <trkpt lat="40.103835" lon="-0.592188">
        <ele>629.629638671875</ele>
        <time>2020-06-14T22:48:28.789Z</time>
      </trkpt>
      <trkpt lat="40.103844" lon="-0.591974">
        <ele>630.2489624023438</ele>
        <time>2020-06-14T22:48:28.907Z</time>
      </trkpt>
      <trkpt lat="40.10382" lon="-0.591755">
        <ele>630.51171875</ele>
        <time>2020-06-14T22:48:29.028Z</time>
      </trkpt>
      <trkpt lat="40.103752" lon="-0.591562">
        <ele>630.8741455078125</ele>
        <time>2020-06-14T22:48:29.152Z</time>
      </trkpt>
      <trkpt lat="40.103656" lon="-0.59143">
        <ele>631.80322265625</ele>
        <time>2020-06-14T22:48:29.279Z</time>
      </trkpt>
      <trkpt lat="40.103589" lon="-0.591387">
        <ele>632.2855834960938</ele>
        <time>2020-06-14T22:48:29.408Z</time>
      </trkpt>
      <trkpt lat="40.103139" lon="-0.59117">
        <ele>634.6705932617188</ele>
        <time>2020-06-14T22:48:29.546Z</time>
      </trkpt>
      <trkpt lat="40.102789" lon="-0.591067">
        <ele>634.7058715820312</ele>
        <time>2020-06-14T22:48:29.692Z</time>
      </trkpt>
      <trkpt lat="40.102704" lon="-0.591018">
        <ele>635.1654052734375</ele>
        <time>2020-06-14T22:48:29.839Z</time>
      </trkpt>
      <trkpt lat="40.102629" lon="-0.590945">
        <ele>635.1065673828125</ele>
        <time>2020-06-14T22:48:29.988Z</time>
      </trkpt>
      <trkpt lat="40.10251" lon="-0.590877">
        <ele>635.3893432617188</ele>
        <time>2020-06-14T22:48:30.140Z</time>
      </trkpt>
      <trkpt lat="40.102453" lon="-0.590817">
        <ele>634.572265625</ele>
        <time>2020-06-14T22:48:30.293Z</time>
      </trkpt>
      <trkpt lat="40.102191" lon="-0.59079">
        <ele>636.1896362304688</ele>
        <time>2020-06-14T22:48:30.452Z</time>
      </trkpt>
      <trkpt lat="40.101953" lon="-0.590713">
        <ele>637.2340698242188</ele>
        <time>2020-06-14T22:48:30.615Z</time>
      </trkpt>
      <trkpt lat="40.101871" lon="-0.590652">
        <ele>637.44140625</ele>
        <time>2020-06-14T22:48:30.780Z</time>
      </trkpt>
      <trkpt lat="40.101726" lon="-0.590604">
        <ele>639.2446899414062</ele>
        <time>2020-06-14T22:48:30.948Z</time>
      </trkpt>
      <trkpt lat="40.10152" lon="-0.590565">
        <ele>642.2969970703125</ele>
        <time>2020-06-14T22:48:31.120Z</time>
      </trkpt>
      <trkpt lat="40.101266" lon="-0.590546">
        <ele>646.5560302734375</ele>
        <time>2020-06-14T22:48:31.298Z</time>
      </trkpt>
      <trkpt lat="40.101135" lon="-0.590498">
        <ele>647.6041259765625</ele>
        <time>2020-06-14T22:48:31.478Z</time>
      </trkpt>
      <trkpt lat="40.101024" lon="-0.590432">
        <ele>647.0137939453125</ele>
        <time>2020-06-14T22:48:31.661Z</time>
      </trkpt>
      <trkpt lat="40.100967" lon="-0.59042">
        <ele>647.52490234375</ele>
        <time>2020-06-14T22:48:31.845Z</time>
      </trkpt>
      <trkpt lat="40.10085" lon="-0.59044">
        <ele>650.2340698242188</ele>
        <time>2020-06-14T22:48:32.031Z</time>
      </trkpt>
      <trkpt lat="40.100802" lon="-0.59038">
        <ele>648.8087158203125</ele>
        <time>2020-06-14T22:48:32.219Z</time>
      </trkpt>
      <trkpt lat="40.100785" lon="-0.590317">
        <ele>646.7510375976562</ele>
        <time>2020-06-14T22:48:32.408Z</time>
      </trkpt>
      <trkpt lat="40.100752" lon="-0.590268">
        <ele>645.4828491210938</ele>
        <time>2020-06-14T22:48:32.598Z</time>
      </trkpt>
      <trkpt lat="40.100633" lon="-0.59022">
        <ele>646.6106567382812</ele>
        <time>2020-06-14T22:48:32.790Z</time>
      </trkpt>
      <trkpt lat="40.10054" lon="-0.590147">
        <ele>647.0509643554688</ele>
        <time>2020-06-14T22:48:32.984Z</time>
      </trkpt>
      <trkpt lat="40.100511" lon="-0.590015">
        <ele>644.1738891601562</ele>
        <time>2020-06-14T22:48:33.180Z</time>
      </trkpt>
      <trkpt lat="40.100482" lon="-0.590063">
        <ele>646.263916015625</ele>
        <time>2020-06-14T22:48:33.377Z</time>
      </trkpt>
      <trkpt lat="40.100496" lon="-0.590191">
        <ele>649.4265747070312</ele>
        <time>2020-06-14T22:48:33.576Z</time>
      </trkpt>
      <trkpt lat="40.10053" lon="-0.590243">
        <ele>649.964111328125</ele>
        <time>2020-06-14T22:48:33.776Z</time>
      </trkpt>
      <trkpt lat="40.100707" lon="-0.590375">
        <ele>650.218505859375</ele>
        <time>2020-06-14T22:48:33.980Z</time>
      </trkpt>
      <trkpt lat="40.100755" lon="-0.590389">
        <ele>649.9329223632812</ele>
        <time>2020-06-14T22:48:34.185Z</time>
      </trkpt>
      <trkpt lat="40.100801" lon="-0.590435">
        <ele>650.8711547851562</ele>
        <time>2020-06-14T22:48:34.392Z</time>
      </trkpt>
      <trkpt lat="40.100865" lon="-0.590451">
        <ele>650.3912353515625</ele>
        <time>2020-06-14T22:48:34.600Z</time>
      </trkpt>
      <trkpt lat="40.100904" lon="-0.590503">
        <ele>651.6702270507812</ele>
        <time>2020-06-14T22:48:34.809Z</time>
      </trkpt>
      <trkpt lat="40.100911" lon="-0.590571">
        <ele>653.3369140625</ele>
        <time>2020-06-14T22:48:35.019Z</time>
      </trkpt>
      <trkpt lat="40.100885" lon="-0.590622">
        <ele>654.9974365234375</ele>
        <time>2020-06-14T22:48:35.230Z</time>
      </trkpt>
      <trkpt lat="40.10097" lon="-0.590794">
        <ele>657.697021484375</ele>
        <time>2020-06-14T22:48:35.444Z</time>
      </trkpt>
      <trkpt lat="40.101022" lon="-0.590844">
        <ele>657.4166259765625</ele>
        <time>2020-06-14T22:48:35.659Z</time>
      </trkpt>
      <trkpt lat="40.101006" lon="-0.591142">
        <ele>662.80615234375</ele>
        <time>2020-06-14T22:48:35.879Z</time>
      </trkpt>
      <trkpt lat="40.101044" lon="-0.591209">
        <ele>663.0197143554688</ele>
        <time>2020-06-14T22:48:36.100Z</time>
      </trkpt>
      <trkpt lat="40.101178" lon="-0.591261">
        <ele>660.6776733398438</ele>
        <time>2020-06-14T22:48:36.324Z</time>
      </trkpt>
      <trkpt lat="40.101219" lon="-0.591295">
        <ele>660.2649536132812</ele>
        <time>2020-06-14T22:48:36.549Z</time>
      </trkpt>
      <trkpt lat="40.101282" lon="-0.591406">
        <ele>660.8474731445312</ele>
        <time>2020-06-14T22:48:36.776Z</time>
      </trkpt>
      <trkpt lat="40.101326" lon="-0.591446">
        <ele>660.9866333007812</ele>
        <time>2020-06-14T22:48:37.004Z</time>
      </trkpt>
      <trkpt lat="40.101451" lon="-0.591492">
        <ele>660.164794921875</ele>
        <time>2020-06-14T22:48:37.235Z</time>
      </trkpt>
      <trkpt lat="40.101508" lon="-0.591492">
        <ele>659.4124755859375</ele>
        <time>2020-06-14T22:48:37.467Z</time>
      </trkpt>
      <trkpt lat="40.101666" lon="-0.591702">
        <ele>661.1066284179688</ele>
        <time>2020-06-14T22:48:37.703Z</time>
      </trkpt>
      <trkpt lat="40.101682" lon="-0.591769">
        <ele>662.0760498046875</ele>
        <time>2020-06-14T22:48:37.941Z</time>
      </trkpt>
      <trkpt lat="40.101628" lon="-0.591888">
        <ele>664.2284545898438</ele>
        <time>2020-06-14T22:48:38.181Z</time>
      </trkpt>
      <trkpt lat="40.101623" lon="-0.59197">
        <ele>664.9387817382812</ele>
        <time>2020-06-14T22:48:38.422Z</time>
      </trkpt>
      <trkpt lat="40.101675" lon="-0.592176">
        <ele>665.1738891601562</ele>
        <time>2020-06-14T22:48:38.666Z</time>
      </trkpt>
      <trkpt lat="40.101688" lon="-0.592394">
        <ele>667.1961669921875</ele>
        <time>2020-06-14T22:48:38.914Z</time>
      </trkpt>
      <trkpt lat="40.101742" lon="-0.592533">
        <ele>667.4013671875</ele>
        <time>2020-06-14T22:48:39.164Z</time>
      </trkpt>
      <trkpt lat="40.101819" lon="-0.592834">
        <ele>667.0240478515625</ele>
        <time>2020-06-14T22:48:39.419Z</time>
      </trkpt>
      <trkpt lat="40.101811" lon="-0.592957">
        <ele>667.9923095703125</ele>
        <time>2020-06-14T22:48:39.676Z</time>
      </trkpt>
      <trkpt lat="40.101853" lon="-0.592996">
        <ele>667.016845703125</ele>
        <time>2020-06-14T22:48:39.934Z</time>
      </trkpt>
      <trkpt lat="40.101906" lon="-0.593129">
        <ele>666.9725952148438</ele>
        <time>2020-06-14T22:48:40.194Z</time>
      </trkpt>
      <trkpt lat="40.101898" lon="-0.593358">
        <ele>668.9398803710938</ele>
        <time>2020-06-14T22:48:40.458Z</time>
      </trkpt>
      <trkpt lat="40.101936" lon="-0.593502">
        <ele>668.26318359375</ele>
        <time>2020-06-14T22:48:40.724Z</time>
      </trkpt>
      <trkpt lat="40.101922" lon="-0.593905">
        <ele>670.4297485351562</ele>
        <time>2020-06-14T22:48:40.996Z</time>
      </trkpt>
      <trkpt lat="40.101995" lon="-0.594102">
        <ele>667.9796752929688</ele>
        <time>2020-06-14T22:48:41.272Z</time>
      </trkpt>
      <trkpt lat="40.101992" lon="-0.594243">
        <ele>668.2532348632812</ele>
        <time>2020-06-14T22:48:41.550Z</time>
      </trkpt>
      <trkpt lat="40.102036" lon="-0.594441">
        <ele>666.9598388671875</ele>
        <time>2020-06-14T22:48:41.831Z</time>
      </trkpt>
      <trkpt lat="40.102008" lon="-0.594664">
        <ele>668.20166015625</ele>
        <time>2020-06-14T22:48:42.115Z</time>
      </trkpt>
      <trkpt lat="40.102018" lon="-0.594833">
        <ele>666.1757202148438</ele>
        <time>2020-06-14T22:48:42.402Z</time>
      </trkpt>
      <trkpt lat="40.101977" lon="-0.595034">
        <ele>666.0029296875</ele>
        <time>2020-06-14T22:48:42.692Z</time>
      </trkpt>
      <trkpt lat="40.101979" lon="-0.595101">
        <ele>665.5505981445312</ele>
        <time>2020-06-14T22:48:42.983Z</time>
      </trkpt>
      <trkpt lat="40.101536" lon="-0.595463">
        <ele>674.5407104492188</ele>
        <time>2020-06-14T22:48:43.285Z</time>
      </trkpt>
      <trkpt lat="40.101256" lon="-0.595778">
        <ele>674.7182006835938</ele>
        <time>2020-06-14T22:48:43.594Z</time>
      </trkpt>
      <trkpt lat="40.101164" lon="-0.595945">
        <ele>673.27001953125</ele>
        <time>2020-06-14T22:48:43.906Z</time>
      </trkpt>
      <trkpt lat="40.10108" lon="-0.596015">
        <ele>674.02587890625</ele>
        <time>2020-06-14T22:48:44.220Z</time>
      </trkpt>
      <trkpt lat="40.10099" lon="-0.59604">
        <ele>676.0955200195312</ele>
        <time>2020-06-14T22:48:44.536Z</time>
      </trkpt>
      <trkpt lat="40.100897" lon="-0.59611">
        <ele>677.1213989257812</ele>
        <time>2020-06-14T22:48:44.854Z</time>
      </trkpt>
      <trkpt lat="40.100711" lon="-0.596337">
        <ele>676.9810180664062</ele>
        <time>2020-06-14T22:48:45.177Z</time>
      </trkpt>
      <trkpt lat="40.100541" lon="-0.596434">
        <ele>680.4533081054688</ele>
        <time>2020-06-14T22:48:45.504Z</time>
      </trkpt>
      <trkpt lat="40.100486" lon="-0.596547">
        <ele>680.340576171875</ele>
        <time>2020-06-14T22:48:45.833Z</time>
      </trkpt>
      <trkpt lat="40.100381" lon="-0.596626">
        <ele>682.8267822265625</ele>
        <time>2020-06-14T22:48:46.164Z</time>
      </trkpt>
      <trkpt lat="40.10029" lon="-0.596974">
        <ele>681.111083984375</ele>
        <time>2020-06-14T22:48:46.501Z</time>
      </trkpt>
      <trkpt lat="40.10018" lon="-0.597048">
        <ele>684.444091796875</ele>
        <time>2020-06-14T22:48:46.841Z</time>
      </trkpt>
      <trkpt lat="40.100062" lon="-0.597227">
        <ele>686.3585815429688</ele>
        <time>2020-06-14T22:48:47.184Z</time>
      </trkpt>
      <trkpt lat="40.099926" lon="-0.597341">
        <ele>689.8547973632812</ele>
        <time>2020-06-14T22:48:47.530Z</time>
      </trkpt>
      <trkpt lat="40.099827" lon="-0.597479">
        <ele>691.4097900390625</ele>
        <time>2020-06-14T22:48:47.879Z</time>
      </trkpt>
      <trkpt lat="40.099754" lon="-0.597644">
        <ele>691.4181518554688</ele>
        <time>2020-06-14T22:48:48.231Z</time>
      </trkpt>
      <trkpt lat="40.09974" lon="-0.597723">
        <ele>690.5675048828125</ele>
        <time>2020-06-14T22:48:48.584Z</time>
      </trkpt>
      <trkpt lat="40.099764" lon="-0.597862">
        <ele>687.0629272460938</ele>
        <time>2020-06-14T22:48:48.940Z</time>
      </trkpt>
      <trkpt lat="40.099713" lon="-0.597862">
        <ele>689.1673583984375</ele>
        <time>2020-06-14T22:48:49.297Z</time>
      </trkpt>
      <trkpt lat="40.099676" lon="-0.597822">
        <ele>691.3965454101562</ele>
        <time>2020-06-14T22:48:49.655Z</time>
      </trkpt>
      <trkpt lat="40.099702" lon="-0.59776">
        <ele>691.4517822265625</ele>
        <time>2020-06-14T22:48:50.014Z</time>
      </trkpt>
      <trkpt lat="40.099725" lon="-0.597888">
        <ele>688.2098999023438</ele>
        <time>2020-06-14T22:48:50.375Z</time>
      </trkpt>
      <trkpt lat="40.099751" lon="-0.59784">
        <ele>688.0131225585938</ele>
        <time>2020-06-14T22:48:50.737Z</time>
      </trkpt>
      <trkpt lat="40.099708" lon="-0.597805">
        <ele>690.3971557617188</ele>
        <time>2020-06-14T22:48:51.100Z</time>
      </trkpt>
      <trkpt lat="40.099754" lon="-0.597809">
        <ele>688.4486694335938</ele>
        <time>2020-06-14T22:48:51.464Z</time>
      </trkpt>
      <trkpt lat="40.099647" lon="-0.597847">
        <ele>692.129638671875</ele>
        <time>2020-06-14T22:48:51.830Z</time>
      </trkpt>
      <trkpt lat="40.099615" lon="-0.597891">
        <ele>692.6431274414062</ele>
        <time>2020-06-14T22:48:52.197Z</time>
      </trkpt>
      <trkpt lat="40.099569" lon="-0.598067">
        <ele>691.1199951171875</ele>
        <time>2020-06-14T22:48:52.567Z</time>
      </trkpt>
      <trkpt lat="40.099496" lon="-0.598171">
        <ele>691.7774658203125</ele>
        <time>2020-06-14T22:48:52.939Z</time>
      </trkpt>
      <trkpt lat="40.099478" lon="-0.598226">
        <ele>691.2351684570312</ele>
        <time>2020-06-14T22:48:53.312Z</time>
      </trkpt>
      <trkpt lat="40.099453" lon="-0.598368">
        <ele>688.9075317382812</ele>
        <time>2020-06-14T22:48:53.687Z</time>
      </trkpt>
      <trkpt lat="40.099451" lon="-0.598577">
        <ele>683.978759765625</ele>
        <time>2020-06-14T22:48:54.065Z</time>
      </trkpt>
      <trkpt lat="40.099424" lon="-0.598656">
        <ele>683.249267578125</ele>
        <time>2020-06-14T22:48:54.444Z</time>
      </trkpt>
      <trkpt lat="40.09938" lon="-0.598702">
        <ele>684.0459594726562</ele>
        <time>2020-06-14T22:48:54.825Z</time>
      </trkpt>
      <trkpt lat="40.099226" lon="-0.598768">
        <ele>689.1138916015625</ele>
        <time>2020-06-14T22:48:55.209Z</time>
      </trkpt>
      <trkpt lat="40.099162" lon="-0.59877">
        <ele>691.8302612304688</ele>
        <time>2020-06-14T22:48:55.594Z</time>
      </trkpt>
      <trkpt lat="40.09912" lon="-0.598806">
        <ele>692.780517578125</ele>
        <time>2020-06-14T22:48:55.980Z</time>
      </trkpt>
      <trkpt lat="40.098943" lon="-0.599064">
        <ele>692.1737060546875</ele>
        <time>2020-06-14T22:48:56.371Z</time>
      </trkpt>
      <trkpt lat="40.098715" lon="-0.599223">
        <ele>696.7422485351562</ele>
        <time>2020-06-14T22:48:56.768Z</time>
      </trkpt>
      <trkpt lat="40.098603" lon="-0.599328">
        <ele>698.186767578125</ele>
        <time>2020-06-14T22:48:57.167Z</time>
      </trkpt>
      <trkpt lat="40.098551" lon="-0.59943">
        <ele>697.0685424804688</ele>
        <time>2020-06-14T22:48:57.568Z</time>
      </trkpt>
      <trkpt lat="40.098518" lon="-0.599573">
        <ele>693.7295532226562</ele>
        <time>2020-06-14T22:48:57.971Z</time>
      </trkpt>
      <trkpt lat="40.098482" lon="-0.599619">
        <ele>693.7823486328125</ele>
        <time>2020-06-14T22:48:58.375Z</time>
      </trkpt>
      <trkpt lat="40.098121" lon="-0.59995">
        <ele>698.0469970703125</ele>
        <time>2020-06-14T22:48:58.788Z</time>
      </trkpt>
      <trkpt lat="40.098028" lon="-0.60001">
        <ele>700.015869140625</ele>
        <time>2020-06-14T22:48:59.203Z</time>
      </trkpt>
      <trkpt lat="40.097924" lon="-0.600047">
        <ele>703.2564086914062</ele>
        <time>2020-06-14T22:48:59.620Z</time>
      </trkpt>
      <trkpt lat="40.09773" lon="-0.600019">
        <ele>711.9453735351562</ele>
        <time>2020-06-14T22:49:00.041Z</time>
      </trkpt>
      <trkpt lat="40.097683" lon="-0.600028">
        <ele>713.4822998046875</ele>
        <time>2020-06-14T22:49:00.463Z</time>
      </trkpt>
      <trkpt lat="40.097514" lon="-0.600146">
        <ele>715.9263305664062</ele>
        <time>2020-06-14T22:49:00.889Z</time>
      </trkpt>
      <trkpt lat="40.097482" lon="-0.600285">
        <ele>712.1901245117188</ele>
        <time>2020-06-14T22:49:01.317Z</time>
      </trkpt>
      <trkpt lat="40.09745" lon="-0.600356">
        <ele>710.9015502929688</ele>
        <time>2020-06-14T22:49:01.747Z</time>
      </trkpt>
      <trkpt lat="40.097401" lon="-0.600398">
        <ele>711.3298950195312</ele>
        <time>2020-06-14T22:49:02.178Z</time>
      </trkpt>
      <trkpt lat="40.097234" lon="-0.600459">
        <ele>715.746337890625</ele>
        <time>2020-06-14T22:49:02.612Z</time>
      </trkpt>
      <trkpt lat="40.097096" lon="-0.60053">
        <ele>719.0632934570312</ele>
        <time>2020-06-14T22:49:03.049Z</time>
      </trkpt>
      <trkpt lat="40.096994" lon="-0.600689">
        <ele>722.025634765625</ele>
        <time>2020-06-14T22:49:03.489Z</time>
      </trkpt>
      <trkpt lat="40.096841" lon="-0.600846">
        <ele>726.9580078125</ele>
        <time>2020-06-14T22:49:03.933Z</time>
      </trkpt>
      <trkpt lat="40.096717" lon="-0.601043">
        <ele>730.5369873046875</ele>
        <time>2020-06-14T22:49:04.381Z</time>
      </trkpt>
      <trkpt lat="40.09663" lon="-0.601139">
        <ele>733.3013305664062</ele>
        <time>2020-06-14T22:49:04.832Z</time>
      </trkpt>
      <trkpt lat="40.096593" lon="-0.6012">
        <ele>734.35595703125</ele>
        <time>2020-06-14T22:49:05.284Z</time>
      </trkpt>
      <trkpt lat="40.096565" lon="-0.60137">
        <ele>734.6790771484375</ele>
        <time>2020-06-14T22:49:05.738Z</time>
      </trkpt>
      <trkpt lat="40.096591" lon="-0.601437">
        <ele>734.1632080078125</ele>
        <time>2020-06-14T22:49:06.194Z</time>
      </trkpt>
      <trkpt lat="40.096747" lon="-0.60154">
        <ele>728.915283203125</ele>
        <time>2020-06-14T22:49:06.653Z</time>
      </trkpt>
      <trkpt lat="40.096845" lon="-0.601546">
        <ele>725.1958618164062</ele>
        <time>2020-06-14T22:49:07.114Z</time>
      </trkpt>
      <trkpt lat="40.097172" lon="-0.6015">
        <ele>710.7665405273438</ele>
        <time>2020-06-14T22:49:07.582Z</time>
      </trkpt>
      <trkpt lat="40.097344" lon="-0.601616">
        <ele>704.2252807617188</ele>
        <time>2020-06-14T22:49:08.053Z</time>
      </trkpt>
      <trkpt lat="40.097334" lon="-0.601806">
        <ele>703.661376953125</ele>
        <time>2020-06-14T22:49:08.527Z</time>
      </trkpt>
      <trkpt lat="40.097304" lon="-0.601882">
        <ele>704.3404541015625</ele>
        <time>2020-06-14T22:49:09.003Z</time>
      </trkpt>
      <trkpt lat="40.097323" lon="-0.601963">
        <ele>703.3742065429688</ele>
        <time>2020-06-14T22:49:09.480Z</time>
      </trkpt>
      <trkpt lat="40.097267" lon="-0.602404">
        <ele>710.3861083984375</ele>
        <time>2020-06-14T22:49:09.964Z</time>
      </trkpt>
      <trkpt lat="40.097211" lon="-0.602603">
        <ele>712.2218017578125</ele>
        <time>2020-06-14T22:49:10.451Z</time>
      </trkpt>
      <trkpt lat="40.097163" lon="-0.603137">
        <ele>719.0074462890625</ele>
        <time>2020-06-14T22:49:10.946Z</time>
      </trkpt>
      <trkpt lat="40.097138" lon="-0.603245">
        <ele>720.4315795898438</ele>
        <time>2020-06-14T22:49:11.443Z</time>
      </trkpt>
      <trkpt lat="40.097121" lon="-0.603534">
        <ele>725.0208129882812</ele>
        <time>2020-06-14T22:49:11.945Z</time>
      </trkpt>
      <trkpt lat="40.097182" lon="-0.603841">
        <ele>732.3566284179688</ele>
        <time>2020-06-14T22:49:12.451Z</time>
      </trkpt>
      <trkpt lat="40.097367" lon="-0.604301">
        <ele>750.5572509765625</ele>
        <time>2020-06-14T22:49:12.965Z</time>
      </trkpt>
      <trkpt lat="40.09742" lon="-0.604283">
        <ele>751.7990112304688</ele>
        <time>2020-06-14T22:49:13.480Z</time>
      </trkpt>
      <trkpt lat="40.097503" lon="-0.604186">
        <ele>751.9273681640625</ele>
        <time>2020-06-14T22:49:13.998Z</time>
      </trkpt>
      <trkpt lat="40.097548" lon="-0.604071">
        <ele>750.3496704101562</ele>
        <time>2020-06-14T22:49:14.518Z</time>
      </trkpt>
      <trkpt lat="40.097705" lon="-0.603873">
        <ele>750.2092895507812</ele>
        <time>2020-06-14T22:49:15.042Z</time>
      </trkpt>
      <trkpt lat="40.097822" lon="-0.60366">
        <ele>747.0086059570312</ele>
        <time>2020-06-14T22:49:15.570Z</time>
      </trkpt>
      <trkpt lat="40.097955" lon="-0.603558">
        <ele>747.6558227539062</ele>
        <time>2020-06-14T22:49:16.101Z</time>
      </trkpt>
      <trkpt lat="40.098099" lon="-0.603398">
        <ele>745.390625</ele>
        <time>2020-06-14T22:49:16.636Z</time>
      </trkpt>
      <trkpt lat="40.098242" lon="-0.603286">
        <ele>744.71630859375</ele>
        <time>2020-06-14T22:49:17.174Z</time>
      </trkpt>
      <trkpt lat="40.098545" lon="-0.603207">
        <ele>748.6060791015625</ele>
        <time>2020-06-14T22:49:17.718Z</time>
      </trkpt>
      <trkpt lat="40.09891" lon="-0.602978">
        <ele>746.686767578125</ele>
        <time>2020-06-14T22:49:18.271Z</time>
      </trkpt>
      <trkpt lat="40.099258" lon="-0.602831">
        <ele>744.0772094726562</ele>
        <time>2020-06-14T22:49:18.831Z</time>
      </trkpt>
      <trkpt lat="40.099401" lon="-0.602786">
        <ele>743.5408935546875</ele>
        <time>2020-06-14T22:49:19.394Z</time>
      </trkpt>
      <trkpt lat="40.099527" lon="-0.6027">
        <ele>741.4556274414062</ele>
        <time>2020-06-14T22:49:19.960Z</time>
      </trkpt>
      <trkpt lat="40.099779" lon="-0.602748">
        <ele>744.9398803710938</ele>
        <time>2020-06-14T22:49:20.531Z</time>
      </trkpt>
      <trkpt lat="40.099969" lon="-0.602761">
        <ele>746.3527221679688</ele>
        <time>2020-06-14T22:49:21.106Z</time>
      </trkpt>
      <trkpt lat="40.100148" lon="-0.602861">
        <ele>750.1165161132812</ele>
        <time>2020-06-14T22:49:21.684Z</time>
      </trkpt>
      <trkpt lat="40.100315" lon="-0.603017">
        <ele>755.5865478515625</ele>
        <time>2020-06-14T22:49:22.267Z</time>
      </trkpt>
      <trkpt lat="40.100485" lon="-0.603074">
        <ele>758.1043701171875</ele>
        <time>2020-06-14T22:49:22.853Z</time>
      </trkpt>
      <trkpt lat="40.100532" lon="-0.603061">
        <ele>757.9088134765625</ele>
        <time>2020-06-14T22:49:23.440Z</time>
      </trkpt>
      <trkpt lat="40.100612" lon="-0.602965">
        <ele>755.4306640625</ele>
        <time>2020-06-14T22:49:24.029Z</time>
      </trkpt>
      <trkpt lat="40.100746" lon="-0.602862">
        <ele>753.2314453125</ele>
        <time>2020-06-14T22:49:24.621Z</time>
      </trkpt>
      <trkpt lat="40.100844" lon="-0.602841">
        <ele>753.1222534179688</ele>
        <time>2020-06-14T22:49:25.215Z</time>
      </trkpt>
      <trkpt lat="40.101005" lon="-0.602884">
        <ele>755.08154296875</ele>
        <time>2020-06-14T22:49:25.813Z</time>
      </trkpt>
      <trkpt lat="40.101159" lon="-0.60286">
        <ele>755.1583251953125</ele>
        <time>2020-06-14T22:49:26.414Z</time>
      </trkpt>
      <trkpt lat="40.101297" lon="-0.602777">
        <ele>752.63525390625</ele>
        <time>2020-06-14T22:49:27.018Z</time>
      </trkpt>
      <trkpt lat="40.101442" lon="-0.602713">
        <ele>747.2156982421875</ele>
        <time>2020-06-14T22:49:27.625Z</time>
      </trkpt>
      <trkpt lat="40.101572" lon="-0.602608">
        <ele>741.0427856445312</ele>
        <time>2020-06-14T22:49:28.235Z</time>
      </trkpt>
      <trkpt lat="40.101731" lon="-0.602578">
        <ele>736.0576171875</ele>
        <time>2020-06-14T22:49:28.848Z</time>
      </trkpt>
      <trkpt lat="40.101783" lon="-0.602591">
        <ele>734.7162475585938</ele>
        <time>2020-06-14T22:49:29.462Z</time>
      </trkpt>
      <trkpt lat="40.101893" lon="-0.602699">
        <ele>733.6171875</ele>
        <time>2020-06-14T22:49:30.079Z</time>
      </trkpt>
      <trkpt lat="40.101917" lon="-0.602902">
        <ele>737.2526245117188</ele>
        <time>2020-06-14T22:49:30.699Z</time>
      </trkpt>
      <trkpt lat="40.102041" lon="-0.603154">
        <ele>739.8026733398438</ele>
        <time>2020-06-14T22:49:31.324Z</time>
      </trkpt>
      <trkpt lat="40.102079" lon="-0.603293">
        <ele>744.2587280273438</ele>
        <time>2020-06-14T22:49:31.951Z</time>
      </trkpt>
      <trkpt lat="40.10209" lon="-0.603435">
        <ele>749.2115478515625</ele>
        <time>2020-06-14T22:49:32.580Z</time>
      </trkpt>
      <trkpt lat="40.102155" lon="-0.603552">
        <ele>753.400146484375</ele>
        <time>2020-06-14T22:49:33.211Z</time>
      </trkpt>
      <trkpt lat="40.102188" lon="-0.603668">
        <ele>757.6546630859375</ele>
        <time>2020-06-14T22:49:33.844Z</time>
      </trkpt>
      <trkpt lat="40.102566" lon="-0.60397">
        <ele>762.6976928710938</ele>
        <time>2020-06-14T22:49:34.486Z</time>
      </trkpt>
      <trkpt lat="40.102945" lon="-0.604035">
        <ele>761.7940063476562</ele>
        <time>2020-06-14T22:49:35.136Z</time>
      </trkpt>
      <trkpt lat="40.102999" lon="-0.604065">
        <ele>763.9248657226562</ele>
        <time>2020-06-14T22:49:35.787Z</time>
      </trkpt>
      <trkpt lat="40.103049" lon="-0.60412">
        <ele>766.71435546875</ele>
        <time>2020-06-14T22:49:36.439Z</time>
      </trkpt>
      <trkpt lat="40.103202" lon="-0.604228">
        <ele>773.441650390625</ele>
        <time>2020-06-14T22:49:37.095Z</time>
      </trkpt>
      <trkpt lat="40.10333" lon="-0.604406">
        <ele>782.6923217773438</ele>
        <time>2020-06-14T22:49:37.754Z</time>
      </trkpt>
      <trkpt lat="40.103421" lon="-0.604438">
        <ele>786.7596435546875</ele>
        <time>2020-06-14T22:49:38.415Z</time>
      </trkpt>
      <trkpt lat="40.103602" lon="-0.604408">
        <ele>791.2540893554688</ele>
        <time>2020-06-14T22:49:39.080Z</time>
      </trkpt>
      <trkpt lat="40.103943" lon="-0.604215">
        <ele>797.6386108398438</ele>
        <time>2020-06-14T22:49:39.752Z</time>
      </trkpt>
      <trkpt lat="40.104026" lon="-0.604054">
        <ele>795.5401611328125</ele>
        <time>2020-06-14T22:49:40.427Z</time>
      </trkpt>
      <trkpt lat="40.10403" lon="-0.603984">
        <ele>793.0493774414062</ele>
        <time>2020-06-14T22:49:41.103Z</time>
      </trkpt>
      <trkpt lat="40.104132" lon="-0.604002">
        <ele>798.7579956054688</ele>
        <time>2020-06-14T22:49:41.781Z</time>
      </trkpt>
      <trkpt lat="40.10418" lon="-0.604033">
        <ele>802.3093872070312</ele>
        <time>2020-06-14T22:49:42.461Z</time>
      </trkpt>
      <trkpt lat="40.104227" lon="-0.604039">
        <ele>804.851806640625</ele>
        <time>2020-06-14T22:49:43.141Z</time>
      </trkpt>
      <trkpt lat="40.104288" lon="-0.603933">
        <ele>803.7827758789062</ele>
        <time>2020-06-14T22:49:43.823Z</time>
      </trkpt>
      <trkpt lat="40.104402" lon="-0.603855">
        <ele>806.3959350585938</ele>
        <time>2020-06-14T22:49:44.508Z</time>
      </trkpt>
      <trkpt lat="40.104563" lon="-0.603647">
        <ele>805.1114501953125</ele>
        <time>2020-06-14T22:49:45.198Z</time>
      </trkpt>
      <trkpt lat="40.104605" lon="-0.603413">
        <ele>796.7659301757812</ele>
        <time>2020-06-14T22:49:45.891Z</time>
      </trkpt>
      <trkpt lat="40.104591" lon="-0.603353">
        <ele>793.4373779296875</ele>
        <time>2020-06-14T22:49:46.585Z</time>
      </trkpt>
      <trkpt lat="40.104558" lon="-0.603486">
        <ele>797.7183227539062</ele>
        <time>2020-06-14T22:49:47.281Z</time>
      </trkpt>
      <trkpt lat="40.10451" lon="-0.603484">
        <ele>795.268310546875</ele>
        <time>2020-06-14T22:49:47.978Z</time>
      </trkpt>
      <trkpt lat="40.104473" lon="-0.60368">
        <ele>802.149169921875</ele>
        <time>2020-06-14T22:49:48.678Z</time>
      </trkpt>
      <trkpt lat="40.104469" lon="-0.603618">
        <ele>799.2000732421875</ele>
        <time>2020-06-14T22:49:49.379Z</time>
      </trkpt>
      <trkpt lat="40.10443" lon="-0.603659">
        <ele>799.1016845703125</ele>
        <time>2020-06-14T22:49:50.081Z</time>
      </trkpt>
      <trkpt lat="40.104393" lon="-0.603793">
        <ele>803.2301635742188</ele>
        <time>2020-06-14T22:49:50.786Z</time>
      </trkpt>
      <trkpt lat="40.104309" lon="-0.603877">
        <ele>802.665771484375</ele>
        <time>2020-06-14T22:49:51.493Z</time>
      </trkpt>
      <trkpt lat="40.104287" lon="-0.60401">
        <ele>806.6898803710938</ele>
        <time>2020-06-14T22:49:52.202Z</time>
      </trkpt>
      <trkpt lat="40.104207" lon="-0.604086">
        <ele>805.6724243164062</ele>
        <time>2020-06-14T22:49:52.913Z</time>
      </trkpt>
      <trkpt lat="40.104044" lon="-0.604131">
        <ele>799.3818969726562</ele>
        <time>2020-06-14T22:49:53.627Z</time>
      </trkpt>
      <trkpt lat="40.104063" lon="-0.604185">
        <ele>802.3897705078125</ele>
        <time>2020-06-14T22:49:54.342Z</time>
      </trkpt>
      <trkpt lat="40.104114" lon="-0.604178">
        <ele>804.6298217773438</ele>
        <time>2020-06-14T22:49:55.058Z</time>
      </trkpt>
      <trkpt lat="40.104107" lon="-0.604373">
        <ele>811.5646362304688</ele>
        <time>2020-06-14T22:49:55.777Z</time>
      </trkpt>
      <trkpt lat="40.104082" lon="-0.604431">
        <ele>812.3240966796875</ele>
        <time>2020-06-14T22:49:56.497Z</time>
      </trkpt>
      <trkpt lat="40.104147" lon="-0.60434">
        <ele>812.2149658203125</ele>
        <time>2020-06-14T22:49:57.219Z</time>
      </trkpt>
      <trkpt lat="40.104167" lon="-0.604394">
        <ele>814.7393188476562</ele>
        <time>2020-06-14T22:49:57.942Z</time>
      </trkpt>
      <trkpt lat="40.104137" lon="-0.604439">
        <ele>814.88330078125</ele>
        <time>2020-06-14T22:49:58.666Z</time>
      </trkpt>
      <trkpt lat="40.104184" lon="-0.604445">
        <ele>817.0441284179688</ele>
        <time>2020-06-14T22:49:59.391Z</time>
      </trkpt>
      <trkpt lat="40.104361" lon="-0.60434">
        <ele>821.201416015625</ele>
        <time>2020-06-14T22:50:00.120Z</time>
      </trkpt>
      <trkpt lat="40.104441" lon="-0.604269">
        <ele>822.3460693359375</ele>
        <time>2020-06-14T22:50:00.851Z</time>
      </trkpt>
      <trkpt lat="40.104464" lon="-0.60432">
        <ele>824.90283203125</ele>
        <time>2020-06-14T22:50:01.582Z</time>
      </trkpt>
      <trkpt lat="40.104373" lon="-0.604371">
        <ele>822.6724243164062</ele>
        <time>2020-06-14T22:50:02.315Z</time>
      </trkpt>
      <trkpt lat="40.10435" lon="-0.604432">
        <ele>823.6094360351562</ele>
        <time>2020-06-14T22:50:03.049Z</time>
      </trkpt>
      <trkpt lat="40.104298" lon="-0.60443">
        <ele>821.3634033203125</ele>
        <time>2020-06-14T22:50:03.785Z</time>
      </trkpt>
      <trkpt lat="40.104264" lon="-0.60447">
        <ele>821.1834716796875</ele>
        <time>2020-06-14T22:50:04.521Z</time>
      </trkpt>
      <trkpt lat="40.104312" lon="-0.604481">
        <ele>823.542236328125</ele>
        <time>2020-06-14T22:50:05.258Z</time>
      </trkpt>
      <trkpt lat="40.104354" lon="-0.604456">
        <ele>824.5260620117188</ele>
        <time>2020-06-14T22:50:05.996Z</time>
      </trkpt>
      <trkpt lat="40.104365" lon="-0.604518">
        <ele>826.922119140625</ele>
        <time>2020-06-14T22:50:06.735Z</time>
      </trkpt>
      <trkpt lat="40.104302" lon="-0.60462">
        <ele>827.4583740234375</ele>
        <time>2020-06-14T22:50:07.476Z</time>
      </trkpt>
      <trkpt lat="40.104252" lon="-0.604641">
        <ele>826.0138549804688</ele>
        <time>2020-06-14T22:50:08.218Z</time>
      </trkpt>
      <trkpt lat="40.104226" lon="-0.604691">
        <ele>826.4995727539062</ele>
        <time>2020-06-14T22:50:08.961Z</time>
      </trkpt>
      <trkpt lat="40.104267" lon="-0.604724">
        <ele>829.3298950195312</ele>
        <time>2020-06-14T22:50:09.705Z</time>
      </trkpt>
      <trkpt lat="40.104268" lon="-0.604784">
        <ele>831.3875122070312</ele>
        <time>2020-06-14T22:50:10.450Z</time>
      </trkpt>
      <trkpt lat="40.104235" lon="-0.604828">
        <ele>831.4799194335938</ele>
        <time>2020-06-14T22:50:11.196Z</time>
      </trkpt>
      <trkpt lat="40.104185" lon="-0.604833">
        <ele>829.5482788085938</ele>
        <time>2020-06-14T22:50:11.943Z</time>
      </trkpt>
      <trkpt lat="40.104129" lon="-0.604932">
        <ele>830.5224609375</ele>
        <time>2020-06-14T22:50:12.692Z</time>
      </trkpt>
      <trkpt lat="40.103993" lon="-0.605002">
        <ele>827.1630249023438</ele>
        <time>2020-06-14T22:50:13.444Z</time>
      </trkpt>
      <trkpt lat="40.103874" lon="-0.605204">
        <ele>828.9519653320312</ele>
        <time>2020-06-14T22:50:14.200Z</time>
      </trkpt>
      <trkpt lat="40.103864" lon="-0.605263">
        <ele>830.5140991210938</ele>
        <time>2020-06-14T22:50:14.957Z</time>
      </trkpt>
      <trkpt lat="40.103897" lon="-0.605308">
        <ele>833.41162109375</ele>
        <time>2020-06-14T22:50:15.715Z</time>
      </trkpt>
      <trkpt lat="40.104" lon="-0.605177">
        <ele>833.3359985351562</ele>
        <time>2020-06-14T22:50:16.476Z</time>
      </trkpt>
      <trkpt lat="40.103974" lon="-0.605298">
        <ele>836.3091430664062</ele>
        <time>2020-06-14T22:50:17.239Z</time>
      </trkpt>
      <trkpt lat="40.103922" lon="-0.605399">
        <ele>836.9513549804688</ele>
        <time>2020-06-14T22:50:18.003Z</time>
      </trkpt>
      <trkpt lat="40.103971" lon="-0.605404">
        <ele>838.334716796875</ele>
        <time>2020-06-14T22:50:18.768Z</time>
      </trkpt>
      <trkpt lat="40.103977" lon="-0.605468">
        <ele>839.6448974609375</ele>
        <time>2020-06-14T22:50:19.534Z</time>
      </trkpt>
      <trkpt lat="40.103923" lon="-0.605569">
        <ele>839.7879638671875</ele>
        <time>2020-06-14T22:50:20.302Z</time>
      </trkpt>
      <trkpt lat="40.103875" lon="-0.605585">
        <ele>838.7321166992188</ele>
        <time>2020-06-14T22:50:21.071Z</time>
      </trkpt>
      <trkpt lat="40.10383" lon="-0.605572">
        <ele>837.3727416992188</ele>
        <time>2020-06-14T22:50:21.841Z</time>
      </trkpt>
      <trkpt lat="40.103825" lon="-0.605634">
        <ele>838.0590209960938</ele>
        <time>2020-06-14T22:50:22.612Z</time>
      </trkpt>
      <trkpt lat="40.103863" lon="-0.605672">
        <ele>839.5635986328125</ele>
        <time>2020-06-14T22:50:23.384Z</time>
      </trkpt>
      <trkpt lat="40.103888" lon="-0.605731">
        <ele>841.0021362304688</ele>
        <time>2020-06-14T22:50:24.157Z</time>
      </trkpt>
      <trkpt lat="40.103972" lon="-0.605982">
        <ele>846.5320434570312</ele>
        <time>2020-06-14T22:50:24.934Z</time>
      </trkpt>
      <trkpt lat="40.103989" lon="-0.606108">
        <ele>848.6436767578125</ele>
        <time>2020-06-14T22:50:25.713Z</time>
      </trkpt>
      <trkpt lat="40.103958" lon="-0.606238">
        <ele>848.5131225585938</ele>
        <time>2020-06-14T22:50:26.494Z</time>
      </trkpt>
      <trkpt lat="40.103925" lon="-0.60655">
        <ele>849.034912109375</ele>
        <time>2020-06-14T22:50:27.280Z</time>
      </trkpt>
      <trkpt lat="40.10385" lon="-0.606741">
        <ele>848.9617309570312</ele>
        <time>2020-06-14T22:50:28.070Z</time>
      </trkpt>
      <trkpt lat="40.103808" lon="-0.606785">
        <ele>848.6185913085938</ele>
        <time>2020-06-14T22:50:28.861Z</time>
      </trkpt>
      <trkpt lat="40.103719" lon="-0.606834">
        <ele>848.3202514648438</ele>
        <time>2020-06-14T22:50:29.654Z</time>
      </trkpt>
      <trkpt lat="40.103726" lon="-0.606902">
        <ele>848.6466064453125</ele>
        <time>2020-06-14T22:50:30.448Z</time>
      </trkpt>
      <trkpt lat="40.103764" lon="-0.606944">
        <ele>848.8482055664062</ele>
        <time>2020-06-14T22:50:31.243Z</time>
      </trkpt>
      <trkpt lat="40.103778" lon="-0.607001">
        <ele>849.25927734375</ele>
        <time>2020-06-14T22:50:32.038Z</time>
      </trkpt>
      <trkpt lat="40.103899" lon="-0.607101">
        <ele>851.161865234375</ele>
        <time>2020-06-14T22:50:32.836Z</time>
      </trkpt>
      <trkpt lat="40.10393" lon="-0.607053">
        <ele>851.4017944335938</ele>
        <time>2020-06-14T22:50:33.635Z</time>
      </trkpt>
      <trkpt lat="40.103972" lon="-0.606877">
        <ele>851.2245483398438</ele>
        <time>2020-06-14T22:50:34.437Z</time>
      </trkpt>
      <trkpt lat="40.104072" lon="-0.60663">
        <ele>851.3589477539062</ele>
        <time>2020-06-14T22:50:35.243Z</time>
      </trkpt>
      <trkpt lat="40.104189" lon="-0.606421">
        <ele>851.9000244140625</ele>
        <time>2020-06-14T22:50:36.053Z</time>
      </trkpt>
      <trkpt lat="40.104242" lon="-0.606399">
        <ele>852.4939575195312</ele>
        <time>2020-06-14T22:50:36.865Z</time>
      </trkpt>
      <trkpt lat="40.10433" lon="-0.606321">
        <ele>853.4227294921875</ele>
        <time>2020-06-14T22:50:37.679Z</time>
      </trkpt>
      <trkpt lat="40.104427" lon="-0.606278">
        <ele>854.702880859375</ele>
        <time>2020-06-14T22:50:38.495Z</time>
      </trkpt>
      <trkpt lat="40.104471" lon="-0.606222">
        <ele>855.2836303710938</ele>
        <time>2020-06-14T22:50:39.312Z</time>
      </trkpt>
      <trkpt lat="40.104489" lon="-0.606143">
        <ele>855.5211791992188</ele>
        <time>2020-06-14T22:50:40.130Z</time>
      </trkpt>
      <trkpt lat="40.104476" lon="-0.606086">
        <ele>855.349609375</ele>
        <time>2020-06-14T22:50:40.949Z</time>
      </trkpt>
      <trkpt lat="40.10443" lon="-0.606052">
        <ele>854.7424926757812</ele>
        <time>2020-06-14T22:50:41.769Z</time>
      </trkpt>
      <trkpt lat="40.104649" lon="-0.606499">
        <ele>857.6959228515625</ele>
        <time>2020-06-14T22:50:42.597Z</time>
      </trkpt>
      <trkpt lat="40.104684" lon="-0.606614">
        <ele>858.2117919921875</ele>
        <time>2020-06-14T22:50:43.427Z</time>
      </trkpt>
      <trkpt lat="40.104708" lon="-0.606822">
        <ele>858.7205200195312</ele>
        <time>2020-06-14T22:50:44.260Z</time>
      </trkpt>
      <trkpt lat="40.10473" lon="-0.606892">
        <ele>859.0420532226562</ele>
        <time>2020-06-14T22:50:45.095Z</time>
      </trkpt>
      <trkpt lat="40.10479" lon="-0.60699">
        <ele>859.8075561523438</ele>
        <time>2020-06-14T22:50:45.931Z</time>
      </trkpt>
      <trkpt lat="40.104866" lon="-0.60707">
        <ele>860.5430908203125</ele>
        <time>2020-06-14T22:50:46.769Z</time>
      </trkpt>
      <trkpt lat="40.10489" lon="-0.607125">
        <ele>860.7734375</ele>
        <time>2020-06-14T22:50:47.608Z</time>
      </trkpt>
      <trkpt lat="40.10497" lon="-0.607571">
        <ele>862.469970703125</ele>
        <time>2020-06-14T22:50:48.454Z</time>
      </trkpt>
      <trkpt lat="40.105152" lon="-0.60796">
        <ele>863.9661865234375</ele>
        <time>2020-06-14T22:50:49.307Z</time>
      </trkpt>
      <trkpt lat="40.105327" lon="-0.608209">
        <ele>866.0443725585938</ele>
        <time>2020-06-14T22:50:50.166Z</time>
      </trkpt>
      <trkpt lat="40.105439" lon="-0.608304">
        <ele>867.0098266601562</ele>
        <time>2020-06-14T22:50:51.027Z</time>
      </trkpt>
      <trkpt lat="40.105496" lon="-0.608335">
        <ele>866.8478393554688</ele>
        <time>2020-06-14T22:50:51.890Z</time>
      </trkpt>
      <trkpt lat="40.105568" lon="-0.60835">
        <ele>866.5563354492188</ele>
        <time>2020-06-14T22:50:52.754Z</time>
      </trkpt>
      <trkpt lat="40.105845" lon="-0.608379">
        <ele>865.331298828125</ele>
        <time>2020-06-14T22:50:53.624Z</time>
      </trkpt>
      <trkpt lat="40.105991" lon="-0.608475">
        <ele>864.1098022460938</ele>
        <time>2020-06-14T22:50:54.497Z</time>
      </trkpt>
      <trkpt lat="40.106104" lon="-0.608632">
        <ele>862.8367919921875</ele>
        <time>2020-06-14T22:50:55.373Z</time>
      </trkpt>
      <trkpt lat="40.106271" lon="-0.608948">
        <ele>861.5400390625</ele>
        <time>2020-06-14T22:50:56.255Z</time>
      </trkpt>
      <trkpt lat="40.106415" lon="-0.609284">
        <ele>856.35693359375</ele>
        <time>2020-06-14T22:50:57.143Z</time>
      </trkpt>
      <trkpt lat="40.106433" lon="-0.609684">
        <ele>859.2735595703125</ele>
        <time>2020-06-14T22:50:58.037Z</time>
      </trkpt>
      <trkpt lat="40.106471" lon="-0.609926">
        <ele>859.2400512695312</ele>
        <time>2020-06-14T22:50:58.935Z</time>
      </trkpt>
      <trkpt lat="40.106497" lon="-0.61034">
        <ele>861.0651245117188</ele>
        <time>2020-06-14T22:50:59.839Z</time>
      </trkpt>
      <trkpt lat="40.106488" lon="-0.610671">
        <ele>863.1531982421875</ele>
        <time>2020-06-14T22:51:00.748Z</time>
      </trkpt>
      <trkpt lat="40.106456" lon="-0.610824">
        <ele>864.7957153320312</ele>
        <time>2020-06-14T22:51:01.660Z</time>
      </trkpt>
      <trkpt lat="40.106243" lon="-0.611385">
        <ele>874.259521484375</ele>
        <time>2020-06-14T22:51:02.581Z</time>
      </trkpt>
      <trkpt lat="40.106113" lon="-0.61168">
        <ele>875.46533203125</ele>
        <time>2020-06-14T22:51:03.508Z</time>
      </trkpt>
      <trkpt lat="40.106054" lon="-0.611935">
        <ele>875.8672485351562</ele>
        <time>2020-06-14T22:51:04.439Z</time>
      </trkpt>
      <trkpt lat="40.105719" lon="-0.612497">
        <ele>878.4632568359375</ele>
        <time>2020-06-14T22:51:05.381Z</time>
      </trkpt>
      <trkpt lat="40.105567" lon="-0.612846">
        <ele>879.03076171875</ele>
        <time>2020-06-14T22:51:06.329Z</time>
      </trkpt>
      <trkpt lat="40.105441" lon="-0.613293">
        <ele>879.5771484375</ele>
        <time>2020-06-14T22:51:07.284Z</time>
      </trkpt>
      <trkpt lat="40.105357" lon="-0.613732">
        <ele>879.7947998046875</ele>
        <time>2020-06-14T22:51:08.246Z</time>
      </trkpt>
      <trkpt lat="40.105291" lon="-0.61385">
        <ele>880.20751953125</ele>
        <time>2020-06-14T22:51:09.210Z</time>
      </trkpt>
      <trkpt lat="40.105285" lon="-0.613914">
        <ele>879.9571533203125</ele>
        <time>2020-06-14T22:51:10.175Z</time>
      </trkpt>
      <trkpt lat="40.10546" lon="-0.614112">
        <ele>877.7947998046875</ele>
        <time>2020-06-14T22:51:11.145Z</time>
      </trkpt>
      <trkpt lat="40.105489" lon="-0.614335">
        <ele>876.5986328125</ele>
        <time>2020-06-14T22:51:12.118Z</time>
      </trkpt>
      <trkpt lat="40.105516" lon="-0.614387">
        <ele>875.8583374023438</ele>
        <time>2020-06-14T22:51:13.092Z</time>
      </trkpt>
      <trkpt lat="40.105605" lon="-0.614464">
        <ele>873.6447143554688</ele>
        <time>2020-06-14T22:51:14.068Z</time>
      </trkpt>
      <trkpt lat="40.105648" lon="-0.614437">
        <ele>872.729248046875</ele>
        <time>2020-06-14T22:51:15.045Z</time>
      </trkpt>
      <trkpt lat="40.10566" lon="-0.614374">
        <ele>872.6068725585938</ele>
        <time>2020-06-14T22:51:16.023Z</time>
      </trkpt>
      <trkpt lat="40.105708" lon="-0.614381">
        <ele>871.495849609375</ele>
        <time>2020-06-14T22:51:17.002Z</time>
      </trkpt>
      <trkpt lat="40.105809" lon="-0.614649">
        <ele>869.7677612304688</ele>
        <time>2020-06-14T22:51:17.986Z</time>
      </trkpt>
      <trkpt lat="40.105813" lon="-0.61479">
        <ele>869.4830932617188</ele>
        <time>2020-06-14T22:51:18.972Z</time>
      </trkpt>
      <trkpt lat="40.105778" lon="-0.615205">
        <ele>869.4447631835938</ele>
        <time>2020-06-14T22:51:19.964Z</time>
      </trkpt>
      <trkpt lat="40.105769" lon="-0.615563">
        <ele>871.6301879882812</ele>
        <time>2020-06-14T22:51:20.962Z</time>
      </trkpt>
      <trkpt lat="40.105702" lon="-0.615691">
        <ele>871.8125610351562</ele>
        <time>2020-06-14T22:51:21.962Z</time>
      </trkpt>
      <trkpt lat="40.105699" lon="-0.615855">
        <ele>871.2510375976562</ele>
        <time>2020-06-14T22:51:22.965Z</time>
      </trkpt>
      <trkpt lat="40.105732" lon="-0.615974">
        <ele>870.5059814453125</ele>
        <time>2020-06-14T22:51:23.970Z</time>
      </trkpt>
      <trkpt lat="40.105655" lon="-0.616302">
        <ele>870.064453125</ele>
        <time>2020-06-14T22:51:24.980Z</time>
      </trkpt>
      <trkpt lat="40.105658" lon="-0.616364">
        <ele>869.755859375</ele>
        <time>2020-06-14T22:51:25.991Z</time>
      </trkpt>
      <trkpt lat="40.105634" lon="-0.616433">
        <ele>869.40673828125</ele>
        <time>2020-06-14T22:51:27.003Z</time>
      </trkpt>
      <trkpt lat="40.105507" lon="-0.616526">
        <ele>869.8446655273438</ele>
        <time>2020-06-14T22:51:28.018Z</time>
      </trkpt>
      <trkpt lat="40.105466" lon="-0.616582">
        <ele>869.767822265625</ele>
        <time>2020-06-14T22:51:29.034Z</time>
      </trkpt>
      <trkpt lat="40.105407" lon="-0.616805">
        <ele>868.296142578125</ele>
        <time>2020-06-14T22:51:30.054Z</time>
      </trkpt>
      <trkpt lat="40.105316" lon="-0.616877">
        <ele>868.0189819335938</ele>
        <time>2020-06-14T22:51:31.076Z</time>
      </trkpt>
      <trkpt lat="40.10526" lon="-0.616873">
        <ele>868.254150390625</ele>
        <time>2020-06-14T22:51:32.099Z</time>
      </trkpt>
      <trkpt lat="40.105193" lon="-0.616907">
        <ele>868.2097778320312</ele>
        <time>2020-06-14T22:51:33.124Z</time>
      </trkpt>
      <trkpt lat="40.105117" lon="-0.617003">
        <ele>867.6770629882812</ele>
        <time>2020-06-14T22:51:34.151Z</time>
      </trkpt>
      <trkpt lat="40.105077" lon="-0.617201">
        <ele>866.3052368164062</ele>
        <time>2020-06-14T22:51:35.181Z</time>
      </trkpt>
      <trkpt lat="40.10497885336656" lon="-0.6175174728152447">
        <ele>867.0382080078125</ele>
        <time>2020-06-14T22:51:36.216Z</time>
      </trkpt>
      <trkpt lat="40.104979" lon="-0.617517">
        <ele>867.0371704101562</ele>
        <time>2020-06-14T22:51:37.251Z</time>
      </trkpt>
      <trkpt lat="40.104968" lon="-0.617664">
        <ele>867.2955932617188</ele>
        <time>2020-06-14T22:51:38.288Z</time>
      </trkpt>
      <trkpt lat="40.104729" lon="-0.618133">
        <ele>869.5464477539062</ele>
        <time>2020-06-14T22:51:39.334Z</time>
      </trkpt>
      <trkpt lat="40.104676" lon="-0.618321">
        <ele>870.4486694335938</ele>
        <time>2020-06-14T22:51:40.383Z</time>
      </trkpt>
      <trkpt lat="40.104701" lon="-0.618371">
        <ele>870.6886596679688</ele>
        <time>2020-06-14T22:51:41.433Z</time>
      </trkpt>
      <trkpt lat="40.104713" lon="-0.618509">
        <ele>871.3509521484375</ele>
        <time>2020-06-14T22:51:42.485Z</time>
      </trkpt>
      <trkpt lat="40.104753" lon="-0.618647">
        <ele>872.0132446289062</ele>
        <time>2020-06-14T22:51:43.539Z</time>
      </trkpt>
      <trkpt lat="40.104869" lon="-0.618916">
        <ele>873.2281494140625</ele>
        <time>2020-06-14T22:51:44.598Z</time>
      </trkpt>
      <trkpt lat="40.104919" lon="-0.618929">
        <ele>873.2749633789062</ele>
        <time>2020-06-14T22:51:45.658Z</time>
      </trkpt>
      <trkpt lat="40.104974" lon="-0.618889">
        <ele>873.1309814453125</ele>
        <time>2020-06-14T22:51:46.719Z</time>
      </trkpt>
      <trkpt lat="40.105186" lon="-0.618633">
        <ele>871.946044921875</ele>
        <time>2020-06-14T22:51:47.786Z</time>
      </trkpt>
      <trkpt lat="40.10534" lon="-0.618507">
        <ele>871.34130859375</ele>
        <time>2020-06-14T22:51:48.857Z</time>
      </trkpt>
      <trkpt lat="40.105517" lon="-0.618474">
        <ele>870.1934204101562</ele>
        <time>2020-06-14T22:51:49.931Z</time>
      </trkpt>
      <trkpt lat="40.105731" lon="-0.61846">
        <ele>867.5586547851562</ele>
        <time>2020-06-14T22:51:51.010Z</time>
      </trkpt>
      <trkpt lat="40.105824" lon="-0.61852">
        <ele>866.7307739257812</ele>
        <time>2020-06-14T22:51:52.091Z</time>
      </trkpt>
      <trkpt lat="40.105877" lon="-0.618583">
        <ele>866.397216796875</ele>
        <time>2020-06-14T22:51:53.173Z</time>
      </trkpt>
      <trkpt lat="40.105895" lon="-0.618692">
        <ele>866.7044067382812</ele>
        <time>2020-06-14T22:51:54.257Z</time>
      </trkpt>
      <trkpt lat="40.106003" lon="-0.618924">
        <ele>866.3507080078125</ele>
        <time>2020-06-14T22:51:55.345Z</time>
      </trkpt>
      <trkpt lat="40.106047" lon="-0.619137">
        <ele>866.4099731445312</ele>
        <time>2020-06-14T22:51:56.436Z</time>
      </trkpt>
      <trkpt lat="40.106078" lon="-0.619181">
        <ele>866.2335815429688</ele>
        <time>2020-06-14T22:51:57.528Z</time>
      </trkpt>
      <trkpt lat="40.106192" lon="-0.619487">
        <ele>866.10400390625</ele>
        <time>2020-06-14T22:51:58.626Z</time>
      </trkpt>
      <trkpt lat="40.106255" lon="-0.619851">
        <ele>866.369384765625</ele>
        <time>2020-06-14T22:51:59.729Z</time>
      </trkpt>
      <trkpt lat="40.106434" lon="-0.620086">
        <ele>865.4839477539062</ele>
        <time>2020-06-14T22:52:00.837Z</time>
      </trkpt>
      <trkpt lat="40.106569" lon="-0.620329">
        <ele>865.2306518554688</ele>
        <time>2020-06-14T22:52:01.950Z</time>
      </trkpt>
      <trkpt lat="40.106612" lon="-0.620441">
        <ele>865.47900390625</ele>
        <time>2020-06-14T22:52:03.065Z</time>
      </trkpt>
      <trkpt lat="40.106652" lon="-0.620844">
        <ele>866.3963623046875</ele>
        <time>2020-06-14T22:52:04.186Z</time>
      </trkpt>
      <trkpt lat="40.106631" lon="-0.620947">
        <ele>866.7191162109375</ele>
        <time>2020-06-14T22:52:05.309Z</time>
      </trkpt>
      <trkpt lat="40.106629" lon="-0.621147">
        <ele>867.2062377929688</ele>
        <time>2020-06-14T22:52:06.435Z</time>
      </trkpt>
      <trkpt lat="40.106578" lon="-0.621422">
        <ele>868.0496826171875</ele>
        <time>2020-06-14T22:52:07.565Z</time>
      </trkpt>
      <trkpt lat="40.106662" lon="-0.621551">
        <ele>868.056884765625</ele>
        <time>2020-06-14T22:52:08.698Z</time>
      </trkpt>
      <trkpt lat="40.106842" lon="-0.621621">
        <ele>867.587158203125</ele>
        <time>2020-06-14T22:52:09.835Z</time>
      </trkpt>
      <trkpt lat="40.106937" lon="-0.62162">
        <ele>867.3555908203125</ele>
        <time>2020-06-14T22:52:10.973Z</time>
      </trkpt>
      <trkpt lat="40.106982" lon="-0.621645">
        <ele>867.3375854492188</ele>
        <time>2020-06-14T22:52:12.112Z</time>
      </trkpt>
      <trkpt lat="40.107273" lon="-0.621644">
        <ele>866.429931640625</ele>
        <time>2020-06-14T22:52:13.257Z</time>
      </trkpt>
      <trkpt lat="40.107635" lon="-0.621749">
        <ele>865.3896484375</ele>
        <time>2020-06-14T22:52:14.410Z</time>
      </trkpt>
      <trkpt lat="40.107875" lon="-0.621916">
        <ele>864.6385498046875</ele>
        <time>2020-06-14T22:52:15.568Z</time>
      </trkpt>
      <trkpt lat="40.107961" lon="-0.622052">
        <ele>864.5209350585938</ele>
        <time>2020-06-14T22:52:16.729Z</time>
      </trkpt>
      <trkpt lat="40.108018" lon="-0.622184">
        <ele>864.3990478515625</ele>
        <time>2020-06-14T22:52:17.892Z</time>
      </trkpt>
      <trkpt lat="40.108017" lon="-0.622282">
        <ele>864.1801147460938</ele>
        <time>2020-06-14T22:52:19.057Z</time>
      </trkpt>
      <trkpt lat="40.108082" lon="-0.622351">
        <ele>863.546630859375</ele>
        <time>2020-06-14T22:52:20.223Z</time>
      </trkpt>
      <trkpt lat="40.108131" lon="-0.622515">
        <ele>862.8003540039062</ele>
        <time>2020-06-14T22:52:21.392Z</time>
      </trkpt>
      <trkpt lat="40.108156" lon="-0.622727">
        <ele>862.1116333007812</ele>
        <time>2020-06-14T22:52:22.564Z</time>
      </trkpt>
      <trkpt lat="40.108306" lon="-0.6235">
        <ele>861.8836059570312</ele>
        <time>2020-06-14T22:52:23.749Z</time>
      </trkpt>
      <trkpt lat="40.10835" lon="-0.623619">
        <ele>861.5140991210938</ele>
        <time>2020-06-14T22:52:24.936Z</time>
      </trkpt>
      <trkpt lat="40.108355" lon="-0.623722">
        <ele>861.4721069335938</ele>
        <time>2020-06-14T22:52:26.124Z</time>
      </trkpt>
      <trkpt lat="40.108319" lon="-0.623895">
        <ele>862.1234130859375</ele>
        <time>2020-06-14T22:52:27.315Z</time>
      </trkpt>
      <trkpt lat="40.108336" lon="-0.624244">
        <ele>864.9117431640625</ele>
        <time>2020-06-14T22:52:28.511Z</time>
      </trkpt>
      <trkpt lat="40.108304" lon="-0.62431">
        <ele>865.7348022460938</ele>
        <time>2020-06-14T22:52:29.708Z</time>
      </trkpt>
      <trkpt lat="40.108333" lon="-0.624523">
        <ele>865.8755493164062</ele>
        <time>2020-06-14T22:52:30.909Z</time>
      </trkpt>
      <trkpt lat="40.108455" lon="-0.624791">
        <ele>866.3855590820312</ele>
        <time>2020-06-14T22:52:32.115Z</time>
      </trkpt>
      <trkpt lat="40.108573" lon="-0.624913">
        <ele>866.1094970703125</ele>
        <time>2020-06-14T22:52:33.324Z</time>
      </trkpt>
      <trkpt lat="40.108646" lon="-0.625034">
        <ele>862.34814453125</ele>
        <time>2020-06-14T22:52:34.535Z</time>
      </trkpt>
      <trkpt lat="40.108764" lon="-0.625152">
        <ele>856.82666015625</ele>
        <time>2020-06-14T22:52:35.749Z</time>
      </trkpt>
      <trkpt lat="40.108798" lon="-0.625223">
        <ele>855.2888793945312</ele>
        <time>2020-06-14T22:52:36.964Z</time>
      </trkpt>
      <trkpt lat="40.108764" lon="-0.62554">
        <ele>854.0782470703125</ele>
        <time>2020-06-14T22:52:38.184Z</time>
      </trkpt>
      <trkpt lat="40.108792" lon="-0.625657">
        <ele>852.4729614257812</ele>
        <time>2020-06-14T22:52:39.406Z</time>
      </trkpt>
      <trkpt lat="40.108783" lon="-0.625971">
        <ele>850.8592529296875</ele>
        <time>2020-06-14T22:52:40.633Z</time>
      </trkpt>
      <trkpt lat="40.10875" lon="-0.626245">
        <ele>850.470458984375</ele>
        <time>2020-06-14T22:52:41.864Z</time>
      </trkpt>
      <trkpt lat="40.10876" lon="-0.626458">
        <ele>849.7078857421875</ele>
        <time>2020-06-14T22:52:43.098Z</time>
      </trkpt>
      <trkpt lat="40.108722" lon="-0.626658">
        <ele>851.9323120117188</ele>
        <time>2020-06-14T22:52:44.335Z</time>
      </trkpt>
      <trkpt lat="40.108764" lon="-0.626878">
        <ele>851.061279296875</ele>
        <time>2020-06-14T22:52:45.576Z</time>
      </trkpt>
      <trkpt lat="40.108833" lon="-0.627049">
        <ele>849.332275390625</ele>
        <time>2020-06-14T22:52:46.820Z</time>
      </trkpt>
      <trkpt lat="40.108871" lon="-0.627101">
        <ele>848.35986328125</ele>
        <time>2020-06-14T22:52:48.065Z</time>
      </trkpt>
      <trkpt lat="40.108979" lon="-0.627536">
        <ele>846.44140625</ele>
        <time>2020-06-14T22:52:49.317Z</time>
      </trkpt>
      <trkpt lat="40.108961" lon="-0.627729">
        <ele>846.91650390625</ele>
        <time>2020-06-14T22:52:50.572Z</time>
      </trkpt>
      <trkpt lat="40.108703" lon="-0.628629">
        <ele>854.1106567382812</ele>
        <time>2020-06-14T22:52:51.842Z</time>
      </trkpt>
      <trkpt lat="40.108672" lon="-0.628694">
        <ele>854.3074340820312</ele>
        <time>2020-06-14T22:52:53.113Z</time>
      </trkpt>
      <trkpt lat="40.108585" lon="-0.628789">
        <ele>854.5449829101562</ele>
        <time>2020-06-14T22:52:54.386Z</time>
      </trkpt>
      <trkpt lat="40.108528" lon="-0.628816">
        <ele>854.5737915039062</ele>
        <time>2020-06-14T22:52:55.660Z</time>
      </trkpt>
      <trkpt lat="40.108261" lon="-0.628705">
        <ele>853.8538818359375</ele>
        <time>2020-06-14T22:52:56.940Z</time>
      </trkpt>
      <trkpt lat="40.108167" lon="-0.628675">
        <ele>853.6331176757812</ele>
        <time>2020-06-14T22:52:58.222Z</time>
      </trkpt>
      <trkpt lat="40.108117" lon="-0.628675">
        <ele>853.5731201171875</ele>
        <time>2020-06-14T22:52:59.505Z</time>
      </trkpt>
      <trkpt lat="40.107968" lon="-0.628871">
        <ele>853.7989501953125</ele>
        <time>2020-06-14T22:53:00.792Z</time>
      </trkpt>
      <trkpt lat="40.107917" lon="-0.628928">
        <ele>853.3260498046875</ele>
        <time>2020-06-14T22:53:02.081Z</time>
      </trkpt>
      <trkpt lat="40.107866" lon="-0.628957">
        <ele>854.0099487304688</ele>
        <time>2020-06-14T22:53:03.371Z</time>
      </trkpt>
      <trkpt lat="40.107819" lon="-0.628949">
        <ele>854.9364624023438</ele>
        <time>2020-06-14T22:53:04.662Z</time>
      </trkpt>
      <trkpt lat="40.107641" lon="-0.62882">
        <ele>858.2258911132812</ele>
        <time>2020-06-14T22:53:05.957Z</time>
      </trkpt>
      <trkpt lat="40.107556" lon="-0.628796">
        <ele>859.7352294921875</ele>
        <time>2020-06-14T22:53:07.253Z</time>
      </trkpt>
      <trkpt lat="40.107409" lon="-0.628668">
        <ele>864.1096801757812</ele>
        <time>2020-06-14T22:53:08.553Z</time>
      </trkpt>
      <trkpt lat="40.107403" lon="-0.628606">
        <ele>865.4462890625</ele>
        <time>2020-06-14T22:53:09.854Z</time>
      </trkpt>
      <trkpt lat="40.107189" lon="-0.628483">
        <ele>869.160888671875</ele>
        <time>2020-06-14T22:53:11.160Z</time>
      </trkpt>
      <trkpt lat="40.107138" lon="-0.628497">
        <ele>869.3096313476562</ele>
        <time>2020-06-14T22:53:12.467Z</time>
      </trkpt>
      <trkpt lat="40.107065" lon="-0.628615">
        <ele>868.2134399414062</ele>
        <time>2020-06-14T22:53:13.776Z</time>
      </trkpt>
      <trkpt lat="40.10704" lon="-0.628787">
        <ele>865.8606567382812</ele>
        <time>2020-06-14T22:53:15.088Z</time>
      </trkpt>
      <trkpt lat="40.106958" lon="-0.629072">
        <ele>864.6764526367188</ele>
        <time>2020-06-14T22:53:16.404Z</time>
      </trkpt>
      <trkpt lat="40.107029" lon="-0.629543">
        <ele>861.5641479492188</ele>
        <time>2020-06-14T22:53:17.728Z</time>
      </trkpt>
      <trkpt lat="40.107216" lon="-0.629863">
        <ele>857.1060180664062</ele>
        <time>2020-06-14T22:53:19.058Z</time>
      </trkpt>
      <trkpt lat="40.107401" lon="-0.630028">
        <ele>852.7147216796875</ele>
        <time>2020-06-14T22:53:20.392Z</time>
      </trkpt>
      <trkpt lat="40.107499" lon="-0.630073">
        <ele>850.4902954101562</ele>
        <time>2020-06-14T22:53:21.728Z</time>
      </trkpt>
      <trkpt lat="40.107669" lon="-0.630346">
        <ele>844.7517700195312</ele>
        <time>2020-06-14T22:53:23.070Z</time>
      </trkpt>
      <trkpt lat="40.10763" lon="-0.630427">
        <ele>845.2484741210938</ele>
        <time>2020-06-14T22:53:24.413Z</time>
      </trkpt>
      <trkpt lat="40.107515" lon="-0.630795">
        <ele>843.6390380859375</ele>
        <time>2020-06-14T22:53:25.762Z</time>
      </trkpt>
      <trkpt lat="40.107509" lon="-0.630888">
        <ele>842.4512329101562</ele>
        <time>2020-06-14T22:53:27.113Z</time>
      </trkpt>
      <trkpt lat="40.107461" lon="-0.630967">
        <ele>842.523193359375</ele>
        <time>2020-06-14T22:53:28.465Z</time>
      </trkpt>
      <trkpt lat="40.107353" lon="-0.631043">
        <ele>844.150146484375</ele>
        <time>2020-06-14T22:53:29.820Z</time>
      </trkpt>
      <trkpt lat="40.107126" lon="-0.630987">
        <ele>850.6758422851562</ele>
        <time>2020-06-14T22:53:31.179Z</time>
      </trkpt>
      <trkpt lat="40.107009" lon="-0.631148">
        <ele>851.4166870117188</ele>
        <time>2020-06-14T22:53:32.542Z</time>
      </trkpt>
      <trkpt lat="40.106945" lon="-0.631382">
        <ele>849.8352661132812</ele>
        <time>2020-06-14T22:53:33.909Z</time>
      </trkpt>
      <trkpt lat="40.106917" lon="-0.631582">
        <ele>848.877197265625</ele>
        <time>2020-06-14T22:53:35.279Z</time>
      </trkpt>
      <trkpt lat="40.106925" lon="-0.631946">
        <ele>848.75244140625</ele>
        <time>2020-06-14T22:53:36.654Z</time>
      </trkpt>
      <trkpt lat="40.106893" lon="-0.632046">
        <ele>849.2515869140625</ele>
        <time>2020-06-14T22:53:38.031Z</time>
      </trkpt>
      <trkpt lat="40.106784" lon="-0.632209">
        <ele>851.1266479492188</ele>
        <time>2020-06-14T22:53:39.411Z</time>
      </trkpt>
      <trkpt lat="40.106673" lon="-0.632556">
        <ele>855.7722778320312</ele>
        <time>2020-06-14T22:53:40.797Z</time>
      </trkpt>
      <trkpt lat="40.106622" lon="-0.632603">
        <ele>856.9624633789062</ele>
        <time>2020-06-14T22:53:42.184Z</time>
      </trkpt>
      <trkpt lat="40.106667" lon="-0.632662">
        <ele>857.1339111328125</ele>
        <time>2020-06-14T22:53:43.573Z</time>
      </trkpt>
      <trkpt lat="40.10671" lon="-0.632688">
        <ele>857.3438720703125</ele>
        <time>2020-06-14T22:53:44.963Z</time>
      </trkpt>
      <trkpt lat="40.106856" lon="-0.632758">
        <ele>857.727783203125</ele>
        <time>2020-06-14T22:53:46.356Z</time>
      </trkpt>
      <trkpt lat="40.106968" lon="-0.632785">
        <ele>857.5418701171875</ele>
        <time>2020-06-14T22:53:47.751Z</time>
      </trkpt>
      <trkpt lat="40.107012" lon="-0.632816">
        <ele>857.8358154296875</ele>
        <time>2020-06-14T22:53:49.147Z</time>
      </trkpt>
      <trkpt lat="40.107086" lon="-0.632913">
        <ele>859.1375732421875</ele>
        <time>2020-06-14T22:53:50.545Z</time>
      </trkpt>
      <trkpt lat="40.10726" lon="-0.633233">
        <ele>865.6282348632812</ele>
        <time>2020-06-14T22:53:51.949Z</time>
      </trkpt>
      <trkpt lat="40.107305" lon="-0.633231">
        <ele>866.4212646484375</ele>
        <time>2020-06-14T22:53:53.354Z</time>
      </trkpt>
      <trkpt lat="40.107336" lon="-0.633182">
        <ele>866.5676879882812</ele>
        <time>2020-06-14T22:53:54.760Z</time>
      </trkpt>
      <trkpt lat="40.107423" lon="-0.632974">
        <ele>865.7577514648438</ele>
        <time>2020-06-14T22:53:56.170Z</time>
      </trkpt>
      <trkpt lat="40.107436" lon="-0.632911">
        <ele>864.631103515625</ele>
        <time>2020-06-14T22:53:57.581Z</time>
      </trkpt>
      <trkpt lat="40.10741" lon="-0.632847">
        <ele>862.781005859375</ele>
        <time>2020-06-14T22:53:58.993Z</time>
      </trkpt>
      <trkpt lat="40.107453" lon="-0.632884">
        <ele>864.3539428710938</ele>
        <time>2020-06-14T22:54:00.406Z</time>
      </trkpt>
      <trkpt lat="40.107508" lon="-0.633032">
        <ele>868.4033813476562</ele>
        <time>2020-06-14T22:54:01.821Z</time>
      </trkpt>
      <trkpt lat="40.107525" lon="-0.633182">
        <ele>869.9691162109375</ele>
        <time>2020-06-14T22:54:03.239Z</time>
      </trkpt>
      <trkpt lat="40.10755" lon="-0.633245">
        <ele>870.9481201171875</ele>
        <time>2020-06-14T22:54:04.658Z</time>
      </trkpt>
      <trkpt lat="40.107623" lon="-0.633333">
        <ele>873.0009765625</ele>
        <time>2020-06-14T22:54:06.079Z</time>
      </trkpt>
      <trkpt lat="40.107726" lon="-0.633504">
        <ele>877.60302734375</ele>
        <time>2020-06-14T22:54:07.503Z</time>
      </trkpt>
      <trkpt lat="40.107723" lon="-0.633835">
        <ele>881.9031372070312</ele>
        <time>2020-06-14T22:54:08.932Z</time>
      </trkpt>
      <trkpt lat="40.107893" lon="-0.634067">
        <ele>886.1896362304688</ele>
        <time>2020-06-14T22:54:10.366Z</time>
      </trkpt>
      <trkpt lat="40.107828" lon="-0.634164">
        <ele>885.4889526367188</ele>
        <time>2020-06-14T22:54:11.802Z</time>
      </trkpt>
      <trkpt lat="40.107829" lon="-0.634227">
        <ele>885.344970703125</ele>
        <time>2020-06-14T22:54:13.239Z</time>
      </trkpt>
      <trkpt lat="40.107787" lon="-0.634255">
        <ele>884.9754638671875</ele>
        <time>2020-06-14T22:54:14.677Z</time>
      </trkpt>
      <trkpt lat="40.107881" lon="-0.63422">
        <ele>885.736083984375</ele>
        <time>2020-06-14T22:54:16.117Z</time>
      </trkpt>
      <trkpt lat="40.107928" lon="-0.634229">
        <ele>886.0528564453125</ele>
        <time>2020-06-14T22:54:17.558Z</time>
      </trkpt>
      <trkpt lat="40.107923" lon="-0.634354">
        <ele>885.7169189453125</ele>
        <time>2020-06-14T22:54:19.001Z</time>
      </trkpt>
      <trkpt lat="40.10794" lon="-0.634409">
        <ele>885.5858764648438</ele>
        <time>2020-06-14T22:54:20.445Z</time>
      </trkpt>
      <trkpt lat="40.107922" lon="-0.634464">
        <ele>885.4457397460938</ele>
        <time>2020-06-14T22:54:21.890Z</time>
      </trkpt>
      <trkpt lat="40.107992" lon="-0.63465">
        <ele>883.9124755859375</ele>
        <time>2020-06-14T22:54:23.338Z</time>
      </trkpt>
      <trkpt lat="40.10804" lon="-0.634983">
        <ele>881.6215209960938</ele>
        <time>2020-06-14T22:54:24.791Z</time>
      </trkpt>
      <trkpt lat="40.108087" lon="-0.635119">
        <ele>880.10498046875</ele>
        <time>2020-06-14T22:54:26.246Z</time>
      </trkpt>
      <trkpt lat="40.108095" lon="-0.635179">
        <ele>879.8026733398438</ele>
        <time>2020-06-14T22:54:27.702Z</time>
      </trkpt>
      <trkpt lat="40.108062" lon="-0.635381">
        <ele>880.510498046875</ele>
        <time>2020-06-14T22:54:29.161Z</time>
      </trkpt>
      <trkpt lat="40.108097" lon="-0.635638">
        <ele>879.444091796875</ele>
        <time>2020-06-14T22:54:30.624Z</time>
      </trkpt>
      <trkpt lat="40.108255" lon="-0.636201">
        <ele>876.1072387695312</ele>
        <time>2020-06-14T22:54:32.096Z</time>
      </trkpt>
      <trkpt lat="40.108277" lon="-0.636339">
        <ele>877.3070678710938</ele>
        <time>2020-06-14T22:54:33.571Z</time>
      </trkpt>
      <trkpt lat="40.10829" lon="-0.636547">
        <ele>877.543701171875</ele>
        <time>2020-06-14T22:54:35.049Z</time>
      </trkpt>
      <trkpt lat="40.108283" lon="-0.636801">
        <ele>877.9408569335938</ele>
        <time>2020-06-14T22:54:36.531Z</time>
      </trkpt>
      <trkpt lat="40.108367" lon="-0.63735">
        <ele>880.5302734375</ele>
        <time>2020-06-14T22:54:38.021Z</time>
      </trkpt>
      <trkpt lat="40.108353" lon="-0.637461">
        <ele>881.4469604492188</ele>
        <time>2020-06-14T22:54:39.513Z</time>
      </trkpt>
      <trkpt lat="40.108374" lon="-0.637518">
        <ele>881.680908203125</ele>
        <time>2020-06-14T22:54:41.006Z</time>
      </trkpt>
      <trkpt lat="40.108417" lon="-0.637537">
        <ele>881.45654296875</ele>
        <time>2020-06-14T22:54:42.500Z</time>
      </trkpt>
      <trkpt lat="40.108524" lon="-0.637522">
        <ele>880.5562133789062</ele>
        <time>2020-06-14T22:54:43.996Z</time>
      </trkpt>
      <trkpt lat="40.10869" lon="-0.637552">
        <ele>879.6131591796875</ele>
        <time>2020-06-14T22:54:45.495Z</time>
      </trkpt>
      <trkpt lat="40.108848" lon="-0.63756">
        <ele>879.9752807617188</ele>
        <time>2020-06-14T22:54:46.998Z</time>
      </trkpt>
      <trkpt lat="40.108929" lon="-0.637587">
        <ele>881.07666015625</ele>
        <time>2020-06-14T22:54:48.502Z</time>
      </trkpt>
      <trkpt lat="40.108969" lon="-0.63762">
        <ele>881.7857666015625</ele>
        <time>2020-06-14T22:54:50.007Z</time>
      </trkpt>
      <trkpt lat="40.109024" lon="-0.637633">
        <ele>882.4888305664062</ele>
        <time>2020-06-14T22:54:51.513Z</time>
      </trkpt>
      <trkpt lat="40.109075" lon="-0.637625">
        <ele>882.9723510742188</ele>
        <time>2020-06-14T22:54:53.020Z</time>
      </trkpt>
      <trkpt lat="40.109115" lon="-0.637579">
        <ele>883.0179443359375</ele>
        <time>2020-06-14T22:54:54.528Z</time>
      </trkpt>
      <trkpt lat="40.109152" lon="-0.637388">
        <ele>881.8133544921875</ele>
        <time>2020-06-14T22:54:56.039Z</time>
      </trkpt>
      <trkpt lat="40.10915" lon="-0.637326">
        <ele>881.2710571289062</ele>
        <time>2020-06-14T22:54:57.551Z</time>
      </trkpt>
      <trkpt lat="40.109171" lon="-0.637272">
        <ele>881.0443115234375</ele>
        <time>2020-06-14T22:54:59.064Z</time>
      </trkpt>
      <trkpt lat="40.109387" lon="-0.637218">
        <ele>882.9231567382812</ele>
        <time>2020-06-14T22:55:00.582Z</time>
      </trkpt>
      <trkpt lat="40.109577" lon="-0.637237">
        <ele>885.0512084960938</ele>
        <time>2020-06-14T22:55:02.104Z</time>
      </trkpt>
      <trkpt lat="40.109687" lon="-0.637223">
        <ele>886.5928344726562</ele>
        <time>2020-06-14T22:55:03.628Z</time>
      </trkpt>
      <trkpt lat="40.109877" lon="-0.637136">
        <ele>889.2396240234375</ele>
        <time>2020-06-14T22:55:05.156Z</time>
      </trkpt>
      <trkpt lat="40.10993" lon="-0.636863">
        <ele>888.1646118164062</ele>
        <time>2020-06-14T22:55:06.688Z</time>
      </trkpt>
      <trkpt lat="40.110094" lon="-0.636665">
        <ele>889.5704956054688</ele>
        <time>2020-06-14T22:55:08.225Z</time>
      </trkpt>
      <trkpt lat="40.1102" lon="-0.636616">
        <ele>890.9217529296875</ele>
        <time>2020-06-14T22:55:09.764Z</time>
      </trkpt>
      <trkpt lat="40.110356" lon="-0.63659">
        <ele>893.3549194335938</ele>
        <time>2020-06-14T22:55:11.306Z</time>
      </trkpt>
      <trkpt lat="40.110399" lon="-0.636562">
        <ele>893.8756713867188</ele>
        <time>2020-06-14T22:55:12.849Z</time>
      </trkpt>
      <trkpt lat="40.110472" lon="-0.636459">
        <ele>893.6569213867188</ele>
        <time>2020-06-14T22:55:14.394Z</time>
      </trkpt>
      <trkpt lat="40.110519" lon="-0.636427">
        <ele>893.3137817382812</ele>
        <time>2020-06-14T22:55:15.940Z</time>
      </trkpt>
      <trkpt lat="40.110731" lon="-0.636369">
        <ele>892.3875122070312</ele>
        <time>2020-06-14T22:55:17.490Z</time>
      </trkpt>
      <trkpt lat="40.110796" lon="-0.636373">
        <ele>892.2603759765625</ele>
        <time>2020-06-14T22:55:19.042Z</time>
      </trkpt>
      <trkpt lat="40.110962" lon="-0.636421">
        <ele>892.2075805664062</ele>
        <time>2020-06-14T22:55:20.597Z</time>
      </trkpt>
      <trkpt lat="40.11109" lon="-0.636519">
        <ele>892.6058959960938</ele>
        <time>2020-06-14T22:55:22.155Z</time>
      </trkpt>
      <trkpt lat="40.111133" lon="-0.636572">
        <ele>893.2713012695312</ele>
        <time>2020-06-14T22:55:23.714Z</time>
      </trkpt>
      <trkpt lat="40.111233" lon="-0.636594">
        <ele>893.7752075195312</ele>
        <time>2020-06-14T22:55:25.275Z</time>
      </trkpt>
      <trkpt lat="40.111324" lon="-0.636571">
        <ele>894.048583984375</ele>
        <time>2020-06-14T22:55:26.838Z</time>
      </trkpt>
      <trkpt lat="40.111382" lon="-0.636584">
        <ele>894.691650390625</ele>
        <time>2020-06-14T22:55:28.402Z</time>
      </trkpt>
      <trkpt lat="40.111487" lon="-0.636575">
        <ele>895.4655151367188</ele>
        <time>2020-06-14T22:55:29.968Z</time>
      </trkpt>
      <trkpt lat="40.111646" lon="-0.636617">
        <ele>897.3048095703125</ele>
        <time>2020-06-14T22:55:31.538Z</time>
      </trkpt>
      <trkpt lat="40.111728" lon="-0.636822">
        <ele>899.7896118164062</ele>
        <time>2020-06-14T22:55:33.111Z</time>
      </trkpt>
      <trkpt lat="40.111851" lon="-0.636961">
        <ele>900.604248046875</ele>
        <time>2020-06-14T22:55:34.688Z</time>
      </trkpt>
      <trkpt lat="40.111905" lon="-0.636978">
        <ele>900.7506103515625</ele>
        <time>2020-06-14T22:55:36.266Z</time>
      </trkpt>
      <trkpt lat="40.11207" lon="-0.636971">
        <ele>900.9150390625</ele>
        <time>2020-06-14T22:55:37.847Z</time>
      </trkpt>
      <trkpt lat="40.112282" lon="-0.636916">
        <ele>901.9833984375</ele>
        <time>2020-06-14T22:55:39.432Z</time>
      </trkpt>
      <trkpt lat="40.112312" lon="-0.636872">
        <ele>901.9882202148438</ele>
        <time>2020-06-14T22:55:41.018Z</time>
      </trkpt>
      <trkpt lat="40.112323" lon="-0.636812">
        <ele>901.7794799804688</ele>
        <time>2020-06-14T22:55:42.605Z</time>
      </trkpt>
      <trkpt lat="40.112288" lon="-0.63664">
        <ele>900.7020263671875</ele>
        <time>2020-06-14T22:55:44.195Z</time>
      </trkpt>
      <trkpt lat="40.112325" lon="-0.636582">
        <ele>900.6900634765625</ele>
        <time>2020-06-14T22:55:45.786Z</time>
      </trkpt>
      <trkpt lat="40.112371" lon="-0.636581">
        <ele>901.016357421875</ele>
        <time>2020-06-14T22:55:47.378Z</time>
      </trkpt>
      <trkpt lat="40.112503" lon="-0.63667">
        <ele>902.3937377929688</ele>
        <time>2020-06-14T22:55:48.973Z</time>
      </trkpt>
      <trkpt lat="40.112613" lon="-0.636721">
        <ele>903.5328369140625</ele>
        <time>2020-06-14T22:55:50.570Z</time>
      </trkpt>
      <trkpt lat="40.112797" lon="-0.636863">
        <ele>906.3211669921875</ele>
        <time>2020-06-14T22:55:52.171Z</time>
      </trkpt>
      <trkpt lat="40.113037" lon="-0.636926">
        <ele>907.1350708007812</ele>
        <time>2020-06-14T22:55:53.777Z</time>
      </trkpt>
      <trkpt lat="40.113157" lon="-0.636927">
        <ele>905.990478515625</ele>
        <time>2020-06-14T22:55:55.386Z</time>
      </trkpt>
      <trkpt lat="40.11326" lon="-0.636905">
        <ele>904.8917236328125</ele>
        <time>2020-06-14T22:55:56.997Z</time>
      </trkpt>
      <trkpt lat="40.113304" lon="-0.636878">
        <ele>904.29541015625</ele>
        <time>2020-06-14T22:55:58.609Z</time>
      </trkpt>
      <trkpt lat="40.113536" lon="-0.636587">
        <ele>899.9050903320312</ele>
        <time>2020-06-14T22:56:00.227Z</time>
      </trkpt>
      <trkpt lat="40.113648" lon="-0.636544">
        <ele>898.6011962890625</ele>
        <time>2020-06-14T22:56:01.848Z</time>
      </trkpt>
      <trkpt lat="40.113709" lon="-0.636547">
        <ele>898.1140747070312</ele>
        <time>2020-06-14T22:56:03.470Z</time>
      </trkpt>
      <trkpt lat="40.113807" lon="-0.63659">
        <ele>898.059814453125</ele>
        <time>2020-06-14T22:56:05.094Z</time>
      </trkpt>
      <trkpt lat="40.113859" lon="-0.636659">
        <ele>898.7640991210938</ele>
        <time>2020-06-14T22:56:06.719Z</time>
      </trkpt>
      <trkpt lat="40.113962" lon="-0.636872">
        <ele>900.8001708984375</ele>
        <time>2020-06-14T22:56:08.348Z</time>
      </trkpt>
      <trkpt lat="40.113988" lon="-0.636998">
        <ele>901.354736328125</ele>
        <time>2020-06-14T22:56:09.979Z</time>
      </trkpt>
      <trkpt lat="40.114174" lon="-0.63725">
        <ele>896.1547241210938</ele>
        <time>2020-06-14T22:56:11.616Z</time>
      </trkpt>
      <trkpt lat="40.114208" lon="-0.63729">
        <ele>895.830810546875</ele>
        <time>2020-06-14T22:56:13.254Z</time>
      </trkpt>
      <trkpt lat="40.114314" lon="-0.637319">
        <ele>894.1318969726562</ele>
        <time>2020-06-14T22:56:14.894Z</time>
      </trkpt>
      <trkpt lat="40.114287" lon="-0.637377">
        <ele>895.0353393554688</ele>
        <time>2020-06-14T22:56:16.535Z</time>
      </trkpt>
      <trkpt lat="40.114199" lon="-0.637479">
        <ele>897.3533325195312</ele>
        <time>2020-06-14T22:56:18.178Z</time>
      </trkpt>
      <trkpt lat="40.114093" lon="-0.637551">
        <ele>899.7793579101562</ele>
        <time>2020-06-14T22:56:19.823Z</time>
      </trkpt>
      <trkpt lat="40.114032" lon="-0.637568">
        <ele>900.99951171875</ele>
        <time>2020-06-14T22:56:21.470Z</time>
      </trkpt>
      <trkpt lat="40.113759" lon="-0.637587">
        <ele>905.9634399414062</ele>
        <time>2020-06-14T22:56:23.122Z</time>
      </trkpt>
      <trkpt lat="40.113655" lon="-0.637552">
        <ele>906.709716796875</ele>
        <time>2020-06-14T22:56:24.776Z</time>
      </trkpt>
      <trkpt lat="40.113562" lon="-0.637493">
        <ele>907.1776733398438</ele>
        <time>2020-06-14T22:56:26.432Z</time>
      </trkpt>
      <trkpt lat="40.113514" lon="-0.637485">
        <ele>907.5807495117188</ele>
        <time>2020-06-14T22:56:28.089Z</time>
      </trkpt>
      <trkpt lat="40.113467" lon="-0.637496">
        <ele>908.111083984375</ele>
        <time>2020-06-14T22:56:29.747Z</time>
      </trkpt>
      <trkpt lat="40.113418" lon="-0.637532">
        <ele>908.8306884765625</ele>
        <time>2020-06-14T22:56:31.406Z</time>
      </trkpt>
      <trkpt lat="40.113384" lon="-0.637585">
        <ele>909.5484619140625</ele>
        <time>2020-06-14T22:56:33.066Z</time>
      </trkpt>
      <trkpt lat="40.113389" lon="-0.637646">
        <ele>909.9395751953125</ele>
        <time>2020-06-14T22:56:34.727Z</time>
      </trkpt>
      <trkpt lat="40.113368" lon="-0.637721">
        <ele>910.6810913085938</ele>
        <time>2020-06-14T22:56:36.390Z</time>
      </trkpt>
      <trkpt lat="40.113217" lon="-0.638076">
        <ele>914.750244140625</ele>
        <time>2020-06-14T22:56:38.059Z</time>
      </trkpt>
      <trkpt lat="40.113123" lon="-0.638439">
        <ele>918.701171875</ele>
        <time>2020-06-14T22:56:39.734Z</time>
      </trkpt>
      <trkpt lat="40.113038" lon="-0.638613">
        <ele>920.9783935546875</ele>
        <time>2020-06-14T22:56:41.412Z</time>
      </trkpt>
      <trkpt lat="40.112976" lon="-0.638794">
        <ele>923.0936279296875</ele>
        <time>2020-06-14T22:56:43.093Z</time>
      </trkpt>
      <trkpt lat="40.112838" lon="-0.638933">
        <ele>924.3021850585938</ele>
        <time>2020-06-14T22:56:44.777Z</time>
      </trkpt>
      <trkpt lat="40.112542" lon="-0.639309">
        <ele>925.3462524414062</ele>
        <time>2020-06-14T22:56:46.470Z</time>
      </trkpt>
      <trkpt lat="40.11246" lon="-0.639617">
        <ele>925.3702392578125</ele>
        <time>2020-06-14T22:56:48.168Z</time>
      </trkpt>
      <trkpt lat="40.112383" lon="-0.639793">
        <ele>924.6586303710938</ele>
        <time>2020-06-14T22:56:49.869Z</time>
      </trkpt>
      <trkpt lat="40.112191" lon="-0.640035">
        <ele>923.2572631835938</ele>
        <time>2020-06-14T22:56:51.575Z</time>
      </trkpt>
      <trkpt lat="40.111888" lon="-0.640216">
        <ele>923.4884033203125</ele>
        <time>2020-06-14T22:56:53.288Z</time>
      </trkpt>
      <trkpt lat="40.11168" lon="-0.640425">
        <ele>922.9796752929688</ele>
        <time>2020-06-14T22:56:55.006Z</time>
      </trkpt>
      <trkpt lat="40.111579" lon="-0.640568">
        <ele>922.6588745117188</ele>
        <time>2020-06-14T22:56:56.727Z</time>
      </trkpt>
      <trkpt lat="40.111491" lon="-0.640759">
        <ele>922.8340454101562</ele>
        <time>2020-06-14T22:56:58.451Z</time>
      </trkpt>
      <trkpt lat="40.111402" lon="-0.641042">
        <ele>922.795654296875</ele>
        <time>2020-06-14T22:57:00.180Z</time>
      </trkpt>
      <trkpt lat="40.111201" lon="-0.64147">
        <ele>923.215576171875</ele>
        <time>2020-06-14T22:57:01.917Z</time>
      </trkpt>
      <trkpt lat="40.111111" lon="-0.641698">
        <ele>923.31640625</ele>
        <time>2020-06-14T22:57:03.658Z</time>
      </trkpt>
      <trkpt lat="40.111068" lon="-0.641932">
        <ele>923.064453125</ele>
        <time>2020-06-14T22:57:05.403Z</time>
      </trkpt>
      <trkpt lat="40.111046" lon="-0.642456">
        <ele>921.7500610351562</ele>
        <time>2020-06-14T22:57:07.156Z</time>
      </trkpt>
      <trkpt lat="40.111005" lon="-0.64268">
        <ele>921.6780395507812</ele>
        <time>2020-06-14T22:57:08.912Z</time>
      </trkpt>
      <trkpt lat="40.110859" lon="-0.643183">
        <ele>921.9668579101562</ele>
        <time>2020-06-14T22:57:10.676Z</time>
      </trkpt>
      <trkpt lat="40.110778" lon="-0.643372">
        <ele>922.3555908203125</ele>
        <time>2020-06-14T22:57:12.444Z</time>
      </trkpt>
      <trkpt lat="40.110777" lon="-0.643445">
        <ele>922.3604125976562</ele>
        <time>2020-06-14T22:57:14.213Z</time>
      </trkpt>
      <trkpt lat="40.110748" lon="-0.643568">
        <ele>922.470947265625</ele>
        <time>2020-06-14T22:57:15.984Z</time>
      </trkpt>
      <trkpt lat="40.110689" lon="-0.643682">
        <ele>922.6881103515625</ele>
        <time>2020-06-14T22:57:17.757Z</time>
      </trkpt>
      <trkpt lat="40.110639" lon="-0.643839">
        <ele>922.7996826171875</ele>
        <time>2020-06-14T22:57:19.532Z</time>
      </trkpt>
      <trkpt lat="40.110612" lon="-0.643886">
        <ele>922.9403076171875</ele>
        <time>2020-06-14T22:57:21.308Z</time>
      </trkpt>
      <trkpt lat="40.110576" lon="-0.643816">
        <ele>923.2052001953125</ele>
        <time>2020-06-14T22:57:23.086Z</time>
      </trkpt>
      <trkpt lat="40.110501" lon="-0.643777">
        <ele>923.6849365234375</ele>
        <time>2020-06-14T22:57:24.865Z</time>
      </trkpt>
      <trkpt lat="40.110247" lon="-0.643992">
        <ele>925.8773803710938</ele>
        <time>2020-06-14T22:57:26.650Z</time>
      </trkpt>
      <trkpt lat="40.110208" lon="-0.644089">
        <ele>926.7278442382812</ele>
        <time>2020-06-14T22:57:28.437Z</time>
      </trkpt>
      <trkpt lat="40.110084" lon="-0.644145">
        <ele>927.7610473632812</ele>
        <time>2020-06-14T22:57:30.227Z</time>
      </trkpt>
      <trkpt lat="40.109964" lon="-0.644165">
        <ele>928.48095703125</ele>
        <time>2020-06-14T22:57:32.019Z</time>
      </trkpt>
      <trkpt lat="40.10986" lon="-0.644078">
        <ele>928.353759765625</ele>
        <time>2020-06-14T22:57:33.814Z</time>
      </trkpt>
      <trkpt lat="40.109772" lon="-0.643958">
        <ele>927.9122314453125</ele>
        <time>2020-06-14T22:57:35.611Z</time>
      </trkpt>
      <trkpt lat="40.109631" lon="-0.643703">
        <ele>927.1124267578125</ele>
        <time>2020-06-14T22:57:37.413Z</time>
      </trkpt>
      <trkpt lat="40.109371" lon="-0.643467">
        <ele>929.8169555664062</ele>
        <time>2020-06-14T22:57:39.221Z</time>
      </trkpt>
      <trkpt lat="40.109151" lon="-0.643359">
        <ele>932.4373779296875</ele>
        <time>2020-06-14T22:57:41.034Z</time>
      </trkpt>
      <trkpt lat="40.108733" lon="-0.643254">
        <ele>936.4476318359375</ele>
        <time>2020-06-14T22:57:42.855Z</time>
      </trkpt>
      <trkpt lat="40.10853" lon="-0.643179">
        <ele>939.3455200195312</ele>
        <time>2020-06-14T22:57:44.681Z</time>
      </trkpt>
      <trkpt lat="40.108309" lon="-0.642932">
        <ele>940.1725463867188</ele>
        <time>2020-06-14T22:57:46.512Z</time>
      </trkpt>
      <trkpt lat="40.108044" lon="-0.642764">
        <ele>941.6641845703125</ele>
        <time>2020-06-14T22:57:48.349Z</time>
      </trkpt>
      <trkpt lat="40.10797" lon="-0.64268">
        <ele>940.6611938476562</ele>
        <time>2020-06-14T22:57:50.188Z</time>
      </trkpt>
      <trkpt lat="40.107723" lon="-0.642156">
        <ele>937.124267578125</ele>
        <time>2020-06-14T22:57:52.037Z</time>
      </trkpt>
      <trkpt lat="40.107601" lon="-0.642028">
        <ele>939.087158203125</ele>
        <time>2020-06-14T22:57:53.889Z</time>
      </trkpt>
      <trkpt lat="40.107503" lon="-0.641982">
        <ele>941.48193359375</ele>
        <time>2020-06-14T22:57:55.743Z</time>
      </trkpt>
      <trkpt lat="40.107317" lon="-0.641929">
        <ele>945.9775390625</ele>
        <time>2020-06-14T22:57:57.601Z</time>
      </trkpt>
      <trkpt lat="40.107116" lon="-0.641898">
        <ele>949.0178833007812</ele>
        <time>2020-06-14T22:57:59.463Z</time>
      </trkpt>
      <trkpt lat="40.107027" lon="-0.641858">
        <ele>951.10009765625</ele>
        <time>2020-06-14T22:58:01.327Z</time>
      </trkpt>
      <trkpt lat="40.10699" lon="-0.641824">
        <ele>951.6232299804688</ele>
        <time>2020-06-14T22:58:03.192Z</time>
      </trkpt>
      <trkpt lat="40.106837" lon="-0.641488">
        <ele>948.150390625</ele>
        <time>2020-06-14T22:58:05.063Z</time>
      </trkpt>
      <trkpt lat="40.106772" lon="-0.641381">
        <ele>947.2025756835938</ele>
        <time>2020-06-14T22:58:06.936Z</time>
      </trkpt>
      <trkpt lat="40.106572" lon="-0.641144">
        <ele>949.6005249023438</ele>
        <time>2020-06-14T22:58:08.814Z</time>
      </trkpt>
      <trkpt lat="40.106369" lon="-0.640731">
        <ele>947.3435668945312</ele>
        <time>2020-06-14T22:58:10.700Z</time>
      </trkpt>
      <trkpt lat="40.106194" lon="-0.640601">
        <ele>951.4156494140625</ele>
        <time>2020-06-14T22:58:12.590Z</time>
      </trkpt>
      <trkpt lat="40.105523" lon="-0.640254">
        <ele>964.456787109375</ele>
        <time>2020-06-14T22:58:14.494Z</time>
      </trkpt>
      <trkpt lat="40.105409" lon="-0.640115">
        <ele>963.8464965820312</ele>
        <time>2020-06-14T22:58:16.401Z</time>
      </trkpt>
      <trkpt lat="40.105374" lon="-0.639931">
        <ele>960.2807006835938</ele>
        <time>2020-06-14T22:58:18.311Z</time>
      </trkpt>
      <trkpt lat="40.105308" lon="-0.639772">
        <ele>958.8491821289062</ele>
        <time>2020-06-14T22:58:20.224Z</time>
      </trkpt>
      <trkpt lat="40.105282" lon="-0.639645">
        <ele>957.6341552734375</ele>
        <time>2020-06-14T22:58:22.139Z</time>
      </trkpt>
      <trkpt lat="40.105225" lon="-0.639529">
        <ele>959.3978271484375</ele>
        <time>2020-06-14T22:58:24.056Z</time>
      </trkpt>
      <trkpt lat="40.105" lon="-0.63925">
        <ele>967.210693359375</ele>
        <time>2020-06-14T22:58:25.979Z</time>
      </trkpt>
      <trkpt lat="40.104908" lon="-0.639158">
        <ele>968.7560424804688</ele>
        <time>2020-06-14T22:58:27.905Z</time>
      </trkpt>
      <trkpt lat="40.104805" lon="-0.638971">
        <ele>968.974365234375</ele>
        <time>2020-06-14T22:58:29.834Z</time>
      </trkpt>
      <trkpt lat="40.104466" lon="-0.63873">
        <ele>975.9680786132812</ele>
        <time>2020-06-14T22:58:31.771Z</time>
      </trkpt>
      <trkpt lat="40.104371" lon="-0.638711">
        <ele>978.7720336914062</ele>
        <time>2020-06-14T22:58:33.710Z</time>
      </trkpt>
      <trkpt lat="40.104326" lon="-0.638717">
        <ele>980.4061279296875</ele>
        <time>2020-06-14T22:58:35.650Z</time>
      </trkpt>
      <trkpt lat="40.104162" lon="-0.638786">
        <ele>987.322998046875</ele>
        <time>2020-06-14T22:58:37.593Z</time>
      </trkpt>
      <trkpt lat="40.104058" lon="-0.638786">
        <ele>990.8168334960938</ele>
        <time>2020-06-14T22:58:39.538Z</time>
      </trkpt>
      <trkpt lat="40.103957" lon="-0.63883">
        <ele>995.1072998046875</ele>
        <time>2020-06-14T22:58:41.485Z</time>
      </trkpt>
      <trkpt lat="40.103915" lon="-0.638864">
        <ele>997.24072265625</ele>
        <time>2020-06-14T22:58:43.433Z</time>
      </trkpt>
      <trkpt lat="40.103806" lon="-0.639019">
        <ele>1004.6218872070312</ele>
        <time>2020-06-14T22:58:45.385Z</time>
      </trkpt>
      <trkpt lat="40.103763" lon="-0.639045">
        <ele>1006.5584716796875</ele>
        <time>2020-06-14T22:58:47.337Z</time>
      </trkpt>
      <trkpt lat="40.103718" lon="-0.639056">
        <ele>1007.0383911132812</ele>
        <time>2020-06-14T22:58:49.290Z</time>
      </trkpt>
      <trkpt lat="40.103354" lon="-0.639029">
        <ele>1008.714599609375</ele>
        <time>2020-06-14T22:58:51.251Z</time>
      </trkpt>
      <trkpt lat="40.103248" lon="-0.639049">
        <ele>1009.9096069335938</ele>
        <time>2020-06-14T22:58:53.214Z</time>
      </trkpt>
      <trkpt lat="40.103194" lon="-0.63908">
        <ele>1010.9678344726562</ele>
        <time>2020-06-14T22:58:55.178Z</time>
      </trkpt>
      <trkpt lat="40.103148" lon="-0.639079">
        <ele>1011.2774047851562</ele>
        <time>2020-06-14T22:58:57.143Z</time>
      </trkpt>
      <trkpt lat="40.103065" lon="-0.639018">
        <ele>1010.5574951171875</ele>
        <time>2020-06-14T22:58:59.110Z</time>
      </trkpt>
      <trkpt lat="40.102924" lon="-0.638952">
        <ele>1010.0744018554688</ele>
        <time>2020-06-14T22:59:01.080Z</time>
      </trkpt>
      <trkpt lat="40.102749" lon="-0.63881">
        <ele>1009.3436279296875</ele>
        <time>2020-06-14T22:59:03.054Z</time>
      </trkpt>
      <trkpt lat="40.102719" lon="-0.638763">
        <ele>1008.2326049804688</ele>
        <time>2020-06-14T22:59:05.029Z</time>
      </trkpt>
      <trkpt lat="40.102631" lon="-0.638686">
        <ele>1007.0184326171875</ele>
        <time>2020-06-14T22:59:07.006Z</time>
      </trkpt>
      <trkpt lat="40.102477" lon="-0.638591">
        <ele>1006.2289428710938</ele>
        <time>2020-06-14T22:59:08.986Z</time>
      </trkpt>
      <trkpt lat="40.102325" lon="-0.63853">
        <ele>1007.159912109375</ele>
        <time>2020-06-14T22:59:10.970Z</time>
      </trkpt>
      <trkpt lat="40.10216" lon="-0.638521">
        <ele>1010.4749145507812</ele>
        <time>2020-06-14T22:59:12.957Z</time>
      </trkpt>
      <trkpt lat="40.102048" lon="-0.638541">
        <ele>1012.4983520507812</ele>
        <time>2020-06-14T22:59:14.946Z</time>
      </trkpt>
      <trkpt lat="40.101872" lon="-0.638542">
        <ele>1013.1594848632812</ele>
        <time>2020-06-14T22:59:16.939Z</time>
      </trkpt>
      <trkpt lat="40.10181" lon="-0.638562">
        <ele>1013.9345092773438</ele>
        <time>2020-06-14T22:59:18.933Z</time>
      </trkpt>
      <trkpt lat="40.101644" lon="-0.638674">
        <ele>1017.6227416992188</ele>
        <time>2020-06-14T22:59:20.931Z</time>
      </trkpt>
      <trkpt lat="40.10136" lon="-0.6388">
        <ele>1022.1219482421875</ele>
        <time>2020-06-14T22:59:22.935Z</time>
      </trkpt>
      <trkpt lat="40.101162" lon="-0.63893">
        <ele>1022.8875732421875</ele>
        <time>2020-06-14T22:59:24.943Z</time>
      </trkpt>
      <trkpt lat="40.101069" lon="-0.638934">
        <ele>1022.1988525390625</ele>
        <time>2020-06-14T22:59:26.953Z</time>
      </trkpt>
      <trkpt lat="40.100729" lon="-0.638891">
        <ele>1019.9576416015625</ele>
        <time>2020-06-14T22:59:28.970Z</time>
      </trkpt>
      <trkpt lat="40.100592" lon="-0.638812">
        <ele>1018.3487548828125</ele>
        <time>2020-06-14T22:59:30.990Z</time>
      </trkpt>
      <trkpt lat="40.100216" lon="-0.638501">
        <ele>1015.2801513671875</ele>
        <time>2020-06-14T22:59:33.019Z</time>
      </trkpt>
      <trkpt lat="40.100145" lon="-0.638461">
        <ele>1015.0293579101562</ele>
        <time>2020-06-14T22:59:35.049Z</time>
      </trkpt>
      <trkpt lat="40.10001" lon="-0.638341">
        <ele>1014.688232421875</ele>
        <time>2020-06-14T22:59:37.082Z</time>
      </trkpt>
      <trkpt lat="40.099913" lon="-0.638222">
        <ele>1014.841796875</ele>
        <time>2020-06-14T22:59:39.118Z</time>
      </trkpt>
      <trkpt lat="40.099804" lon="-0.638144">
        <ele>1015.2149047851562</ele>
        <time>2020-06-14T22:59:41.157Z</time>
      </trkpt>
      <trkpt lat="40.099591" lon="-0.638067">
        <ele>1016.1492309570312</ele>
        <time>2020-06-14T22:59:43.200Z</time>
      </trkpt>
      <trkpt lat="40.099499" lon="-0.637996">
        <ele>1015.671142578125</ele>
        <time>2020-06-14T22:59:45.245Z</time>
      </trkpt>
      <trkpt lat="40.099167" lon="-0.637832">
        <ele>1012.9259643554688</ele>
        <time>2020-06-14T22:59:47.297Z</time>
      </trkpt>
      <trkpt lat="40.099038" lon="-0.637665">
        <ele>1010.9737548828125</ele>
        <time>2020-06-14T22:59:49.353Z</time>
      </trkpt>
      <trkpt lat="40.09899" lon="-0.637577">
        <ele>1011.3096923828125</ele>
        <time>2020-06-14T22:59:51.411Z</time>
      </trkpt>
      <trkpt lat="40.098944" lon="-0.637538">
        <ele>1011.903564453125</ele>
        <time>2020-06-14T22:59:53.470Z</time>
      </trkpt>
      <trkpt lat="40.098888" lon="-0.637414">
        <ele>1012.1675415039062</ele>
        <time>2020-06-14T22:59:55.531Z</time>
      </trkpt>
      <trkpt lat="40.098848" lon="-0.637226">
        <ele>1011.7596435546875</ele>
        <time>2020-06-14T22:59:57.595Z</time>
      </trkpt>
      <trkpt lat="40.098698011049166" lon="-0.6370370139218983">
        <ele>1012.7003173828125</ele>
        <time>2020-06-14T22:59:59.663Z</time>
      </trkpt>
      <trkpt lat="40.098698" lon="-0.637037">
        <ele>1012.7003173828125</ele>
        <time>2020-06-14T23:00:01.731Z</time>
      </trkpt>
      <trkpt lat="40.098634" lon="-0.636897">
        <ele>1012.4267578125</ele>
        <time>2020-06-14T23:00:03.802Z</time>
      </trkpt>
      <trkpt lat="40.098604" lon="-0.636758">
        <ele>1012.034423828125</ele>
        <time>2020-06-14T23:00:05.875Z</time>
      </trkpt>
      <trkpt lat="40.098592" lon="-0.636565">
        <ele>1011.3829345703125</ele>
        <time>2020-06-14T23:00:07.951Z</time>
      </trkpt>
      <trkpt lat="40.09861" lon="-0.636101">
        <ele>1009.0148315429688</ele>
        <time>2020-06-14T23:00:10.034Z</time>
      </trkpt>
      <trkpt lat="40.09858" lon="-0.63595">
        <ele>1007.5990600585938</ele>
        <time>2020-06-14T23:00:12.119Z</time>
      </trkpt>
      <trkpt lat="40.098554" lon="-0.635897">
        <ele>1007.3063354492188</ele>
        <time>2020-06-14T23:00:14.205Z</time>
      </trkpt>
      <trkpt lat="40.098514" lon="-0.635847">
        <ele>1007.2343139648438</ele>
        <time>2020-06-14T23:00:16.292Z</time>
      </trkpt>
      <trkpt lat="40.098315" lon="-0.635698">
        <ele>1011.0512084960938</ele>
        <time>2020-06-14T23:00:18.384Z</time>
      </trkpt>
      <trkpt lat="40.09807" lon="-0.635548">
        <ele>1016.750244140625</ele>
        <time>2020-06-14T23:00:20.481Z</time>
      </trkpt>
      <trkpt lat="40.097826" lon="-0.635431">
        <ele>1019.1334838867188</ele>
        <time>2020-06-14T23:00:22.584Z</time>
      </trkpt>
      <trkpt lat="40.097724" lon="-0.635321">
        <ele>1017.8880615234375</ele>
        <time>2020-06-14T23:00:24.689Z</time>
      </trkpt>
      <trkpt lat="40.097677" lon="-0.635233">
        <ele>1016.6427001953125</ele>
        <time>2020-06-14T23:00:26.796Z</time>
      </trkpt>
      <trkpt lat="40.097411" lon="-0.634333">
        <ele>1014.8123168945312</ele>
        <time>2020-06-14T23:00:28.918Z</time>
      </trkpt>
      <trkpt lat="40.097358" lon="-0.63396">
        <ele>1015.5070190429688</ele>
        <time>2020-06-14T23:00:31.045Z</time>
      </trkpt>
      <trkpt lat="40.097397" lon="-0.633635">
        <ele>1013.5573120117188</ele>
        <time>2020-06-14T23:00:33.177Z</time>
      </trkpt>
      <trkpt lat="40.097458" lon="-0.633514">
        <ele>1011.4373168945312</ele>
        <time>2020-06-14T23:00:35.312Z</time>
      </trkpt>
      <trkpt lat="40.097526" lon="-0.633442">
        <ele>1009.224853515625</ele>
        <time>2020-06-14T23:00:37.448Z</time>
      </trkpt>
      <trkpt lat="40.097622" lon="-0.633225">
        <ele>1005.9541015625</ele>
        <time>2020-06-14T23:00:39.588Z</time>
      </trkpt>
      <trkpt lat="40.097706" lon="-0.633118">
        <ele>1003.2053833007812</ele>
        <time>2020-06-14T23:00:41.731Z</time>
      </trkpt>
      <trkpt lat="40.097743" lon="-0.632935">
        <ele>1002.1434326171875</ele>
        <time>2020-06-14T23:00:43.877Z</time>
      </trkpt>
      <trkpt lat="40.097744" lon="-0.632812">
        <ele>1002.4074096679688</ele>
        <time>2020-06-14T23:00:46.024Z</time>
      </trkpt>
      <trkpt lat="40.097694" lon="-0.63249">
        <ele>1004.7398071289062</ele>
        <time>2020-06-14T23:00:48.176Z</time>
      </trkpt>
      <trkpt lat="40.097612" lon="-0.632175">
        <ele>1007.7313842773438</ele>
        <time>2020-06-14T23:00:50.334Z</time>
      </trkpt>
      <trkpt lat="40.09753" lon="-0.631994">
        <ele>1011.4939575195312</ele>
        <time>2020-06-14T23:00:52.495Z</time>
      </trkpt>
      <trkpt lat="40.097439" lon="-0.631848">
        <ele>1015.2640380859375</ele>
        <time>2020-06-14T23:00:54.659Z</time>
      </trkpt>
      <trkpt lat="40.097316" lon="-0.631698">
        <ele>1017.0853881835938</ele>
        <time>2020-06-14T23:00:56.826Z</time>
      </trkpt>
      <trkpt lat="40.097291" lon="-0.631634">
        <ele>1017.3348999023438</ele>
        <time>2020-06-14T23:00:58.994Z</time>
      </trkpt>
      <trkpt lat="40.097235" lon="-0.631385">
        <ele>1017.513671875</ele>
        <time>2020-06-14T23:01:01.166Z</time>
      </trkpt>
      <trkpt lat="40.097229" lon="-0.631236">
        <ele>1018.0894165039062</ele>
        <time>2020-06-14T23:01:03.340Z</time>
      </trkpt>
      <trkpt lat="40.097246" lon="-0.631085">
        <ele>1017.7468872070312</ele>
        <time>2020-06-14T23:01:05.517Z</time>
      </trkpt>
      <trkpt lat="40.097359" lon="-0.630569">
        <ele>1015.636474609375</ele>
        <time>2020-06-14T23:01:07.702Z</time>
      </trkpt>
      <trkpt lat="40.097515" lon="-0.630109">
        <ele>1015.4986572265625</ele>
        <time>2020-06-14T23:01:09.895Z</time>
      </trkpt>
      <trkpt lat="40.09757" lon="-0.629893">
        <ele>1015.6198120117188</ele>
        <time>2020-06-14T23:01:12.091Z</time>
      </trkpt>
      <trkpt lat="40.097588" lon="-0.629774">
        <ele>1015.8321533203125</ele>
        <time>2020-06-14T23:01:14.289Z</time>
      </trkpt>
      <trkpt lat="40.097568" lon="-0.629592">
        <ele>1016.8421020507812</ele>
        <time>2020-06-14T23:01:16.490Z</time>
      </trkpt>
      <trkpt lat="40.097579" lon="-0.62946">
        <ele>1017.3436279296875</ele>
        <time>2020-06-14T23:01:18.693Z</time>
      </trkpt>
      <trkpt lat="40.097645" lon="-0.629339">
        <ele>1017.1324462890625</ele>
        <time>2020-06-14T23:01:20.898Z</time>
      </trkpt>
      <trkpt lat="40.097709" lon="-0.629272">
        <ele>1016.6860961914062</ele>
        <time>2020-06-14T23:01:23.105Z</time>
      </trkpt>
      <trkpt lat="40.097787" lon="-0.62909">
        <ele>1016.6237182617188</ele>
        <time>2020-06-14T23:01:25.315Z</time>
      </trkpt>
      <trkpt lat="40.098016" lon="-0.628719">
        <ele>1016.7578125</ele>
        <time>2020-06-14T23:01:27.532Z</time>
      </trkpt>
      <trkpt lat="40.098165" lon="-0.628687">
        <ele>1017.7142333984375</ele>
        <time>2020-06-14T23:01:29.752Z</time>
      </trkpt>
      <trkpt lat="40.098276" lon="-0.628474">
        <ele>1018.9234619140625</ele>
        <time>2020-06-14T23:01:31.976Z</time>
      </trkpt>
      <trkpt lat="40.098361" lon="-0.628225">
        <ele>1019.8341064453125</ele>
        <time>2020-06-14T23:01:34.205Z</time>
      </trkpt>
      <trkpt lat="40.098548" lon="-0.627965">
        <ele>1021.2244262695312</ele>
        <time>2020-06-14T23:01:36.439Z</time>
      </trkpt>
      <trkpt lat="40.098678" lon="-0.627661">
        <ele>1021.0660400390625</ele>
        <time>2020-06-14T23:01:38.678Z</time>
      </trkpt>
      <trkpt lat="40.098808" lon="-0.627532">
        <ele>1021.0921020507812</ele>
        <time>2020-06-14T23:01:40.921Z</time>
      </trkpt>
      <trkpt lat="40.098892" lon="-0.627414">
        <ele>1020.364990234375</ele>
        <time>2020-06-14T23:01:43.166Z</time>
      </trkpt>
      <trkpt lat="40.099033" lon="-0.627093">
        <ele>1018.4757080078125</ele>
        <time>2020-06-14T23:01:45.417Z</time>
      </trkpt>
      <trkpt lat="40.099075" lon="-0.626851">
        <ele>1016.906494140625</ele>
        <time>2020-06-14T23:01:47.672Z</time>
      </trkpt>
      <trkpt lat="40.099068" lon="-0.626672">
        <ele>1016.0809936523438</ele>
        <time>2020-06-14T23:01:49.929Z</time>
      </trkpt>
      <trkpt lat="40.099032" lon="-0.626489">
        <ele>1015.3755493164062</ele>
        <time>2020-06-14T23:01:52.189Z</time>
      </trkpt>
      <trkpt lat="40.099059" lon="-0.626374">
        <ele>1014.6940307617188</ele>
        <time>2020-06-14T23:01:54.451Z</time>
      </trkpt>
      <trkpt lat="40.099056" lon="-0.626172">
        <ele>1013.5208129882812</ele>
        <time>2020-06-14T23:01:56.716Z</time>
      </trkpt>
      <trkpt lat="40.0991" lon="-0.625862">
        <ele>1011.2596435546875</ele>
        <time>2020-06-14T23:01:58.986Z</time>
      </trkpt>
      <trkpt lat="40.099189" lon="-0.625569">
        <ele>1008.830078125</ele>
        <time>2020-06-14T23:02:01.261Z</time>
      </trkpt>
      <trkpt lat="40.099271" lon="-0.625381">
        <ele>1007.8505249023438</ele>
        <time>2020-06-14T23:02:03.539Z</time>
      </trkpt>
      <trkpt lat="40.099273" lon="-0.625241">
        <ele>1007.5073852539062</ele>
        <time>2020-06-14T23:02:05.819Z</time>
      </trkpt>
      <trkpt lat="40.099302" lon="-0.625195">
        <ele>1007.2926025390625</ele>
        <time>2020-06-14T23:02:08.100Z</time>
      </trkpt>
      <trkpt lat="40.099334" lon="-0.625239">
        <ele>1007.2830200195312</ele>
        <time>2020-06-14T23:02:10.382Z</time>
      </trkpt>
      <trkpt lat="40.099409" lon="-0.624818">
        <ele>1006.0028076171875</ele>
        <time>2020-06-14T23:02:12.671Z</time>
      </trkpt>
      <trkpt lat="40.099356" lon="-0.624678">
        <ele>1005.7720336914062</ele>
        <time>2020-06-14T23:02:14.962Z</time>
      </trkpt>
      <trkpt lat="40.099322" lon="-0.624324">
        <ele>1001.6470947265625</ele>
        <time>2020-06-14T23:02:17.259Z</time>
      </trkpt>
      <trkpt lat="40.099264" lon="-0.624079">
        <ele>1000.5097045898438</ele>
        <time>2020-06-14T23:02:19.560Z</time>
      </trkpt>
      <trkpt lat="40.099262" lon="-0.623984">
        <ele>1000.7736206054688</ele>
        <time>2020-06-14T23:02:21.862Z</time>
      </trkpt>
      <trkpt lat="40.099291" lon="-0.623817">
        <ele>1000.127685546875</ele>
        <time>2020-06-14T23:02:24.167Z</time>
      </trkpt>
      <trkpt lat="40.099365" lon="-0.623609">
        <ele>996.3003540039062</ele>
        <time>2020-06-14T23:02:26.475Z</time>
      </trkpt>
      <trkpt lat="40.099371" lon="-0.623544">
        <ele>995.4124755859375</ele>
        <time>2020-06-14T23:02:28.784Z</time>
      </trkpt>
      <trkpt lat="40.099384" lon="-0.623318">
        <ele>992.4669799804688</ele>
        <time>2020-06-14T23:02:31.097Z</time>
      </trkpt>
      <trkpt lat="40.099341" lon="-0.622706">
        <ele>990.2697143554688</ele>
        <time>2020-06-14T23:02:33.419Z</time>
      </trkpt>
      <trkpt lat="40.099371" lon="-0.622448">
        <ele>987.8941040039062</ele>
        <time>2020-06-14T23:02:35.745Z</time>
      </trkpt>
      <trkpt lat="40.09931" lon="-0.622135">
        <ele>989.6653442382812</ele>
        <time>2020-06-14T23:02:38.076Z</time>
      </trkpt>
      <trkpt lat="40.099195" lon="-0.621742">
        <ele>990.4440307617188</ele>
        <time>2020-06-14T23:02:40.414Z</time>
      </trkpt>
      <trkpt lat="40.099206" lon="-0.621669">
        <ele>989.7457275390625</ele>
        <time>2020-06-14T23:02:42.753Z</time>
      </trkpt>
      <trkpt lat="40.099355" lon="-0.621266">
        <ele>982.6046142578125</ele>
        <time>2020-06-14T23:02:45.099Z</time>
      </trkpt>
      <trkpt lat="40.099443" lon="-0.620877">
        <ele>978.6536254882812</ele>
        <time>2020-06-14T23:02:47.451Z</time>
      </trkpt>
      <trkpt lat="40.099377" lon="-0.620813">
        <ele>981.1900024414062</ele>
        <time>2020-06-14T23:02:49.804Z</time>
      </trkpt>
      <trkpt lat="40.09934" lon="-0.620648">
        <ele>983.0894165039062</ele>
        <time>2020-06-14T23:02:52.160Z</time>
      </trkpt>
      <trkpt lat="40.099329" lon="-0.620509">
        <ele>984.0147094726562</ele>
        <time>2020-06-14T23:02:54.518Z</time>
      </trkpt>
      <trkpt lat="40.099289" lon="-0.620406">
        <ele>985.5432739257812</ele>
        <time>2020-06-14T23:02:56.878Z</time>
      </trkpt>
      <trkpt lat="40.099281" lon="-0.620336">
        <ele>985.73046875</ele>
        <time>2020-06-14T23:02:59.239Z</time>
      </trkpt>
      <trkpt lat="40.099312" lon="-0.62024">
        <ele>984.1239013671875</ele>
        <time>2020-06-14T23:03:01.602Z</time>
      </trkpt>
      <trkpt lat="40.099264" lon="-0.620098">
        <ele>985.9140014648438</ele>
        <time>2020-06-14T23:03:03.967Z</time>
      </trkpt>
      <trkpt lat="40.099258" lon="-0.619765">
        <ele>985.0653686523438</ele>
        <time>2020-06-14T23:03:06.337Z</time>
      </trkpt>
      <trkpt lat="40.099199" lon="-0.619386">
        <ele>988.0498046875</ele>
        <time>2020-06-14T23:03:08.713Z</time>
      </trkpt>
      <trkpt lat="40.099259" lon="-0.61927">
        <ele>985.736572265625</ele>
        <time>2020-06-14T23:03:11.091Z</time>
      </trkpt>
      <trkpt lat="40.099252" lon="-0.618901">
        <ele>985.4854736328125</ele>
        <time>2020-06-14T23:03:13.475Z</time>
      </trkpt>
      <trkpt lat="40.099265" lon="-0.618832">
        <ele>984.7218017578125</ele>
        <time>2020-06-14T23:03:15.860Z</time>
      </trkpt>
      <trkpt lat="40.099251" lon="-0.618669">
        <ele>984.0859375</ele>
        <time>2020-06-14T23:03:18.247Z</time>
      </trkpt>
      <trkpt lat="40.099176" lon="-0.618657">
        <ele>986.8790893554688</ele>
        <time>2020-06-14T23:03:20.636Z</time>
      </trkpt>
      <trkpt lat="40.099068" lon="-0.618591">
        <ele>990.5504760742188</ele>
        <time>2020-06-14T23:03:23.027Z</time>
      </trkpt>
      <trkpt lat="40.098973" lon="-0.618555">
        <ele>993.8291015625</ele>
        <time>2020-06-14T23:03:25.420Z</time>
      </trkpt>
      <trkpt lat="40.098863" lon="-0.618464">
        <ele>997.1561279296875</ele>
        <time>2020-06-14T23:03:27.816Z</time>
      </trkpt>
      <trkpt lat="40.098833" lon="-0.618418">
        <ele>997.8856201171875</ele>
        <time>2020-06-14T23:03:30.213Z</time>
      </trkpt>
      <trkpt lat="40.098823" lon="-0.618313">
        <ele>997.3756713867188</ele>
        <time>2020-06-14T23:03:32.612Z</time>
      </trkpt>
      <trkpt lat="40.098723" lon="-0.618062">
        <ele>997.2581787109375</ele>
        <time>2020-06-14T23:03:35.015Z</time>
      </trkpt>
      <trkpt lat="40.098776" lon="-0.617891">
        <ele>995.809326171875</ele>
        <time>2020-06-14T23:03:37.421Z</time>
      </trkpt>
      <trkpt lat="40.098752" lon="-0.617753">
        <ele>995.4210815429688</ele>
        <time>2020-06-14T23:03:39.829Z</time>
      </trkpt>
      <trkpt lat="40.098914" lon="-0.617253">
        <ele>985.6902465820312</ele>
        <time>2020-06-14T23:03:42.245Z</time>
      </trkpt>
      <trkpt lat="40.098911" lon="-0.616786">
        <ele>981.8536376953125</ele>
        <time>2020-06-14T23:03:44.668Z</time>
      </trkpt>
      <trkpt lat="40.098945" lon="-0.616474">
        <ele>977.8943481445312</ele>
        <time>2020-06-14T23:03:47.096Z</time>
      </trkpt>
      <trkpt lat="40.09894" lon="-0.616405">
        <ele>977.6495361328125</ele>
        <time>2020-06-14T23:03:49.525Z</time>
      </trkpt>
      <trkpt lat="40.098902" lon="-0.616343">
        <ele>979.2505493164062</ele>
        <time>2020-06-14T23:03:51.955Z</time>
      </trkpt>
      <trkpt lat="40.098865" lon="-0.616201">
        <ele>981.756103515625</ele>
        <time>2020-06-14T23:03:54.388Z</time>
      </trkpt>
      <trkpt lat="40.098854" lon="-0.616002">
        <ele>982.2312622070312</ele>
        <time>2020-06-14T23:03:56.824Z</time>
      </trkpt>
      <trkpt lat="40.098811" lon="-0.615872">
        <ele>984.0885620117188</ele>
        <time>2020-06-14T23:03:59.262Z</time>
      </trkpt>
      <trkpt lat="40.098804" lon="-0.615696">
        <ele>984.390869140625</ele>
        <time>2020-06-14T23:04:01.703Z</time>
      </trkpt>
      <trkpt lat="40.098773" lon="-0.615603">
        <ele>985.7298583984375</ele>
        <time>2020-06-14T23:04:04.145Z</time>
      </trkpt>
      <trkpt lat="40.098798" lon="-0.615377">
        <ele>986.5178833007812</ele>
        <time>2020-06-14T23:04:06.591Z</time>
      </trkpt>
      <trkpt lat="40.098774" lon="-0.615203">
        <ele>989.1742553710938</ele>
        <time>2020-06-14T23:04:09.039Z</time>
      </trkpt>
      <trkpt lat="40.098682" lon="-0.614919">
        <ele>994.6112060546875</ele>
        <time>2020-06-14T23:04:11.492Z</time>
      </trkpt>
      <trkpt lat="40.098527" lon="-0.614628">
        <ele>998.6578369140625</ele>
        <time>2020-06-14T23:04:13.951Z</time>
      </trkpt>
      <trkpt lat="40.098513" lon="-0.614565">
        <ele>999.086181640625</ele>
        <time>2020-06-14T23:04:16.411Z</time>
      </trkpt>
      <trkpt lat="40.098532" lon="-0.614188">
        <ele>1000.1695556640625</ele>
        <time>2020-06-14T23:04:18.876Z</time>
      </trkpt>
      <trkpt lat="40.098505" lon="-0.614121">
        <ele>1000.7994995117188</ele>
        <time>2020-06-14T23:04:21.343Z</time>
      </trkpt>
      <trkpt lat="40.098458" lon="-0.61412">
        <ele>1001.2366333007812</ele>
        <time>2020-06-14T23:04:23.811Z</time>
      </trkpt>
      <trkpt lat="40.098371" lon="-0.614157">
        <ele>1002.0560913085938</ele>
        <time>2020-06-14T23:04:26.280Z</time>
      </trkpt>
      <trkpt lat="40.098326" lon="-0.614139">
        <ele>1002.390869140625</ele>
        <time>2020-06-14T23:04:28.750Z</time>
      </trkpt>
      <trkpt lat="40.098171" lon="-0.613981">
        <ele>1003.3134765625</ele>
        <time>2020-06-14T23:04:31.224Z</time>
      </trkpt>
      <trkpt lat="40.098129" lon="-0.61402">
        <ele>1003.7598266601562</ele>
        <time>2020-06-14T23:04:33.699Z</time>
      </trkpt>
      <trkpt lat="40.098016" lon="-0.614188">
        <ele>1005.1119995117188</ele>
        <time>2020-06-14T23:04:36.178Z</time>
      </trkpt>
      <trkpt lat="40.097918" lon="-0.61425">
        <ele>1006.1021728515625</ele>
        <time>2020-06-14T23:04:38.659Z</time>
      </trkpt>
      <trkpt lat="40.09785" lon="-0.61433">
        <ele>1006.9468383789062</ele>
        <time>2020-06-14T23:04:41.142Z</time>
      </trkpt>
      <trkpt lat="40.097686" lon="-0.614286">
        <ele>1008.4154052734375</ele>
        <time>2020-06-14T23:04:43.628Z</time>
      </trkpt>
      <trkpt lat="40.097332" lon="-0.614288">
        <ele>1012.2140502929688</ele>
        <time>2020-06-14T23:04:46.121Z</time>
      </trkpt>
      <trkpt lat="40.097062" lon="-0.614252">
        <ele>1015.0</ele>
        <time>2020-06-14T23:04:48.620Z</time>
      </trkpt>
      <trkpt lat="40.096893" lon="-0.61429">
        <ele>1015.0</ele>
        <time>2020-06-14T23:04:51.122Z</time>
      </trkpt>
      <trkpt lat="40.096699" lon="-0.61421">
        <ele>1014.9489135742188</ele>
        <time>2020-06-14T23:04:53.628Z</time>
      </trkpt>
      <trkpt lat="40.096442" lon="-0.61416">
        <ele>1014.58056640625</ele>
        <time>2020-06-14T23:04:56.139Z</time>
      </trkpt>
      <trkpt lat="40.09595" lon="-0.613921">
        <ele>1014.0</ele>
        <time>2020-06-14T23:04:58.661Z</time>
      </trkpt>
      <trkpt lat="40.095835" lon="-0.613824">
        <ele>1014.066650390625</ele>
        <time>2020-06-14T23:05:01.186Z</time>
      </trkpt>
      <trkpt lat="40.095711" lon="-0.613658">
        <ele>1014.4649658203125</ele>
        <time>2020-06-14T23:05:03.714Z</time>
      </trkpt>
      <trkpt lat="40.095585" lon="-0.613406">
        <ele>1014.7174072265625</ele>
        <time>2020-06-14T23:05:06.247Z</time>
      </trkpt>
      <trkpt lat="40.095506" lon="-0.613298">
        <ele>1014.752197265625</ele>
        <time>2020-06-14T23:05:08.782Z</time>
      </trkpt>
      <trkpt lat="40.095386" lon="-0.613185">
        <ele>1014.7437744140625</ele>
        <time>2020-06-14T23:05:11.320Z</time>
      </trkpt>
      <trkpt lat="40.095173" lon="-0.612782">
        <ele>1013.8659057617188</ele>
        <time>2020-06-14T23:05:13.865Z</time>
      </trkpt>
      <trkpt lat="40.094846" lon="-0.612396">
        <ele>1013.8164672851562</ele>
        <time>2020-06-14T23:05:16.419Z</time>
      </trkpt>
      <trkpt lat="40.094534" lon="-0.612191">
        <ele>1014.0512084960938</ele>
        <time>2020-06-14T23:05:18.980Z</time>
      </trkpt>
      <trkpt lat="40.094343" lon="-0.612141">
        <ele>1010.2567749023438</ele>
        <time>2020-06-14T23:05:21.545Z</time>
      </trkpt>
      <trkpt lat="40.094177" lon="-0.611915">
        <ele>1002.4437255859375</ele>
        <time>2020-06-14T23:05:24.115Z</time>
      </trkpt>
      <trkpt lat="40.094078" lon="-0.61188">
        <ele>1000.178466796875</ele>
        <time>2020-06-14T23:05:26.687Z</time>
      </trkpt>
      <trkpt lat="40.093825" lon="-0.611738">
        <ele>1000.5719604492188</ele>
        <time>2020-06-14T23:05:29.264Z</time>
      </trkpt>
      <trkpt lat="40.093763" lon="-0.611629">
        <ele>1000.2415771484375</ele>
        <time>2020-06-14T23:05:31.844Z</time>
      </trkpt>
      <trkpt lat="40.093762" lon="-0.611555">
        <ele>999.855224609375</ele>
        <time>2020-06-14T23:05:34.425Z</time>
      </trkpt>
      <trkpt lat="40.093857" lon="-0.611321">
        <ele>997.14208984375</ele>
        <time>2020-06-14T23:05:37.010Z</time>
      </trkpt>
      <trkpt lat="40.093843" lon="-0.611206">
        <ele>992.4835205078125</ele>
        <time>2020-06-14T23:05:39.597Z</time>
      </trkpt>
      <trkpt lat="40.093748" lon="-0.611167">
        <ele>991.7774658203125</ele>
        <time>2020-06-14T23:05:42.186Z</time>
      </trkpt>
      <trkpt lat="40.093771" lon="-0.611104">
        <ele>989.7263793945312</ele>
        <time>2020-06-14T23:05:44.776Z</time>
      </trkpt>
      <trkpt lat="40.093722" lon="-0.611056">
        <ele>987.11865234375</ele>
        <time>2020-06-14T23:05:47.367Z</time>
      </trkpt>
      <trkpt lat="40.093408" lon="-0.611031">
        <ele>979.7843017578125</ele>
        <time>2020-06-14T23:05:49.964Z</time>
      </trkpt>
      <trkpt lat="40.09329" lon="-0.610954">
        <ele>975.564208984375</ele>
        <time>2020-06-14T23:05:52.564Z</time>
      </trkpt>
      <trkpt lat="40.09318" lon="-0.610974">
        <ele>976.4400634765625</ele>
        <time>2020-06-14T23:05:55.166Z</time>
      </trkpt>
      <trkpt lat="40.092974" lon="-0.610914">
        <ele>977.0279541015625</ele>
        <time>2020-06-14T23:05:57.772Z</time>
      </trkpt>
      <trkpt lat="40.092828" lon="-0.610916">
        <ele>974.9180297851562</ele>
        <time>2020-06-14T23:06:00.381Z</time>
      </trkpt>
      <trkpt lat="40.092761" lon="-0.610958">
        <ele>973.8441772460938</ele>
        <time>2020-06-14T23:06:02.992Z</time>
      </trkpt>
      <trkpt lat="40.092717" lon="-0.610907">
        <ele>972.2904663085938</ele>
        <time>2020-06-14T23:06:05.604Z</time>
      </trkpt>
      <trkpt lat="40.09255" lon="-0.610934">
        <ele>968.7750244140625</ele>
        <time>2020-06-14T23:06:08.219Z</time>
      </trkpt>
      <trkpt lat="40.092433" lon="-0.610925">
        <ele>968.4478149414062</ele>
        <time>2020-06-14T23:06:10.836Z</time>
      </trkpt>
      <trkpt lat="40.092313" lon="-0.610849">
        <ele>970.065185546875</ele>
        <time>2020-06-14T23:06:13.456Z</time>
      </trkpt>
      <trkpt lat="40.092198" lon="-0.610832">
        <ele>970.7442626953125</ele>
        <time>2020-06-14T23:06:16.078Z</time>
      </trkpt>
      <trkpt lat="40.092053" lon="-0.610774">
        <ele>971.8950805664062</ele>
        <time>2020-06-14T23:06:18.704Z</time>
      </trkpt>
      <trkpt lat="40.092019" lon="-0.610709">
        <ele>972.8273315429688</ele>
        <time>2020-06-14T23:06:21.331Z</time>
      </trkpt>
      <trkpt lat="40.091932" lon="-0.61068">
        <ele>973.030029296875</ele>
        <time>2020-06-14T23:06:23.960Z</time>
      </trkpt>
      <trkpt lat="40.091887" lon="-0.6107">
        <ele>972.400146484375</ele>
        <time>2020-06-14T23:06:26.589Z</time>
      </trkpt>
      <trkpt lat="40.091805" lon="-0.610641">
        <ele>971.939453125</ele>
        <time>2020-06-14T23:06:29.220Z</time>
      </trkpt>
      <trkpt lat="40.091576" lon="-0.610524">
        <ele>970.3088989257812</ele>
        <time>2020-06-14T23:06:31.856Z</time>
      </trkpt>
      <trkpt lat="40.091567" lon="-0.610438">
        <ele>971.118408203125</ele>
        <time>2020-06-14T23:06:34.494Z</time>
      </trkpt>
      <trkpt lat="40.091533" lon="-0.610353">
        <ele>971.6690673828125</ele>
        <time>2020-06-14T23:06:37.133Z</time>
      </trkpt>
      <trkpt lat="40.091388" lon="-0.610155">
        <ele>971.0877075195312</ele>
        <time>2020-06-14T23:06:39.776Z</time>
      </trkpt>
      <trkpt lat="40.091328" lon="-0.610019">
        <ele>970.9677734375</ele>
        <time>2020-06-14T23:06:42.422Z</time>
      </trkpt>
      <trkpt lat="40.091327" lon="-0.609884">
        <ele>971.7620239257812</ele>
        <time>2020-06-14T23:06:45.070Z</time>
      </trkpt>
      <trkpt lat="40.091266" lon="-0.609759">
        <ele>971.5604248046875</ele>
        <time>2020-06-14T23:06:47.720Z</time>
      </trkpt>
      <trkpt lat="40.091251" lon="-0.609685">
        <ele>971.468505859375</ele>
        <time>2020-06-14T23:06:50.371Z</time>
      </trkpt>
      <trkpt lat="40.09129" lon="-0.609352">
        <ele>971.1563110351562</ele>
        <time>2020-06-14T23:06:53.027Z</time>
      </trkpt>
      <trkpt lat="40.091373" lon="-0.609005">
        <ele>971.102294921875</ele>
        <time>2020-06-14T23:06:55.689Z</time>
      </trkpt>
      <trkpt lat="40.091329" lon="-0.608591">
        <ele>966.7263793945312</ele>
        <time>2020-06-14T23:06:58.357Z</time>
      </trkpt>
      <trkpt lat="40.091355" lon="-0.608245">
        <ele>963.2085571289062</ele>
        <time>2020-06-14T23:07:01.031Z</time>
      </trkpt>
      <trkpt lat="40.091334" lon="-0.608167">
        <ele>962.18994140625</ele>
        <time>2020-06-14T23:07:03.706Z</time>
      </trkpt>
      <trkpt lat="40.091265" lon="-0.60738">
        <ele>960.7481689453125</ele>
        <time>2020-06-14T23:07:06.393Z</time>
      </trkpt>
      <trkpt lat="40.091277" lon="-0.606928">
        <ele>960.3167114257812</ele>
        <time>2020-06-14T23:07:09.087Z</time>
      </trkpt>
      <trkpt lat="40.091324" lon="-0.606457">
        <ele>958.904541015625</ele>
        <time>2020-06-14T23:07:11.788Z</time>
      </trkpt>
      <trkpt lat="40.091272" lon="-0.606029">
        <ele>958.166015625</ele>
        <time>2020-06-14T23:07:14.496Z</time>
      </trkpt>
      <trkpt lat="40.091274" lon="-0.605859">
        <ele>957.7388916015625</ele>
        <time>2020-06-14T23:07:17.207Z</time>
      </trkpt>
      <trkpt lat="40.09133" lon="-0.605724">
        <ele>956.87744140625</ele>
        <time>2020-06-14T23:07:19.920Z</time>
      </trkpt>
      <trkpt lat="40.09153" lon="-0.605395">
        <ele>952.4109497070312</ele>
        <time>2020-06-14T23:07:22.639Z</time>
      </trkpt>
      <trkpt lat="40.091687" lon="-0.605192">
        <ele>947.4942016601562</ele>
        <time>2020-06-14T23:07:25.363Z</time>
      </trkpt>
      <trkpt lat="40.091721" lon="-0.6051">
        <ele>945.6224975585938</ele>
        <time>2020-06-14T23:07:28.088Z</time>
      </trkpt>
      <trkpt lat="40.091732" lon="-0.604822">
        <ele>943.041015625</ele>
        <time>2020-06-14T23:07:30.818Z</time>
      </trkpt>
      <trkpt lat="40.091703" lon="-0.60445">
        <ele>938.677734375</ele>
        <time>2020-06-14T23:07:33.553Z</time>
      </trkpt>
      <trkpt lat="40.091678" lon="-0.604216">
        <ele>935.7557983398438</ele>
        <time>2020-06-14T23:07:36.292Z</time>
      </trkpt>
      <trkpt lat="40.091598" lon="-0.603826">
        <ele>935.1361694335938</ele>
        <time>2020-06-14T23:07:39.037Z</time>
      </trkpt>
      <trkpt lat="40.09156" lon="-0.603404">
        <ele>932.0767211914062</ele>
        <time>2020-06-14T23:07:41.789Z</time>
      </trkpt>
      <trkpt lat="40.091537" lon="-0.603307">
        <ele>932.2951049804688</ele>
        <time>2020-06-14T23:07:44.542Z</time>
      </trkpt>
      <trkpt lat="40.091439" lon="-0.603148">
        <ele>934.7510986328125</ele>
        <time>2020-06-14T23:07:47.298Z</time>
      </trkpt>
      <trkpt lat="40.091305" lon="-0.602974">
        <ele>938.377197265625</ele>
        <time>2020-06-14T23:07:50.058Z</time>
      </trkpt>
      <trkpt lat="40.091283" lon="-0.602603">
        <ele>937.860107421875</ele>
        <time>2020-06-14T23:07:52.824Z</time>
      </trkpt>
      <trkpt lat="40.09116" lon="-0.602187">
        <ele>938.9838256835938</ele>
        <time>2020-06-14T23:07:55.597Z</time>
      </trkpt>
      <trkpt lat="40.091119" lon="-0.602152">
        <ele>940.1114501953125</ele>
        <time>2020-06-14T23:07:58.371Z</time>
      </trkpt>
      <trkpt lat="40.09093" lon="-0.601857">
        <ele>946.5711669921875</ele>
        <time>2020-06-14T23:08:01.151Z</time>
      </trkpt>
      <trkpt lat="40.090716" lon="-0.601413">
        <ele>953.19091796875</ele>
        <time>2020-06-14T23:08:03.939Z</time>
      </trkpt>
      <trkpt lat="40.090521" lon="-0.601203">
        <ele>958.655029296875</ele>
        <time>2020-06-14T23:08:06.732Z</time>
      </trkpt>
      <trkpt lat="40.09034" lon="-0.600896">
        <ele>961.3379516601562</ele>
        <time>2020-06-14T23:08:09.531Z</time>
      </trkpt>
      <trkpt lat="40.09027" lon="-0.600812">
        <ele>960.430908203125</ele>
        <time>2020-06-14T23:08:12.332Z</time>
      </trkpt>
      <trkpt lat="40.090202" lon="-0.600771">
        <ele>959.0139770507812</ele>
        <time>2020-06-14T23:08:15.134Z</time>
      </trkpt>
      <trkpt lat="40.090001" lon="-0.600394">
        <ele>961.1578979492188</ele>
        <time>2020-06-14T23:08:17.943Z</time>
      </trkpt>
      <trkpt lat="40.089934" lon="-0.600176">
        <ele>962.3436889648438</ele>
        <time>2020-06-14T23:08:20.756Z</time>
      </trkpt>
      <trkpt lat="40.089823" lon="-0.599592">
        <ele>967.2772216796875</ele>
        <time>2020-06-14T23:08:23.578Z</time>
      </trkpt>
      <trkpt lat="40.08981" lon="-0.599273">
        <ele>965.077880859375</ele>
        <time>2020-06-14T23:08:26.405Z</time>
      </trkpt>
      <trkpt lat="40.089829" lon="-0.59908">
        <ele>964.4251708984375</ele>
        <time>2020-06-14T23:08:29.235Z</time>
      </trkpt>
      <trkpt lat="40.089917" lon="-0.598795">
        <ele>963.3475341796875</ele>
        <time>2020-06-14T23:08:32.070Z</time>
      </trkpt>
      <trkpt lat="40.090018" lon="-0.598237">
        <ele>955.3204345703125</ele>
        <time>2020-06-14T23:08:34.913Z</time>
      </trkpt>
      <trkpt lat="40.090213" lon="-0.597808">
        <ele>950.5336303710938</ele>
        <time>2020-06-14T23:08:37.764Z</time>
      </trkpt>
      <trkpt lat="40.090279" lon="-0.597481">
        <ele>945.667236328125</ele>
        <time>2020-06-14T23:08:40.620Z</time>
      </trkpt>
      <trkpt lat="40.090264" lon="-0.597295">
        <ele>943.556640625</ele>
        <time>2020-06-14T23:08:43.479Z</time>
      </trkpt>
      <trkpt lat="40.090207" lon="-0.597087">
        <ele>943.1279296875</ele>
        <time>2020-06-14T23:08:46.341Z</time>
      </trkpt>
      <trkpt lat="40.090135" lon="-0.596888">
        <ele>942.7979736328125</ele>
        <time>2020-06-14T23:08:49.207Z</time>
      </trkpt>
      <trkpt lat="40.090023" lon="-0.596684">
        <ele>942.6519775390625</ele>
        <time>2020-06-14T23:08:52.077Z</time>
      </trkpt>
      <trkpt lat="40.089956" lon="-0.596587">
        <ele>942.28369140625</ele>
        <time>2020-06-14T23:08:54.949Z</time>
      </trkpt>
      <trkpt lat="40.089878" lon="-0.596517">
        <ele>942.266845703125</ele>
        <time>2020-06-14T23:08:57.823Z</time>
      </trkpt>
      <trkpt lat="40.089633" lon="-0.59636">
        <ele>942.8175659179688</ele>
        <time>2020-06-14T23:09:00.702Z</time>
      </trkpt>
      <trkpt lat="40.089499" lon="-0.596242">
        <ele>940.5322265625</ele>
        <time>2020-06-14T23:09:03.584Z</time>
      </trkpt>
      <trkpt lat="40.089501" lon="-0.596162">
        <ele>939.6947631835938</ele>
        <time>2020-06-14T23:09:06.468Z</time>
      </trkpt>
      <trkpt lat="40.089544" lon="-0.596042">
        <ele>938.9664916992188</ele>
        <time>2020-06-14T23:09:09.354Z</time>
      </trkpt>
      <trkpt lat="40.089473" lon="-0.596213">
        <ele>939.8759155273438</ele>
        <time>2020-06-14T23:09:12.243Z</time>
      </trkpt>
      <trkpt lat="40.089436" lon="-0.596257">
        <ele>939.8627319335938</ele>
        <time>2020-06-14T23:09:15.133Z</time>
      </trkpt>
      <trkpt lat="40.089284" lon="-0.596276">
        <ele>938.0618286132812</ele>
        <time>2020-06-14T23:09:18.026Z</time>
      </trkpt>
      <trkpt lat="40.089169" lon="-0.596254">
        <ele>936.3065185546875</ele>
        <time>2020-06-14T23:09:20.921Z</time>
      </trkpt>
      <trkpt lat="40.089073" lon="-0.596185">
        <ele>934.29443359375</ele>
        <time>2020-06-14T23:09:23.818Z</time>
      </trkpt>
      <trkpt lat="40.089042" lon="-0.596138">
        <ele>933.3778076171875</ele>
        <time>2020-06-14T23:09:26.716Z</time>
      </trkpt>
      <trkpt lat="40.088768" lon="-0.596071">
        <ele>934.9758911132812</ele>
        <time>2020-06-14T23:09:29.620Z</time>
      </trkpt>
      <trkpt lat="40.088625" lon="-0.596015">
        <ele>933.252197265625</ele>
        <time>2020-06-14T23:09:32.527Z</time>
      </trkpt>
      <trkpt lat="40.088354" lon="-0.595638">
        <ele>933.8093872070312</ele>
        <time>2020-06-14T23:09:35.442Z</time>
      </trkpt>
      <trkpt lat="40.08827" lon="-0.595543">
        <ele>934.0685424804688</ele>
        <time>2020-06-14T23:09:38.359Z</time>
      </trkpt>
      <trkpt lat="40.088173" lon="-0.595484">
        <ele>933.9391479492188</ele>
        <time>2020-06-14T23:09:41.278Z</time>
      </trkpt>
      <trkpt lat="40.088108" lon="-0.595376">
        <ele>935.6728515625</ele>
        <time>2020-06-14T23:09:44.199Z</time>
      </trkpt>
      <trkpt lat="40.088064" lon="-0.595365">
        <ele>935.3560791015625</ele>
        <time>2020-06-14T23:09:47.121Z</time>
      </trkpt>
      <trkpt lat="40.087815" lon="-0.595397">
        <ele>930.3226318359375</ele>
        <time>2020-06-14T23:09:50.048Z</time>
      </trkpt>
      <trkpt lat="40.087681" lon="-0.595335">
        <ele>928.9164428710938</ele>
        <time>2020-06-14T23:09:52.978Z</time>
      </trkpt>
      <trkpt lat="40.087383" lon="-0.59499">
        <ele>930.1821899414062</ele>
        <time>2020-06-14T23:09:55.916Z</time>
      </trkpt>
      <trkpt lat="40.087217" lon="-0.594844">
        <ele>929.3519287109375</ele>
        <time>2020-06-14T23:09:58.858Z</time>
      </trkpt>
      <trkpt lat="40.087064" lon="-0.594757">
        <ele>927.9280395507812</ele>
        <time>2020-06-14T23:10:01.803Z</time>
      </trkpt>
      <trkpt lat="40.086873" lon="-0.594511">
        <ele>928.1190795898438</ele>
        <time>2020-06-14T23:10:04.753Z</time>
      </trkpt>
      <trkpt lat="40.086834" lon="-0.594374">
        <ele>928.3086547851562</ele>
        <time>2020-06-14T23:10:07.706Z</time>
      </trkpt>
      <trkpt lat="40.086792" lon="-0.594333">
        <ele>928.0015258789062</ele>
        <time>2020-06-14T23:10:10.660Z</time>
      </trkpt>
      <trkpt lat="40.086633" lon="-0.594269">
        <ele>926.2940063476562</ele>
        <time>2020-06-14T23:10:13.617Z</time>
      </trkpt>
      <trkpt lat="40.086505" lon="-0.594137">
        <ele>924.7678833007812</ele>
        <time>2020-06-14T23:10:16.577Z</time>
      </trkpt>
      <trkpt lat="40.086479" lon="-0.594087">
        <ele>924.5134887695312</ele>
        <time>2020-06-14T23:10:19.538Z</time>
      </trkpt>
      <trkpt lat="40.086426" lon="-0.593834">
        <ele>924.0281982421875</ele>
        <time>2020-06-14T23:10:22.503Z</time>
      </trkpt>
      <trkpt lat="40.086321" lon="-0.593652">
        <ele>919.4766845703125</ele>
        <time>2020-06-14T23:10:25.472Z</time>
      </trkpt>
      <trkpt lat="40.086095" lon="-0.593432">
        <ele>917.1329956054688</ele>
        <time>2020-06-14T23:10:28.446Z</time>
      </trkpt>
      <trkpt lat="40.085864" lon="-0.593248">
        <ele>918.08935546875</ele>
        <time>2020-06-14T23:10:31.426Z</time>
      </trkpt>
      <trkpt lat="40.085639" lon="-0.592932">
        <ele>919.1192016601562</ele>
        <time>2020-06-14T23:10:34.412Z</time>
      </trkpt>
      <trkpt lat="40.085421" lon="-0.592843">
        <ele>920.65625</ele>
        <time>2020-06-14T23:10:37.403Z</time>
      </trkpt>
      <trkpt lat="40.085309" lon="-0.592684">
        <ele>918.609375</ele>
        <time>2020-06-14T23:10:40.397Z</time>
      </trkpt>
      <trkpt lat="40.085043" lon="-0.592477">
        <ele>919.1415405273438</ele>
        <time>2020-06-14T23:10:43.398Z</time>
      </trkpt>
      <trkpt lat="40.084814" lon="-0.592128">
        <ele>919.8092651367188</ele>
        <time>2020-06-14T23:10:46.406Z</time>
      </trkpt>
      <trkpt lat="40.084718" lon="-0.592015">
        <ele>920.2626342773438</ele>
        <time>2020-06-14T23:10:49.416Z</time>
      </trkpt>
      <trkpt lat="40.084608" lon="-0.591959">
        <ele>921.4264526367188</ele>
        <time>2020-06-14T23:10:52.429Z</time>
      </trkpt>
      <trkpt lat="40.084473" lon="-0.591949">
        <ele>921.7201538085938</ele>
        <time>2020-06-14T23:10:55.444Z</time>
      </trkpt>
      <trkpt lat="40.08438" lon="-0.591952">
        <ele>922.0153198242188</ele>
        <time>2020-06-14T23:10:58.461Z</time>
      </trkpt>
      <trkpt lat="40.084216" lon="-0.591988">
        <ele>923.272705078125</ele>
        <time>2020-06-14T23:11:01.481Z</time>
      </trkpt>
      <trkpt lat="40.084123" lon="-0.592027">
        <ele>924.4317016601562</ele>
        <time>2020-06-14T23:11:04.503Z</time>
      </trkpt>
      <trkpt lat="40.084036" lon="-0.592027">
        <ele>924.6404418945312</ele>
        <time>2020-06-14T23:11:07.527Z</time>
      </trkpt>
      <trkpt lat="40.08372" lon="-0.591902">
        <ele>925.3280029296875</ele>
        <time>2020-06-14T23:11:10.558Z</time>
      </trkpt>
      <trkpt lat="40.083599" lon="-0.591877">
        <ele>924.156982421875</ele>
        <time>2020-06-14T23:11:13.591Z</time>
      </trkpt>
      <trkpt lat="40.083376" lon="-0.59194">
        <ele>923.3075561523438</ele>
        <time>2020-06-14T23:11:16.629Z</time>
      </trkpt>
      <trkpt lat="40.083279" lon="-0.591901">
        <ele>922.141357421875</ele>
        <time>2020-06-14T23:11:19.669Z</time>
      </trkpt>
      <trkpt lat="40.083199" lon="-0.591798">
        <ele>921.4360961914062</ele>
        <time>2020-06-14T23:11:22.711Z</time>
      </trkpt>
      <trkpt lat="40.083251" lon="-0.591621">
        <ele>920.8865966796875</ele>
        <time>2020-06-14T23:11:25.756Z</time>
      </trkpt>
      <trkpt lat="40.083345" lon="-0.590943">
        <ele>918.5481567382812</ele>
        <time>2020-06-14T23:11:28.811Z</time>
      </trkpt>
      <trkpt lat="40.08349" lon="-0.590454">
        <ele>918.0811157226562</ele>
        <time>2020-06-14T23:11:31.875Z</time>
      </trkpt>
      <trkpt lat="40.083499" lon="-0.58966">
        <ele>923.2982788085938</ele>
        <time>2020-06-14T23:11:34.951Z</time>
      </trkpt>
      <trkpt lat="40.083464" lon="-0.58942">
        <ele>923.7542114257812</ele>
        <time>2020-06-14T23:11:38.030Z</time>
      </trkpt>
      <trkpt lat="40.083394" lon="-0.589305">
        <ele>924.2280883789062</ele>
        <time>2020-06-14T23:11:41.112Z</time>
      </trkpt>
      <trkpt lat="40.083149" lon="-0.588998">
        <ele>924.6567993164062</ele>
        <time>2020-06-14T23:11:44.200Z</time>
      </trkpt>
      <trkpt lat="40.08297" lon="-0.588506">
        <ele>924.4155883789062</ele>
        <time>2020-06-14T23:11:47.297Z</time>
      </trkpt>
      <trkpt lat="40.082849125433555" lon="-0.5884081015906102">
        <ele>923.3576049804688</ele>
        <time>2020-06-14T23:11:50.397Z</time>
      </trkpt>
      <trkpt lat="40.082849" lon="-0.588408">
        <ele>923.3564453125</ele>
        <time>2020-06-14T23:11:53.497Z</time>
      </trkpt>
      <trkpt lat="40.082752" lon="-0.588362">
        <ele>922.5477905273438</ele>
        <time>2020-06-14T23:11:56.599Z</time>
      </trkpt>
      <trkpt lat="40.082566" lon="-0.588326">
        <ele>920.677978515625</ele>
        <time>2020-06-14T23:11:59.705Z</time>
      </trkpt>
      <trkpt lat="40.082429" lon="-0.588394">
        <ele>919.2754516601562</ele>
        <time>2020-06-14T23:12:02.813Z</time>
      </trkpt>
      <trkpt lat="40.082341" lon="-0.588511">
        <ele>919.166259765625</ele>
        <time>2020-06-14T23:12:05.924Z</time>
      </trkpt>
      <trkpt lat="40.082311" lon="-0.588414">
        <ele>917.65087890625</ele>
        <time>2020-06-14T23:12:09.037Z</time>
      </trkpt>
      <trkpt lat="40.082315" lon="-0.588302">
        <ele>916.50390625</ele>
        <time>2020-06-14T23:12:12.151Z</time>
      </trkpt>
      <trkpt lat="40.082294" lon="-0.58825">
        <ele>915.6148681640625</ele>
        <time>2020-06-14T23:12:15.266Z</time>
      </trkpt>
      <trkpt lat="40.082334" lon="-0.588286">
        <ele>916.6275024414062</ele>
        <time>2020-06-14T23:12:18.382Z</time>
      </trkpt>
      <trkpt lat="40.082356" lon="-0.588343">
        <ele>917.5861206054688</ele>
        <time>2020-06-14T23:12:21.499Z</time>
      </trkpt>
      <trkpt lat="40.082339" lon="-0.588286">
        <ele>916.7054443359375</ele>
        <time>2020-06-14T23:12:24.617Z</time>
      </trkpt>
      <trkpt lat="40.08228" lon="-0.588197">
        <ele>914.8241577148438</ele>
        <time>2020-06-14T23:12:27.737Z</time>
      </trkpt>
      <trkpt lat="40.082192" lon="-0.588144">
        <ele>912.8792724609375</ele>
        <time>2020-06-14T23:12:30.859Z</time>
      </trkpt>
      <trkpt lat="40.082073" lon="-0.587957">
        <ele>910.2671508789062</ele>
        <time>2020-06-14T23:12:33.985Z</time>
      </trkpt>
      <trkpt lat="40.081987" lon="-0.587867">
        <ele>910.0007934570312</ele>
        <time>2020-06-14T23:12:37.113Z</time>
      </trkpt>
      <trkpt lat="40.081728" lon="-0.587832">
        <ele>906.6497192382812</ele>
        <time>2020-06-14T23:12:40.246Z</time>
      </trkpt>
      <trkpt lat="40.081677" lon="-0.587799">
        <ele>906.2717895507812</ele>
        <time>2020-06-14T23:12:43.380Z</time>
      </trkpt>
      <trkpt lat="40.081644" lon="-0.587749">
        <ele>906.3366088867188</ele>
        <time>2020-06-14T23:12:46.515Z</time>
      </trkpt>
      <trkpt lat="40.081439" lon="-0.587679">
        <ele>902.9893798828125</ele>
        <time>2020-06-14T23:12:49.654Z</time>
      </trkpt>
      <trkpt lat="40.081239" lon="-0.587576">
        <ele>898.862060546875</ele>
        <time>2020-06-14T23:12:52.798Z</time>
      </trkpt>
      <trkpt lat="40.081092" lon="-0.587554">
        <ele>894.7083740234375</ele>
        <time>2020-06-14T23:12:55.945Z</time>
      </trkpt>
      <trkpt lat="40.081052" lon="-0.587521">
        <ele>893.6753540039062</ele>
        <time>2020-06-14T23:12:59.093Z</time>
      </trkpt>
      <trkpt lat="40.081052" lon="-0.587359">
        <ele>894.2986450195312</ele>
        <time>2020-06-14T23:13:02.243Z</time>
      </trkpt>
      <trkpt lat="40.081026" lon="-0.587288">
        <ele>893.9219360351562</ele>
        <time>2020-06-14T23:13:05.394Z</time>
      </trkpt>
      <trkpt lat="40.080961" lon="-0.587181">
        <ele>892.6417236328125</ele>
        <time>2020-06-14T23:13:08.547Z</time>
      </trkpt>
      <trkpt lat="40.080901" lon="-0.587127">
        <ele>892.5330200195312</ele>
        <time>2020-06-14T23:13:11.702Z</time>
      </trkpt>
      <trkpt lat="40.080843" lon="-0.586995">
        <ele>894.7333984375</ele>
        <time>2020-06-14T23:13:14.859Z</time>
      </trkpt>
      <trkpt lat="40.080703" lon="-0.586913">
        <ele>893.2312622070312</ele>
        <time>2020-06-14T23:13:18.019Z</time>
      </trkpt>
      <trkpt lat="40.080614" lon="-0.586969">
        <ele>889.0618896484375</ele>
        <time>2020-06-14T23:13:21.181Z</time>
      </trkpt>
      <trkpt lat="40.080553" lon="-0.586952">
        <ele>887.5873413085938</ele>
        <time>2020-06-14T23:13:24.344Z</time>
      </trkpt>
      <trkpt lat="40.08037" lon="-0.586804">
        <ele>885.8248901367188</ele>
        <time>2020-06-14T23:13:27.512Z</time>
      </trkpt>
      <trkpt lat="40.08011" lon="-0.586522">
        <ele>885.5806884765625</ele>
        <time>2020-06-14T23:13:30.686Z</time>
      </trkpt>
      <trkpt lat="40.079932" lon="-0.586426">
        <ele>882.7587280273438</ele>
        <time>2020-06-14T23:13:33.864Z</time>
      </trkpt>
      <trkpt lat="40.079689" lon="-0.586228">
        <ele>880.688232421875</ele>
        <time>2020-06-14T23:13:37.048Z</time>
      </trkpt>
      <trkpt lat="40.079541" lon="-0.586235">
        <ele>876.6875610351562</ele>
        <time>2020-06-14T23:13:40.235Z</time>
      </trkpt>
      <trkpt lat="40.079191" lon="-0.586163">
        <ele>870.609375</ele>
        <time>2020-06-14T23:13:43.429Z</time>
      </trkpt>
      <trkpt lat="40.079063" lon="-0.586108">
        <ele>869.1431884765625</ele>
        <time>2020-06-14T23:13:46.626Z</time>
      </trkpt>
      <trkpt lat="40.078947" lon="-0.586103">
        <ele>866.8489990234375</ele>
        <time>2020-06-14T23:13:49.825Z</time>
      </trkpt>
      <trkpt lat="40.07882" lon="-0.586047">
        <ele>866.0906982421875</ele>
        <time>2020-06-14T23:13:53.027Z</time>
      </trkpt>
      <trkpt lat="40.078678" lon="-0.585948">
        <ele>867.154052734375</ele>
        <time>2020-06-14T23:13:56.232Z</time>
      </trkpt>
      <trkpt lat="40.078586" lon="-0.585933">
        <ele>866.720947265625</ele>
        <time>2020-06-14T23:13:59.439Z</time>
      </trkpt>
      <trkpt lat="40.078513" lon="-0.585946">
        <ele>865.6303100585938</ele>
        <time>2020-06-14T23:14:02.647Z</time>
      </trkpt>
      <trkpt lat="40.078375" lon="-0.585845">
        <ele>867.1295776367188</ele>
        <time>2020-06-14T23:14:05.859Z</time>
      </trkpt>
      <trkpt lat="40.078315" lon="-0.585824">
        <ele>866.8920288085938</ele>
        <time>2020-06-14T23:14:09.072Z</time>
      </trkpt>
      <trkpt lat="40.078268" lon="-0.585775">
        <ele>867.5651245117188</ele>
        <time>2020-06-14T23:14:12.286Z</time>
      </trkpt>
      <trkpt lat="40.078166" lon="-0.585813">
        <ele>865.2159423828125</ele>
        <time>2020-06-14T23:14:15.502Z</time>
      </trkpt>
      <trkpt lat="40.077814" lon="-0.58575">
        <ele>862.9287109375</ele>
        <time>2020-06-14T23:14:18.725Z</time>
      </trkpt>
      <trkpt lat="40.077761" lon="-0.585759">
        <ele>862.3096313476562</ele>
        <time>2020-06-14T23:14:21.949Z</time>
      </trkpt>
      <trkpt lat="40.077676" lon="-0.585811">
        <ele>860.3251953125</ele>
        <time>2020-06-14T23:14:25.175Z</time>
      </trkpt>
      <trkpt lat="40.077594" lon="-0.585905">
        <ele>857.253662109375</ele>
        <time>2020-06-14T23:14:28.403Z</time>
      </trkpt>
      <trkpt lat="40.07749" lon="-0.585931">
        <ele>855.79150390625</ele>
        <time>2020-06-14T23:14:31.633Z</time>
      </trkpt>
      <trkpt lat="40.077351" lon="-0.586029">
        <ele>852.1549072265625</ele>
        <time>2020-06-14T23:14:34.867Z</time>
      </trkpt>
      <trkpt lat="40.077205" lon="-0.586028">
        <ele>850.9539184570312</ele>
        <time>2020-06-14T23:14:38.104Z</time>
      </trkpt>
      <trkpt lat="40.077145" lon="-0.586059">
        <ele>849.6689453125</ele>
        <time>2020-06-14T23:14:41.342Z</time>
      </trkpt>
      <trkpt lat="40.077021" lon="-0.586081">
        <ele>848.2543334960938</ele>
        <time>2020-06-14T23:14:44.582Z</time>
      </trkpt>
      <trkpt lat="40.076866" lon="-0.586175">
        <ele>844.9560546875</ele>
        <time>2020-06-14T23:14:47.826Z</time>
      </trkpt>
      <trkpt lat="40.076717" lon="-0.586114">
        <ele>845.59912109375</ele>
        <time>2020-06-14T23:14:51.073Z</time>
      </trkpt>
      <trkpt lat="40.076614" lon="-0.586161">
        <ele>843.7970581054688</ele>
        <time>2020-06-14T23:14:54.322Z</time>
      </trkpt>
      <trkpt lat="40.076541" lon="-0.586225">
        <ele>841.74658203125</ele>
        <time>2020-06-14T23:14:57.573Z</time>
      </trkpt>
      <trkpt lat="40.076506" lon="-0.586296">
        <ele>839.7477416992188</ele>
        <time>2020-06-14T23:15:00.825Z</time>
      </trkpt>
      <trkpt lat="40.076224" lon="-0.586464">
        <ele>835.0850219726562</ele>
        <time>2020-06-14T23:15:04.083Z</time>
      </trkpt>
      <trkpt lat="40.076092" lon="-0.586587">
        <ele>833.5048828125</ele>
        <time>2020-06-14T23:15:07.345Z</time>
      </trkpt>
      <trkpt lat="40.075957" lon="-0.586661">
        <ele>832.821044921875</ele>
        <time>2020-06-14T23:15:10.609Z</time>
      </trkpt>
      <trkpt lat="40.075901" lon="-0.58672">
        <ele>832.0279541015625</ele>
        <time>2020-06-14T23:15:13.875Z</time>
      </trkpt>
      <trkpt lat="40.075861" lon="-0.586837">
        <ele>830.1142578125</ele>
        <time>2020-06-14T23:15:17.143Z</time>
      </trkpt>
      <trkpt lat="40.075791" lon="-0.586868">
        <ele>829.892333984375</ele>
        <time>2020-06-14T23:15:20.412Z</time>
      </trkpt>
      <trkpt lat="40.075569" lon="-0.587043">
        <ele>827.8082275390625</ele>
        <time>2020-06-14T23:15:23.687Z</time>
      </trkpt>
      <trkpt lat="40.075479" lon="-0.587066">
        <ele>826.6529541015625</ele>
        <time>2020-06-14T23:15:26.963Z</time>
      </trkpt>
      <trkpt lat="40.075376" lon="-0.587162">
        <ele>825.2935791015625</ele>
        <time>2020-06-14T23:15:30.242Z</time>
      </trkpt>
      <trkpt lat="40.075327" lon="-0.587153">
        <ele>824.6469116210938</ele>
        <time>2020-06-14T23:15:33.522Z</time>
      </trkpt>
      <trkpt lat="40.075272" lon="-0.587119">
        <ele>823.9210205078125</ele>
        <time>2020-06-14T23:15:36.803Z</time>
      </trkpt>
      <trkpt lat="40.075238" lon="-0.587047">
        <ele>823.4722900390625</ele>
        <time>2020-06-14T23:15:40.085Z</time>
      </trkpt>
      <trkpt lat="40.075212" lon="-0.586666">
        <ele>823.129150390625</ele>
        <time>2020-06-14T23:15:43.373Z</time>
      </trkpt>
      <trkpt lat="40.075143" lon="-0.586549">
        <ele>821.91357421875</ele>
        <time>2020-06-14T23:15:46.664Z</time>
      </trkpt>
      <trkpt lat="40.075129" lon="-0.586466">
        <ele>821.379638671875</ele>
        <time>2020-06-14T23:15:49.956Z</time>
      </trkpt>
      <trkpt lat="40.075084" lon="-0.58645">
        <ele>820.5662231445312</ele>
        <time>2020-06-14T23:15:53.249Z</time>
      </trkpt>
      <trkpt lat="40.075032" lon="-0.586472">
        <ele>819.7719116210938</ele>
        <time>2020-06-14T23:15:56.543Z</time>
      </trkpt>
      <trkpt lat="40.074936" lon="-0.586464">
        <ele>818.130615234375</ele>
        <time>2020-06-14T23:15:59.839Z</time>
      </trkpt>
      <trkpt lat="40.074559" lon="-0.586311">
        <ele>810.89892578125</ele>
        <time>2020-06-14T23:16:03.143Z</time>
      </trkpt>
      <trkpt lat="40.074442" lon="-0.586279">
        <ele>808.4093017578125</ele>
        <time>2020-06-14T23:16:06.449Z</time>
      </trkpt>
      <trkpt lat="40.074348" lon="-0.586192">
        <ele>805.6737670898438</ele>
        <time>2020-06-14T23:16:09.757Z</time>
      </trkpt>
      <trkpt lat="40.07405" lon="-0.586038">
        <ele>798.5936279296875</ele>
        <time>2020-06-14T23:16:13.072Z</time>
      </trkpt>
      <trkpt lat="40.07388" lon="-0.5859">
        <ele>795.72607421875</ele>
        <time>2020-06-14T23:16:16.391Z</time>
      </trkpt>
      <trkpt lat="40.073739" lon="-0.585916">
        <ele>794.0172119140625</ele>
        <time>2020-06-14T23:16:19.713Z</time>
      </trkpt>
      <trkpt lat="40.073688" lon="-0.585908">
        <ele>793.112548828125</ele>
        <time>2020-06-14T23:16:23.036Z</time>
      </trkpt>
      <trkpt lat="40.073643" lon="-0.58587">
        <ele>792.1287231445312</ele>
        <time>2020-06-14T23:16:26.360Z</time>
      </trkpt>
      <trkpt lat="40.073621" lon="-0.585943">
        <ele>792.1970825195312</ele>
        <time>2020-06-14T23:16:29.685Z</time>
      </trkpt>
      <trkpt lat="40.073564" lon="-0.585931">
        <ele>791.1676635742188</ele>
        <time>2020-06-14T23:16:33.011Z</time>
      </trkpt>
      <trkpt lat="40.073488" lon="-0.586018">
        <ele>790.4129638671875</ele>
        <time>2020-06-14T23:16:36.339Z</time>
      </trkpt>
      <trkpt lat="40.073391" lon="-0.586023">
        <ele>788.8136596679688</ele>
        <time>2020-06-14T23:16:39.669Z</time>
      </trkpt>
      <trkpt lat="40.073339" lon="-0.585917">
        <ele>787.3773803710938</ele>
        <time>2020-06-14T23:16:43.001Z</time>
      </trkpt>
      <trkpt lat="40.073101" lon="-0.585605">
        <ele>783.4876098632812</ele>
        <time>2020-06-14T23:16:46.340Z</time>
      </trkpt>
      <trkpt lat="40.073004" lon="-0.585568">
        <ele>782.11865234375</ele>
        <time>2020-06-14T23:16:49.681Z</time>
      </trkpt>
      <trkpt lat="40.072864" lon="-0.58554">
        <ele>780.3599853515625</ele>
        <time>2020-06-14T23:16:53.025Z</time>
      </trkpt>
      <trkpt lat="40.072673" lon="-0.585439">
        <ele>778.5931396484375</ele>
        <time>2020-06-14T23:16:56.373Z</time>
      </trkpt>
      <trkpt lat="40.072504" lon="-0.585408">
        <ele>776.9169921875</ele>
        <time>2020-06-14T23:16:59.724Z</time>
      </trkpt>
      <trkpt lat="40.072406" lon="-0.585412">
        <ele>775.839599609375</ele>
        <time>2020-06-14T23:17:03.077Z</time>
      </trkpt>
      <trkpt lat="40.072234" lon="-0.585443">
        <ele>773.83349609375</ele>
        <time>2020-06-14T23:17:06.434Z</time>
      </trkpt>
      <trkpt lat="40.072139" lon="-0.585482">
        <ele>772.6205444335938</ele>
        <time>2020-06-14T23:17:09.793Z</time>
      </trkpt>
      <trkpt lat="40.072061" lon="-0.585454">
        <ele>771.8295288085938</ele>
        <time>2020-06-14T23:17:13.153Z</time>
      </trkpt>
      <trkpt lat="40.072006" lon="-0.585412">
        <ele>771.3052368164062</ele>
        <time>2020-06-14T23:17:16.514Z</time>
      </trkpt>
      <trkpt lat="40.071948" lon="-0.585401">
        <ele>770.592529296875</ele>
        <time>2020-06-14T23:17:19.877Z</time>
      </trkpt>
      <trkpt lat="40.071876" lon="-0.585331">
        <ele>769.9782104492188</ele>
        <time>2020-06-14T23:17:23.241Z</time>
      </trkpt>
      <trkpt lat="40.071878" lon="-0.585196">
        <ele>770.6525268554688</ele>
        <time>2020-06-14T23:17:26.607Z</time>
      </trkpt>
      <trkpt lat="40.071923" lon="-0.585084">
        <ele>771.783935546875</ele>
        <time>2020-06-14T23:17:29.975Z</time>
      </trkpt>
      <trkpt lat="40.071929" lon="-0.585023">
        <ele>772.1558837890625</ele>
        <time>2020-06-14T23:17:33.344Z</time>
      </trkpt>
      <trkpt lat="40.071921" lon="-0.584799">
        <ele>772.9912109375</ele>
        <time>2020-06-14T23:17:36.717Z</time>
      </trkpt>
      <trkpt lat="40.071945" lon="-0.584376">
        <ele>773.6505126953125</ele>
        <time>2020-06-14T23:17:40.096Z</time>
      </trkpt>
      <trkpt lat="40.071973" lon="-0.584312">
        <ele>774.0872192382812</ele>
        <time>2020-06-14T23:17:43.476Z</time>
      </trkpt>
      <trkpt lat="40.071988" lon="-0.584169">
        <ele>774.3211669921875</ele>
        <time>2020-06-14T23:17:46.859Z</time>
      </trkpt>
      <trkpt lat="40.071958" lon="-0.583863">
        <ele>774.5816040039062</ele>
        <time>2020-06-14T23:17:50.246Z</time>
      </trkpt>
      <trkpt lat="40.071881" lon="-0.58374">
        <ele>773.68359375</ele>
        <time>2020-06-14T23:17:53.636Z</time>
      </trkpt>
      <trkpt lat="40.071811" lon="-0.583663">
        <ele>772.8269653320312</ele>
        <time>2020-06-14T23:17:57.028Z</time>
      </trkpt>
      <trkpt lat="40.071745" lon="-0.583532">
        <ele>771.879150390625</ele>
        <time>2020-06-14T23:18:00.422Z</time>
      </trkpt>
      <trkpt lat="40.071716" lon="-0.583408">
        <ele>771.30322265625</ele>
        <time>2020-06-14T23:18:03.818Z</time>
      </trkpt>
      <trkpt lat="40.071678" lon="-0.58334">
        <ele>771.5391235351562</ele>
        <time>2020-06-14T23:18:07.215Z</time>
      </trkpt>
      <trkpt lat="40.071637" lon="-0.583314">
        <ele>771.6458740234375</ele>
        <time>2020-06-14T23:18:10.613Z</time>
      </trkpt>
      <trkpt lat="40.071552" lon="-0.583397">
        <ele>771.0459594726562</ele>
        <time>2020-06-14T23:18:14.013Z</time>
      </trkpt>
      <trkpt lat="40.071453862181905" lon="-0.5836463501690748">
        <ele>769.432373046875</ele>
        <time>2020-06-14T23:18:17.418Z</time>
      </trkpt>
      <trkpt lat="40.074265984602086" lon="-0.5861759891308059">
        <ele>804.005615234375</ele>
        <time>2020-06-14T21:41:15.000Z</time>
      </trkpt>
      <trkpt lat="40.074232" lon="-0.586152">
        <ele>803.106201171875</ele>
        <time>2020-06-14T21:41:15.001Z</time>
      </trkpt>
      <trkpt lat="40.074193" lon="-0.586106">
        <ele>801.8524169921875</ele>
        <time>2020-06-14T21:41:15.003Z</time>
      </trkpt>
      <trkpt lat="40.074031" lon="-0.586033">
        <ele>798.3356323242188</ele>
        <time>2020-06-14T21:41:15.008Z</time>
      </trkpt>
      <trkpt lat="40.073994" lon="-0.586009">
        <ele>797.7477416992188</ele>
        <time>2020-06-14T21:41:15.014Z</time>
      </trkpt>
      <trkpt lat="40.073843" lon="-0.585948">
        <ele>795.5701293945312</ele>
        <time>2020-06-14T21:41:15.023Z</time>
      </trkpt>
      <trkpt lat="40.073681" lon="-0.585912">
        <ele>793.0189819335938</ele>
        <time>2020-06-14T21:41:15.036Z</time>
      </trkpt>
      <trkpt lat="40.073666" lon="-0.58593">
        <ele>792.875</ele>
        <time>2020-06-14T21:41:15.049Z</time>
      </trkpt>
      <trkpt lat="40.073593" lon="-0.585914">
        <ele>791.5527954101562</ele>
        <time>2020-06-14T21:41:15.063Z</time>
      </trkpt>
      <trkpt lat="40.073567" lon="-0.585925">
        <ele>791.1820678710938</ele>
        <time>2020-06-14T21:41:15.078Z</time>
      </trkpt>
      <trkpt lat="40.073557" lon="-0.585981">
        <ele>791.3500366210938</ele>
        <time>2020-06-14T21:41:15.094Z</time>
      </trkpt>
      <trkpt lat="40.073544" lon="-0.58606">
        <ele>791.6055908203125</ele>
        <time>2020-06-14T21:41:15.111Z</time>
      </trkpt>
      <trkpt lat="40.073489" lon="-0.586068">
        <ele>790.729736328125</ele>
        <time>2020-06-14T21:41:15.129Z</time>
      </trkpt>
      <trkpt lat="40.073383" lon="-0.585991">
        <ele>788.4873046875</ele>
        <time>2020-06-14T21:41:15.150Z</time>
      </trkpt>
      <trkpt lat="40.073226" lon="-0.585752">
        <ele>785.4901123046875</ele>
        <time>2020-06-14T21:41:15.175Z</time>
      </trkpt>
      <trkpt lat="40.073006" lon="-0.585569">
        <ele>782.1474609375</ele>
        <time>2020-06-14T21:41:15.206Z</time>
      </trkpt>
      <trkpt lat="40.072963" lon="-0.585572">
        <ele>781.587158203125</ele>
        <time>2020-06-14T21:41:15.238Z</time>
      </trkpt>
      <trkpt lat="40.072938" lon="-0.585566">
        <ele>781.2427978515625</ele>
        <time>2020-06-14T21:41:15.270Z</time>
      </trkpt>
      <trkpt lat="40.072687" lon="-0.585524">
        <ele>778.4103393554688</ele>
        <time>2020-06-14T21:41:15.307Z</time>
      </trkpt>
      <trkpt lat="40.072528" lon="-0.585454">
        <ele>776.9553833007812</ele>
        <time>2020-06-14T21:41:15.347Z</time>
      </trkpt>
      <trkpt lat="40.072293" lon="-0.585407">
        <ele>774.6433715820312</ele>
        <time>2020-06-14T21:41:15.392Z</time>
      </trkpt>
      <trkpt lat="40.072124" lon="-0.585466">
        <ele>772.5353393554688</ele>
        <time>2020-06-14T21:41:15.441Z</time>
      </trkpt>
      <trkpt lat="40.07206" lon="-0.585478">
        <ele>771.701171875</ele>
        <time>2020-06-14T21:41:15.491Z</time>
      </trkpt>
      <trkpt lat="40.071938" lon="-0.585403">
        <ele>770.4509887695312</ele>
        <time>2020-06-14T21:41:15.544Z</time>
      </trkpt>
      <trkpt lat="40.071882" lon="-0.585304">
        <ele>770.18701171875</ele>
        <time>2020-06-14T21:41:15.599Z</time>
      </trkpt>
      <trkpt lat="40.071894" lon="-0.585232">
        <ele>770.69091796875</ele>
        <time>2020-06-14T21:41:15.655Z</time>
      </trkpt>
      <trkpt lat="40.071895" lon="-0.585222">
        <ele>770.7521362304688</ele>
        <time>2020-06-14T21:41:15.711Z</time>
      </trkpt>
      <trkpt lat="40.071912" lon="-0.585137">
        <ele>771.3843994140625</ele>
        <time>2020-06-14T21:41:15.768Z</time>
      </trkpt>
      <trkpt lat="40.071993" lon="-0.584825">
        <ele>773.9508056640625</ele>
        <time>2020-06-14T21:41:15.830Z</time>
      </trkpt>
      <trkpt lat="40.072071" lon="-0.584499">
        <ele>775.6157836914062</ele>
        <time>2020-06-14T21:41:15.897Z</time>
      </trkpt>
      <trkpt lat="40.072092" lon="-0.58433">
        <ele>775.9432983398438</ele>
        <time>2020-06-14T21:41:15.967Z</time>
      </trkpt>
      <trkpt lat="40.072152" lon="-0.584032">
        <ele>776.608642578125</ele>
        <time>2020-06-14T21:41:16.042Z</time>
      </trkpt>
      <trkpt lat="40.072168" lon="-0.583688">
        <ele>775.96630859375</ele>
        <time>2020-06-14T21:41:16.122Z</time>
      </trkpt>
      <trkpt lat="40.072215" lon="-0.583579">
        <ele>775.9302978515625</ele>
        <time>2020-06-14T21:41:16.204Z</time>
      </trkpt>
      <trkpt lat="40.072217" lon="-0.583579">
        <ele>775.9398803710938</ele>
        <time>2020-06-14T21:41:16.286Z</time>
      </trkpt>
      <trkpt lat="40.072226" lon="-0.583623">
        <ele>776.0886840820312</ele>
        <time>2020-06-14T21:41:16.369Z</time>
      </trkpt>
      <trkpt lat="40.072228" lon="-0.583613">
        <ele>776.0742797851562</ele>
        <time>2020-06-14T21:41:16.452Z</time>
      </trkpt>
      <trkpt lat="40.072215" lon="-0.58359">
        <ele>775.9566650390625</ele>
        <time>2020-06-14T21:41:16.535Z</time>
      </trkpt>
      <trkpt lat="40.072208" lon="-0.583593">
        <ele>775.9302978515625</ele>
        <time>2020-06-14T21:41:16.619Z</time>
      </trkpt>
      <trkpt lat="40.072207" lon="-0.583602">
        <ele>775.9470825195312</ele>
        <time>2020-06-14T21:41:16.703Z</time>
      </trkpt>
      <trkpt lat="40.072202" lon="-0.583576">
        <ele>775.8607177734375</ele>
        <time>2020-06-14T21:41:16.787Z</time>
      </trkpt>
      <trkpt lat="40.07221" lon="-0.583607">
        <ele>775.9735107421875</ele>
        <time>2020-06-14T21:41:16.872Z</time>
      </trkpt>
      <trkpt lat="40.072224" lon="-0.583607">
        <ele>776.0406494140625</ele>
        <time>2020-06-14T21:41:16.957Z</time>
      </trkpt>
      <trkpt lat="40.072234" lon="-0.583591">
        <ele>776.05029296875</ele>
        <time>2020-06-14T21:41:17.042Z</time>
      </trkpt>
      <trkpt lat="40.07223" lon="-0.583615">
        <ele>776.0886840820312</ele>
        <time>2020-06-14T21:41:17.128Z</time>
      </trkpt>
      <trkpt lat="40.07223" lon="-0.583565">
        <ele>775.9686889648438</ele>
        <time>2020-06-14T21:41:17.214Z</time>
      </trkpt>
      <trkpt lat="40.072155" lon="-0.583548">
        <ele>775.5679321289062</ele>
        <time>2020-06-14T21:41:17.302Z</time>
      </trkpt>
      <trkpt lat="40.07208" lon="-0.583781">
        <ele>775.6920776367188</ele>
        <time>2020-06-14T21:41:17.394Z</time>
      </trkpt>
      <trkpt lat="40.072075" lon="-0.583759">
        <ele>775.59130859375</ele>
        <time>2020-06-14T21:41:17.486Z</time>
      </trkpt>
      <trkpt lat="40.072035" lon="-0.583556">
        <ele>774.7202758789062</ele>
        <time>2020-06-14T21:41:17.581Z</time>
      </trkpt>
      <trkpt lat="40.071965" lon="-0.583513">
        <ele>773.9451904296875</ele>
        <time>2020-06-14T21:41:17.678Z</time>
      </trkpt>
      <trkpt lat="40.071795" lon="-0.58353">
        <ele>772.354248046875</ele>
        <time>2020-06-14T21:41:17.778Z</time>
      </trkpt>
      <trkpt lat="40.071682" lon="-0.583653">
        <ele>771.5647583007812</ele>
        <time>2020-06-14T21:41:17.881Z</time>
      </trkpt>
      <trkpt lat="40.071561" lon="-0.583716">
        <ele>770.5545654296875</ele>
        <time>2020-06-14T21:41:17.987Z</time>
      </trkpt>
      <trkpt lat="40.071589" lon="-0.583888">
        <ele>770.8898315429688</ele>
        <time>2020-06-14T21:41:18.096Z</time>
      </trkpt>
      <trkpt lat="40.071426" lon="-0.584097">
        <ele>768.071533203125</ele>
        <time>2020-06-14T21:41:18.209Z</time>
      </trkpt>
      <trkpt lat="40.071404" lon="-0.584179">
        <ele>767.368408203125</ele>
        <time>2020-06-14T21:41:18.323Z</time>
      </trkpt>
      <trkpt lat="40.071352" lon="-0.584235">
        <ele>766.5333862304688</ele>
        <time>2020-06-14T21:41:18.439Z</time>
      </trkpt>
      <trkpt lat="40.071333" lon="-0.58405">
        <ele>767.4608154296875</ele>
        <time>2020-06-14T21:41:18.558Z</time>
      </trkpt>
      <trkpt lat="40.07133" lon="-0.584039">
        <ele>767.4979858398438</ele>
        <time>2020-06-14T21:41:18.677Z</time>
      </trkpt>
      <trkpt lat="40.071293" lon="-0.583922">
        <ele>767.8447265625</ele>
        <time>2020-06-14T21:41:18.798Z</time>
      </trkpt>
      <trkpt lat="40.071255" lon="-0.583881">
        <ele>767.7345581054688</ele>
        <time>2020-06-14T21:41:18.920Z</time>
      </trkpt>
      <trkpt lat="40.071162" lon="-0.583717">
        <ele>768.5382080078125</ele>
        <time>2020-06-14T21:41:19.045Z</time>
      </trkpt>
      <trkpt lat="40.071058" lon="-0.583667">
        <ele>768.5885620117188</ele>
        <time>2020-06-14T21:41:19.172Z</time>
      </trkpt>
      <trkpt lat="40.070962" lon="-0.583719">
        <ele>768.0462646484375</ele>
        <time>2020-06-14T21:41:19.301Z</time>
      </trkpt>
      <trkpt lat="40.070931" lon="-0.583716">
        <ele>767.9898681640625</ele>
        <time>2020-06-14T21:41:19.431Z</time>
      </trkpt>
      <trkpt lat="40.070938" lon="-0.583657">
        <ele>768.3606567382812</ele>
        <time>2020-06-14T21:41:19.562Z</time>
      </trkpt>
      <trkpt lat="40.070913" lon="-0.583717">
        <ele>767.940673828125</ele>
        <time>2020-06-14T21:41:19.694Z</time>
      </trkpt>
      <trkpt lat="40.070903" lon="-0.583742">
        <ele>767.7667236328125</ele>
        <time>2020-06-14T21:41:19.826Z</time>
      </trkpt>
      <trkpt lat="40.070916" lon="-0.583647">
        <ele>768.3678588867188</ele>
        <time>2020-06-14T21:41:19.960Z</time>
      </trkpt>
      <trkpt lat="40.07093" lon="-0.583468">
        <ele>769.4752197265625</ele>
        <time>2020-06-14T21:41:20.096Z</time>
      </trkpt>
      <trkpt lat="40.070911" lon="-0.583309">
        <ele>770.0507202148438</ele>
        <time>2020-06-14T21:41:20.235Z</time>
      </trkpt>
      <trkpt lat="40.070888" lon="-0.583133">
        <ele>769.8575439453125</ele>
        <time>2020-06-14T21:41:20.377Z</time>
      </trkpt>
      <trkpt lat="40.0709" lon="-0.582878">
        <ele>770.6077270507812</ele>
        <time>2020-06-14T21:41:20.523Z</time>
      </trkpt>
      <trkpt lat="40.070919" lon="-0.582695">
        <ele>771.6455688476562</ele>
        <time>2020-06-14T21:41:20.671Z</time>
      </trkpt>
      <trkpt lat="40.070919" lon="-0.582515">
        <ele>772.5477905273438</ele>
        <time>2020-06-14T21:41:20.822Z</time>
      </trkpt>
      <trkpt lat="40.07089" lon="-0.582615">
        <ele>771.785888671875</ele>
        <time>2020-06-14T21:41:20.975Z</time>
      </trkpt>
      <trkpt lat="40.07078" lon="-0.582684">
        <ele>770.5309448242188</ele>
        <time>2020-06-14T21:41:21.130Z</time>
      </trkpt>
      <trkpt lat="40.070702" lon="-0.582774">
        <ele>769.4439086914062</ele>
        <time>2020-06-14T21:41:21.287Z</time>
      </trkpt>
      <trkpt lat="40.070603" lon="-0.582751">
        <ele>769.1451416015625</ele>
        <time>2020-06-14T21:41:21.446Z</time>
      </trkpt>
      <trkpt lat="40.070457" lon="-0.582616">
        <ele>769.9154052734375</ele>
        <time>2020-06-14T21:41:21.609Z</time>
      </trkpt>
      <trkpt lat="40.070429" lon="-0.58257">
        <ele>770.2561645507812</ele>
        <time>2020-06-14T21:41:21.773Z</time>
      </trkpt>
      <trkpt lat="40.070351" lon="-0.582317">
        <ele>771.5648803710938</ele>
        <time>2020-06-14T21:41:21.941Z</time>
      </trkpt>
      <trkpt lat="40.070341" lon="-0.582303">
        <ele>771.5552978515625</ele>
        <time>2020-06-14T21:41:22.109Z</time>
      </trkpt>
      <trkpt lat="40.070162" lon="-0.582149">
        <ele>771.5142211914062</ele>
        <time>2020-06-14T21:41:22.282Z</time>
      </trkpt>
      <trkpt lat="40.069965" lon="-0.582024">
        <ele>769.9232788085938</ele>
        <time>2020-06-14T21:41:22.459Z</time>
      </trkpt>
      <trkpt lat="40.069724" lon="-0.581913">
        <ele>768.373291015625</ele>
        <time>2020-06-14T21:41:22.641Z</time>
      </trkpt>
      <trkpt lat="40.069544" lon="-0.58203">
        <ele>766.8988647460938</ele>
        <time>2020-06-14T21:41:22.827Z</time>
      </trkpt>
      <trkpt lat="40.069322" lon="-0.582033">
        <ele>766.880859375</ele>
        <time>2020-06-14T21:41:23.018Z</time>
      </trkpt>
      <trkpt lat="40.069109" lon="-0.582036">
        <ele>766.8628540039062</ele>
        <time>2020-06-14T21:41:23.213Z</time>
      </trkpt>
      <trkpt lat="40.069086" lon="-0.582046">
        <ele>766.8028564453125</ele>
        <time>2020-06-14T21:41:23.408Z</time>
      </trkpt>
      <trkpt lat="40.068988" lon="-0.582084">
        <ele>766.5748901367188</ele>
        <time>2020-06-14T21:41:23.605Z</time>
      </trkpt>
      <trkpt lat="40.068871" lon="-0.58212">
        <ele>766.3589477539062</ele>
        <time>2020-06-14T21:41:23.805Z</time>
      </trkpt>
      <trkpt lat="40.068776" lon="-0.582137">
        <ele>766.3941650390625</ele>
        <time>2020-06-14T21:41:24.007Z</time>
      </trkpt>
      <trkpt lat="40.06875" lon="-0.582136">
        <ele>766.6142578125</ele>
        <time>2020-06-14T21:41:24.209Z</time>
      </trkpt>
      <trkpt lat="40.068558" lon="-0.582098">
        <ele>769.3282470703125</ele>
        <time>2020-06-14T21:41:24.415Z</time>
      </trkpt>
      <trkpt lat="40.068548" lon="-0.582101">
        <ele>769.4158325195312</ele>
        <time>2020-06-14T21:41:24.621Z</time>
      </trkpt>
      <trkpt lat="40.0685" lon="-0.582115">
        <ele>769.8405151367188</ele>
        <time>2020-06-14T21:41:24.828Z</time>
      </trkpt>
      <trkpt lat="40.068507" lon="-0.582115">
        <ele>769.7565307617188</ele>
        <time>2020-06-14T21:41:25.035Z</time>
      </trkpt>
      <trkpt lat="40.068382" lon="-0.58212">
        <ele>771.2023315429688</ele>
        <time>2020-06-14T21:41:25.245Z</time>
      </trkpt>
      <trkpt lat="40.068099" lon="-0.582113">
        <ele>774.67333984375</ele>
        <time>2020-06-14T21:41:25.461Z</time>
      </trkpt>
      <trkpt lat="40.067876" lon="-0.582053">
        <ele>777.7098999023438</ele>
        <time>2020-06-14T21:41:25.681Z</time>
      </trkpt>
      <trkpt lat="40.067723" lon="-0.582037">
        <ele>778.4525756835938</ele>
        <time>2020-06-14T21:41:25.904Z</time>
      </trkpt>
      <trkpt lat="40.067628" lon="-0.582063">
        <ele>778.4826049804688</ele>
        <time>2020-06-14T21:41:26.129Z</time>
      </trkpt>
      <trkpt lat="40.067604" lon="-0.582055">
        <ele>778.6649780273438</ele>
        <time>2020-06-14T21:41:26.355Z</time>
      </trkpt>
      <trkpt lat="40.067605" lon="-0.582088">
        <ele>778.2654418945312</ele>
        <time>2020-06-14T21:41:26.581Z</time>
      </trkpt>
      <trkpt lat="40.067509" lon="-0.582029">
        <ele>779.31884765625</ele>
        <time>2020-06-14T21:41:26.809Z</time>
      </trkpt>
      <trkpt lat="40.067318" lon="-0.581913">
        <ele>781.450439453125</ele>
        <time>2020-06-14T21:41:27.041Z</time>
      </trkpt>
      <trkpt lat="40.06706" lon="-0.581774">
        <ele>783.7715454101562</ele>
        <time>2020-06-14T21:41:27.279Z</time>
      </trkpt>
      <trkpt lat="40.066914" lon="-0.581708">
        <ele>782.1902465820312</ele>
        <time>2020-06-14T21:41:27.520Z</time>
      </trkpt>
      <trkpt lat="40.066732" lon="-0.581535">
        <ele>781.2073974609375</ele>
        <time>2020-06-14T21:41:27.766Z</time>
      </trkpt>
      <trkpt lat="40.066683" lon="-0.581312">
        <ele>783.2484741210938</ele>
        <time>2020-06-14T21:41:28.015Z</time>
      </trkpt>
      <trkpt lat="40.066698" lon="-0.580996">
        <ele>789.5845947265625</ele>
        <time>2020-06-14T21:41:28.269Z</time>
      </trkpt>
      <trkpt lat="40.066698" lon="-0.580914">
        <ele>791.1587524414062</ele>
        <time>2020-06-14T21:41:28.524Z</time>
      </trkpt>
      <trkpt lat="40.066563" lon="-0.580579">
        <ele>791.8076782226562</ele>
        <time>2020-06-14T21:41:28.785Z</time>
      </trkpt>
      <trkpt lat="40.066442" lon="-0.580439">
        <ele>790.438720703125</ele>
        <time>2020-06-14T21:41:29.049Z</time>
      </trkpt>
      <trkpt lat="40.066424" lon="-0.580402">
        <ele>790.4290771484375</ele>
        <time>2020-06-14T21:41:29.314Z</time>
      </trkpt>
      <trkpt lat="40.066279" lon="-0.58022">
        <ele>791.2708129882812</ele>
        <time>2020-06-14T21:41:29.583Z</time>
      </trkpt>
      <trkpt lat="40.066072" lon="-0.5801">
        <ele>787.5155029296875</ele>
        <time>2020-06-14T21:41:29.857Z</time>
      </trkpt>
      <trkpt lat="40.065896" lon="-0.580103">
        <ele>781.9639892578125</ele>
        <time>2020-06-14T21:41:30.134Z</time>
      </trkpt>
      <trkpt lat="40.065722" lon="-0.580197">
        <ele>774.7232055664062</ele>
        <time>2020-06-14T21:41:30.415Z</time>
      </trkpt>
      <trkpt lat="40.06562" lon="-0.580271">
        <ele>770.1663818359375</ele>
        <time>2020-06-14T21:41:30.698Z</time>
      </trkpt>
      <trkpt lat="40.065571" lon="-0.580357">
        <ele>766.7061767578125</ele>
        <time>2020-06-14T21:41:30.983Z</time>
      </trkpt>
      <trkpt lat="40.065521" lon="-0.580354">
        <ele>765.4619750976562</ele>
        <time>2020-06-14T21:41:31.269Z</time>
      </trkpt>
      <trkpt lat="40.065383" lon="-0.580422">
        <ele>761.1824340820312</ele>
        <time>2020-06-14T21:41:31.558Z</time>
      </trkpt>
      <trkpt lat="40.065279" lon="-0.580424">
        <ele>760.8825073242188</ele>
        <time>2020-06-14T21:41:31.849Z</time>
      </trkpt>
      <trkpt lat="40.065143" lon="-0.580401">
        <ele>761.1356201171875</ele>
        <time>2020-06-14T21:41:32.143Z</time>
      </trkpt>
      <trkpt lat="40.064965" lon="-0.580279">
        <ele>763.7824096679688</ele>
        <time>2020-06-14T21:41:32.441Z</time>
      </trkpt>
      <trkpt lat="40.064897" lon="-0.580229">
        <ele>764.8790283203125</ele>
        <time>2020-06-14T21:41:32.740Z</time>
      </trkpt>
      <trkpt lat="40.064833" lon="-0.580217">
        <ele>763.9282836914062</ele>
        <time>2020-06-14T21:41:33.040Z</time>
      </trkpt>
      <trkpt lat="40.064799" lon="-0.580244">
        <ele>763.0320434570312</ele>
        <time>2020-06-14T21:41:33.341Z</time>
      </trkpt>
      <trkpt lat="40.064734" lon="-0.580198">
        <ele>761.9042358398438</ele>
        <time>2020-06-14T21:41:33.644Z</time>
      </trkpt>
      <trkpt lat="40.064734" lon="-0.580173">
        <ele>762.05419921875</ele>
        <time>2020-06-14T21:41:33.947Z</time>
      </trkpt>
      <trkpt lat="40.064636" lon="-0.580035">
        <ele>760.765625</ele>
        <time>2020-06-14T21:41:34.253Z</time>
      </trkpt>
      <trkpt lat="40.064628" lon="-0.580025">
        <ele>760.65283203125</ele>
        <time>2020-06-14T21:41:34.559Z</time>
      </trkpt>
      <trkpt lat="40.064592" lon="-0.580045">
        <ele>759.7410888671875</ele>
        <time>2020-06-14T21:41:34.866Z</time>
      </trkpt>
      <trkpt lat="40.064549" lon="-0.580143">
        <ele>757.966552734375</ele>
        <time>2020-06-14T21:41:35.175Z</time>
      </trkpt>
      <trkpt lat="40.0644" lon="-0.58005">
        <ele>754.4127807617188</ele>
        <time>2020-06-14T21:41:35.487Z</time>
      </trkpt>
      <trkpt lat="40.064309" lon="-0.579951">
        <ele>752.4789428710938</ele>
        <time>2020-06-14T21:41:35.801Z</time>
      </trkpt>
      <trkpt lat="40.064226" lon="-0.579811">
        <ele>750.7608032226562</ele>
        <time>2020-06-14T21:41:36.118Z</time>
      </trkpt>
      <trkpt lat="40.064117" lon="-0.579548">
        <ele>749.1996459960938</ele>
        <time>2020-06-14T21:41:36.440Z</time>
      </trkpt>
      <trkpt lat="40.06402" lon="-0.579345">
        <ele>748.2294311523438</ele>
        <time>2020-06-14T21:41:36.765Z</time>
      </trkpt>
      <trkpt lat="40.063907" lon="-0.579254">
        <ele>746.6096801757812</ele>
        <time>2020-06-14T21:41:37.093Z</time>
      </trkpt>
      <trkpt lat="40.06373" lon="-0.579142">
        <ele>743.7432861328125</ele>
        <time>2020-06-14T21:41:37.425Z</time>
      </trkpt>
      <trkpt lat="40.063675" lon="-0.579094">
        <ele>743.0653686523438</ele>
        <time>2020-06-14T21:41:37.758Z</time>
      </trkpt>
      <trkpt lat="40.063565" lon="-0.579048">
        <ele>741.1096801757812</ele>
        <time>2020-06-14T21:41:38.094Z</time>
      </trkpt>
      <trkpt lat="40.063512" lon="-0.579051">
        <ele>740.4443359375</ele>
        <time>2020-06-14T21:41:38.431Z</time>
      </trkpt>
      <trkpt lat="40.06345" lon="-0.579041">
        <ele>740.1011962890625</ele>
        <time>2020-06-14T21:41:38.769Z</time>
      </trkpt>
      <trkpt lat="40.063288" lon="-0.579048">
        <ele>738.369873046875</ele>
        <time>2020-06-14T21:41:39.110Z</time>
      </trkpt>
      <trkpt lat="40.063203" lon="-0.579021">
        <ele>738.2343139648438</ele>
        <time>2020-06-14T21:41:39.453Z</time>
      </trkpt>
      <trkpt lat="40.063065" lon="-0.578918">
        <ele>739.5048828125</ele>
        <time>2020-06-14T21:41:39.799Z</time>
      </trkpt>
      <trkpt lat="40.063037" lon="-0.578853">
        <ele>740.8739013671875</ele>
        <time>2020-06-14T21:41:40.146Z</time>
      </trkpt>
      <trkpt lat="40.062903" lon="-0.578726">
        <ele>742.2064819335938</ele>
        <time>2020-06-14T21:41:40.497Z</time>
      </trkpt>
      <trkpt lat="40.062808" lon="-0.578618">
        <ele>742.6168212890625</ele>
        <time>2020-06-14T21:41:40.850Z</time>
      </trkpt>
      <trkpt lat="40.062635" lon="-0.578367">
        <ele>744.6025390625</ele>
        <time>2020-06-14T21:41:41.208Z</time>
      </trkpt>
      <trkpt lat="40.062628" lon="-0.578336">
        <ele>745.1580200195312</ele>
        <time>2020-06-14T21:41:41.567Z</time>
      </trkpt>
      <trkpt lat="40.062559" lon="-0.578178">
        <ele>747.756591796875</ele>
        <time>2020-06-14T21:41:41.929Z</time>
      </trkpt>
      <trkpt lat="40.062402" lon="-0.578006">
        <ele>749.0763549804688</ele>
        <time>2020-06-14T21:41:42.295Z</time>
      </trkpt>
      <trkpt lat="40.062389" lon="-0.577924">
        <ele>750.8928833007812</ele>
        <time>2020-06-14T21:41:42.662Z</time>
      </trkpt>
      <trkpt lat="40.0624" lon="-0.577853">
        <ele>752.8929443359375</ele>
        <time>2020-06-14T21:41:43.030Z</time>
      </trkpt>
      <trkpt lat="40.062426" lon="-0.577605">
        <ele>758.6448974609375</ele>
        <time>2020-06-14T21:41:43.402Z</time>
      </trkpt>
      <trkpt lat="40.062445" lon="-0.577585">
        <ele>759.5003662109375</ele>
        <time>2020-06-14T21:41:43.774Z</time>
      </trkpt>
      <trkpt lat="40.062416" lon="-0.577608">
        <ele>758.2849731445312</ele>
        <time>2020-06-14T21:41:44.147Z</time>
      </trkpt>
      <trkpt lat="40.062392" lon="-0.577527">
        <ele>758.4793701171875</ele>
        <time>2020-06-14T21:41:44.521Z</time>
      </trkpt>
      <trkpt lat="40.062364" lon="-0.577276">
        <ele>760.5838012695312</ele>
        <time>2020-06-14T21:41:44.899Z</time>
      </trkpt>
      <trkpt lat="40.062326" lon="-0.576987">
        <ele>760.977294921875</ele>
        <time>2020-06-14T21:41:45.282Z</time>
      </trkpt>
      <trkpt lat="40.062382" lon="-0.576769">
        <ele>762.87548828125</ele>
        <time>2020-06-14T21:41:45.668Z</time>
      </trkpt>
      <trkpt lat="40.06237" lon="-0.576566">
        <ele>762.2000122070312</ele>
        <time>2020-06-14T21:41:46.057Z</time>
      </trkpt>
      <trkpt lat="40.062284" lon="-0.576373">
        <ele>758.8729858398438</ele>
        <time>2020-06-14T21:41:46.450Z</time>
      </trkpt>
      <trkpt lat="40.062278" lon="-0.576313">
        <ele>757.8825073242188</ele>
        <time>2020-06-14T21:41:46.844Z</time>
      </trkpt>
      <trkpt lat="40.062285" lon="-0.576202">
        <ele>755.6040649414062</ele>
        <time>2020-06-14T21:41:47.240Z</time>
      </trkpt>
      <trkpt lat="40.062268" lon="-0.576183">
        <ele>754.5590209960938</ele>
        <time>2020-06-14T21:41:47.636Z</time>
      </trkpt>
      <trkpt lat="40.062232" lon="-0.576072">
        <ele>751.870849609375</ele>
        <time>2020-06-14T21:41:48.034Z</time>
      </trkpt>
      <trkpt lat="40.062182" lon="-0.575886">
        <ele>747.8131713867188</ele>
        <time>2020-06-14T21:41:48.435Z</time>
      </trkpt>
      <trkpt lat="40.062132" lon="-0.575585">
        <ele>742.0997314453125</ele>
        <time>2020-06-14T21:41:48.841Z</time>
      </trkpt>
      <trkpt lat="40.06217" lon="-0.575389">
        <ele>738.8931884765625</ele>
        <time>2020-06-14T21:41:49.250Z</time>
      </trkpt>
      <trkpt lat="40.062212" lon="-0.575339">
        <ele>738.6700439453125</ele>
        <time>2020-06-14T21:41:49.660Z</time>
      </trkpt>
      <trkpt lat="40.062232" lon="-0.575312">
        <ele>738.494873046875</ele>
        <time>2020-06-14T21:41:50.070Z</time>
      </trkpt>
      <trkpt lat="40.062247" lon="-0.575229">
        <ele>737.00830078125</ele>
        <time>2020-06-14T21:41:50.482Z</time>
      </trkpt>
      <trkpt lat="40.062238" lon="-0.575022">
        <ele>732.3543090820312</ele>
        <time>2020-06-14T21:41:50.897Z</time>
      </trkpt>
      <trkpt lat="40.062202" lon="-0.574809">
        <ele>727.0199584960938</ele>
        <time>2020-06-14T21:41:51.315Z</time>
      </trkpt>
      <trkpt lat="40.06218" lon="-0.574641">
        <ele>722.582275390625</ele>
        <time>2020-06-14T21:41:51.736Z</time>
      </trkpt>
      <trkpt lat="40.062119" lon="-0.574465">
        <ele>716.7527465820312</ele>
        <time>2020-06-14T21:41:52.160Z</time>
      </trkpt>
      <trkpt lat="40.0621" lon="-0.574343">
        <ele>713.236083984375</ele>
        <time>2020-06-14T21:41:52.586Z</time>
      </trkpt>
      <trkpt lat="40.062089" lon="-0.574178">
        <ele>708.6675415039062</ele>
        <time>2020-06-14T21:41:53.014Z</time>
      </trkpt>
      <trkpt lat="40.06217394103751" lon="-0.5742459528299422">
        <ele>711.8277587890625</ele>
        <time>2020-06-14T21:41:53.444Z</time>
      </trkpt>
      <trkpt lat="40.06217399513901" lon="-0.5742459961112356">
        <ele>711.8297729492188</ele>
        <time>2020-06-14T21:41:53.874Z</time>
      </trkpt>
      <trkpt lat="40.062174" lon="-0.574246">
        <ele>711.8299560546875</ele>
        <time>2020-06-14T21:41:54.304Z</time>
      </trkpt>
      <trkpt lat="40.062228" lon="-0.574177">
        <ele>710.8508911132812</ele>
        <time>2020-06-14T21:41:54.736Z</time>
      </trkpt>
      <trkpt lat="40.062203" lon="-0.573963">
        <ele>704.8123168945312</ele>
        <time>2020-06-14T21:41:55.171Z</time>
      </trkpt>
      <trkpt lat="40.062091" lon="-0.573792">
        <ele>698.67919921875</ele>
        <time>2020-06-14T21:41:55.610Z</time>
      </trkpt>
      <trkpt lat="40.062125" lon="-0.573698">
        <ele>696.804931640625</ele>
        <time>2020-06-14T21:41:56.050Z</time>
      </trkpt>
      <trkpt lat="40.062149" lon="-0.573627">
        <ele>695.3604125976562</ele>
        <time>2020-06-14T21:41:56.491Z</time>
      </trkpt>
      <trkpt lat="40.06208" lon="-0.573585">
        <ele>693.5404663085938</ele>
        <time>2020-06-14T21:41:56.934Z</time>
      </trkpt>
      <trkpt lat="40.061955" lon="-0.573623">
        <ele>692.5026245117188</ele>
        <time>2020-06-14T21:41:57.379Z</time>
      </trkpt>
      <trkpt lat="40.061994" lon="-0.573516">
        <ele>690.5433349609375</ele>
        <time>2020-06-14T21:41:57.826Z</time>
      </trkpt>
      <trkpt lat="40.062069" lon="-0.573376">
        <ele>688.3536987304688</ele>
        <time>2020-06-14T21:41:58.276Z</time>
      </trkpt>
      <trkpt lat="40.06215" lon="-0.573295">
        <ele>687.404541015625</ele>
        <time>2020-06-14T21:41:58.728Z</time>
      </trkpt>
      <trkpt lat="40.062259" lon="-0.573243">
        <ele>687.333740234375</ele>
        <time>2020-06-14T21:41:59.182Z</time>
      </trkpt>
      <trkpt lat="40.062193" lon="-0.573107">
        <ele>683.3576049804688</ele>
        <time>2020-06-14T21:41:59.639Z</time>
      </trkpt>
      <trkpt lat="40.062182" lon="-0.572989">
        <ele>680.5159301757812</ele>
        <time>2020-06-14T21:42:00.098Z</time>
      </trkpt>
      <trkpt lat="40.062234" lon="-0.573045">
        <ele>682.3125610351562</ele>
        <time>2020-06-14T21:42:00.558Z</time>
      </trkpt>
      <trkpt lat="40.06236" lon="-0.573135">
        <ele>685.832763671875</ele>
        <time>2020-06-14T21:42:01.021Z</time>
      </trkpt>
      <trkpt lat="40.062369" lon="-0.572989">
        <ele>682.5352172851562</ele>
        <time>2020-06-14T21:42:01.486Z</time>
      </trkpt>
      <trkpt lat="40.06237" lon="-0.572796">
        <ele>678.8410034179688</ele>
        <time>2020-06-14T21:42:01.954Z</time>
      </trkpt>
      <trkpt lat="40.062385" lon="-0.572721">
        <ele>677.563232421875</ele>
        <time>2020-06-14T21:42:02.423Z</time>
      </trkpt>
      <trkpt lat="40.062433" lon="-0.572444">
        <ele>673.038330078125</ele>
        <time>2020-06-14T21:42:02.896Z</time>
      </trkpt>
      <trkpt lat="40.062473" lon="-0.572205">
        <ele>669.1209716796875</ele>
        <time>2020-06-14T21:42:03.373Z</time>
      </trkpt>
      <trkpt lat="40.062453" lon="-0.571999">
        <ele>666.7263793945312</ele>
        <time>2020-06-14T21:42:03.853Z</time>
      </trkpt>
      <trkpt lat="40.06245" lon="-0.571838">
        <ele>665.1522827148438</ele>
        <time>2020-06-14T21:42:04.336Z</time>
      </trkpt>
      <trkpt lat="40.062415" lon="-0.571606">
        <ele>660.7816162109375</ele>
        <time>2020-06-14T21:42:04.823Z</time>
      </trkpt>
      <trkpt lat="40.062436" lon="-0.571462">
        <ele>658.715576171875</ele>
        <time>2020-06-14T21:42:05.312Z</time>
      </trkpt>
      <trkpt lat="40.062452" lon="-0.571348">
        <ele>657.0693969726562</ele>
        <time>2020-06-14T21:42:05.803Z</time>
      </trkpt>
      <trkpt lat="40.062508" lon="-0.57122">
        <ele>655.8600463867188</ele>
        <time>2020-06-14T21:42:06.296Z</time>
      </trkpt>
      <trkpt lat="40.062549" lon="-0.571174">
        <ele>655.7760620117188</ele>
        <time>2020-06-14T21:42:06.790Z</time>
      </trkpt>
      <trkpt lat="40.062556" lon="-0.57115">
        <ele>655.490478515625</ele>
        <time>2020-06-14T21:42:07.284Z</time>
      </trkpt>
      <trkpt lat="40.062576" lon="-0.570991">
        <ele>653.1557006835938</ele>
        <time>2020-06-14T21:42:07.781Z</time>
      </trkpt>
      <trkpt lat="40.062501" lon="-0.570777">
        <ele>649.0723266601562</ele>
        <time>2020-06-14T21:42:08.281Z</time>
      </trkpt>
      <trkpt lat="40.062442" lon="-0.570734">
        <ele>647.8485717773438</ele>
        <time>2020-06-14T21:42:08.783Z</time>
      </trkpt>
      <trkpt lat="40.06241" lon="-0.570553">
        <ele>645.29296875</ele>
        <time>2020-06-14T21:42:09.288Z</time>
      </trkpt>
      <trkpt lat="40.062356" lon="-0.570293">
        <ele>640.478271484375</ele>
        <time>2020-06-14T21:42:09.797Z</time>
      </trkpt>
      <trkpt lat="40.062416" lon="-0.570148">
        <ele>638.9108276367188</ele>
        <time>2020-06-14T21:42:10.308Z</time>
      </trkpt>
      <trkpt lat="40.062612" lon="-0.570063">
        <ele>639.6864624023438</ele>
        <time>2020-06-14T21:42:10.823Z</time>
      </trkpt>
      <trkpt lat="40.062589" lon="-0.569929">
        <ele>637.4735107421875</ele>
        <time>2020-06-14T21:42:11.341Z</time>
      </trkpt>
      <trkpt lat="40.062525" lon="-0.569826">
        <ele>635.5765991210938</ele>
        <time>2020-06-14T21:42:11.861Z</time>
      </trkpt>
      <trkpt lat="40.06235" lon="-0.569661">
        <ele>631.92919921875</ele>
        <time>2020-06-14T21:42:12.385Z</time>
      </trkpt>
      <trkpt lat="40.062164" lon="-0.569602">
        <ele>629.57470703125</ele>
        <time>2020-06-14T21:42:12.913Z</time>
      </trkpt>
      <trkpt lat="40.061931" lon="-0.56965">
        <ele>626.8297119140625</ele>
        <time>2020-06-14T21:42:13.445Z</time>
      </trkpt>
      <trkpt lat="40.061754" lon="-0.569661">
        <ele>624.0281982421875</ele>
        <time>2020-06-14T21:42:13.981Z</time>
      </trkpt>
      <trkpt lat="40.061646" lon="-0.569507">
        <ele>619.8120727539062</ele>
        <time>2020-06-14T21:42:14.520Z</time>
      </trkpt>
      <trkpt lat="40.061547" lon="-0.569189">
        <ele>614.6451416015625</ele>
        <time>2020-06-14T21:42:15.064Z</time>
      </trkpt>
      <trkpt lat="40.06166" lon="-0.568993">
        <ele>614.0836181640625</ele>
        <time>2020-06-14T21:42:15.612Z</time>
      </trkpt>
      <trkpt lat="40.061897" lon="-0.568862">
        <ele>615.2582397460938</ele>
        <time>2020-06-14T21:42:16.165Z</time>
      </trkpt>
      <trkpt lat="40.0621" lon="-0.568621">
        <ele>614.08935546875</ele>
        <time>2020-06-14T21:42:16.724Z</time>
      </trkpt>
      <trkpt lat="40.062291" lon="-0.568429">
        <ele>612.7012329101562</ele>
        <time>2020-06-14T21:42:17.288Z</time>
      </trkpt>
      <trkpt lat="40.062485" lon="-0.5683">
        <ele>612.1624755859375</ele>
        <time>2020-06-14T21:42:17.856Z</time>
      </trkpt>
      <trkpt lat="40.062594" lon="-0.568273">
        <ele>612.4600830078125</ele>
        <time>2020-06-14T21:42:18.426Z</time>
      </trkpt>
      <trkpt lat="40.062655" lon="-0.568189">
        <ele>611.7174072265625</ele>
        <time>2020-06-14T21:42:18.998Z</time>
      </trkpt>
      <trkpt lat="40.062652" lon="-0.568177">
        <ele>611.541015625</ele>
        <time>2020-06-14T21:42:19.570Z</time>
      </trkpt>
      <trkpt lat="40.062659" lon="-0.568146">
        <ele>611.1738891601562</ele>
        <time>2020-06-14T21:42:20.143Z</time>
      </trkpt>
      <trkpt lat="40.062673" lon="-0.568107">
        <ele>610.7431640625</ele>
        <time>2020-06-14T21:42:20.716Z</time>
      </trkpt>
      <trkpt lat="40.062701" lon="-0.568075">
        <ele>610.48876953125</ele>
        <time>2020-06-14T21:42:21.290Z</time>
      </trkpt>
      <trkpt lat="40.062731" lon="-0.568015">
        <ele>609.8768920898438</ele>
        <time>2020-06-14T21:42:21.865Z</time>
      </trkpt>
      <trkpt lat="40.062772" lon="-0.567971">
        <ele>609.6854248046875</ele>
        <time>2020-06-14T21:42:22.441Z</time>
      </trkpt>
      <trkpt lat="40.062779" lon="-0.567869">
        <ele>608.7483520507812</ele>
        <time>2020-06-14T21:42:23.019Z</time>
      </trkpt>
      <trkpt lat="40.062767" lon="-0.567803">
        <ele>608.0429077148438</ele>
        <time>2020-06-14T21:42:23.598Z</time>
      </trkpt>
      <trkpt lat="40.062762" lon="-0.56772">
        <ele>607.2162475585938</ele>
        <time>2020-06-14T21:42:24.178Z</time>
      </trkpt>
      <trkpt lat="40.062767" lon="-0.567612">
        <ele>606.2095947265625</ele>
        <time>2020-06-14T21:42:24.760Z</time>
      </trkpt>
      <trkpt lat="40.062863" lon="-0.567429">
        <ele>605.0289916992188</ele>
        <time>2020-06-14T21:42:25.345Z</time>
      </trkpt>
      <trkpt lat="40.063024" lon="-0.567199">
        <ele>605.9884033203125</ele>
        <time>2020-06-14T21:42:25.935Z</time>
      </trkpt>
      <trkpt lat="40.063052" lon="-0.567154">
        <ele>606.4187622070312</ele>
        <time>2020-06-14T21:42:26.526Z</time>
      </trkpt>
      <trkpt lat="40.063101" lon="-0.566911">
        <ele>606.748291015625</ele>
        <time>2020-06-14T21:42:27.121Z</time>
      </trkpt>
      <trkpt lat="40.063143" lon="-0.566772">
        <ele>607.6553344726562</ele>
        <time>2020-06-14T21:42:27.718Z</time>
      </trkpt>
      <trkpt lat="40.063173" lon="-0.566689">
        <ele>608.30322265625</ele>
        <time>2020-06-14T21:42:28.316Z</time>
      </trkpt>
      <trkpt lat="40.063189" lon="-0.56635">
        <ele>608.6487426757812</ele>
        <time>2020-06-14T21:42:28.920Z</time>
      </trkpt>
      <trkpt lat="40.06321" lon="-0.566165">
        <ele>607.814697265625</ele>
        <time>2020-06-14T21:42:29.527Z</time>
      </trkpt>
      <trkpt lat="40.063195" lon="-0.566029">
        <ele>606.9089965820312</ele>
        <time>2020-06-14T21:42:30.136Z</time>
      </trkpt>
      <trkpt lat="40.063198" lon="-0.565748">
        <ele>607.2857055664062</ele>
        <time>2020-06-14T21:42:30.749Z</time>
      </trkpt>
      <trkpt lat="40.063238" lon="-0.56555">
        <ele>608.0512084960938</ele>
        <time>2020-06-14T21:42:31.365Z</time>
      </trkpt>
      <trkpt lat="40.063373" lon="-0.565374">
        <ele>607.7530517578125</ele>
        <time>2020-06-14T21:42:31.985Z</time>
      </trkpt>
      <trkpt lat="40.063458" lon="-0.565068">
        <ele>604.10205078125</ele>
        <time>2020-06-14T21:42:32.610Z</time>
      </trkpt>
      <trkpt lat="40.063507" lon="-0.564953">
        <ele>602.955078125</ele>
        <time>2020-06-14T21:42:33.237Z</time>
      </trkpt>
      <trkpt lat="40.063507" lon="-0.564897">
        <ele>602.8528442382812</ele>
        <time>2020-06-14T21:42:33.865Z</time>
      </trkpt>
      <trkpt lat="40.063589" lon="-0.564674">
        <ele>603.64306640625</ele>
        <time>2020-06-14T21:42:34.497Z</time>
      </trkpt>
      <trkpt lat="40.063653" lon="-0.564532">
        <ele>602.6880493164062</ele>
        <time>2020-06-14T21:42:35.131Z</time>
      </trkpt>
      <trkpt lat="40.063708" lon="-0.564469">
        <ele>602.0089721679688</ele>
        <time>2020-06-14T21:42:35.767Z</time>
      </trkpt>
      <trkpt lat="40.063834" lon="-0.564352">
        <ele>601.2203369140625</ele>
        <time>2020-06-14T21:42:36.406Z</time>
      </trkpt>
      <trkpt lat="40.063913" lon="-0.564327">
        <ele>601.1603393554688</ele>
        <time>2020-06-14T21:42:37.046Z</time>
      </trkpt>
      <trkpt lat="40.063926" lon="-0.564316">
        <ele>601.1339111328125</ele>
        <time>2020-06-14T21:42:37.687Z</time>
      </trkpt>
      <trkpt lat="40.063909" lon="-0.564307">
        <ele>601.1123657226562</ele>
        <time>2020-06-14T21:42:38.328Z</time>
      </trkpt>
      <trkpt lat="40.063908" lon="-0.564306">
        <ele>601.1099243164062</ele>
        <time>2020-06-14T21:42:38.969Z</time>
      </trkpt>
      <trkpt lat="40.063957" lon="-0.564254">
        <ele>600.9851684570312</ele>
        <time>2020-06-14T21:42:39.611Z</time>
      </trkpt>
      <trkpt lat="40.064147" lon="-0.564135">
        <ele>600.6995849609375</ele>
        <time>2020-06-14T21:42:40.257Z</time>
      </trkpt>
      <trkpt lat="40.064194" lon="-0.564084">
        <ele>600.5772094726562</ele>
        <time>2020-06-14T21:42:40.905Z</time>
      </trkpt>
      <trkpt lat="40.064232" lon="-0.564054">
        <ele>600.5052490234375</ele>
        <time>2020-06-14T21:42:41.554Z</time>
      </trkpt>
      <trkpt lat="40.06429" lon="-0.563986">
        <ele>600.342041015625</ele>
        <time>2020-06-14T21:42:42.204Z</time>
      </trkpt>
      <trkpt lat="40.06433" lon="-0.563952">
        <ele>600.260498046875</ele>
        <time>2020-06-14T21:42:42.855Z</time>
      </trkpt>
      <trkpt lat="40.064438" lon="-0.56384">
        <ele>600.066162109375</ele>
        <time>2020-06-14T21:42:43.509Z</time>
      </trkpt>
      <trkpt lat="40.064555" lon="-0.563754">
        <ele>601.7171020507812</ele>
        <time>2020-06-14T21:42:44.166Z</time>
      </trkpt>
      <trkpt lat="40.064645" lon="-0.563707">
        <ele>602.315673828125</ele>
        <time>2020-06-14T21:42:44.824Z</time>
      </trkpt>
      <trkpt lat="40.064711" lon="-0.563652">
        <ele>602.9755859375</ele>
        <time>2020-06-14T21:42:45.484Z</time>
      </trkpt>
      <trkpt lat="40.064734" lon="-0.56364">
        <ele>603.0679931640625</ele>
        <time>2020-06-14T21:42:46.145Z</time>
      </trkpt>
      <trkpt lat="40.06486" lon="-0.563527">
        <ele>604.4813232421875</ele>
        <time>2020-06-14T21:42:46.809Z</time>
      </trkpt>
      <trkpt lat="40.064997" lon="-0.56339">
        <ele>606.2894287109375</ele>
        <time>2020-06-14T21:42:47.476Z</time>
      </trkpt>
      <trkpt lat="40.065019" lon="-0.56337">
        <ele>606.5413818359375</ele>
        <time>2020-06-14T21:42:48.144Z</time>
      </trkpt>
      <trkpt lat="40.065118" lon="-0.563226">
        <ele>608.7118530273438</ele>
        <time>2020-06-14T21:42:48.815Z</time>
      </trkpt>
      <trkpt lat="40.065235" lon="-0.563103">
        <ele>610.3711547851562</ele>
        <time>2020-06-14T21:42:49.489Z</time>
      </trkpt>
      <trkpt lat="40.065264" lon="-0.563076">
        <ele>610.7155151367188</ele>
        <time>2020-06-14T21:42:50.163Z</time>
      </trkpt>
      <trkpt lat="40.065383" lon="-0.563028">
        <ele>610.9230346679688</ele>
        <time>2020-06-14T21:42:50.840Z</time>
      </trkpt>
      <trkpt lat="40.065543" lon="-0.56302">
        <ele>611.053955078125</ele>
        <time>2020-06-14T21:42:51.520Z</time>
      </trkpt>
      <trkpt lat="40.065687" lon="-0.563061">
        <ele>610.8823852539062</ele>
        <time>2020-06-14T21:42:52.203Z</time>
      </trkpt>
      <trkpt lat="40.065775" lon="-0.56299">
        <ele>611.6082153320312</ele>
        <time>2020-06-14T21:42:52.888Z</time>
      </trkpt>
      <trkpt lat="40.065791" lon="-0.562968">
        <ele>611.8385620117188</ele>
        <time>2020-06-14T21:42:53.573Z</time>
      </trkpt>
      <trkpt lat="40.065822" lon="-0.562945">
        <ele>612.0965576171875</ele>
        <time>2020-06-14T21:42:54.259Z</time>
      </trkpt>
      <trkpt lat="40.065848" lon="-0.562918">
        <ele>612.3869018554688</ele>
        <time>2020-06-14T21:42:54.946Z</time>
      </trkpt>
      <trkpt lat="40.065878" lon="-0.562893">
        <ele>612.662841796875</ele>
        <time>2020-06-14T21:42:55.634Z</time>
      </trkpt>
      <trkpt lat="40.065964" lon="-0.562816">
        <ele>613.505126953125</ele>
        <time>2020-06-14T21:42:56.324Z</time>
      </trkpt>
      <trkpt lat="40.065936" lon="-0.56274">
        <ele>614.2009887695312</ele>
        <time>2020-06-14T21:42:57.015Z</time>
      </trkpt>
      <trkpt lat="40.06588" lon="-0.562582">
        <ele>615.6503295898438</ele>
        <time>2020-06-14T21:42:57.709Z</time>
      </trkpt>
      <trkpt lat="40.065792" lon="-0.562411">
        <ele>621.694091796875</ele>
        <time>2020-06-14T21:42:58.406Z</time>
      </trkpt>
      <trkpt lat="40.065759" lon="-0.562284">
        <ele>625.9450073242188</ele>
        <time>2020-06-14T21:42:59.105Z</time>
      </trkpt>
      <trkpt lat="40.065653" lon="-0.562223">
        <ele>629.6091918945312</ele>
        <time>2020-06-14T21:42:59.806Z</time>
      </trkpt>
      <trkpt lat="40.065456" lon="-0.562138">
        <ele>635.3339233398438</ele>
        <time>2020-06-14T21:43:00.511Z</time>
      </trkpt>
      <trkpt lat="40.065333" lon="-0.562131">
        <ele>636.3287353515625</ele>
        <time>2020-06-14T21:43:01.219Z</time>
      </trkpt>
      <trkpt lat="40.065267" lon="-0.562109">
        <ele>637.0678100585938</ele>
        <time>2020-06-14T21:43:01.928Z</time>
      </trkpt>
      <trkpt lat="40.065132" lon="-0.562069">
        <ele>638.4835815429688</ele>
        <time>2020-06-14T21:43:02.640Z</time>
      </trkpt>
      <trkpt lat="40.065039" lon="-0.562025">
        <ele>639.7745361328125</ele>
        <time>2020-06-14T21:43:03.354Z</time>
      </trkpt>
      <trkpt lat="40.065007" lon="-0.561935">
        <ele>641.6558227539062</ele>
        <time>2020-06-14T21:43:04.069Z</time>
      </trkpt>
      <trkpt lat="40.065166" lon="-0.561779">
        <ele>643.887451171875</ele>
        <time>2020-06-14T21:43:04.788Z</time>
      </trkpt>
      <trkpt lat="40.065336" lon="-0.561691">
        <ele>644.7609252929688</ele>
        <time>2020-06-14T21:43:05.511Z</time>
      </trkpt>
      <trkpt lat="40.065424" lon="-0.561653">
        <ele>645.0680541992188</ele>
        <time>2020-06-14T21:43:06.236Z</time>
      </trkpt>
      <trkpt lat="40.065691" lon="-0.561626">
        <ele>641.7792358398438</ele>
        <time>2020-06-14T21:43:06.966Z</time>
      </trkpt>
      <trkpt lat="40.06577" lon="-0.56162">
        <ele>640.7570190429688</ele>
        <time>2020-06-14T21:43:07.698Z</time>
      </trkpt>
      <trkpt lat="40.065905" lon="-0.561548">
        <ele>640.1954956054688</ele>
        <time>2020-06-14T21:43:08.433Z</time>
      </trkpt>
      <trkpt lat="40.065938" lon="-0.561495">
        <ele>640.7378540039062</ele>
        <time>2020-06-14T21:43:09.169Z</time>
      </trkpt>
      <trkpt lat="40.065952" lon="-0.561439">
        <ele>641.6112670898438</ele>
        <time>2020-06-14T21:43:09.906Z</time>
      </trkpt>
      <trkpt lat="40.065955" lon="-0.561353">
        <ele>643.218994140625</ele>
        <time>2020-06-14T21:43:10.644Z</time>
      </trkpt>
      <trkpt lat="40.065971" lon="-0.561294">
        <ele>643.2388916015625</ele>
        <time>2020-06-14T21:43:11.383Z</time>
      </trkpt>
      <trkpt lat="40.065978" lon="-0.561116">
        <ele>643.3516235351562</ele>
        <time>2020-06-14T21:43:12.125Z</time>
      </trkpt>
      <trkpt lat="40.065986" lon="-0.561027">
        <ele>643.34326171875</ele>
        <time>2020-06-14T21:43:12.868Z</time>
      </trkpt>
      <trkpt lat="40.066004" lon="-0.560919">
        <ele>643.2136840820312</ele>
        <time>2020-06-14T21:43:13.613Z</time>
      </trkpt>
      <trkpt lat="40.066031" lon="-0.560886">
        <ele>642.864501953125</ele>
        <time>2020-06-14T21:43:14.358Z</time>
      </trkpt>
      <trkpt lat="40.066029" lon="-0.561037">
        <ele>642.712158203125</ele>
        <time>2020-06-14T21:43:15.106Z</time>
      </trkpt>
      <trkpt lat="40.066066" lon="-0.561082">
        <ele>642.1254272460938</ele>
        <time>2020-06-14T21:43:15.855Z</time>
      </trkpt>
      <trkpt lat="40.06609" lon="-0.56101">
        <ele>641.8662719726562</ele>
        <time>2020-06-14T21:43:16.605Z</time>
      </trkpt>
      <trkpt lat="40.066062" lon="-0.560886">
        <ele>642.418212890625</ele>
        <time>2020-06-14T21:43:17.357Z</time>
      </trkpt>
      <trkpt lat="40.066069" lon="-0.560815">
        <ele>642.402587890625</ele>
        <time>2020-06-14T21:43:18.110Z</time>
      </trkpt>
      <trkpt lat="40.066086" lon="-0.560744">
        <ele>642.2430419921875</ele>
        <time>2020-06-14T21:43:18.864Z</time>
      </trkpt>
      <trkpt lat="40.066116" lon="-0.56073">
        <ele>641.827880859375</ele>
        <time>2020-06-14T21:43:19.619Z</time>
      </trkpt>
      <trkpt lat="40.066146" lon="-0.560642">
        <ele>641.5015869140625</ele>
        <time>2020-06-14T21:43:20.375Z</time>
      </trkpt>
      <trkpt lat="40.066168" lon="-0.560563">
        <ele>641.9495849609375</ele>
        <time>2020-06-14T21:43:21.133Z</time>
      </trkpt>
      <trkpt lat="40.066217" lon="-0.560496">
        <ele>641.3991088867188</ele>
        <time>2020-06-14T21:43:21.892Z</time>
      </trkpt>
      <trkpt lat="40.066236" lon="-0.56044">
        <ele>640.8735961914062</ele>
        <time>2020-06-14T21:43:22.652Z</time>
      </trkpt>
      <trkpt lat="40.066245" lon="-0.560462">
        <ele>640.5664672851562</ele>
        <time>2020-06-14T21:43:23.412Z</time>
      </trkpt>
      <trkpt lat="40.066247" lon="-0.560458">
        <ele>640.5088500976562</ele>
        <time>2020-06-14T21:43:24.172Z</time>
      </trkpt>
      <trkpt lat="40.066239" lon="-0.560462">
        <ele>640.7536010742188</ele>
        <time>2020-06-14T21:43:24.933Z</time>
      </trkpt>
      <trkpt lat="40.066283" lon="-0.56047">
        <ele>640.4635009765625</ele>
        <time>2020-06-14T21:43:25.695Z</time>
      </trkpt>
      <trkpt lat="40.066267" lon="-0.560478">
        <ele>640.146728515625</ele>
        <time>2020-06-14T21:43:26.457Z</time>
      </trkpt>
      <trkpt lat="40.066258" lon="-0.56048">
        <ele>640.1392822265625</ele>
        <time>2020-06-14T21:43:27.219Z</time>
      </trkpt>
      <trkpt lat="40.066211" lon="-0.560527">
        <ele>641.256103515625</ele>
        <time>2020-06-14T21:43:27.982Z</time>
      </trkpt>
      <trkpt lat="40.066224" lon="-0.560445">
        <ele>641.241943359375</ele>
        <time>2020-06-14T21:43:28.747Z</time>
      </trkpt>
      <trkpt lat="40.066225" lon="-0.560411">
        <ele>641.2515258789062</ele>
        <time>2020-06-14T21:43:29.512Z</time>
      </trkpt>
      <trkpt lat="40.066202" lon="-0.560388">
        <ele>641.99658203125</ele>
        <time>2020-06-14T21:43:30.278Z</time>
      </trkpt>
      <trkpt lat="40.066215" lon="-0.560281">
        <ele>641.7194213867188</ele>
        <time>2020-06-14T21:43:31.045Z</time>
      </trkpt>
      <trkpt lat="40.066243" lon="-0.560273">
        <ele>640.8555908203125</ele>
        <time>2020-06-14T21:43:31.813Z</time>
      </trkpt>
      <trkpt lat="40.066239" lon="-0.56028">
        <ele>640.9719848632812</ele>
        <time>2020-06-14T21:43:32.581Z</time>
      </trkpt>
      <trkpt lat="40.066202" lon="-0.56022">
        <ele>642.1981811523438</ele>
        <time>2020-06-14T21:43:33.350Z</time>
      </trkpt>
      <trkpt lat="40.066153" lon="-0.560246">
        <ele>643.6954956054688</ele>
        <time>2020-06-14T21:43:34.120Z</time>
      </trkpt>
      <trkpt lat="40.066108" lon="-0.560265">
        <ele>645.0764770507812</ele>
        <time>2020-06-14T21:43:34.891Z</time>
      </trkpt>
      <trkpt lat="40.066097" lon="-0.560248">
        <ele>645.4400024414062</ele>
        <time>2020-06-14T21:43:35.663Z</time>
      </trkpt>
      <trkpt lat="40.0661" lon="-0.56023">
        <ele>645.3680419921875</ele>
        <time>2020-06-14T21:43:36.435Z</time>
      </trkpt>
      <trkpt lat="40.066077" lon="-0.560178">
        <ele>646.1478881835938</ele>
        <time>2020-06-14T21:43:37.208Z</time>
      </trkpt>
      <trkpt lat="40.065997" lon="-0.560055">
        <ele>648.7910766601562</ele>
        <time>2020-06-14T21:43:37.983Z</time>
      </trkpt>
      <trkpt lat="40.065921" lon="-0.560066">
        <ele>651.148681640625</ele>
        <time>2020-06-14T21:43:38.760Z</time>
      </trkpt>
      <trkpt lat="40.065882" lon="-0.56013">
        <ele>652.2885131835938</ele>
        <time>2020-06-14T21:43:39.538Z</time>
      </trkpt>
      <trkpt lat="40.065835" lon="-0.560095">
        <ele>653.7877197265625</ele>
        <time>2020-06-14T21:43:40.317Z</time>
      </trkpt>
      <trkpt lat="40.065798" lon="-0.560066">
        <ele>654.8975830078125</ele>
        <time>2020-06-14T21:43:41.097Z</time>
      </trkpt>
      <trkpt lat="40.065769" lon="-0.560036">
        <ele>655.7673950195312</ele>
        <time>2020-06-14T21:43:41.878Z</time>
      </trkpt>
      <trkpt lat="40.065631" lon="-0.559917">
        <ele>659.90673828125</ele>
        <time>2020-06-14T21:43:42.662Z</time>
      </trkpt>
      <trkpt lat="40.065481" lon="-0.559722">
        <ele>664.4059448242188</ele>
        <time>2020-06-14T21:43:43.450Z</time>
      </trkpt>
      <trkpt lat="40.065374" lon="-0.559463">
        <ele>664.3031005859375</ele>
        <time>2020-06-14T21:43:44.243Z</time>
      </trkpt>
      <trkpt lat="40.065346" lon="-0.559373">
        <ele>663.8447875976562</ele>
        <time>2020-06-14T21:43:45.037Z</time>
      </trkpt>
      <trkpt lat="40.06529" lon="-0.559182">
        <ele>662.7037353515625</ele>
        <time>2020-06-14T21:43:45.834Z</time>
      </trkpt>
      <trkpt lat="40.065284" lon="-0.559156">
        <ele>662.4686279296875</ele>
        <time>2020-06-14T21:43:46.632Z</time>
      </trkpt>
      <trkpt lat="40.065243" lon="-0.558933">
        <ele>661.183837890625</ele>
        <time>2020-06-14T21:43:47.433Z</time>
      </trkpt>
      <trkpt lat="40.065223" lon="-0.558878">
        <ele>662.0357055664062</ele>
        <time>2020-06-14T21:43:48.235Z</time>
      </trkpt>
      <trkpt lat="40.065249" lon="-0.558857">
        <ele>660.2623901367188</ele>
        <time>2020-06-14T21:43:49.038Z</time>
      </trkpt>
      <trkpt lat="40.06523" lon="-0.558779">
        <ele>661.4205322265625</ele>
        <time>2020-06-14T21:43:49.842Z</time>
      </trkpt>
      <trkpt lat="40.065191" lon="-0.558495">
        <ele>664.1944580078125</ele>
        <time>2020-06-14T21:43:50.651Z</time>
      </trkpt>
      <trkpt lat="40.065116" lon="-0.558135">
        <ele>666.181396484375</ele>
        <time>2020-06-14T21:43:51.465Z</time>
      </trkpt>
      <trkpt lat="40.065043" lon="-0.557718">
        <ele>671.0396728515625</ele>
        <time>2020-06-14T21:43:52.286Z</time>
      </trkpt>
      <trkpt lat="40.065131" lon="-0.557445">
        <ele>669.8076171875</ele>
        <time>2020-06-14T21:43:53.111Z</time>
      </trkpt>
      <trkpt lat="40.06531" lon="-0.557231">
        <ele>663.584228515625</ele>
        <time>2020-06-14T21:43:53.941Z</time>
      </trkpt>
      <trkpt lat="40.065483" lon="-0.557132">
        <ele>657.9054565429688</ele>
        <time>2020-06-14T21:43:54.775Z</time>
      </trkpt>
      <trkpt lat="40.065602" lon="-0.557038">
        <ele>653.376220703125</ele>
        <time>2020-06-14T21:43:55.612Z</time>
      </trkpt>
      <trkpt lat="40.065715" lon="-0.556833">
        <ele>652.4530639648438</ele>
        <time>2020-06-14T21:43:56.453Z</time>
      </trkpt>
      <trkpt lat="40.065737" lon="-0.556641">
        <ele>655.056640625</ele>
        <time>2020-06-14T21:43:57.297Z</time>
      </trkpt>
      <trkpt lat="40.065781" lon="-0.55653">
        <ele>655.0230102539062</ele>
        <time>2020-06-14T21:43:58.143Z</time>
      </trkpt>
      <trkpt lat="40.065793" lon="-0.556405">
        <ele>656.8323364257812</ele>
        <time>2020-06-14T21:43:58.990Z</time>
      </trkpt>
      <trkpt lat="40.065853" lon="-0.55641">
        <ele>653.7848510742188</ele>
        <time>2020-06-14T21:43:59.839Z</time>
      </trkpt>
      <trkpt lat="40.065876" lon="-0.556368">
        <ele>653.459716796875</ele>
        <time>2020-06-14T21:44:00.688Z</time>
      </trkpt>
      <trkpt lat="40.065896" lon="-0.556397">
        <ele>651.9191284179688</ele>
        <time>2020-06-14T21:44:01.538Z</time>
      </trkpt>
      <trkpt lat="40.065941" lon="-0.556366">
        <ele>650.3005981445312</ele>
        <time>2020-06-14T21:44:02.389Z</time>
      </trkpt>
      <trkpt lat="40.065942" lon="-0.556317">
        <ele>651.4338989257812</ele>
        <time>2020-06-14T21:44:03.241Z</time>
      </trkpt>
      <trkpt lat="40.065974" lon="-0.556071">
        <ele>656.9434204101562</ele>
        <time>2020-06-14T21:44:04.097Z</time>
      </trkpt>
      <trkpt lat="40.065962" lon="-0.556034">
        <ele>658.59912109375</ele>
        <time>2020-06-14T21:44:04.953Z</time>
      </trkpt>
      <trkpt lat="40.065967007745584" lon="-0.5558557242495391">
        <ele>663.4862670898438</ele>
        <time>2020-06-14T21:44:05.812Z</time>
      </trkpt>
      <trkpt lat="40.06596701104323" lon="-0.555855606850126">
        <ele>663.489501953125</ele>
        <time>2020-06-14T21:44:06.671Z</time>
      </trkpt>
      <trkpt lat="40.065967" lon="-0.555856">
        <ele>663.4786987304688</ele>
        <time>2020-06-14T21:44:07.530Z</time>
      </trkpt>
      <trkpt lat="40.066024" lon="-0.555468">
        <ele>667.1279296875</ele>
        <time>2020-06-14T21:44:08.395Z</time>
      </trkpt>
      <trkpt lat="40.06605" lon="-0.555325">
        <ele>667.829833984375</ele>
        <time>2020-06-14T21:44:09.262Z</time>
      </trkpt>
      <trkpt lat="40.066059" lon="-0.555243">
        <ele>668.4237060546875</ele>
        <time>2020-06-14T21:44:10.131Z</time>
      </trkpt>
      <trkpt lat="40.066064" lon="-0.55517">
        <ele>669.0499877929688</ele>
        <time>2020-06-14T21:44:11.001Z</time>
      </trkpt>
      <trkpt lat="40.065966" lon="-0.555067">
        <ele>673.3369140625</ele>
        <time>2020-06-14T21:44:11.873Z</time>
      </trkpt>
      <trkpt lat="40.065892" lon="-0.555126">
        <ele>675.0969848632812</ele>
        <time>2020-06-14T21:44:12.747Z</time>
      </trkpt>
      <trkpt lat="40.065819" lon="-0.555386">
        <ele>674.654296875</ele>
        <time>2020-06-14T21:44:13.625Z</time>
      </trkpt>
      <trkpt lat="40.065745" lon="-0.555496">
        <ele>675.8636474609375</ele>
        <time>2020-06-14T21:44:14.506Z</time>
      </trkpt>
      <trkpt lat="40.065625" lon="-0.555692">
        <ele>677.4146728515625</ele>
        <time>2020-06-14T21:44:15.390Z</time>
      </trkpt>
      <trkpt lat="40.06553" lon="-0.555922">
        <ele>677.7326049804688</ele>
        <time>2020-06-14T21:44:16.278Z</time>
      </trkpt>
      <trkpt lat="40.065427" lon="-0.556043">
        <ele>679.6093139648438</ele>
        <time>2020-06-14T21:44:17.169Z</time>
      </trkpt>
      <trkpt lat="40.065224" lon="-0.556207">
        <ele>682.2692260742188</ele>
        <time>2020-06-14T21:44:18.065Z</time>
      </trkpt>
      <trkpt lat="40.065086" lon="-0.556182">
        <ele>685.715087890625</ele>
        <time>2020-06-14T21:44:18.964Z</time>
      </trkpt>
      <trkpt lat="40.064972" lon="-0.556121">
        <ele>689.0457153320312</ele>
        <time>2020-06-14T21:44:19.865Z</time>
      </trkpt>
      <trkpt lat="40.064839" lon="-0.556024">
        <ele>693.1531372070312</ele>
        <time>2020-06-14T21:44:20.769Z</time>
      </trkpt>
      <trkpt lat="40.064635" lon="-0.555908">
        <ele>698.8114013671875</ele>
        <time>2020-06-14T21:44:21.678Z</time>
      </trkpt>
      <trkpt lat="40.064654" lon="-0.55577">
        <ele>699.8912353515625</ele>
        <time>2020-06-14T21:44:22.589Z</time>
      </trkpt>
      <trkpt lat="40.06477" lon="-0.555651">
        <ele>698.6710205078125</ele>
        <time>2020-06-14T21:44:23.503Z</time>
      </trkpt>
      <trkpt lat="40.064894" lon="-0.555447">
        <ele>698.2699584960938</ele>
        <time>2020-06-14T21:44:24.421Z</time>
      </trkpt>
      <trkpt lat="40.064912" lon="-0.555403">
        <ele>698.4091186523438</ele>
        <time>2020-06-14T21:44:25.340Z</time>
      </trkpt>
      <trkpt lat="40.064971" lon="-0.555307">
        <ele>698.2867431640625</ele>
        <time>2020-06-14T21:44:26.260Z</time>
      </trkpt>
      <trkpt lat="40.06514" lon="-0.555156">
        <ele>696.4486694335938</ele>
        <time>2020-06-14T21:44:27.185Z</time>
      </trkpt>
      <trkpt lat="40.06519" lon="-0.555076">
        <ele>696.3286743164062</ele>
        <time>2020-06-14T21:44:28.111Z</time>
      </trkpt>
      <trkpt lat="40.06536" lon="-0.554774">
        <ele>696.2807006835938</ele>
        <time>2020-06-14T21:44:29.043Z</time>
      </trkpt>
      <trkpt lat="40.065474" lon="-0.554637">
        <ele>695.1841430664062</ele>
        <time>2020-06-14T21:44:29.978Z</time>
      </trkpt>
      <trkpt lat="40.065673" lon="-0.554445">
        <ele>692.1846923828125</ele>
        <time>2020-06-14T21:44:30.918Z</time>
      </trkpt>
      <trkpt lat="40.065697" lon="-0.554427">
        <ele>691.7239379882812</ele>
        <time>2020-06-14T21:44:31.858Z</time>
      </trkpt>
      <trkpt lat="40.065832" lon="-0.554238">
        <ele>691.0155029296875</ele>
        <time>2020-06-14T21:44:32.802Z</time>
      </trkpt>
      <trkpt lat="40.065976" lon="-0.554067">
        <ele>689.62255859375</ele>
        <time>2020-06-14T21:44:33.750Z</time>
      </trkpt>
      <trkpt lat="40.066127" lon="-0.553897">
        <ele>687.92724609375</ele>
        <time>2020-06-14T21:44:34.702Z</time>
      </trkpt>
      <trkpt lat="40.066294" lon="-0.553673">
        <ele>687.4553833007812</ele>
        <time>2020-06-14T21:44:35.659Z</time>
      </trkpt>
      <trkpt lat="40.066326" lon="-0.553588">
        <ele>688.4308471679688</ele>
        <time>2020-06-14T21:44:36.618Z</time>
      </trkpt>
      <trkpt lat="40.066362" lon="-0.553535">
        <ele>688.2496948242188</ele>
        <time>2020-06-14T21:44:37.578Z</time>
      </trkpt>
      <trkpt lat="40.066483" lon="-0.553363">
        <ele>687.4566040039062</ele>
        <time>2020-06-14T21:44:38.541Z</time>
      </trkpt>
      <trkpt lat="40.066524" lon="-0.553188">
        <ele>690.6888427734375</ele>
        <time>2020-06-14T21:44:39.507Z</time>
      </trkpt>
      <trkpt lat="40.066587" lon="-0.553017">
        <ele>692.7189331054688</ele>
        <time>2020-06-14T21:44:40.476Z</time>
      </trkpt>
      <trkpt lat="40.066647" lon="-0.552871">
        <ele>692.3345336914062</ele>
        <time>2020-06-14T21:44:41.447Z</time>
      </trkpt>
      <trkpt lat="40.066672" lon="-0.552843">
        <ele>691.5750732421875</ele>
        <time>2020-06-14T21:44:42.419Z</time>
      </trkpt>
      <trkpt lat="40.066701" lon="-0.552722">
        <ele>692.1809692382812</ele>
        <time>2020-06-14T21:44:43.393Z</time>
      </trkpt>
      <trkpt lat="40.066695" lon="-0.55266">
        <ele>693.5175170898438</ele>
        <time>2020-06-14T21:44:44.368Z</time>
      </trkpt>
      <trkpt lat="40.066692" lon="-0.55257">
        <ele>695.204345703125</ele>
        <time>2020-06-14T21:44:45.344Z</time>
      </trkpt>
      <trkpt lat="40.066679" lon="-0.552367">
        <ele>700.0311279296875</ele>
        <time>2020-06-14T21:44:46.324Z</time>
      </trkpt>
      <trkpt lat="40.066701" lon="-0.552177">
        <ele>702.7451171875</ele>
        <time>2020-06-14T21:44:47.307Z</time>
      </trkpt>
      <trkpt lat="40.066677" lon="-0.551974">
        <ele>705.5020141601562</ele>
        <time>2020-06-14T21:44:48.293Z</time>
      </trkpt>
      <trkpt lat="40.06667" lon="-0.551803">
        <ele>707.1025390625</ele>
        <time>2020-06-14T21:44:49.281Z</time>
      </trkpt>
      <trkpt lat="40.066663" lon="-0.55174">
        <ele>707.8062133789062</ele>
        <time>2020-06-14T21:44:50.270Z</time>
      </trkpt>
      <trkpt lat="40.066658" lon="-0.551693">
        <ele>708.2213745117188</ele>
        <time>2020-06-14T21:44:51.260Z</time>
      </trkpt>
      <trkpt lat="40.066585" lon="-0.551455">
        <ele>712.6690063476562</ele>
        <time>2020-06-14T21:44:52.254Z</time>
      </trkpt>
      <trkpt lat="40.066547" lon="-0.551297">
        <ele>714.8941040039062</ele>
        <time>2020-06-14T21:44:53.250Z</time>
      </trkpt>
      <trkpt lat="40.066476" lon="-0.551066">
        <ele>718.0367431640625</ele>
        <time>2020-06-14T21:44:54.250Z</time>
      </trkpt>
      <trkpt lat="40.066456" lon="-0.550986">
        <ele>718.8046264648438</ele>
        <time>2020-06-14T21:44:55.252Z</time>
      </trkpt>
      <trkpt lat="40.066466" lon="-0.550976">
        <ele>718.3007202148438</ele>
        <time>2020-06-14T21:44:56.254Z</time>
      </trkpt>
      <trkpt lat="40.066425" lon="-0.550959">
        <ele>720.2276000976562</ele>
        <time>2020-06-14T21:44:57.257Z</time>
      </trkpt>
      <trkpt lat="40.066369" lon="-0.550728">
        <ele>722.36083984375</ele>
        <time>2020-06-14T21:44:58.263Z</time>
      </trkpt>
      <trkpt lat="40.066307" lon="-0.550519">
        <ele>724.8348388671875</ele>
        <time>2020-06-14T21:44:59.273Z</time>
      </trkpt>
      <trkpt lat="40.066244" lon="-0.55028">
        <ele>727.2847900390625</ele>
        <time>2020-06-14T21:45:00.287Z</time>
      </trkpt>
      <trkpt lat="40.066246" lon="-0.550216">
        <ele>727.0352783203125</ele>
        <time>2020-06-14T21:45:01.302Z</time>
      </trkpt>
      <trkpt lat="40.066203" lon="-0.550075">
        <ele>728.7605590820312</ele>
        <time>2020-06-14T21:45:02.319Z</time>
      </trkpt>
      <trkpt lat="40.066193" lon="-0.549984">
        <ele>729.0220947265625</ele>
        <time>2020-06-14T21:45:03.337Z</time>
      </trkpt>
      <trkpt lat="40.0662" lon="-0.54993">
        <ele>728.5565795898438</ele>
        <time>2020-06-14T21:45:04.356Z</time>
      </trkpt>
      <trkpt lat="40.066205" lon="-0.549885">
        <ele>728.2086791992188</ele>
        <time>2020-06-14T21:45:05.376Z</time>
      </trkpt>
      <trkpt lat="40.066195" lon="-0.549817">
        <ele>728.525390625</ele>
        <time>2020-06-14T21:45:06.397Z</time>
      </trkpt>
      <trkpt lat="40.066148" lon="-0.549574">
        <ele>730.6798706054688</ele>
        <time>2020-06-14T21:45:07.422Z</time>
      </trkpt>
      <trkpt lat="40.066148" lon="-0.549484">
        <ele>730.8958129882812</ele>
        <time>2020-06-14T21:45:08.448Z</time>
      </trkpt>
      <trkpt lat="40.06614" lon="-0.549418">
        <ele>731.4381103515625</ele>
        <time>2020-06-14T21:45:09.475Z</time>
      </trkpt>
      <trkpt lat="40.066129" lon="-0.549343">
        <ele>732.14599609375</ele>
        <time>2020-06-14T21:45:10.504Z</time>
      </trkpt>
      <trkpt lat="40.066137" lon="-0.549257">
        <ele>731.9684448242188</ele>
        <time>2020-06-14T21:45:11.534Z</time>
      </trkpt>
      <trkpt lat="40.066141" lon="-0.549229">
        <ele>731.8436279296875</ele>
        <time>2020-06-14T21:45:12.564Z</time>
      </trkpt>
      <trkpt lat="40.066147" lon="-0.549186">
        <ele>731.6588745117188</ele>
        <time>2020-06-14T21:45:13.595Z</time>
      </trkpt>
      <trkpt lat="40.066191" lon="-0.548964">
        <ele>730.0799560546875</ele>
        <time>2020-06-14T21:45:14.629Z</time>
      </trkpt>
      <trkpt lat="40.066251" lon="-0.548761">
        <ele>728.1331787109375</ele>
        <time>2020-06-14T21:45:15.667Z</time>
      </trkpt>
      <trkpt lat="40.066301" lon="-0.548509">
        <ele>727.6285400390625</ele>
        <time>2020-06-14T21:45:16.709Z</time>
      </trkpt>
      <trkpt lat="40.066259" lon="-0.548329">
        <ele>730.8111572265625</ele>
        <time>2020-06-14T21:45:17.754Z</time>
      </trkpt>
      <trkpt lat="40.066148" lon="-0.548059">
        <ele>738.3029174804688</ele>
        <time>2020-06-14T21:45:18.803Z</time>
      </trkpt>
      <trkpt lat="40.066139" lon="-0.548051">
        <ele>738.7240600585938</ele>
        <time>2020-06-14T21:45:19.853Z</time>
      </trkpt>
      <trkpt lat="40.065988" lon="-0.547666">
        <ele>744.560546875</ele>
        <time>2020-06-14T21:45:20.909Z</time>
      </trkpt>
      <trkpt lat="40.065968" lon="-0.547595">
        <ele>745.2408447265625</ele>
        <time>2020-06-14T21:45:21.966Z</time>
      </trkpt>
      <trkpt lat="40.065931" lon="-0.547346">
        <ele>746.4558715820312</ele>
        <time>2020-06-14T21:45:23.027Z</time>
      </trkpt>
      <trkpt lat="40.066061" lon="-0.547062">
        <ele>739.8545532226562</ele>
        <time>2020-06-14T21:45:24.093Z</time>
      </trkpt>
      <trkpt lat="40.066121" lon="-0.54692">
        <ele>736.9030151367188</ele>
        <time>2020-06-14T21:45:25.162Z</time>
      </trkpt>
      <trkpt lat="40.066141" lon="-0.546817">
        <ele>735.919189453125</ele>
        <time>2020-06-14T21:45:26.232Z</time>
      </trkpt>
      <trkpt lat="40.066144" lon="-0.546688">
        <ele>735.7716064453125</ele>
        <time>2020-06-14T21:45:27.304Z</time>
      </trkpt>
      <trkpt lat="40.066138" lon="-0.546617">
        <ele>736.0667724609375</ele>
        <time>2020-06-14T21:45:28.378Z</time>
      </trkpt>
      <trkpt lat="40.0661" lon="-0.54646">
        <ele>737.5343017578125</ele>
        <time>2020-06-14T21:45:29.454Z</time>
      </trkpt>
      <trkpt lat="40.066073" lon="-0.546428">
        <ele>738.296142578125</ele>
        <time>2020-06-14T21:45:30.531Z</time>
      </trkpt>
      <trkpt lat="40.065972" lon="-0.546287">
        <ele>740.62060546875</ele>
        <time>2020-06-14T21:45:31.611Z</time>
      </trkpt>
      <trkpt lat="40.065884" lon="-0.546198">
        <ele>742.7166137695312</ele>
        <time>2020-06-14T21:45:32.693Z</time>
      </trkpt>
      <trkpt lat="40.065785" lon="-0.546146">
        <ele>745.8253173828125</ele>
        <time>2020-06-14T21:45:33.777Z</time>
      </trkpt>
      <trkpt lat="40.065715" lon="-0.546137">
        <ele>748.4564819335938</ele>
        <time>2020-06-14T21:45:34.863Z</time>
      </trkpt>
      <trkpt lat="40.065658" lon="-0.546144">
        <ele>750.822509765625</ele>
        <time>2020-06-14T21:45:35.950Z</time>
      </trkpt>
      <trkpt lat="40.065588" lon="-0.546097">
        <ele>752.060546875</ele>
        <time>2020-06-14T21:45:37.038Z</time>
      </trkpt>
      <trkpt lat="40.065404" lon="-0.546015">
        <ele>755.7998046875</ele>
        <time>2020-06-14T21:45:38.130Z</time>
      </trkpt>
      <trkpt lat="40.065337" lon="-0.545963">
        <ele>757.3031616210938</ele>
        <time>2020-06-14T21:45:39.224Z</time>
      </trkpt>
      <trkpt lat="40.065226" lon="-0.545813">
        <ele>758.18505859375</ele>
        <time>2020-06-14T21:45:40.321Z</time>
      </trkpt>
      <trkpt lat="40.065032" lon="-0.545635">
        <ele>758.3109130859375</ele>
        <time>2020-06-14T21:45:41.423Z</time>
      </trkpt>
      <trkpt lat="40.064911" lon="-0.545528">
        <ele>757.6870727539062</ele>
        <time>2020-06-14T21:45:42.528Z</time>
      </trkpt>
      <trkpt lat="40.064865" lon="-0.545222">
        <ele>744.271728515625</ele>
        <time>2020-06-14T21:45:43.637Z</time>
      </trkpt>
      <trkpt lat="40.064866" lon="-0.545203">
        <ele>743.416259765625</ele>
        <time>2020-06-14T21:45:44.747Z</time>
      </trkpt>
      <trkpt lat="40.064776" lon="-0.545082">
        <ele>741.3214111328125</ele>
        <time>2020-06-14T21:45:45.859Z</time>
      </trkpt>
      <trkpt lat="40.064642" lon="-0.545033">
        <ele>743.8673706054688</ele>
        <time>2020-06-14T21:45:46.974Z</time>
      </trkpt>
      <trkpt lat="40.064579" lon="-0.544983">
        <ele>743.8444213867188</ele>
        <time>2020-06-14T21:45:48.091Z</time>
      </trkpt>
      <trkpt lat="40.064565" lon="-0.544963">
        <ele>743.4172973632812</ele>
        <time>2020-06-14T21:45:49.208Z</time>
      </trkpt>
      <trkpt lat="40.06447" lon="-0.54499">
        <ele>747.5469970703125</ele>
        <time>2020-06-14T21:45:50.327Z</time>
      </trkpt>
      <trkpt lat="40.064224" lon="-0.544973">
        <ele>754.9974975585938</ele>
        <time>2020-06-14T21:45:51.451Z</time>
      </trkpt>
      <trkpt lat="40.064206" lon="-0.544848">
        <ele>751.1893310546875</ele>
        <time>2020-06-14T21:45:52.577Z</time>
      </trkpt>
      <trkpt lat="40.064264" lon="-0.544616">
        <ele>741.4410400390625</ele>
        <time>2020-06-14T21:45:53.706Z</time>
      </trkpt>
      <trkpt lat="40.064329" lon="-0.544502">
        <ele>736.4834594726562</ele>
        <time>2020-06-14T21:45:54.838Z</time>
      </trkpt>
      <trkpt lat="40.064442" lon="-0.544389">
        <ele>729.70458984375</ele>
        <time>2020-06-14T21:45:55.973Z</time>
      </trkpt>
      <trkpt lat="40.064494" lon="-0.544209">
        <ele>723.8207397460938</ele>
        <time>2020-06-14T21:45:57.110Z</time>
      </trkpt>
      <trkpt lat="40.064579" lon="-0.543902">
        <ele>713.9271850585938</ele>
        <time>2020-06-14T21:45:58.252Z</time>
      </trkpt>
      <trkpt lat="40.064658" lon="-0.543799">
        <ele>707.4837646484375</ele>
        <time>2020-06-14T21:45:59.397Z</time>
      </trkpt>
      <trkpt lat="40.064757" lon="-0.543769">
        <ele>700.7816772460938</ele>
        <time>2020-06-14T21:46:00.544Z</time>
      </trkpt>
      <trkpt lat="40.064801" lon="-0.54372">
        <ele>697.4606323242188</ele>
        <time>2020-06-14T21:46:01.692Z</time>
      </trkpt>
      <trkpt lat="40.06489" lon="-0.543556">
        <ele>690.1203002929688</ele>
        <time>2020-06-14T21:46:02.843Z</time>
      </trkpt>
      <trkpt lat="40.064927" lon="-0.543439">
        <ele>687.3397216796875</ele>
        <time>2020-06-14T21:46:03.996Z</time>
      </trkpt>
      <trkpt lat="40.065064" lon="-0.54326">
        <ele>677.1990356445312</ele>
        <time>2020-06-14T21:46:05.153Z</time>
      </trkpt>
      <trkpt lat="40.065034" lon="-0.543169">
        <ele>679.5758056640625</ele>
        <time>2020-06-14T21:46:06.311Z</time>
      </trkpt>
      <trkpt lat="40.064997" lon="-0.543108">
        <ele>682.4457397460938</ele>
        <time>2020-06-14T21:46:07.471Z</time>
      </trkpt>
      <trkpt lat="40.064878" lon="-0.543046">
        <ele>691.5150146484375</ele>
        <time>2020-06-14T21:46:08.633Z</time>
      </trkpt>
      <trkpt lat="40.064731" lon="-0.543082">
        <ele>702.5831909179688</ele>
        <time>2020-06-14T21:46:09.798Z</time>
      </trkpt>
      <trkpt lat="40.064595" lon="-0.542989">
        <ele>712.6783447265625</ele>
        <time>2020-06-14T21:46:10.966Z</time>
      </trkpt>
      <trkpt lat="40.064596" lon="-0.542951">
        <ele>712.010009765625</ele>
        <time>2020-06-14T21:46:12.135Z</time>
      </trkpt>
      <trkpt lat="40.06459" lon="-0.54291">
        <ele>711.8240966796875</ele>
        <time>2020-06-14T21:46:13.304Z</time>
      </trkpt>
      <trkpt lat="40.064599" lon="-0.542885">
        <ele>710.7538452148438</ele>
        <time>2020-06-14T21:46:14.474Z</time>
      </trkpt>
      <trkpt lat="40.064593" lon="-0.54275">
        <ele>709.1017456054688</ele>
        <time>2020-06-14T21:46:15.646Z</time>
      </trkpt>
      <trkpt lat="40.064592" lon="-0.542576">
        <ele>706.46337890625</ele>
        <time>2020-06-14T21:46:16.821Z</time>
      </trkpt>
      <trkpt lat="40.064609" lon="-0.542402">
        <ele>702.4644165039062</ele>
        <time>2020-06-14T21:46:17.998Z</time>
      </trkpt>
      <trkpt lat="40.064591" lon="-0.542217">
        <ele>700.9395141601562</ele>
        <time>2020-06-14T21:46:19.178Z</time>
      </trkpt>
      <trkpt lat="40.064599" lon="-0.542129">
        <ele>699.3861694335938</ele>
        <time>2020-06-14T21:46:20.359Z</time>
      </trkpt>
      <trkpt lat="40.064631" lon="-0.542012">
        <ele>696.2655029296875</ele>
        <time>2020-06-14T21:46:21.542Z</time>
      </trkpt>
      <trkpt lat="40.064593" lon="-0.54173">
        <ele>697.5009155273438</ele>
        <time>2020-06-14T21:46:22.730Z</time>
      </trkpt>
      <trkpt lat="40.064585" lon="-0.541495">
        <ele>697.0125732421875</ele>
        <time>2020-06-14T21:46:23.921Z</time>
      </trkpt>
      <trkpt lat="40.064555" lon="-0.541299">
        <ele>699.56787109375</ele>
        <time>2020-06-14T21:46:25.115Z</time>
      </trkpt>
      <trkpt lat="40.064545" lon="-0.541064">
        <ele>698.0321044921875</ele>
        <time>2020-06-14T21:46:26.313Z</time>
      </trkpt>
      <trkpt lat="40.064589" lon="-0.540844">
        <ele>689.743896484375</ele>
        <time>2020-06-14T21:46:27.515Z</time>
      </trkpt>
      <trkpt lat="40.064489" lon="-0.540654">
        <ele>700.3021240234375</ele>
        <time>2020-06-14T21:46:28.720Z</time>
      </trkpt>
      <trkpt lat="40.064286" lon="-0.540398">
        <ele>722.2722778320312</ele>
        <time>2020-06-14T21:46:29.931Z</time>
      </trkpt>
      <trkpt lat="40.064301" lon="-0.540057">
        <ele>714.2276000976562</ele>
        <time>2020-06-14T21:46:31.147Z</time>
      </trkpt>
      <trkpt lat="40.064352" lon="-0.539924">
        <ele>705.347900390625</ele>
        <time>2020-06-14T21:46:32.365Z</time>
      </trkpt>
      <trkpt lat="40.064389" lon="-0.539925">
        <ele>700.6602783203125</ele>
        <time>2020-06-14T21:46:33.584Z</time>
      </trkpt>
      <trkpt lat="40.064411" lon="-0.539899">
        <ele>697.3944091796875</ele>
        <time>2020-06-14T21:46:34.804Z</time>
      </trkpt>
      <trkpt lat="40.064445" lon="-0.539906">
        <ele>693.1962890625</ele>
        <time>2020-06-14T21:46:36.024Z</time>
      </trkpt>
      <trkpt lat="40.064495" lon="-0.539871">
        <ele>686.2074584960938</ele>
        <time>2020-06-14T21:46:37.245Z</time>
      </trkpt>
      <trkpt lat="40.064471" lon="-0.539911">
        <ele>689.9796752929688</ele>
        <time>2020-06-14T21:46:38.467Z</time>
      </trkpt>
      <trkpt lat="40.064536" lon="-0.539932">
        <ele>682.0909423828125</ele>
        <time>2020-06-14T21:46:39.691Z</time>
      </trkpt>
      <trkpt lat="40.064462" lon="-0.539911">
        <ele>691.124267578125</ele>
        <time>2020-06-14T21:46:40.916Z</time>
      </trkpt>
      <trkpt lat="40.064517" lon="-0.539907">
        <ele>684.0574340820312</ele>
        <time>2020-06-14T21:46:42.142Z</time>
      </trkpt>
      <trkpt lat="40.064468" lon="-0.539885">
        <ele>689.8932495117188</ele>
        <time>2020-06-14T21:46:43.369Z</time>
      </trkpt>
      <trkpt lat="40.064409" lon="-0.539721">
        <ele>693.4580688476562</ele>
        <time>2020-06-14T21:46:44.599Z</time>
      </trkpt>
      <trkpt lat="40.0644" lon="-0.539584">
        <ele>694.0676879882812</ele>
        <time>2020-06-14T21:46:45.831Z</time>
      </trkpt>
      <trkpt lat="40.064416" lon="-0.539525">
        <ele>692.6434936523438</ele>
        <time>2020-06-14T21:46:47.064Z</time>
      </trkpt>
      <trkpt lat="40.064474" lon="-0.539446">
        <ele>686.34814453125</ele>
        <time>2020-06-14T21:46:48.299Z</time>
      </trkpt>
      <trkpt lat="40.064574" lon="-0.539247">
        <ele>676.021484375</ele>
        <time>2020-06-14T21:46:49.537Z</time>
      </trkpt>
      <trkpt lat="40.064646" lon="-0.539079">
        <ele>673.5623168945312</ele>
        <time>2020-06-14T21:46:50.778Z</time>
      </trkpt>
      <trkpt lat="40.064689" lon="-0.538972">
        <ele>673.2744140625</ele>
        <time>2020-06-14T21:46:52.021Z</time>
      </trkpt>
      <trkpt lat="40.064702" lon="-0.538843">
        <ele>673.9990844726562</ele>
        <time>2020-06-14T21:46:53.266Z</time>
      </trkpt>
      <trkpt lat="40.064602" lon="-0.538714">
        <ele>683.062255859375</ele>
        <time>2020-06-14T21:46:54.514Z</time>
      </trkpt>
      <trkpt lat="40.064601" lon="-0.538519">
        <ele>692.6678466796875</ele>
        <time>2020-06-14T21:46:55.765Z</time>
      </trkpt>
      <trkpt lat="40.064671" lon="-0.538464">
        <ele>694.4495239257812</ele>
        <time>2020-06-14T21:46:57.018Z</time>
      </trkpt>
      <trkpt lat="40.064769" lon="-0.53841">
        <ele>695.8125</ele>
        <time>2020-06-14T21:46:58.273Z</time>
      </trkpt>
      <trkpt lat="40.064853" lon="-0.538368">
        <ele>696.7699584960938</ele>
        <time>2020-06-14T21:46:59.530Z</time>
      </trkpt>
      <trkpt lat="40.064865" lon="-0.538344">
        <ele>697.7921752929688</ele>
        <time>2020-06-14T21:47:00.787Z</time>
      </trkpt>
      <trkpt lat="40.064929" lon="-0.538142">
        <ele>706.88427734375</ele>
        <time>2020-06-14T21:47:02.047Z</time>
      </trkpt>
      <trkpt lat="40.065011" lon="-0.538127">
        <ele>706.5399169921875</ele>
        <time>2020-06-14T21:47:03.309Z</time>
      </trkpt>
      <trkpt lat="40.065118" lon="-0.538149">
        <ele>704.0455322265625</ele>
        <time>2020-06-14T21:47:04.573Z</time>
      </trkpt>
      <trkpt lat="40.065188" lon="-0.538164">
        <ele>702.3838500976562</ele>
        <time>2020-06-14T21:47:05.839Z</time>
      </trkpt>
      <trkpt lat="40.06527" lon="-0.538178">
        <ele>700.406494140625</ele>
        <time>2020-06-14T21:47:07.106Z</time>
      </trkpt>
      <trkpt lat="40.065382" lon="-0.53817">
        <ele>697.8245239257812</ele>
        <time>2020-06-14T21:47:08.375Z</time>
      </trkpt>
      <trkpt lat="40.065414" lon="-0.538143">
        <ele>698.6583862304688</ele>
        <time>2020-06-14T21:47:09.645Z</time>
      </trkpt>
      <trkpt lat="40.065561" lon="-0.538066">
        <ele>697.4215698242188</ele>
        <time>2020-06-14T21:47:10.918Z</time>
      </trkpt>
      <trkpt lat="40.065575" lon="-0.538065">
        <ele>696.8804931640625</ele>
        <time>2020-06-14T21:47:12.192Z</time>
      </trkpt>
      <trkpt lat="40.065773" lon="-0.538107">
        <ele>685.6575317382812</ele>
        <time>2020-06-14T21:47:13.470Z</time>
      </trkpt>
      <trkpt lat="40.065977" lon="-0.538211">
        <ele>670.23291015625</ele>
        <time>2020-06-14T21:47:14.752Z</time>
      </trkpt>
      <trkpt lat="40.066055" lon="-0.538219">
        <ele>666.890380859375</ele>
        <time>2020-06-14T21:47:16.036Z</time>
      </trkpt>
      <trkpt lat="40.066122" lon="-0.538192">
        <ele>668.8328857421875</ele>
        <time>2020-06-14T21:47:17.321Z</time>
      </trkpt>
      <trkpt lat="40.066146" lon="-0.538145">
        <ele>668.9912719726562</ele>
        <time>2020-06-14T21:47:18.607Z</time>
      </trkpt>
      <trkpt lat="40.06622781529011" lon="-0.5379185113330726">
        <ele>674.5422973632812</ele>
        <time>2020-06-14T21:47:19.897Z</time>
      </trkpt>
      <trkpt lat="40.06622811127279" lon="-0.5379176919631555">
        <ele>674.5491943359375</ele>
        <time>2020-06-14T21:47:21.187Z</time>
      </trkpt>
      <trkpt lat="40.066228" lon="-0.537918">
        <ele>674.546630859375</ele>
        <time>2020-06-14T21:47:22.477Z</time>
      </trkpt>
      <trkpt lat="40.066367" lon="-0.5377">
        <ele>672.6328735351562</ele>
        <time>2020-06-14T21:47:23.771Z</time>
      </trkpt>
      <trkpt lat="40.066427" lon="-0.537473">
        <ele>674.8405151367188</ele>
        <time>2020-06-14T21:47:25.069Z</time>
      </trkpt>
      <trkpt lat="40.066541" lon="-0.537232">
        <ele>674.4685668945312</ele>
        <time>2020-06-14T21:47:26.371Z</time>
      </trkpt>
      <trkpt lat="40.066686" lon="-0.537078">
        <ele>671.5802612304688</ele>
        <time>2020-06-14T21:47:27.677Z</time>
      </trkpt>
      <trkpt lat="40.066846" lon="-0.536874">
        <ele>670.5292358398438</ele>
        <time>2020-06-14T21:47:28.987Z</time>
      </trkpt>
      <trkpt lat="40.0671" lon="-0.536655">
        <ele>664.7489013671875</ele>
        <time>2020-06-14T21:47:30.303Z</time>
      </trkpt>
      <trkpt lat="40.067215" lon="-0.536489">
        <ele>660.0228881835938</ele>
        <time>2020-06-14T21:47:31.623Z</time>
      </trkpt>
      <trkpt lat="40.067291" lon="-0.536384">
        <ele>656.7246704101562</ele>
        <time>2020-06-14T21:47:32.945Z</time>
      </trkpt>
      <trkpt lat="40.067326" lon="-0.536328">
        <ele>655.242431640625</ele>
        <time>2020-06-14T21:47:34.268Z</time>
      </trkpt>
      <trkpt lat="40.067432" lon="-0.536105">
        <ele>648.4059448242188</ele>
        <time>2020-06-14T21:47:35.595Z</time>
      </trkpt>
      <trkpt lat="40.067473" lon="-0.536054">
        <ele>645.2540893554688</ele>
        <time>2020-06-14T21:47:36.923Z</time>
      </trkpt>
      <trkpt lat="40.067494" lon="-0.536034">
        <ele>643.5515747070312</ele>
        <time>2020-06-14T21:47:38.252Z</time>
      </trkpt>
      <trkpt lat="40.067539" lon="-0.535823">
        <ele>643.9578247070312</ele>
        <time>2020-06-14T21:47:39.584Z</time>
      </trkpt>
      <trkpt lat="40.067576" lon="-0.535693">
        <ele>644.4425659179688</ele>
        <time>2020-06-14T21:47:40.918Z</time>
      </trkpt>
      <trkpt lat="40.067537" lon="-0.535455">
        <ele>656.1875</ele>
        <time>2020-06-14T21:47:42.256Z</time>
      </trkpt>
      <trkpt lat="40.067506" lon="-0.535414">
        <ele>659.9800415039062</ele>
        <time>2020-06-14T21:47:43.595Z</time>
      </trkpt>
      <trkpt lat="40.067435" lon="-0.535313">
        <ele>668.6917724609375</ele>
        <time>2020-06-14T21:47:44.936Z</time>
      </trkpt>
      <trkpt lat="40.067445" lon="-0.535048">
        <ele>666.6693115234375</ele>
        <time>2020-06-14T21:47:46.281Z</time>
      </trkpt>
      <trkpt lat="40.067457" lon="-0.534912">
        <ele>663.6649780273438</ele>
        <time>2020-06-14T21:47:47.628Z</time>
      </trkpt>
      <trkpt lat="40.067425" lon="-0.534736">
        <ele>664.5672607421875</ele>
        <time>2020-06-14T21:47:48.978Z</time>
      </trkpt>
      <trkpt lat="40.06739" lon="-0.534593">
        <ele>665.7339477539062</ele>
        <time>2020-06-14T21:47:50.330Z</time>
      </trkpt>
      <trkpt lat="40.067294" lon="-0.534553">
        <ele>674.6412353515625</ele>
        <time>2020-06-14T21:47:51.684Z</time>
      </trkpt>
      <trkpt lat="40.067119" lon="-0.534539">
        <ele>689.1398315429688</ele>
        <time>2020-06-14T21:47:53.042Z</time>
      </trkpt>
      <trkpt lat="40.066926" lon="-0.534612">
        <ele>698.521240234375</ele>
        <time>2020-06-14T21:47:54.404Z</time>
      </trkpt>
      <trkpt lat="40.066779" lon="-0.53468">
        <ele>705.1895751953125</ele>
        <time>2020-06-14T21:47:55.769Z</time>
      </trkpt>
      <trkpt lat="40.066622" lon="-0.534715">
        <ele>710.1531372070312</ele>
        <time>2020-06-14T21:47:57.137Z</time>
      </trkpt>
      <trkpt lat="40.06657" lon="-0.534682">
        <ele>710.5130615234375</ele>
        <time>2020-06-14T21:47:58.506Z</time>
      </trkpt>
      <trkpt lat="40.066443" lon="-0.534611">
        <ele>710.6452026367188</ele>
        <time>2020-06-14T21:47:59.878Z</time>
      </trkpt>
      <trkpt lat="40.066371" lon="-0.53452">
        <ele>708.1583251953125</ele>
        <time>2020-06-14T21:48:01.252Z</time>
      </trkpt>
      <trkpt lat="40.066268" lon="-0.53445">
        <ele>706.9393310546875</ele>
        <time>2020-06-14T21:48:02.628Z</time>
      </trkpt>
      <trkpt lat="40.066146" lon="-0.534342">
        <ele>701.7706909179688</ele>
        <time>2020-06-14T21:48:04.007Z</time>
      </trkpt>
      <trkpt lat="40.06606" lon="-0.534335">
        <ele>701.4263305664062</ele>
        <time>2020-06-14T21:48:05.388Z</time>
      </trkpt>
      <trkpt lat="40.06598" lon="-0.534333">
        <ele>701.3279418945312</ele>
        <time>2020-06-14T21:48:06.771Z</time>
      </trkpt>
      <trkpt lat="40.065862" lon="-0.534203">
        <ele>694.9747314453125</ele>
        <time>2020-06-14T21:48:08.157Z</time>
      </trkpt>
      <trkpt lat="40.065803" lon="-0.53411">
        <ele>690.582275390625</ele>
        <time>2020-06-14T21:48:09.545Z</time>
      </trkpt>
      <trkpt lat="40.065724" lon="-0.534029">
        <ele>686.7897338867188</ele>
        <time>2020-06-14T21:48:10.935Z</time>
      </trkpt>
      <trkpt lat="40.065652" lon="-0.533944">
        <ele>682.7968139648438</ele>
        <time>2020-06-14T21:48:12.327Z</time>
      </trkpt>
      <trkpt lat="40.065566" lon="-0.533876">
        <ele>679.6365356445312</ele>
        <time>2020-06-14T21:48:13.721Z</time>
      </trkpt>
      <trkpt lat="40.06542" lon="-0.533825">
        <ele>677.4259033203125</ele>
        <time>2020-06-14T21:48:15.118Z</time>
      </trkpt>
      <trkpt lat="40.065182" lon="-0.533827">
        <ele>677.224365234375</ele>
        <time>2020-06-14T21:48:16.519Z</time>
      </trkpt>
      <trkpt lat="40.065128" lon="-0.533821">
        <ele>676.9075927734375</ele>
        <time>2020-06-14T21:48:17.921Z</time>
      </trkpt>
      <trkpt lat="40.065104" lon="-0.533824">
        <ele>677.0047607421875</ele>
        <time>2020-06-14T21:48:19.324Z</time>
      </trkpt>
      <trkpt lat="40.065035" lon="-0.533826">
        <ele>677.0059814453125</ele>
        <time>2020-06-14T21:48:20.728Z</time>
      </trkpt>
      <trkpt lat="40.06487" lon="-0.533815">
        <ele>676.3460693359375</ele>
        <time>2020-06-14T21:48:22.136Z</time>
      </trkpt>
      <trkpt lat="40.064856" lon="-0.533815">
        <ele>676.3292846679688</ele>
        <time>2020-06-14T21:48:23.544Z</time>
      </trkpt>
      <trkpt lat="40.064812" lon="-0.5338">
        <ele>675.6466064453125</ele>
        <time>2020-06-14T21:48:24.953Z</time>
      </trkpt>
      <trkpt lat="40.064801" lon="-0.533777">
        <ele>674.6675415039062</ele>
        <time>2020-06-14T21:48:26.362Z</time>
      </trkpt>
      <trkpt lat="40.064786" lon="-0.53365">
        <ele>669.3164672851562</ele>
        <time>2020-06-14T21:48:27.773Z</time>
      </trkpt>
      <trkpt lat="40.064756" lon="-0.533547">
        <ele>666.0455932617188</ele>
        <time>2020-06-14T21:48:29.186Z</time>
      </trkpt>
      <trkpt lat="40.064763" lon="-0.533339">
        <ele>659.007568359375</ele>
        <time>2020-06-14T21:48:30.602Z</time>
      </trkpt>
      <trkpt lat="40.064736" lon="-0.533229">
        <ele>655.5065307617188</ele>
        <time>2020-06-14T21:48:32.020Z</time>
      </trkpt>
      <trkpt lat="40.064731" lon="-0.533154">
        <ele>653.02294921875</ele>
        <time>2020-06-14T21:48:33.439Z</time>
      </trkpt>
      <trkpt lat="40.064675" lon="-0.533031">
        <ele>649.2940063476562</ele>
        <time>2020-06-14T21:48:34.860Z</time>
      </trkpt>
      <trkpt lat="40.064591" lon="-0.532806">
        <ele>646.6533203125</ele>
        <time>2020-06-14T21:48:36.285Z</time>
      </trkpt>
      <trkpt lat="40.064568" lon="-0.532716">
        <ele>645.8494262695312</ele>
        <time>2020-06-14T21:48:37.712Z</time>
      </trkpt>
      <trkpt lat="40.064522" lon="-0.532501">
        <ele>643.82177734375</ele>
        <time>2020-06-14T21:48:39.142Z</time>
      </trkpt>
      <trkpt lat="40.064559" lon="-0.532415">
        <ele>642.3460083007812</ele>
        <time>2020-06-14T21:48:40.573Z</time>
      </trkpt>
      <trkpt lat="40.064675" lon="-0.532284">
        <ele>638.7054443359375</ele>
        <time>2020-06-14T21:48:42.008Z</time>
      </trkpt>
      <trkpt lat="40.064793" lon="-0.532162">
        <ele>634.9830932617188</ele>
        <time>2020-06-14T21:48:43.446Z</time>
      </trkpt>
      <trkpt lat="40.064974" lon="-0.53201">
        <ele>631.8384399414062</ele>
        <time>2020-06-14T21:48:44.888Z</time>
      </trkpt>
      <trkpt lat="40.065097" lon="-0.531952">
        <ele>629.5384521484375</ele>
        <time>2020-06-14T21:48:46.332Z</time>
      </trkpt>
      <trkpt lat="40.065279" lon="-0.53185">
        <ele>626.193359375</ele>
        <time>2020-06-14T21:48:47.780Z</time>
      </trkpt>
      <trkpt lat="40.065445" lon="-0.53173">
        <ele>623.1572265625</ele>
        <time>2020-06-14T21:48:49.232Z</time>
      </trkpt>
      <trkpt lat="40.065562" lon="-0.531604">
        <ele>620.662841796875</ele>
        <time>2020-06-14T21:48:50.687Z</time>
      </trkpt>
      <trkpt lat="40.065625" lon="-0.531489">
        <ele>619.4894409179688</ele>
        <time>2020-06-14T21:48:52.144Z</time>
      </trkpt>
      <trkpt lat="40.065643" lon="-0.531285">
        <ele>620.4064331054688</ele>
        <time>2020-06-14T21:48:53.605Z</time>
      </trkpt>
      <trkpt lat="40.065686" lon="-0.531068">
        <ele>622.4794311523438</ele>
        <time>2020-06-14T21:48:55.069Z</time>
      </trkpt>
      <trkpt lat="40.065865" lon="-0.53088">
        <ele>620.7289428710938</ele>
        <time>2020-06-14T21:48:56.538Z</time>
      </trkpt>
      <trkpt lat="40.066034" lon="-0.53072">
        <ele>619.1392211914062</ele>
        <time>2020-06-14T21:48:58.011Z</time>
      </trkpt>
      <trkpt lat="40.066099" lon="-0.530722">
        <ele>617.698486328125</ele>
        <time>2020-06-14T21:48:59.485Z</time>
      </trkpt>
      <trkpt lat="40.066196" lon="-0.530685">
        <ele>615.8316040039062</ele>
        <time>2020-06-14T21:49:00.961Z</time>
      </trkpt>
      <trkpt lat="40.066226" lon="-0.530686">
        <ele>615.0601196289062</ele>
        <time>2020-06-14T21:49:02.438Z</time>
      </trkpt>
      <trkpt lat="40.066389" lon="-0.530763">
        <ele>609.2926635742188</ele>
        <time>2020-06-14T21:49:03.918Z</time>
      </trkpt>
      <trkpt lat="40.066436" lon="-0.530813">
        <ele>607.159423828125</ele>
        <time>2020-06-14T21:49:05.399Z</time>
      </trkpt>
      <trkpt lat="40.066477" lon="-0.530811">
        <ele>606.010009765625</ele>
        <time>2020-06-14T21:49:06.881Z</time>
      </trkpt>
      <trkpt lat="40.066643" lon="-0.530635">
        <ele>603.9751586914062</ele>
        <time>2020-06-14T21:49:08.368Z</time>
      </trkpt>
      <trkpt lat="40.066716" lon="-0.530456">
        <ele>604.7232666015625</ele>
        <time>2020-06-14T21:49:09.858Z</time>
      </trkpt>
      <trkpt lat="40.06672" lon="-0.530311">
        <ele>607.043701171875</ele>
        <time>2020-06-14T21:49:11.350Z</time>
      </trkpt>
      <trkpt lat="40.066785" lon="-0.530127">
        <ele>608.2626953125</ele>
        <time>2020-06-14T21:49:12.845Z</time>
      </trkpt>
      <trkpt lat="40.066898" lon="-0.529887">
        <ele>609.0401611328125</ele>
        <time>2020-06-14T21:49:14.344Z</time>
      </trkpt>
      <trkpt lat="40.067043" lon="-0.529684">
        <ele>607.3882446289062</ele>
        <time>2020-06-14T21:49:15.848Z</time>
      </trkpt>
      <trkpt lat="40.067103" lon="-0.529572">
        <ele>607.070556640625</ele>
        <time>2020-06-14T21:49:17.354Z</time>
      </trkpt>
      <trkpt lat="40.067124" lon="-0.529541">
        <ele>606.7166137695312</ele>
        <time>2020-06-14T21:49:18.860Z</time>
      </trkpt>
      <trkpt lat="40.067326" lon="-0.529348">
        <ele>603.0596313476562</ele>
        <time>2020-06-14T21:49:20.371Z</time>
      </trkpt>
      <trkpt lat="40.067492" lon="-0.529125">
        <ele>600.2088623046875</ele>
        <time>2020-06-14T21:49:21.887Z</time>
      </trkpt>
      <trkpt lat="40.067494" lon="-0.528996">
        <ele>600.4776611328125</ele>
        <time>2020-06-14T21:49:23.405Z</time>
      </trkpt>
      <trkpt lat="40.06747" lon="-0.528953">
        <ele>601.0703125</ele>
        <time>2020-06-14T21:49:24.924Z</time>
      </trkpt>
      <trkpt lat="40.067367" lon="-0.528997">
        <ele>603.0656127929688</ele>
        <time>2020-06-14T21:49:26.445Z</time>
      </trkpt>
      <trkpt lat="40.06727" lon="-0.529051">
        <ele>604.9144897460938</ele>
        <time>2020-06-14T21:49:27.968Z</time>
      </trkpt>
      <trkpt lat="40.067164" lon="-0.529043">
        <ele>607.0957641601562</ele>
        <time>2020-06-14T21:49:29.493Z</time>
      </trkpt>
      <trkpt lat="40.067011" lon="-0.529119">
        <ele>608.8275146484375</ele>
        <time>2020-06-14T21:49:31.022Z</time>
      </trkpt>
      <trkpt lat="40.06692" lon="-0.529125">
        <ele>609.3590087890625</ele>
        <time>2020-06-14T21:49:32.552Z</time>
      </trkpt>
      <trkpt lat="40.066952" lon="-0.529036">
        <ele>609.380615234375</ele>
        <time>2020-06-14T21:49:34.084Z</time>
      </trkpt>
      <trkpt lat="40.066986" lon="-0.528942">
        <ele>609.2221069335938</ele>
        <time>2020-06-14T21:49:35.617Z</time>
      </trkpt>
      <trkpt lat="40.067016" lon="-0.528835">
        <ele>606.1798095703125</ele>
        <time>2020-06-14T21:49:37.152Z</time>
      </trkpt>
      <trkpt lat="40.067129" lon="-0.528741">
        <ele>606.594482421875</ele>
        <time>2020-06-14T21:49:38.690Z</time>
      </trkpt>
      <trkpt lat="40.067222" lon="-0.528579">
        <ele>603.0742797851562</ele>
        <time>2020-06-14T21:49:40.231Z</time>
      </trkpt>
      <trkpt lat="40.067271" lon="-0.528578">
        <ele>603.749755859375</ele>
        <time>2020-06-14T21:49:41.773Z</time>
      </trkpt>
      <trkpt lat="40.067319" lon="-0.5285">
        <ele>602.1011962890625</ele>
        <time>2020-06-14T21:49:43.316Z</time>
      </trkpt>
      <trkpt lat="40.06732" lon="-0.528421">
        <ele>599.7460327148438</ele>
        <time>2020-06-14T21:49:44.861Z</time>
      </trkpt>
      <trkpt lat="40.067355" lon="-0.528246">
        <ele>595.0007934570312</ele>
        <time>2020-06-14T21:49:46.408Z</time>
      </trkpt>
      <trkpt lat="40.067384" lon="-0.528161">
        <ele>592.8687744140625</ele>
        <time>2020-06-14T21:49:47.957Z</time>
      </trkpt>
      <trkpt lat="40.067388" lon="-0.528178">
        <ele>593.436279296875</ele>
        <time>2020-06-14T21:49:49.506Z</time>
      </trkpt>
      <trkpt lat="40.067358" lon="-0.52812">
        <ele>591.2646484375</ele>
        <time>2020-06-14T21:49:51.056Z</time>
      </trkpt>
      <trkpt lat="40.06736" lon="-0.528102">
        <ele>590.7534790039062</ele>
        <time>2020-06-14T21:49:52.607Z</time>
      </trkpt>
      <trkpt lat="40.067386" lon="-0.528156">
        <ele>592.74755859375</ele>
        <time>2020-06-14T21:49:54.159Z</time>
      </trkpt>
      <trkpt lat="40.067423" lon="-0.528154">
        <ele>593.2202758789062</ele>
        <time>2020-06-14T21:49:55.711Z</time>
      </trkpt>
      <trkpt lat="40.067507" lon="-0.528039">
        <ele>590.9802856445312</ele>
        <time>2020-06-14T21:49:57.266Z</time>
      </trkpt>
      <trkpt lat="40.067579" lon="-0.527969">
        <ele>590.0858764648438</ele>
        <time>2020-06-14T21:49:58.822Z</time>
      </trkpt>
      <trkpt lat="40.067727" lon="-0.527859">
        <ele>589.4451904296875</ele>
        <time>2020-06-14T21:50:00.382Z</time>
      </trkpt>
      <trkpt lat="40.067768" lon="-0.527728">
        <ele>586.73486328125</ele>
        <time>2020-06-14T21:50:01.944Z</time>
      </trkpt>
      <trkpt lat="40.067845" lon="-0.527564">
        <ele>583.7113647460938</ele>
        <time>2020-06-14T21:50:03.509Z</time>
      </trkpt>
      <trkpt lat="40.067939" lon="-0.527428">
        <ele>581.3678588867188</ele>
        <time>2020-06-14T21:50:05.077Z</time>
      </trkpt>
      <trkpt lat="40.068069" lon="-0.527322">
        <ele>577.2933349609375</ele>
        <time>2020-06-14T21:50:06.648Z</time>
      </trkpt>
      <trkpt lat="40.068145" lon="-0.527281">
        <ele>575.4396362304688</ele>
        <time>2020-06-14T21:50:08.221Z</time>
      </trkpt>
      <trkpt lat="40.068271" lon="-0.527169">
        <ele>571.2451171875</ele>
        <time>2020-06-14T21:50:09.797Z</time>
      </trkpt>
      <trkpt lat="40.068396" lon="-0.527148">
        <ele>569.2150268554688</ele>
        <time>2020-06-14T21:50:11.375Z</time>
      </trkpt>
      <trkpt lat="40.068464" lon="-0.527085">
        <ele>566.4398803710938</ele>
        <time>2020-06-14T21:50:12.955Z</time>
      </trkpt>
      <trkpt lat="40.068518" lon="-0.52707">
        <ele>565.3709106445312</ele>
        <time>2020-06-14T21:50:14.536Z</time>
      </trkpt>
      <trkpt lat="40.06862" lon="-0.527049">
        <ele>563.5891723632812</ele>
        <time>2020-06-14T21:50:16.119Z</time>
      </trkpt>
      <trkpt lat="40.06871" lon="-0.526975">
        <ele>560.2201538085938</ele>
        <time>2020-06-14T21:50:17.704Z</time>
      </trkpt>
      <trkpt lat="40.068827" lon="-0.526918">
        <ele>555.2312622070312</ele>
        <time>2020-06-14T21:50:19.292Z</time>
      </trkpt>
      <trkpt lat="40.06894" lon="-0.526839">
        <ele>548.197998046875</ele>
        <time>2020-06-14T21:50:20.882Z</time>
      </trkpt>
      <trkpt lat="40.069096" lon="-0.526744">
        <ele>538.9439697265625</ele>
        <time>2020-06-14T21:50:22.476Z</time>
      </trkpt>
      <trkpt lat="40.068996" lon="-0.526662">
        <ele>540.2469482421875</ele>
        <time>2020-06-14T21:50:24.072Z</time>
      </trkpt>
      <trkpt lat="40.068834" lon="-0.526683">
        <ele>547.3413696289062</ele>
        <time>2020-06-14T21:50:25.671Z</time>
      </trkpt>
      <trkpt lat="40.068666" lon="-0.526715">
        <ele>552.2726440429688</ele>
        <time>2020-06-14T21:50:27.274Z</time>
      </trkpt>
      <trkpt lat="40.068585" lon="-0.52671">
        <ele>552.9853515625</ele>
        <time>2020-06-14T21:50:28.878Z</time>
      </trkpt>
      <trkpt lat="40.068555" lon="-0.526656">
        <ele>551.5599975585938</ele>
        <time>2020-06-14T21:50:30.483Z</time>
      </trkpt>
      <trkpt lat="40.068616" lon="-0.526503">
        <ele>545.9449462890625</ele>
        <time>2020-06-14T21:50:32.091Z</time>
      </trkpt>
      <trkpt lat="40.068667" lon="-0.526486">
        <ele>544.843505859375</ele>
        <time>2020-06-14T21:50:33.700Z</time>
      </trkpt>
      <trkpt lat="40.068754" lon="-0.52651">
        <ele>544.6815185546875</ele>
        <time>2020-06-14T21:50:35.311Z</time>
      </trkpt>
      <trkpt lat="40.068875" lon="-0.526443">
        <ele>537.943359375</ele>
        <time>2020-06-14T21:50:36.924Z</time>
      </trkpt>
      <trkpt lat="40.069027" lon="-0.526264">
        <ele>527.707275390625</ele>
        <time>2020-06-14T21:50:38.541Z</time>
      </trkpt>
      <trkpt lat="40.069165" lon="-0.526231">
        <ele>521.8870849609375</ele>
        <time>2020-06-14T21:50:40.161Z</time>
      </trkpt>
      <trkpt lat="40.069137" lon="-0.526156">
        <ele>522.185791015625</ele>
        <time>2020-06-14T21:50:41.783Z</time>
      </trkpt>
      <trkpt lat="40.069022" lon="-0.526072">
        <ele>525.71337890625</ele>
        <time>2020-06-14T21:50:43.407Z</time>
      </trkpt>
      <trkpt lat="40.068912" lon="-0.525991">
        <ele>524.6107788085938</ele>
        <time>2020-06-14T21:50:45.034Z</time>
      </trkpt>
      <trkpt lat="40.068753" lon="-0.525865">
        <ele>522.5283203125</ele>
        <time>2020-06-14T21:50:46.664Z</time>
      </trkpt>
      <trkpt lat="40.068709" lon="-0.525838">
        <ele>521.377685546875</ele>
        <time>2020-06-14T21:50:48.295Z</time>
      </trkpt>
      <trkpt lat="40.068529" lon="-0.525849">
        <ele>520.8966064453125</ele>
        <time>2020-06-14T21:50:49.930Z</time>
      </trkpt>
      <trkpt lat="40.068291" lon="-0.525777">
        <ele>517.9599609375</ele>
        <time>2020-06-14T21:50:51.570Z</time>
      </trkpt>
      <trkpt lat="40.06826" lon="-0.525787">
        <ele>518.2347412109375</ele>
        <time>2020-06-14T21:50:53.210Z</time>
      </trkpt>
      <trkpt lat="40.068086" lon="-0.525883">
        <ele>521.0206909179688</ele>
        <time>2020-06-14T21:50:54.854Z</time>
      </trkpt>
      <trkpt lat="40.06788" lon="-0.525987">
        <ele>523.2648315429688</ele>
        <time>2020-06-14T21:50:56.503Z</time>
      </trkpt>
      <trkpt lat="40.067752" lon="-0.526045">
        <ele>522.924072265625</ele>
        <time>2020-06-14T21:50:58.154Z</time>
      </trkpt>
      <trkpt lat="40.067826" lon="-0.525967">
        <ele>521.73388671875</ele>
        <time>2020-06-14T21:50:59.807Z</time>
      </trkpt>
      <trkpt lat="40.067972" lon="-0.525823">
        <ele>519.01220703125</ele>
        <time>2020-06-14T21:51:01.464Z</time>
      </trkpt>
      <trkpt lat="40.067979" lon="-0.525661">
        <ele>513.967041015625</ele>
        <time>2020-06-14T21:51:03.123Z</time>
      </trkpt>
      <trkpt lat="40.067975" lon="-0.525618">
        <ele>512.620849609375</ele>
        <time>2020-06-14T21:51:04.783Z</time>
      </trkpt>
      <trkpt lat="40.06796" lon="-0.525507">
        <ele>509.1402587890625</ele>
        <time>2020-06-14T21:51:06.445Z</time>
      </trkpt>
      <trkpt lat="40.067955" lon="-0.525504">
        <ele>509.0406494140625</ele>
        <time>2020-06-14T21:51:08.107Z</time>
      </trkpt>
      <trkpt lat="40.067967" lon="-0.525447">
        <ele>507.9758605957031</ele>
        <time>2020-06-14T21:51:09.770Z</time>
      </trkpt>
      <trkpt lat="40.068179" lon="-0.525368">
        <ele>506.5325012207031</ele>
        <time>2020-06-14T21:51:11.437Z</time>
      </trkpt>
      <trkpt lat="40.06835" lon="-0.525285">
        <ele>505.04473876953125</ele>
        <time>2020-06-14T21:51:13.108Z</time>
      </trkpt>
      <trkpt lat="40.068491" lon="-0.525174">
        <ele>502.94989013671875</ele>
        <time>2020-06-14T21:51:14.782Z</time>
      </trkpt>
      <trkpt lat="40.068454" lon="-0.524963">
        <ele>498.6737976074219</ele>
        <time>2020-06-14T21:51:16.460Z</time>
      </trkpt>
      <trkpt lat="40.068399" lon="-0.524765">
        <ele>495.7834777832031</ele>
        <time>2020-06-14T21:51:18.141Z</time>
      </trkpt>
      <trkpt lat="40.068369" lon="-0.524573">
        <ele>492.3133544921875</ele>
        <time>2020-06-14T21:51:19.825Z</time>
      </trkpt>
      <trkpt lat="40.068388" lon="-0.524456">
        <ele>489.7181701660156</ele>
        <time>2020-06-14T21:51:21.511Z</time>
      </trkpt>
      <trkpt lat="40.068394" lon="-0.524361">
        <ele>487.6449279785156</ele>
        <time>2020-06-14T21:51:23.198Z</time>
      </trkpt>
      <trkpt lat="40.068407" lon="-0.524173">
        <ele>483.67138671875</ele>
        <time>2020-06-14T21:51:24.888Z</time>
      </trkpt>
      <trkpt lat="40.068392" lon="-0.524143">
        <ele>483.40142822265625</ele>
        <time>2020-06-14T21:51:26.579Z</time>
      </trkpt>
      <trkpt lat="40.068338" lon="-0.52393">
        <ele>480.9178466796875</ele>
        <time>2020-06-14T21:51:28.273Z</time>
      </trkpt>
      <trkpt lat="40.068316" lon="-0.523924">
        <ele>481.0690002441406</ele>
        <time>2020-06-14T21:51:29.967Z</time>
      </trkpt>
      <trkpt lat="40.068249" lon="-0.523686">
        <ele>478.1849670410156</ele>
        <time>2020-06-14T21:51:31.665Z</time>
      </trkpt>
      <trkpt lat="40.068243" lon="-0.523672">
        <ele>478.0313720703125</ele>
        <time>2020-06-14T21:51:33.364Z</time>
      </trkpt>
      <trkpt lat="40.068281" lon="-0.523464">
        <ele>474.4730224609375</ele>
        <time>2020-06-14T21:51:35.066Z</time>
      </trkpt>
      <trkpt lat="40.068316" lon="-0.523263">
        <ele>471.7566833496094</ele>
        <time>2020-06-14T21:51:36.771Z</time>
      </trkpt>
      <trkpt lat="40.068363" lon="-0.523207">
        <ele>470.4189147949219</ele>
        <time>2020-06-14T21:51:38.477Z</time>
      </trkpt>
      <trkpt lat="40.068332" lon="-0.523226">
        <ele>471.10760498046875</ele>
        <time>2020-06-14T21:51:40.184Z</time>
      </trkpt>
      <trkpt lat="40.068269" lon="-0.523027">
        <ele>469.9413757324219</ele>
        <time>2020-06-14T21:51:41.894Z</time>
      </trkpt>
      <trkpt lat="40.06819769711859" lon="-0.5229121231334506">
        <ele>470.0318603515625</ele>
        <time>2020-06-14T21:51:43.607Z</time>
      </trkpt>
    </trkseg>
  </trk>
</gpx>
